<?xml version="1.0" encoding="UTF-8" standalone="no" ?>
<gpx xmlns="http://www.topografix.com/GPX/1/1" xmlns:xsi="http://www.w3.org/2001/XMLSchema-instance" xsi:schemaLocation="http://www.topografix.com/GPX/1/1 http://www.topografix.com/GPX/1/1/gpx.xsd" version="1.1" creator="VisuGPX - https://www.visugpx.com">
  <metadata>
    <name>Entre Grésigne et Aveyron</name>
    <desc><![CDATA[Boucle plutôt sportive (environ 70km, 1500 m de dénivelé positif), des paysages magnifiques, autour de villages chargés d'Histoire : Penne, Bruniquel et Puycelci, serpentant entre les gorges creusées par les méandres de l'Aveyron et les épais feuillages de la forêt de Grésigne ]]></desc>
  </metadata>
  <trk>
    <name><![CDATA[Entre Grésigne et Aveyron_1]]></name>
    <trkseg>
      <trkpt lat="44.05323" lon="1.74629">
        <ele>457</ele>
        <time>2011-03-05T13:15:20Z</time>
      </trkpt>
      <trkpt lat="44.0535" lon="1.74613">
        <ele>455</ele>
        <time>2011-03-05T13:15:32Z</time>
      </trkpt>
      <trkpt lat="44.05355" lon="1.74611">
        <ele>455</ele>
        <time>2011-03-05T13:15:33Z</time>
      </trkpt>
      <trkpt lat="44.05365" lon="1.74602">
        <ele>454</ele>
        <time>2011-03-05T13:15:35Z</time>
      </trkpt>
      <trkpt lat="44.0537" lon="1.74595">
        <ele>453</ele>
        <time>2011-03-05T13:15:36Z</time>
      </trkpt>
      <trkpt lat="44.05373" lon="1.74588">
        <ele>452</ele>
        <time>2011-03-05T13:15:37Z</time>
      </trkpt>
      <trkpt lat="44.05381" lon="1.74575">
        <ele>450</ele>
        <time>2011-03-05T13:15:39Z</time>
      </trkpt>
      <trkpt lat="44.05384" lon="1.74572">
        <ele>449</ele>
        <time>2011-03-05T13:15:40Z</time>
      </trkpt>
      <trkpt lat="44.05387" lon="1.74571">
        <ele>448</ele>
        <time>2011-03-05T13:15:41Z</time>
      </trkpt>
      <trkpt lat="44.0539" lon="1.74572">
        <ele>448</ele>
        <time>2011-03-05T13:15:42Z</time>
      </trkpt>
      <trkpt lat="44.05391" lon="1.74575">
        <ele>447</ele>
        <time>2011-03-05T13:15:43Z</time>
      </trkpt>
      <trkpt lat="44.05391" lon="1.74577">
        <ele>446</ele>
        <time>2011-03-05T13:15:44Z</time>
      </trkpt>
      <trkpt lat="44.05388" lon="1.7458">
        <ele>446</ele>
        <time>2011-03-05T13:15:46Z</time>
      </trkpt>
      <trkpt lat="44.05387" lon="1.74583">
        <ele>445</ele>
        <time>2011-03-05T13:15:47Z</time>
      </trkpt>
      <trkpt lat="44.05386" lon="1.74591">
        <ele>445</ele>
        <time>2011-03-05T13:15:49Z</time>
      </trkpt>
      <trkpt lat="44.05385" lon="1.74605">
        <ele>444</ele>
        <time>2011-03-05T13:15:51Z</time>
      </trkpt>
      <trkpt lat="44.05385" lon="1.74621">
        <ele>443</ele>
        <time>2011-03-05T13:15:53Z</time>
      </trkpt>
      <trkpt lat="44.05389" lon="1.74656">
        <ele>441</ele>
        <time>2011-03-05T13:15:58Z</time>
      </trkpt>
      <trkpt lat="44.05396" lon="1.74679">
        <ele>440</ele>
        <time>2011-03-05T13:16:02Z</time>
      </trkpt>
      <trkpt lat="44.05414" lon="1.74716">
        <ele>439</ele>
        <time>2011-03-05T13:16:08Z</time>
      </trkpt>
      <trkpt lat="44.0542" lon="1.74726">
        <ele>439</ele>
        <time>2011-03-05T13:16:10Z</time>
      </trkpt>
      <trkpt lat="44.05429" lon="1.74749">
        <ele>438</ele>
        <time>2011-03-05T13:16:14Z</time>
      </trkpt>
      <trkpt lat="44.0543" lon="1.74755">
        <ele>438</ele>
        <time>2011-03-05T13:16:15Z</time>
      </trkpt>
      <trkpt lat="44.05433" lon="1.74778">
        <ele>438</ele>
        <time>2011-03-05T13:16:18Z</time>
      </trkpt>
      <trkpt lat="44.05433" lon="1.74807">
        <ele>435</ele>
        <time>2011-03-05T13:16:21Z</time>
      </trkpt>
      <trkpt lat="44.05435" lon="1.74827">
        <ele>433</ele>
        <time>2011-03-05T13:16:23Z</time>
      </trkpt>
      <trkpt lat="44.05437" lon="1.74836">
        <ele>433</ele>
        <time>2011-03-05T13:16:24Z</time>
      </trkpt>
      <trkpt lat="44.05454" lon="1.74883">
        <ele>430</ele>
        <time>2011-03-05T13:16:29Z</time>
      </trkpt>
      <trkpt lat="44.05457" lon="1.7489">
        <ele>429</ele>
        <time>2011-03-05T13:16:30Z</time>
      </trkpt>
      <trkpt lat="44.05458" lon="1.74894">
        <ele>428</ele>
        <time>2011-03-05T13:16:31Z</time>
      </trkpt>
      <trkpt lat="44.05458" lon="1.74897">
        <ele>427</ele>
        <time>2011-03-05T13:16:32Z</time>
      </trkpt>
      <trkpt lat="44.05457" lon="1.74901">
        <ele>426</ele>
        <time>2011-03-05T13:16:34Z</time>
      </trkpt>
      <trkpt lat="44.05458" lon="1.74908">
        <ele>425</ele>
        <time>2011-03-05T13:16:36Z</time>
      </trkpt>
      <trkpt lat="44.05462" lon="1.74916">
        <ele>424</ele>
        <time>2011-03-05T13:16:38Z</time>
      </trkpt>
      <trkpt lat="44.05466" lon="1.74923">
        <ele>423</ele>
        <time>2011-03-05T13:16:40Z</time>
      </trkpt>
      <trkpt lat="44.05471" lon="1.74931">
        <ele>423</ele>
        <time>2011-03-05T13:16:42Z</time>
      </trkpt>
      <trkpt lat="44.05474" lon="1.74942">
        <ele>422</ele>
        <time>2011-03-05T13:16:44Z</time>
      </trkpt>
      <trkpt lat="44.05475" lon="1.74955">
        <ele>420</ele>
        <time>2011-03-05T13:16:47Z</time>
      </trkpt>
      <trkpt lat="44.05479" lon="1.74966">
        <ele>419</ele>
        <time>2011-03-05T13:16:49Z</time>
      </trkpt>
      <trkpt lat="44.05479" lon="1.74971">
        <ele>419</ele>
        <time>2011-03-05T13:16:50Z</time>
      </trkpt>
      <trkpt lat="44.05486" lon="1.74992">
        <ele>418</ele>
        <time>2011-03-05T13:16:54Z</time>
      </trkpt>
      <trkpt lat="44.05488" lon="1.74997">
        <ele>418</ele>
        <time>2011-03-05T13:16:55Z</time>
      </trkpt>
      <trkpt lat="44.05492" lon="1.75012">
        <ele>418</ele>
        <time>2011-03-05T13:16:58Z</time>
      </trkpt>
      <trkpt lat="44.05494" lon="1.75016">
        <ele>418</ele>
        <time>2011-03-05T13:16:59Z</time>
      </trkpt>
      <trkpt lat="44.05498" lon="1.75026">
        <ele>418</ele>
        <time>2011-03-05T13:17:03Z</time>
      </trkpt>
      <trkpt lat="44.05506" lon="1.75033">
        <ele>420</ele>
        <time>2011-03-05T13:17:12Z</time>
      </trkpt>
      <trkpt lat="44.05507" lon="1.75034">
        <ele>420</ele>
        <time>2011-03-05T13:17:13Z</time>
      </trkpt>
      <trkpt lat="44.05506" lon="1.75036">
        <ele>420</ele>
        <time>2011-03-05T13:17:15Z</time>
      </trkpt>
      <trkpt lat="44.05499" lon="1.75042">
        <ele>420</ele>
        <time>2011-03-05T13:17:22Z</time>
      </trkpt>
      <trkpt lat="44.0549" lon="1.75046">
        <ele>420</ele>
        <time>2011-03-05T13:17:32Z</time>
      </trkpt>
      <trkpt lat="44.05485" lon="1.75053">
        <ele>420</ele>
        <time>2011-03-05T13:17:38Z</time>
      </trkpt>
      <trkpt lat="44.05483" lon="1.75059">
        <ele>420</ele>
        <time>2011-03-05T13:17:41Z</time>
      </trkpt>
      <trkpt lat="44.05483" lon="1.75061">
        <ele>420</ele>
        <time>2011-03-05T13:17:42Z</time>
      </trkpt>
      <trkpt lat="44.05486" lon="1.75067">
        <ele>422</ele>
        <time>2011-03-05T13:17:45Z</time>
      </trkpt>
      <trkpt lat="44.05488" lon="1.75068">
        <ele>423</ele>
        <time>2011-03-05T13:17:46Z</time>
      </trkpt>
      <trkpt lat="44.05491" lon="1.75076">
        <ele>423</ele>
        <time>2011-03-05T13:17:51Z</time>
      </trkpt>
      <trkpt lat="44.05496" lon="1.75083">
        <ele>423</ele>
        <time>2011-03-05T13:17:56Z</time>
      </trkpt>
      <trkpt lat="44.055" lon="1.75083">
        <ele>423</ele>
        <time>2011-03-05T13:17:59Z</time>
      </trkpt>
      <trkpt lat="44.05511" lon="1.75083">
        <ele>424</ele>
        <time>2011-03-05T13:18:03Z</time>
      </trkpt>
      <trkpt lat="44.05521" lon="1.75079">
        <ele>424</ele>
        <time>2011-03-05T13:18:06Z</time>
      </trkpt>
      <trkpt lat="44.05532" lon="1.75077">
        <ele>424</ele>
        <time>2011-03-05T13:18:09Z</time>
      </trkpt>
      <trkpt lat="44.05545" lon="1.75074">
        <ele>426</ele>
        <time>2011-03-05T13:18:13Z</time>
      </trkpt>
      <trkpt lat="44.0555" lon="1.75074">
        <ele>426</ele>
        <time>2011-03-05T13:18:15Z</time>
      </trkpt>
      <trkpt lat="44.05559" lon="1.7507">
        <ele>426</ele>
        <time>2011-03-05T13:18:19Z</time>
      </trkpt>
      <trkpt lat="44.05565" lon="1.75066">
        <ele>426</ele>
        <time>2011-03-05T13:18:22Z</time>
      </trkpt>
      <trkpt lat="44.0557" lon="1.7506">
        <ele>426</ele>
        <time>2011-03-05T13:18:24Z</time>
      </trkpt>
      <trkpt lat="44.05571" lon="1.75057">
        <ele>426</ele>
        <time>2011-03-05T13:18:25Z</time>
      </trkpt>
      <trkpt lat="44.05576" lon="1.75051">
        <ele>426</ele>
        <time>2011-03-05T13:18:27Z</time>
      </trkpt>
      <trkpt lat="44.05582" lon="1.75045">
        <ele>426</ele>
        <time>2011-03-05T13:18:32Z</time>
      </trkpt>
      <trkpt lat="44.05584" lon="1.75041">
        <ele>426</ele>
        <time>2011-03-05T13:18:36Z</time>
      </trkpt>
      <trkpt lat="44.05585" lon="1.75042">
        <ele>424</ele>
        <time>2011-03-05T13:18:38Z</time>
      </trkpt>
      <trkpt lat="44.05588" lon="1.75036">
        <ele>424</ele>
        <time>2011-03-05T13:18:46Z</time>
      </trkpt>
      <trkpt lat="44.05594" lon="1.75031">
        <ele>426</ele>
        <time>2011-03-05T13:18:52Z</time>
      </trkpt>
      <trkpt lat="44.05596" lon="1.75027">
        <ele>426</ele>
        <time>2011-03-05T13:18:55Z</time>
      </trkpt>
      <trkpt lat="44.05596" lon="1.75023">
        <ele>427</ele>
        <time>2011-03-05T13:18:57Z</time>
      </trkpt>
      <trkpt lat="44.056" lon="1.75018">
        <ele>428</ele>
        <time>2011-03-05T13:19:01Z</time>
      </trkpt>
      <trkpt lat="44.05607" lon="1.7502">
        <ele>430</ele>
        <time>2011-03-05T13:19:06Z</time>
      </trkpt>
      <trkpt lat="44.05621" lon="1.75013">
        <ele>430</ele>
        <time>2011-03-05T13:19:17Z</time>
      </trkpt>
      <trkpt lat="44.05623" lon="1.7501">
        <ele>430</ele>
        <time>2011-03-05T13:19:19Z</time>
      </trkpt>
      <trkpt lat="44.05629" lon="1.75004">
        <ele>430</ele>
        <time>2011-03-05T13:19:23Z</time>
      </trkpt>
      <trkpt lat="44.05642" lon="1.74994">
        <ele>430</ele>
        <time>2011-03-05T13:19:33Z</time>
      </trkpt>
      <trkpt lat="44.05644" lon="1.74991">
        <ele>430</ele>
        <time>2011-03-05T13:19:35Z</time>
      </trkpt>
      <trkpt lat="44.05649" lon="1.74987">
        <ele>430</ele>
        <time>2011-03-05T13:19:39Z</time>
      </trkpt>
      <trkpt lat="44.05651" lon="1.74984">
        <ele>430</ele>
        <time>2011-03-05T13:19:41Z</time>
      </trkpt>
      <trkpt lat="44.05655" lon="1.74981">
        <ele>430</ele>
        <time>2011-03-05T13:19:44Z</time>
      </trkpt>
      <trkpt lat="44.05658" lon="1.7498">
        <ele>430</ele>
        <time>2011-03-05T13:19:46Z</time>
      </trkpt>
      <trkpt lat="44.05664" lon="1.74981">
        <ele>430</ele>
        <time>2011-03-05T13:19:49Z</time>
      </trkpt>
      <trkpt lat="44.05667" lon="1.74983">
        <ele>430</ele>
        <time>2011-03-05T13:19:51Z</time>
      </trkpt>
      <trkpt lat="44.0567" lon="1.74987">
        <ele>430</ele>
        <time>2011-03-05T13:19:54Z</time>
      </trkpt>
      <trkpt lat="44.05671" lon="1.74991">
        <ele>430</ele>
        <time>2011-03-05T13:19:56Z</time>
      </trkpt>
      <trkpt lat="44.05669" lon="1.75002">
        <ele>431</ele>
        <time>2011-03-05T13:20:02Z</time>
      </trkpt>
      <trkpt lat="44.05669" lon="1.75008">
        <ele>432</ele>
        <time>2011-03-05T13:20:05Z</time>
      </trkpt>
      <trkpt lat="44.0567" lon="1.75013">
        <ele>434</ele>
        <time>2011-03-05T13:20:08Z</time>
      </trkpt>
      <trkpt lat="44.05674" lon="1.75017">
        <ele>435</ele>
        <time>2011-03-05T13:20:11Z</time>
      </trkpt>
      <trkpt lat="44.05685" lon="1.75035">
        <ele>436</ele>
        <time>2011-03-05T13:20:20Z</time>
      </trkpt>
      <trkpt lat="44.05693" lon="1.75047">
        <ele>437</ele>
        <time>2011-03-05T13:20:26Z</time>
      </trkpt>
      <trkpt lat="44.057" lon="1.75065">
        <ele>439</ele>
        <time>2011-03-05T13:20:33Z</time>
      </trkpt>
      <trkpt lat="44.05701" lon="1.75068">
        <ele>440</ele>
        <time>2011-03-05T13:20:34Z</time>
      </trkpt>
      <trkpt lat="44.05704" lon="1.75074">
        <ele>441</ele>
        <time>2011-03-05T13:20:36Z</time>
      </trkpt>
      <trkpt lat="44.05709" lon="1.75084">
        <ele>442</ele>
        <time>2011-03-05T13:20:39Z</time>
      </trkpt>
      <trkpt lat="44.05715" lon="1.75092">
        <ele>444</ele>
        <time>2011-03-05T13:20:42Z</time>
      </trkpt>
      <trkpt lat="44.05721" lon="1.75101">
        <ele>445</ele>
        <time>2011-03-05T13:20:45Z</time>
      </trkpt>
      <trkpt lat="44.05731" lon="1.75126">
        <ele>447</ele>
        <time>2011-03-05T13:20:53Z</time>
      </trkpt>
      <trkpt lat="44.05735" lon="1.75131">
        <ele>447</ele>
        <time>2011-03-05T13:20:55Z</time>
      </trkpt>
      <trkpt lat="44.0574" lon="1.75143">
        <ele>447</ele>
        <time>2011-03-05T13:20:59Z</time>
      </trkpt>
      <trkpt lat="44.05745" lon="1.7515">
        <ele>447</ele>
        <time>2011-03-05T13:21:02Z</time>
      </trkpt>
      <trkpt lat="44.05752" lon="1.75164">
        <ele>448</ele>
        <time>2011-03-05T13:21:08Z</time>
      </trkpt>
      <trkpt lat="44.05756" lon="1.75179">
        <ele>448</ele>
        <time>2011-03-05T13:21:13Z</time>
      </trkpt>
      <trkpt lat="44.05764" lon="1.75202">
        <ele>448</ele>
        <time>2011-03-05T13:21:20Z</time>
      </trkpt>
      <trkpt lat="44.05764" lon="1.7521">
        <ele>448</ele>
        <time>2011-03-05T13:21:22Z</time>
      </trkpt>
      <trkpt lat="44.05764" lon="1.75219">
        <ele>448</ele>
        <time>2011-03-05T13:21:24Z</time>
      </trkpt>
      <trkpt lat="44.05762" lon="1.75242">
        <ele>448</ele>
        <time>2011-03-05T13:21:28Z</time>
      </trkpt>
      <trkpt lat="44.05756" lon="1.75278">
        <ele>448</ele>
        <time>2011-03-05T13:21:33Z</time>
      </trkpt>
      <trkpt lat="44.05748" lon="1.753">
        <ele>448</ele>
        <time>2011-03-05T13:21:36Z</time>
      </trkpt>
      <trkpt lat="44.05736" lon="1.75326">
        <ele>448</ele>
        <time>2011-03-05T13:21:40Z</time>
      </trkpt>
      <trkpt lat="44.05732" lon="1.7534">
        <ele>447</ele>
        <time>2011-03-05T13:21:42Z</time>
      </trkpt>
      <trkpt lat="44.05729" lon="1.75353">
        <ele>447</ele>
        <time>2011-03-05T13:21:44Z</time>
      </trkpt>
      <trkpt lat="44.05726" lon="1.75379">
        <ele>447</ele>
        <time>2011-03-05T13:21:48Z</time>
      </trkpt>
      <trkpt lat="44.05726" lon="1.75393">
        <ele>446</ele>
        <time>2011-03-05T13:21:50Z</time>
      </trkpt>
      <trkpt lat="44.05724" lon="1.7541">
        <ele>445</ele>
        <time>2011-03-05T13:21:52Z</time>
      </trkpt>
      <trkpt lat="44.05723" lon="1.75418">
        <ele>445</ele>
        <time>2011-03-05T13:21:53Z</time>
      </trkpt>
      <trkpt lat="44.05722" lon="1.75426">
        <ele>445</ele>
        <time>2011-03-05T13:21:54Z</time>
      </trkpt>
      <trkpt lat="44.05721" lon="1.75448">
        <ele>445</ele>
        <time>2011-03-05T13:21:57Z</time>
      </trkpt>
      <trkpt lat="44.05721" lon="1.75469">
        <ele>445</ele>
        <time>2011-03-05T13:22:00Z</time>
      </trkpt>
      <trkpt lat="44.0572" lon="1.75477">
        <ele>445</ele>
        <time>2011-03-05T13:22:01Z</time>
      </trkpt>
      <trkpt lat="44.05719" lon="1.75499">
        <ele>445</ele>
        <time>2011-03-05T13:22:04Z</time>
      </trkpt>
      <trkpt lat="44.05717" lon="1.75513">
        <ele>447</ele>
        <time>2011-03-05T13:22:06Z</time>
      </trkpt>
      <trkpt lat="44.05717" lon="1.75527">
        <ele>449</ele>
        <time>2011-03-05T13:22:08Z</time>
      </trkpt>
      <trkpt lat="44.05718" lon="1.75547">
        <ele>451</ele>
        <time>2011-03-05T13:22:11Z</time>
      </trkpt>
      <trkpt lat="44.05718" lon="1.75559">
        <ele>452</ele>
        <time>2011-03-05T13:22:13Z</time>
      </trkpt>
      <trkpt lat="44.05718" lon="1.75565">
        <ele>452</ele>
        <time>2011-03-05T13:22:14Z</time>
      </trkpt>
      <trkpt lat="44.05715" lon="1.75578">
        <ele>452</ele>
        <time>2011-03-05T13:22:16Z</time>
      </trkpt>
      <trkpt lat="44.05715" lon="1.75585">
        <ele>452</ele>
        <time>2011-03-05T13:22:17Z</time>
      </trkpt>
      <trkpt lat="44.05711" lon="1.75603">
        <ele>452</ele>
        <time>2011-03-05T13:22:20Z</time>
      </trkpt>
      <trkpt lat="44.05708" lon="1.75621">
        <ele>452</ele>
        <time>2011-03-05T13:22:23Z</time>
      </trkpt>
      <trkpt lat="44.05709" lon="1.75628">
        <ele>452</ele>
        <time>2011-03-05T13:22:24Z</time>
      </trkpt>
      <trkpt lat="44.05708" lon="1.75635">
        <ele>452</ele>
        <time>2011-03-05T13:22:25Z</time>
      </trkpt>
      <trkpt lat="44.05708" lon="1.75643">
        <ele>452</ele>
        <time>2011-03-05T13:22:26Z</time>
      </trkpt>
      <trkpt lat="44.05715" lon="1.75672">
        <ele>452</ele>
        <time>2011-03-05T13:22:30Z</time>
      </trkpt>
      <trkpt lat="44.05716" lon="1.75687">
        <ele>452</ele>
        <time>2011-03-05T13:22:32Z</time>
      </trkpt>
      <trkpt lat="44.05722" lon="1.75705">
        <ele>452</ele>
        <time>2011-03-05T13:22:35Z</time>
      </trkpt>
      <trkpt lat="44.05726" lon="1.75722">
        <ele>452</ele>
        <time>2011-03-05T13:22:38Z</time>
      </trkpt>
      <trkpt lat="44.05729" lon="1.75731">
        <ele>452</ele>
        <time>2011-03-05T13:22:40Z</time>
      </trkpt>
      <trkpt lat="44.05744" lon="1.75758">
        <ele>452</ele>
        <time>2011-03-05T13:22:47Z</time>
      </trkpt>
      <trkpt lat="44.05752" lon="1.75768">
        <ele>452</ele>
        <time>2011-03-05T13:22:50Z</time>
      </trkpt>
      <trkpt lat="44.05755" lon="1.75775">
        <ele>452</ele>
        <time>2011-03-05T13:22:52Z</time>
      </trkpt>
      <trkpt lat="44.05757" lon="1.75783">
        <ele>452</ele>
        <time>2011-03-05T13:22:54Z</time>
      </trkpt>
      <trkpt lat="44.05758" lon="1.75815">
        <ele>452</ele>
        <time>2011-03-05T13:23:02Z</time>
      </trkpt>
      <trkpt lat="44.05761" lon="1.75828">
        <ele>452</ele>
        <time>2011-03-05T13:23:05Z</time>
      </trkpt>
      <trkpt lat="44.05764" lon="1.75846">
        <ele>452</ele>
        <time>2011-03-05T13:23:08Z</time>
      </trkpt>
      <trkpt lat="44.05764" lon="1.75857">
        <ele>452</ele>
        <time>2011-03-05T13:23:10Z</time>
      </trkpt>
      <trkpt lat="44.05764" lon="1.7586">
        <ele>452</ele>
        <time>2011-03-05T13:23:11Z</time>
      </trkpt>
      <trkpt lat="44.05766" lon="1.75862">
        <ele>452</ele>
        <time>2011-03-05T13:23:12Z</time>
      </trkpt>
      <trkpt lat="44.05768" lon="1.75861">
        <ele>452</ele>
        <time>2011-03-05T13:23:13Z</time>
      </trkpt>
      <trkpt lat="44.0577" lon="1.75859">
        <ele>452</ele>
        <time>2011-03-05T13:23:14Z</time>
      </trkpt>
      <trkpt lat="44.05778" lon="1.75848">
        <ele>452</ele>
        <time>2011-03-05T13:23:17Z</time>
      </trkpt>
      <trkpt lat="44.05796" lon="1.7583">
        <ele>452</ele>
        <time>2011-03-05T13:23:21Z</time>
      </trkpt>
      <trkpt lat="44.05804" lon="1.75818">
        <ele>452</ele>
        <time>2011-03-05T13:23:23Z</time>
      </trkpt>
      <trkpt lat="44.05823" lon="1.75789">
        <ele>450</ele>
        <time>2011-03-05T13:23:27Z</time>
      </trkpt>
      <trkpt lat="44.05835" lon="1.75776">
        <ele>448</ele>
        <time>2011-03-05T13:23:29Z</time>
      </trkpt>
      <trkpt lat="44.05849" lon="1.75765">
        <ele>446</ele>
        <time>2011-03-05T13:23:31Z</time>
      </trkpt>
      <trkpt lat="44.0587" lon="1.75756">
        <ele>443</ele>
        <time>2011-03-05T13:23:34Z</time>
      </trkpt>
      <trkpt lat="44.05884" lon="1.75753">
        <ele>442</ele>
        <time>2011-03-05T13:23:36Z</time>
      </trkpt>
      <trkpt lat="44.05919" lon="1.75736">
        <ele>439</ele>
        <time>2011-03-05T13:23:42Z</time>
      </trkpt>
      <trkpt lat="44.05931" lon="1.75732">
        <ele>437</ele>
        <time>2011-03-05T13:23:44Z</time>
      </trkpt>
      <trkpt lat="44.05938" lon="1.75731">
        <ele>436</ele>
        <time>2011-03-05T13:23:45Z</time>
      </trkpt>
      <trkpt lat="44.05951" lon="1.7573">
        <ele>435</ele>
        <time>2011-03-05T13:23:47Z</time>
      </trkpt>
      <trkpt lat="44.05968" lon="1.75727">
        <ele>432</ele>
        <time>2011-03-05T13:23:50Z</time>
      </trkpt>
      <trkpt lat="44.05981" lon="1.75723">
        <ele>430</ele>
        <time>2011-03-05T13:23:52Z</time>
      </trkpt>
      <trkpt lat="44.06004" lon="1.75718">
        <ele>427</ele>
        <time>2011-03-05T13:23:55Z</time>
      </trkpt>
      <trkpt lat="44.06032" lon="1.75712">
        <ele>423</ele>
        <time>2011-03-05T13:23:59Z</time>
      </trkpt>
      <trkpt lat="44.06043" lon="1.75712">
        <ele>421</ele>
        <time>2011-03-05T13:24:01Z</time>
      </trkpt>
      <trkpt lat="44.06048" lon="1.7571">
        <ele>420</ele>
        <time>2011-03-05T13:24:02Z</time>
      </trkpt>
      <trkpt lat="44.0606" lon="1.75705">
        <ele>418</ele>
        <time>2011-03-05T13:24:04Z</time>
      </trkpt>
      <trkpt lat="44.06071" lon="1.75703">
        <ele>416</ele>
        <time>2011-03-05T13:24:06Z</time>
      </trkpt>
      <trkpt lat="44.06093" lon="1.75696">
        <ele>412</ele>
        <time>2011-03-05T13:24:10Z</time>
      </trkpt>
      <trkpt lat="44.061" lon="1.75695">
        <ele>411</ele>
        <time>2011-03-05T13:24:11Z</time>
      </trkpt>
      <trkpt lat="44.06106" lon="1.75694">
        <ele>410</ele>
        <time>2011-03-05T13:24:12Z</time>
      </trkpt>
      <trkpt lat="44.06113" lon="1.75693">
        <ele>409</ele>
        <time>2011-03-05T13:24:13Z</time>
      </trkpt>
      <trkpt lat="44.06158" lon="1.75694">
        <ele>403</ele>
        <time>2011-03-05T13:24:19Z</time>
      </trkpt>
      <trkpt lat="44.06194" lon="1.75697">
        <ele>398</ele>
        <time>2011-03-05T13:24:24Z</time>
      </trkpt>
      <trkpt lat="44.06218" lon="1.75698">
        <ele>395</ele>
        <time>2011-03-05T13:24:27Z</time>
      </trkpt>
      <trkpt lat="44.0624" lon="1.75702">
        <ele>393</ele>
        <time>2011-03-05T13:24:30Z</time>
      </trkpt>
      <trkpt lat="44.06255" lon="1.75708">
        <ele>391</ele>
        <time>2011-03-05T13:24:32Z</time>
      </trkpt>
      <trkpt lat="44.063" lon="1.75733">
        <ele>390</ele>
        <time>2011-03-05T13:24:38Z</time>
      </trkpt>
      <trkpt lat="44.06331" lon="1.75744">
        <ele>387</ele>
        <time>2011-03-05T13:24:42Z</time>
      </trkpt>
      <trkpt lat="44.06344" lon="1.75751">
        <ele>385</ele>
        <time>2011-03-05T13:24:44Z</time>
      </trkpt>
      <trkpt lat="44.06357" lon="1.7576">
        <ele>383</ele>
        <time>2011-03-05T13:24:46Z</time>
      </trkpt>
      <trkpt lat="44.06396" lon="1.75793">
        <ele>377</ele>
        <time>2011-03-05T13:24:53Z</time>
      </trkpt>
      <trkpt lat="44.06409" lon="1.75806">
        <ele>374</ele>
        <time>2011-03-05T13:24:56Z</time>
      </trkpt>
      <trkpt lat="44.06416" lon="1.75815">
        <ele>372</ele>
        <time>2011-03-05T13:24:58Z</time>
      </trkpt>
      <trkpt lat="44.06421" lon="1.75827">
        <ele>370</ele>
        <time>2011-03-05T13:25:00Z</time>
      </trkpt>
      <trkpt lat="44.06423" lon="1.75833">
        <ele>369</ele>
        <time>2011-03-05T13:25:01Z</time>
      </trkpt>
      <trkpt lat="44.06425" lon="1.75851">
        <ele>366</ele>
        <time>2011-03-05T13:25:04Z</time>
      </trkpt>
      <trkpt lat="44.06424" lon="1.75859">
        <ele>364</ele>
        <time>2011-03-05T13:25:06Z</time>
      </trkpt>
      <trkpt lat="44.06417" lon="1.75867">
        <ele>362</ele>
        <time>2011-03-05T13:25:08Z</time>
      </trkpt>
      <trkpt lat="44.0641" lon="1.75881">
        <ele>360</ele>
        <time>2011-03-05T13:25:10Z</time>
      </trkpt>
      <trkpt lat="44.064" lon="1.75901">
        <ele>357</ele>
        <time>2011-03-05T13:25:13Z</time>
      </trkpt>
      <trkpt lat="44.06394" lon="1.75911">
        <ele>356</ele>
        <time>2011-03-05T13:25:15Z</time>
      </trkpt>
      <trkpt lat="44.06389" lon="1.75921">
        <ele>355</ele>
        <time>2011-03-05T13:25:17Z</time>
      </trkpt>
      <trkpt lat="44.06386" lon="1.75932">
        <ele>355</ele>
        <time>2011-03-05T13:25:19Z</time>
      </trkpt>
      <trkpt lat="44.06387" lon="1.75936">
        <ele>355</ele>
        <time>2011-03-05T13:25:20Z</time>
      </trkpt>
      <trkpt lat="44.0639" lon="1.75938">
        <ele>355</ele>
        <time>2011-03-05T13:25:21Z</time>
      </trkpt>
      <trkpt lat="44.06394" lon="1.75939">
        <ele>355</ele>
        <time>2011-03-05T13:25:22Z</time>
      </trkpt>
      <trkpt lat="44.06402" lon="1.75938">
        <ele>355</ele>
        <time>2011-03-05T13:25:24Z</time>
      </trkpt>
      <trkpt lat="44.06406" lon="1.75938">
        <ele>355</ele>
        <time>2011-03-05T13:25:25Z</time>
      </trkpt>
      <trkpt lat="44.06414" lon="1.75943">
        <ele>355</ele>
        <time>2011-03-05T13:25:27Z</time>
      </trkpt>
      <trkpt lat="44.06418" lon="1.75944">
        <ele>355</ele>
        <time>2011-03-05T13:25:28Z</time>
      </trkpt>
      <trkpt lat="44.06422" lon="1.75943">
        <ele>354</ele>
        <time>2011-03-05T13:25:29Z</time>
      </trkpt>
      <trkpt lat="44.06427" lon="1.7594">
        <ele>354</ele>
        <time>2011-03-05T13:25:30Z</time>
      </trkpt>
      <trkpt lat="44.06431" lon="1.75936">
        <ele>353</ele>
        <time>2011-03-05T13:25:31Z</time>
      </trkpt>
      <trkpt lat="44.0644" lon="1.75925">
        <ele>352</ele>
        <time>2011-03-05T13:25:33Z</time>
      </trkpt>
      <trkpt lat="44.06451" lon="1.75909">
        <ele>350</ele>
        <time>2011-03-05T13:25:36Z</time>
      </trkpt>
      <trkpt lat="44.06464" lon="1.75894">
        <ele>348</ele>
        <time>2011-03-05T13:25:39Z</time>
      </trkpt>
      <trkpt lat="44.06477" lon="1.75872">
        <ele>344</ele>
        <time>2011-03-05T13:25:43Z</time>
      </trkpt>
      <trkpt lat="44.06486" lon="1.75853">
        <ele>341</ele>
        <time>2011-03-05T13:25:46Z</time>
      </trkpt>
      <trkpt lat="44.06501" lon="1.75832">
        <ele>337</ele>
        <time>2011-03-05T13:25:50Z</time>
      </trkpt>
      <trkpt lat="44.06509" lon="1.75817">
        <ele>334</ele>
        <time>2011-03-05T13:25:53Z</time>
      </trkpt>
      <trkpt lat="44.06531" lon="1.75781">
        <ele>326</ele>
        <time>2011-03-05T13:26:00Z</time>
      </trkpt>
      <trkpt lat="44.06543" lon="1.75767">
        <ele>323</ele>
        <time>2011-03-05T13:26:03Z</time>
      </trkpt>
      <trkpt lat="44.06559" lon="1.75753">
        <ele>320</ele>
        <time>2011-03-05T13:26:06Z</time>
      </trkpt>
      <trkpt lat="44.06565" lon="1.75747">
        <ele>319</ele>
        <time>2011-03-05T13:26:07Z</time>
      </trkpt>
      <trkpt lat="44.06578" lon="1.7573">
        <ele>316</ele>
        <time>2011-03-05T13:26:09Z</time>
      </trkpt>
      <trkpt lat="44.0658" lon="1.75725">
        <ele>315</ele>
        <time>2011-03-05T13:26:10Z</time>
      </trkpt>
      <trkpt lat="44.0658" lon="1.75722">
        <ele>314</ele>
        <time>2011-03-05T13:26:12Z</time>
      </trkpt>
      <trkpt lat="44.06578" lon="1.75717">
        <ele>313</ele>
        <time>2011-03-05T13:26:13Z</time>
      </trkpt>
      <trkpt lat="44.06577" lon="1.75712">
        <ele>312</ele>
        <time>2011-03-05T13:26:14Z</time>
      </trkpt>
      <trkpt lat="44.06573" lon="1.75701">
        <ele>310</ele>
        <time>2011-03-05T13:26:16Z</time>
      </trkpt>
      <trkpt lat="44.0657" lon="1.75688">
        <ele>308</ele>
        <time>2011-03-05T13:26:18Z</time>
      </trkpt>
      <trkpt lat="44.06568" lon="1.7568">
        <ele>307</ele>
        <time>2011-03-05T13:26:19Z</time>
      </trkpt>
      <trkpt lat="44.06567" lon="1.75663">
        <ele>305</ele>
        <time>2011-03-05T13:26:21Z</time>
      </trkpt>
      <trkpt lat="44.06563" lon="1.75648">
        <ele>305</ele>
        <time>2011-03-05T13:26:23Z</time>
      </trkpt>
      <trkpt lat="44.06556" lon="1.75633">
        <ele>305</ele>
        <time>2011-03-05T13:26:25Z</time>
      </trkpt>
      <trkpt lat="44.06549" lon="1.75612">
        <ele>303</ele>
        <time>2011-03-05T13:26:30Z</time>
      </trkpt>
      <trkpt lat="44.06546" lon="1.75602">
        <ele>302</ele>
        <time>2011-03-05T13:26:32Z</time>
      </trkpt>
      <trkpt lat="44.06546" lon="1.75594">
        <ele>301</ele>
        <time>2011-03-05T13:26:34Z</time>
      </trkpt>
      <trkpt lat="44.06542" lon="1.75567">
        <ele>301</ele>
        <time>2011-03-05T13:26:39Z</time>
      </trkpt>
      <trkpt lat="44.06539" lon="1.75542">
        <ele>299</ele>
        <time>2011-03-05T13:26:42Z</time>
      </trkpt>
      <trkpt lat="44.06537" lon="1.75508">
        <ele>297</ele>
        <time>2011-03-05T13:26:45Z</time>
      </trkpt>
      <trkpt lat="44.06537" lon="1.75493">
        <ele>295</ele>
        <time>2011-03-05T13:26:48Z</time>
      </trkpt>
      <trkpt lat="44.0654" lon="1.75467">
        <ele>292</ele>
        <time>2011-03-05T13:26:51Z</time>
      </trkpt>
      <trkpt lat="44.06542" lon="1.7546">
        <ele>292</ele>
        <time>2011-03-05T13:26:52Z</time>
      </trkpt>
      <trkpt lat="44.06545" lon="1.75454">
        <ele>291</ele>
        <time>2011-03-05T13:26:53Z</time>
      </trkpt>
      <trkpt lat="44.06549" lon="1.75449">
        <ele>291</ele>
        <time>2011-03-05T13:26:54Z</time>
      </trkpt>
      <trkpt lat="44.06553" lon="1.75446">
        <ele>290</ele>
        <time>2011-03-05T13:26:55Z</time>
      </trkpt>
      <trkpt lat="44.06573" lon="1.75438">
        <ele>288</ele>
        <time>2011-03-05T13:26:58Z</time>
      </trkpt>
      <trkpt lat="44.06577" lon="1.75436">
        <ele>288</ele>
        <time>2011-03-05T13:27:00Z</time>
      </trkpt>
      <trkpt lat="44.06583" lon="1.75429">
        <ele>287</ele>
        <time>2011-03-05T13:27:01Z</time>
      </trkpt>
      <trkpt lat="44.06597" lon="1.75411">
        <ele>287</ele>
        <time>2011-03-05T13:27:05Z</time>
      </trkpt>
      <trkpt lat="44.06602" lon="1.754">
        <ele>286</ele>
        <time>2011-03-05T13:27:08Z</time>
      </trkpt>
      <trkpt lat="44.06612" lon="1.75369">
        <ele>283</ele>
        <time>2011-03-05T13:27:11Z</time>
      </trkpt>
      <trkpt lat="44.06617" lon="1.75355">
        <ele>282</ele>
        <time>2011-03-05T13:27:14Z</time>
      </trkpt>
      <trkpt lat="44.0662" lon="1.75349">
        <ele>281</ele>
        <time>2011-03-05T13:27:15Z</time>
      </trkpt>
      <trkpt lat="44.06623" lon="1.75345">
        <ele>280</ele>
        <time>2011-03-05T13:27:15Z</time>
      </trkpt>
      <trkpt lat="44.06627" lon="1.75342">
        <ele>280</ele>
        <time>2011-03-05T13:27:16Z</time>
      </trkpt>
      <trkpt lat="44.0663" lon="1.75342">
        <ele>279</ele>
        <time>2011-03-05T13:27:17Z</time>
      </trkpt>
      <trkpt lat="44.06633" lon="1.75343">
        <ele>278</ele>
        <time>2011-03-05T13:27:18Z</time>
      </trkpt>
      <trkpt lat="44.06645" lon="1.75349">
        <ele>275</ele>
        <time>2011-03-05T13:27:21Z</time>
      </trkpt>
      <trkpt lat="44.06656" lon="1.75351">
        <ele>273</ele>
        <time>2011-03-05T13:27:24Z</time>
      </trkpt>
      <trkpt lat="44.06667" lon="1.7535">
        <ele>271</ele>
        <time>2011-03-05T13:27:25Z</time>
      </trkpt>
      <trkpt lat="44.06679" lon="1.75344">
        <ele>268</ele>
        <time>2011-03-05T13:27:28Z</time>
      </trkpt>
      <trkpt lat="44.06691" lon="1.75346">
        <ele>265</ele>
        <time>2011-03-05T13:27:31Z</time>
      </trkpt>
      <trkpt lat="44.06695" lon="1.75346">
        <ele>265</ele>
        <time>2011-03-05T13:27:32Z</time>
      </trkpt>
      <trkpt lat="44.06708" lon="1.75343">
        <ele>263</ele>
        <time>2011-03-05T13:27:35Z</time>
      </trkpt>
      <trkpt lat="44.06717" lon="1.75339">
        <ele>261</ele>
        <time>2011-03-05T13:27:37Z</time>
      </trkpt>
      <trkpt lat="44.06742" lon="1.75332">
        <ele>257</ele>
        <time>2011-03-05T13:27:41Z</time>
      </trkpt>
      <trkpt lat="44.06746" lon="1.75329">
        <ele>257</ele>
        <time>2011-03-05T13:27:43Z</time>
      </trkpt>
      <trkpt lat="44.06747" lon="1.75327">
        <ele>256</ele>
        <time>2011-03-05T13:27:43Z</time>
      </trkpt>
      <trkpt lat="44.06747" lon="1.75324">
        <ele>255</ele>
        <time>2011-03-05T13:27:45Z</time>
      </trkpt>
      <trkpt lat="44.06741" lon="1.75314">
        <ele>253</ele>
        <time>2011-03-05T13:27:48Z</time>
      </trkpt>
      <trkpt lat="44.06734" lon="1.75309">
        <ele>251</ele>
        <time>2011-03-05T13:27:50Z</time>
      </trkpt>
      <trkpt lat="44.06723" lon="1.75306">
        <ele>248</ele>
        <time>2011-03-05T13:27:54Z</time>
      </trkpt>
      <trkpt lat="44.06726" lon="1.75306">
        <ele>247</ele>
        <time>2011-03-05T13:28:01Z</time>
      </trkpt>
      <trkpt lat="44.06722" lon="1.75306">
        <ele>247</ele>
        <time>2011-03-05T13:28:14Z</time>
      </trkpt>
      <trkpt lat="44.06721" lon="1.75305">
        <ele>247</ele>
        <time>2011-03-05T13:28:19Z</time>
      </trkpt>
      <trkpt lat="44.06718" lon="1.75299">
        <ele>247</ele>
        <time>2011-03-05T13:28:25Z</time>
      </trkpt>
      <trkpt lat="44.06717" lon="1.75296">
        <ele>247</ele>
        <time>2011-03-05T13:28:26Z</time>
      </trkpt>
      <trkpt lat="44.06717" lon="1.75292">
        <ele>247</ele>
        <time>2011-03-05T13:28:27Z</time>
      </trkpt>
      <trkpt lat="44.06719" lon="1.75284">
        <ele>247</ele>
        <time>2011-03-05T13:28:29Z</time>
      </trkpt>
      <trkpt lat="44.06724" lon="1.75278">
        <ele>247</ele>
        <time>2011-03-05T13:28:32Z</time>
      </trkpt>
      <trkpt lat="44.06733" lon="1.75265">
        <ele>245</ele>
        <time>2011-03-05T13:28:35Z</time>
      </trkpt>
      <trkpt lat="44.06739" lon="1.75254">
        <ele>244</ele>
        <time>2011-03-05T13:28:37Z</time>
      </trkpt>
      <trkpt lat="44.06746" lon="1.75243">
        <ele>243</ele>
        <time>2011-03-05T13:28:40Z</time>
      </trkpt>
      <trkpt lat="44.06752" lon="1.75236">
        <ele>242</ele>
        <time>2011-03-05T13:28:41Z</time>
      </trkpt>
      <trkpt lat="44.06757" lon="1.75234">
        <ele>240</ele>
        <time>2011-03-05T13:28:49Z</time>
      </trkpt>
      <trkpt lat="44.06754" lon="1.75235">
        <ele>239</ele>
        <time>2011-03-05T13:29:01Z</time>
      </trkpt>
      <trkpt lat="44.06754" lon="1.75234">
        <ele>238</ele>
        <time>2011-03-05T13:29:04Z</time>
      </trkpt>
      <trkpt lat="44.06756" lon="1.75232">
        <ele>238</ele>
        <time>2011-03-05T13:29:17Z</time>
      </trkpt>
      <trkpt lat="44.06757" lon="1.75233">
        <ele>238</ele>
        <time>2011-03-05T13:29:20Z</time>
      </trkpt>
      <trkpt lat="44.06756" lon="1.75234">
        <ele>238</ele>
        <time>2011-03-05T13:29:24Z</time>
      </trkpt>
      <trkpt lat="44.06753" lon="1.75235">
        <ele>237</ele>
        <time>2011-03-05T13:29:28Z</time>
      </trkpt>
      <trkpt lat="44.06752" lon="1.75235">
        <ele>236</ele>
        <time>2011-03-05T13:29:33Z</time>
      </trkpt>
      <trkpt lat="44.06752" lon="1.75232">
        <ele>236</ele>
        <time>2011-03-05T13:29:43Z</time>
      </trkpt>
      <trkpt lat="44.06757" lon="1.75232">
        <ele>236</ele>
        <time>2011-03-05T13:29:48Z</time>
      </trkpt>
      <trkpt lat="44.0676" lon="1.7523">
        <ele>236</ele>
        <time>2011-03-05T13:29:51Z</time>
      </trkpt>
      <trkpt lat="44.06776" lon="1.7523">
        <ele>236</ele>
        <time>2011-03-05T13:30:00Z</time>
      </trkpt>
      <trkpt lat="44.06783" lon="1.75228">
        <ele>236</ele>
        <time>2011-03-05T13:30:02Z</time>
      </trkpt>
      <trkpt lat="44.0679" lon="1.75225">
        <ele>236</ele>
        <time>2011-03-05T13:30:05Z</time>
      </trkpt>
      <trkpt lat="44.06803" lon="1.75217">
        <ele>235</ele>
        <time>2011-03-05T13:30:07Z</time>
      </trkpt>
      <trkpt lat="44.06807" lon="1.75213">
        <ele>234</ele>
        <time>2011-03-05T13:30:08Z</time>
      </trkpt>
      <trkpt lat="44.06823" lon="1.75194">
        <ele>231</ele>
        <time>2011-03-05T13:30:12Z</time>
      </trkpt>
      <trkpt lat="44.06831" lon="1.75186">
        <ele>229</ele>
        <time>2011-03-05T13:30:15Z</time>
      </trkpt>
      <trkpt lat="44.06842" lon="1.75172">
        <ele>227</ele>
        <time>2011-03-05T13:30:17Z</time>
      </trkpt>
      <trkpt lat="44.06867" lon="1.75131">
        <ele>220</ele>
        <time>2011-03-05T13:30:25Z</time>
      </trkpt>
      <trkpt lat="44.06878" lon="1.75117">
        <ele>218</ele>
        <time>2011-03-05T13:30:27Z</time>
      </trkpt>
      <trkpt lat="44.06886" lon="1.75104">
        <ele>215</ele>
        <time>2011-03-05T13:30:30Z</time>
      </trkpt>
      <trkpt lat="44.06892" lon="1.75097">
        <ele>214</ele>
        <time>2011-03-05T13:30:32Z</time>
      </trkpt>
      <trkpt lat="44.06895" lon="1.75094">
        <ele>213</ele>
        <time>2011-03-05T13:30:33Z</time>
      </trkpt>
      <trkpt lat="44.06905" lon="1.75083">
        <ele>212</ele>
        <time>2011-03-05T13:30:36Z</time>
      </trkpt>
      <trkpt lat="44.0691" lon="1.75075">
        <ele>212</ele>
        <time>2011-03-05T13:30:38Z</time>
      </trkpt>
      <trkpt lat="44.06917" lon="1.75068">
        <ele>211</ele>
        <time>2011-03-05T13:30:40Z</time>
      </trkpt>
      <trkpt lat="44.06918" lon="1.75063">
        <ele>211</ele>
        <time>2011-03-05T13:30:41Z</time>
      </trkpt>
      <trkpt lat="44.06928" lon="1.75049">
        <ele>211</ele>
        <time>2011-03-05T13:30:45Z</time>
      </trkpt>
      <trkpt lat="44.06931" lon="1.75047">
        <ele>211</ele>
        <time>2011-03-05T13:30:46Z</time>
      </trkpt>
      <trkpt lat="44.06934" lon="1.75044">
        <ele>211</ele>
        <time>2011-03-05T13:30:46Z</time>
      </trkpt>
      <trkpt lat="44.06942" lon="1.75036">
        <ele>211</ele>
        <time>2011-03-05T13:30:50Z</time>
      </trkpt>
      <trkpt lat="44.06949" lon="1.75032">
        <ele>211</ele>
        <time>2011-03-05T13:30:52Z</time>
      </trkpt>
      <trkpt lat="44.06955" lon="1.75031">
        <ele>210</ele>
        <time>2011-03-05T13:30:54Z</time>
      </trkpt>
      <trkpt lat="44.06961" lon="1.75031">
        <ele>210</ele>
        <time>2011-03-05T13:30:58Z</time>
      </trkpt>
      <trkpt lat="44.06964" lon="1.7503">
        <ele>210</ele>
        <time>2011-03-05T13:31:02Z</time>
      </trkpt>
      <trkpt lat="44.06965" lon="1.75026">
        <ele>210</ele>
        <time>2011-03-05T13:31:05Z</time>
      </trkpt>
      <trkpt lat="44.06966" lon="1.75026">
        <ele>211</ele>
        <time>2011-03-05T13:31:08Z</time>
      </trkpt>
      <trkpt lat="44.06965" lon="1.75025">
        <ele>212</ele>
        <time>2011-03-05T13:31:09Z</time>
      </trkpt>
      <trkpt lat="44.06968" lon="1.75027">
        <ele>213</ele>
        <time>2011-03-05T13:31:15Z</time>
      </trkpt>
      <trkpt lat="44.06971" lon="1.75027">
        <ele>208</ele>
        <time>2011-03-05T13:31:27Z</time>
      </trkpt>
      <trkpt lat="44.06975" lon="1.75031">
        <ele>207</ele>
        <time>2011-03-05T13:31:30Z</time>
      </trkpt>
      <trkpt lat="44.06979" lon="1.75032">
        <ele>206</ele>
        <time>2011-03-05T13:31:32Z</time>
      </trkpt>
      <trkpt lat="44.06992" lon="1.75042">
        <ele>204</ele>
        <time>2011-03-05T13:31:38Z</time>
      </trkpt>
      <trkpt lat="44.06997" lon="1.75046">
        <ele>204</ele>
        <time>2011-03-05T13:31:40Z</time>
      </trkpt>
      <trkpt lat="44.07004" lon="1.75048">
        <ele>204</ele>
        <time>2011-03-05T13:31:42Z</time>
      </trkpt>
      <trkpt lat="44.07014" lon="1.75054">
        <ele>203</ele>
        <time>2011-03-05T13:31:45Z</time>
      </trkpt>
      <trkpt lat="44.07021" lon="1.75062">
        <ele>203</ele>
        <time>2011-03-05T13:31:48Z</time>
      </trkpt>
      <trkpt lat="44.07026" lon="1.75069">
        <ele>202</ele>
        <time>2011-03-05T13:31:50Z</time>
      </trkpt>
      <trkpt lat="44.07037" lon="1.75078">
        <ele>201</ele>
        <time>2011-03-05T13:31:54Z</time>
      </trkpt>
      <trkpt lat="44.07045" lon="1.75085">
        <ele>200</ele>
        <time>2011-03-05T13:31:57Z</time>
      </trkpt>
      <trkpt lat="44.07045" lon="1.75088">
        <ele>200</ele>
        <time>2011-03-05T13:31:58Z</time>
      </trkpt>
      <trkpt lat="44.0705" lon="1.75096">
        <ele>200</ele>
        <time>2011-03-05T13:32:02Z</time>
      </trkpt>
      <trkpt lat="44.07051" lon="1.751">
        <ele>200</ele>
        <time>2011-03-05T13:32:09Z</time>
      </trkpt>
      <trkpt lat="44.07081" lon="1.75121">
        <ele>200</ele>
        <time>2011-03-05T13:32:25Z</time>
      </trkpt>
      <trkpt lat="44.07087" lon="1.75122">
        <ele>200</ele>
        <time>2011-03-05T13:32:27Z</time>
      </trkpt>
      <trkpt lat="44.0709" lon="1.75121">
        <ele>200</ele>
        <time>2011-03-05T13:32:28Z</time>
      </trkpt>
      <trkpt lat="44.07114" lon="1.75103">
        <ele>200</ele>
        <time>2011-03-05T13:32:35Z</time>
      </trkpt>
      <trkpt lat="44.07126" lon="1.75092">
        <ele>200</ele>
        <time>2011-03-05T13:32:37Z</time>
      </trkpt>
      <trkpt lat="44.07138" lon="1.75078">
        <ele>200</ele>
        <time>2011-03-05T13:32:40Z</time>
      </trkpt>
      <trkpt lat="44.07213" lon="1.74991">
        <ele>190</ele>
        <time>2011-03-05T13:32:49Z</time>
      </trkpt>
      <trkpt lat="44.07222" lon="1.74982">
        <ele>189</ele>
        <time>2011-03-05T13:32:50Z</time>
      </trkpt>
      <trkpt lat="44.07239" lon="1.74961">
        <ele>187</ele>
        <time>2011-03-05T13:32:52Z</time>
      </trkpt>
      <trkpt lat="44.07258" lon="1.74946">
        <ele>185</ele>
        <time>2011-03-05T13:32:54Z</time>
      </trkpt>
      <trkpt lat="44.07278" lon="1.74931">
        <ele>183</ele>
        <time>2011-03-05T13:32:56Z</time>
      </trkpt>
      <trkpt lat="44.07317" lon="1.74906">
        <ele>179</ele>
        <time>2011-03-05T13:33:00Z</time>
      </trkpt>
      <trkpt lat="44.07326" lon="1.74899">
        <ele>178</ele>
        <time>2011-03-05T13:33:01Z</time>
      </trkpt>
      <trkpt lat="44.07339" lon="1.74883">
        <ele>176</ele>
        <time>2011-03-05T13:33:03Z</time>
      </trkpt>
      <trkpt lat="44.07346" lon="1.74877">
        <ele>175</ele>
        <time>2011-03-05T13:33:05Z</time>
      </trkpt>
      <trkpt lat="44.07353" lon="1.74873">
        <ele>174</ele>
        <time>2011-03-05T13:33:05Z</time>
      </trkpt>
      <trkpt lat="44.0736" lon="1.74871">
        <ele>172</ele>
        <time>2011-03-05T13:33:06Z</time>
      </trkpt>
      <trkpt lat="44.07373" lon="1.74871">
        <ele>170</ele>
        <time>2011-03-05T13:33:08Z</time>
      </trkpt>
      <trkpt lat="44.07385" lon="1.74874">
        <ele>167</ele>
        <time>2011-03-05T13:33:10Z</time>
      </trkpt>
      <trkpt lat="44.0739" lon="1.74875">
        <ele>166</ele>
        <time>2011-03-05T13:33:11Z</time>
      </trkpt>
      <trkpt lat="44.07394" lon="1.74872">
        <ele>165</ele>
        <time>2011-03-05T13:33:12Z</time>
      </trkpt>
      <trkpt lat="44.07397" lon="1.74867">
        <ele>164</ele>
        <time>2011-03-05T13:33:13Z</time>
      </trkpt>
      <trkpt lat="44.07399" lon="1.74853">
        <ele>161</ele>
        <time>2011-03-05T13:33:15Z</time>
      </trkpt>
      <trkpt lat="44.07399" lon="1.74834">
        <ele>159</ele>
        <time>2011-03-05T13:33:17Z</time>
      </trkpt>
      <trkpt lat="44.074" lon="1.74815">
        <ele>157</ele>
        <time>2011-03-05T13:33:20Z</time>
      </trkpt>
      <trkpt lat="44.07405" lon="1.7479">
        <ele>156</ele>
        <time>2011-03-05T13:33:22Z</time>
      </trkpt>
      <trkpt lat="44.07418" lon="1.74758">
        <ele>156</ele>
        <time>2011-03-05T13:33:27Z</time>
      </trkpt>
      <trkpt lat="44.07423" lon="1.74749">
        <ele>156</ele>
        <time>2011-03-05T13:33:30Z</time>
      </trkpt>
      <trkpt lat="44.07432" lon="1.74737">
        <ele>157</ele>
        <time>2011-03-05T13:33:32Z</time>
      </trkpt>
      <trkpt lat="44.07438" lon="1.74725">
        <ele>157</ele>
        <time>2011-03-05T13:33:36Z</time>
      </trkpt>
      <trkpt lat="44.0744" lon="1.74724">
        <ele>158</ele>
        <time>2011-03-05T13:33:36Z</time>
      </trkpt>
      <trkpt lat="44.07442" lon="1.74725">
        <ele>158</ele>
        <time>2011-03-05T13:33:37Z</time>
      </trkpt>
      <trkpt lat="44.07444" lon="1.74726">
        <ele>158</ele>
        <time>2011-03-05T13:33:38Z</time>
      </trkpt>
      <trkpt lat="44.07444" lon="1.74729">
        <ele>158</ele>
        <time>2011-03-05T13:33:39Z</time>
      </trkpt>
      <trkpt lat="44.07444" lon="1.74731">
        <ele>159</ele>
        <time>2011-03-05T13:33:41Z</time>
      </trkpt>
      <trkpt lat="44.07446" lon="1.74733">
        <ele>159</ele>
        <time>2011-03-05T13:33:41Z</time>
      </trkpt>
      <trkpt lat="44.07447" lon="1.74732">
        <ele>159</ele>
        <time>2011-03-05T13:33:42Z</time>
      </trkpt>
      <trkpt lat="44.07449" lon="1.74731">
        <ele>159</ele>
        <time>2011-03-05T13:33:43Z</time>
      </trkpt>
      <trkpt lat="44.07449" lon="1.74724">
        <ele>160</ele>
        <time>2011-03-05T13:33:46Z</time>
      </trkpt>
      <trkpt lat="44.07451" lon="1.74722">
        <ele>160</ele>
        <time>2011-03-05T13:33:47Z</time>
      </trkpt>
      <trkpt lat="44.07452" lon="1.74722">
        <ele>160</ele>
        <time>2011-03-05T13:33:48Z</time>
      </trkpt>
      <trkpt lat="44.07454" lon="1.74723">
        <ele>160</ele>
        <time>2011-03-05T13:33:49Z</time>
      </trkpt>
      <trkpt lat="44.07456" lon="1.7473">
        <ele>160</ele>
        <time>2011-03-05T13:33:52Z</time>
      </trkpt>
      <trkpt lat="44.07459" lon="1.74731">
        <ele>161</ele>
        <time>2011-03-05T13:33:54Z</time>
      </trkpt>
      <trkpt lat="44.07473" lon="1.74728">
        <ele>163</ele>
        <time>2011-03-05T13:34:01Z</time>
      </trkpt>
      <trkpt lat="44.0748" lon="1.74724">
        <ele>164</ele>
        <time>2011-03-05T13:34:06Z</time>
      </trkpt>
      <trkpt lat="44.07489" lon="1.74717">
        <ele>166</ele>
        <time>2011-03-05T13:34:11Z</time>
      </trkpt>
      <trkpt lat="44.07513" lon="1.74701">
        <ele>173</ele>
        <time>2011-03-05T13:34:27Z</time>
      </trkpt>
      <trkpt lat="44.0752" lon="1.74695">
        <ele>174</ele>
        <time>2011-03-05T13:34:32Z</time>
      </trkpt>
      <trkpt lat="44.07525" lon="1.74688">
        <ele>176</ele>
        <time>2011-03-05T13:34:38Z</time>
      </trkpt>
      <trkpt lat="44.07526" lon="1.74681">
        <ele>177</ele>
        <time>2011-03-05T13:34:40Z</time>
      </trkpt>
      <trkpt lat="44.07532" lon="1.74668">
        <ele>179</ele>
        <time>2011-03-05T13:34:48Z</time>
      </trkpt>
      <trkpt lat="44.07535" lon="1.74664">
        <ele>179</ele>
        <time>2011-03-05T13:34:49Z</time>
      </trkpt>
      <trkpt lat="44.07535" lon="1.7466">
        <ele>180</ele>
        <time>2011-03-05T13:34:51Z</time>
      </trkpt>
      <trkpt lat="44.07538" lon="1.74653">
        <ele>182</ele>
        <time>2011-03-05T13:34:54Z</time>
      </trkpt>
      <trkpt lat="44.07544" lon="1.74646">
        <ele>184</ele>
        <time>2011-03-05T13:34:59Z</time>
      </trkpt>
      <trkpt lat="44.07551" lon="1.74628">
        <ele>184</ele>
        <time>2011-03-05T13:35:08Z</time>
      </trkpt>
      <trkpt lat="44.07555" lon="1.74621">
        <ele>184</ele>
        <time>2011-03-05T13:35:13Z</time>
      </trkpt>
      <trkpt lat="44.07556" lon="1.74617">
        <ele>184</ele>
        <time>2011-03-05T13:35:14Z</time>
      </trkpt>
      <trkpt lat="44.07563" lon="1.74596">
        <ele>186</ele>
        <time>2011-03-05T13:35:26Z</time>
      </trkpt>
      <trkpt lat="44.0757" lon="1.74582">
        <ele>187</ele>
        <time>2011-03-05T13:35:34Z</time>
      </trkpt>
      <trkpt lat="44.07571" lon="1.74578">
        <ele>188</ele>
        <time>2011-03-05T13:35:36Z</time>
      </trkpt>
      <trkpt lat="44.07579" lon="1.7456">
        <ele>191</ele>
        <time>2011-03-05T13:35:47Z</time>
      </trkpt>
      <trkpt lat="44.07596" lon="1.74541">
        <ele>192</ele>
        <time>2011-03-05T13:36:03Z</time>
      </trkpt>
      <trkpt lat="44.07607" lon="1.74522">
        <ele>192</ele>
        <time>2011-03-05T13:36:13Z</time>
      </trkpt>
      <trkpt lat="44.07608" lon="1.74519">
        <ele>193</ele>
        <time>2011-03-05T13:36:16Z</time>
      </trkpt>
      <trkpt lat="44.07615" lon="1.74511">
        <ele>194</ele>
        <time>2011-03-05T13:36:21Z</time>
      </trkpt>
      <trkpt lat="44.0762" lon="1.74506">
        <ele>195</ele>
        <time>2011-03-05T13:36:24Z</time>
      </trkpt>
      <trkpt lat="44.07625" lon="1.74501">
        <ele>196</ele>
        <time>2011-03-05T13:36:29Z</time>
      </trkpt>
      <trkpt lat="44.07628" lon="1.74498">
        <ele>196</ele>
        <time>2011-03-05T13:36:30Z</time>
      </trkpt>
      <trkpt lat="44.07631" lon="1.74498">
        <ele>196</ele>
        <time>2011-03-05T13:36:33Z</time>
      </trkpt>
      <trkpt lat="44.07642" lon="1.74492">
        <ele>196</ele>
        <time>2011-03-05T13:36:39Z</time>
      </trkpt>
      <trkpt lat="44.07647" lon="1.74492">
        <ele>197</ele>
        <time>2011-03-05T13:36:44Z</time>
      </trkpt>
      <trkpt lat="44.07649" lon="1.74493">
        <ele>197</ele>
        <time>2011-03-05T13:36:44Z</time>
      </trkpt>
      <trkpt lat="44.07651" lon="1.74495">
        <ele>198</ele>
        <time>2011-03-05T13:36:46Z</time>
      </trkpt>
      <trkpt lat="44.07653" lon="1.745">
        <ele>199</ele>
        <time>2011-03-05T13:36:50Z</time>
      </trkpt>
      <trkpt lat="44.07657" lon="1.74503">
        <ele>200</ele>
        <time>2011-03-05T13:36:52Z</time>
      </trkpt>
      <trkpt lat="44.07661" lon="1.74503">
        <ele>201</ele>
        <time>2011-03-05T13:36:55Z</time>
      </trkpt>
      <trkpt lat="44.0767" lon="1.745">
        <ele>201</ele>
        <time>2011-03-05T13:37:00Z</time>
      </trkpt>
      <trkpt lat="44.07687" lon="1.74496">
        <ele>201</ele>
        <time>2011-03-05T13:37:06Z</time>
      </trkpt>
      <trkpt lat="44.07705" lon="1.74496">
        <ele>201</ele>
        <time>2011-03-05T13:37:12Z</time>
      </trkpt>
      <trkpt lat="44.07732" lon="1.74494">
        <ele>202</ele>
        <time>2011-03-05T13:37:18Z</time>
      </trkpt>
      <trkpt lat="44.07748" lon="1.74489">
        <ele>202</ele>
        <time>2011-03-05T13:37:21Z</time>
      </trkpt>
      <trkpt lat="44.07813" lon="1.74463">
        <ele>202</ele>
        <time>2011-03-05T13:37:32Z</time>
      </trkpt>
      <trkpt lat="44.0782" lon="1.74459">
        <ele>202</ele>
        <time>2011-03-05T13:37:33Z</time>
      </trkpt>
      <trkpt lat="44.07849" lon="1.74429">
        <ele>202</ele>
        <time>2011-03-05T13:37:38Z</time>
      </trkpt>
      <trkpt lat="44.07862" lon="1.74417">
        <ele>202</ele>
        <time>2011-03-05T13:37:40Z</time>
      </trkpt>
      <trkpt lat="44.07876" lon="1.74408">
        <ele>201</ele>
        <time>2011-03-05T13:37:42Z</time>
      </trkpt>
      <trkpt lat="44.07884" lon="1.74405">
        <ele>201</ele>
        <time>2011-03-05T13:37:43Z</time>
      </trkpt>
      <trkpt lat="44.07899" lon="1.744">
        <ele>201</ele>
        <time>2011-03-05T13:37:45Z</time>
      </trkpt>
      <trkpt lat="44.07971" lon="1.74391">
        <ele>199</ele>
        <time>2011-03-05T13:37:55Z</time>
      </trkpt>
      <trkpt lat="44.07993" lon="1.7439">
        <ele>198</ele>
        <time>2011-03-05T13:37:58Z</time>
      </trkpt>
      <trkpt lat="44.08042" lon="1.74383">
        <ele>195</ele>
        <time>2011-03-05T13:38:04Z</time>
      </trkpt>
      <trkpt lat="44.0806" lon="1.74382">
        <ele>194</ele>
        <time>2011-03-05T13:38:06Z</time>
      </trkpt>
      <trkpt lat="44.08078" lon="1.74382">
        <ele>192</ele>
        <time>2011-03-05T13:38:08Z</time>
      </trkpt>
      <trkpt lat="44.08096" lon="1.74387">
        <ele>191</ele>
        <time>2011-03-05T13:38:10Z</time>
      </trkpt>
      <trkpt lat="44.08152" lon="1.74403">
        <ele>188</ele>
        <time>2011-03-05T13:38:16Z</time>
      </trkpt>
      <trkpt lat="44.08172" lon="1.74407">
        <ele>186</ele>
        <time>2011-03-05T13:38:18Z</time>
      </trkpt>
      <trkpt lat="44.08205" lon="1.74407">
        <ele>184</ele>
        <time>2011-03-05T13:38:21Z</time>
      </trkpt>
      <trkpt lat="44.08248" lon="1.74404">
        <ele>180</ele>
        <time>2011-03-05T13:38:25Z</time>
      </trkpt>
      <trkpt lat="44.08289" lon="1.74402">
        <ele>177</ele>
        <time>2011-03-05T13:38:29Z</time>
      </trkpt>
      <trkpt lat="44.08347" lon="1.74405">
        <ele>175</ele>
        <time>2011-03-05T13:38:35Z</time>
      </trkpt>
      <trkpt lat="44.08354" lon="1.74406">
        <ele>175</ele>
        <time>2011-03-05T13:38:36Z</time>
      </trkpt>
      <trkpt lat="44.08371" lon="1.7441">
        <ele>175</ele>
        <time>2011-03-05T13:38:39Z</time>
      </trkpt>
      <trkpt lat="44.08375" lon="1.74412">
        <ele>175</ele>
        <time>2011-03-05T13:38:40Z</time>
      </trkpt>
      <trkpt lat="44.08382" lon="1.74419">
        <ele>175</ele>
        <time>2011-03-05T13:38:42Z</time>
      </trkpt>
      <trkpt lat="44.08389" lon="1.74428">
        <ele>176</ele>
        <time>2011-03-05T13:38:47Z</time>
      </trkpt>
      <trkpt lat="44.08392" lon="1.74434">
        <ele>179</ele>
        <time>2011-03-05T13:38:49Z</time>
      </trkpt>
      <trkpt lat="44.08401" lon="1.74444">
        <ele>182</ele>
        <time>2011-03-05T13:38:54Z</time>
      </trkpt>
      <trkpt lat="44.08414" lon="1.74463">
        <ele>185</ele>
        <time>2011-03-05T13:39:01Z</time>
      </trkpt>
      <trkpt lat="44.0842" lon="1.7447">
        <ele>185</ele>
        <time>2011-03-05T13:39:04Z</time>
      </trkpt>
      <trkpt lat="44.08427" lon="1.74476">
        <ele>185</ele>
        <time>2011-03-05T13:39:07Z</time>
      </trkpt>
      <trkpt lat="44.08433" lon="1.74482">
        <ele>186</ele>
        <time>2011-03-05T13:39:10Z</time>
      </trkpt>
      <trkpt lat="44.08439" lon="1.74494">
        <ele>187</ele>
        <time>2011-03-05T13:39:14Z</time>
      </trkpt>
      <trkpt lat="44.08446" lon="1.74512">
        <ele>188</ele>
        <time>2011-03-05T13:39:21Z</time>
      </trkpt>
      <trkpt lat="44.08451" lon="1.74519">
        <ele>189</ele>
        <time>2011-03-05T13:39:23Z</time>
      </trkpt>
      <trkpt lat="44.08453" lon="1.74521">
        <ele>189</ele>
        <time>2011-03-05T13:39:24Z</time>
      </trkpt>
      <trkpt lat="44.08458" lon="1.74523">
        <ele>189</ele>
        <time>2011-03-05T13:39:26Z</time>
      </trkpt>
      <trkpt lat="44.08466" lon="1.74524">
        <ele>189</ele>
        <time>2011-03-05T13:39:29Z</time>
      </trkpt>
      <trkpt lat="44.08472" lon="1.74527">
        <ele>189</ele>
        <time>2011-03-05T13:39:32Z</time>
      </trkpt>
      <trkpt lat="44.0848" lon="1.74532">
        <ele>189</ele>
        <time>2011-03-05T13:39:33Z</time>
      </trkpt>
      <trkpt lat="44.08482" lon="1.74537">
        <ele>189</ele>
        <time>2011-03-05T13:39:34Z</time>
      </trkpt>
      <trkpt lat="44.08484" lon="1.74543">
        <ele>189</ele>
        <time>2011-03-05T13:39:35Z</time>
      </trkpt>
      <trkpt lat="44.08485" lon="1.74549">
        <ele>189</ele>
        <time>2011-03-05T13:39:37Z</time>
      </trkpt>
      <trkpt lat="44.08484" lon="1.74557">
        <ele>189</ele>
        <time>2011-03-05T13:39:37Z</time>
      </trkpt>
      <trkpt lat="44.08482" lon="1.74571">
        <ele>189</ele>
        <time>2011-03-05T13:39:39Z</time>
      </trkpt>
      <trkpt lat="44.08481" lon="1.74578">
        <ele>188</ele>
        <time>2011-03-05T13:39:40Z</time>
      </trkpt>
      <trkpt lat="44.08483" lon="1.74586">
        <ele>188</ele>
        <time>2011-03-05T13:39:41Z</time>
      </trkpt>
      <trkpt lat="44.08485" lon="1.74592">
        <ele>187</ele>
        <time>2011-03-05T13:39:42Z</time>
      </trkpt>
      <trkpt lat="44.08497" lon="1.74608">
        <ele>186</ele>
        <time>2011-03-05T13:39:45Z</time>
      </trkpt>
      <trkpt lat="44.08502" lon="1.7462">
        <ele>185</ele>
        <time>2011-03-05T13:39:47Z</time>
      </trkpt>
      <trkpt lat="44.08509" lon="1.74647">
        <ele>183</ele>
        <time>2011-03-05T13:39:52Z</time>
      </trkpt>
      <trkpt lat="44.08511" lon="1.74655">
        <ele>183</ele>
        <time>2011-03-05T13:39:52Z</time>
      </trkpt>
      <trkpt lat="44.0851" lon="1.74665">
        <ele>182</ele>
        <time>2011-03-05T13:39:53Z</time>
      </trkpt>
      <trkpt lat="44.08504" lon="1.74703">
        <ele>181</ele>
        <time>2011-03-05T13:39:57Z</time>
      </trkpt>
      <trkpt lat="44.08504" lon="1.74712">
        <ele>181</ele>
        <time>2011-03-05T13:39:58Z</time>
      </trkpt>
      <trkpt lat="44.08505" lon="1.74721">
        <ele>180</ele>
        <time>2011-03-05T13:39:59Z</time>
      </trkpt>
      <trkpt lat="44.08511" lon="1.74747">
        <ele>179</ele>
        <time>2011-03-05T13:40:02Z</time>
      </trkpt>
      <trkpt lat="44.08524" lon="1.74779">
        <ele>177</ele>
        <time>2011-03-05T13:40:06Z</time>
      </trkpt>
      <trkpt lat="44.08529" lon="1.74788">
        <ele>176</ele>
        <time>2011-03-05T13:40:07Z</time>
      </trkpt>
      <trkpt lat="44.08533" lon="1.74796">
        <ele>175</ele>
        <time>2011-03-05T13:40:08Z</time>
      </trkpt>
      <trkpt lat="44.08544" lon="1.74809">
        <ele>173</ele>
        <time>2011-03-05T13:40:10Z</time>
      </trkpt>
      <trkpt lat="44.08552" lon="1.74823">
        <ele>171</ele>
        <time>2011-03-05T13:40:12Z</time>
      </trkpt>
      <trkpt lat="44.08554" lon="1.74831">
        <ele>170</ele>
        <time>2011-03-05T13:40:13Z</time>
      </trkpt>
      <trkpt lat="44.08556" lon="1.74841">
        <ele>169</ele>
        <time>2011-03-05T13:40:14Z</time>
      </trkpt>
      <trkpt lat="44.08559" lon="1.74851">
        <ele>168</ele>
        <time>2011-03-05T13:40:15Z</time>
      </trkpt>
      <trkpt lat="44.08563" lon="1.74861">
        <ele>167</ele>
        <time>2011-03-05T13:40:16Z</time>
      </trkpt>
      <trkpt lat="44.08566" lon="1.74871">
        <ele>166</ele>
        <time>2011-03-05T13:40:17Z</time>
      </trkpt>
      <trkpt lat="44.0857" lon="1.74889">
        <ele>164</ele>
        <time>2011-03-05T13:40:19Z</time>
      </trkpt>
      <trkpt lat="44.08571" lon="1.74898">
        <ele>163</ele>
        <time>2011-03-05T13:40:21Z</time>
      </trkpt>
      <trkpt lat="44.08573" lon="1.74916">
        <ele>161</ele>
        <time>2011-03-05T13:40:23Z</time>
      </trkpt>
      <trkpt lat="44.08576" lon="1.74917">
        <ele>160</ele>
        <time>2011-03-05T13:40:24Z</time>
      </trkpt>
      <trkpt lat="44.08587" lon="1.7492">
        <ele>157</ele>
        <time>2011-03-05T13:40:27Z</time>
      </trkpt>
      <trkpt lat="44.08614" lon="1.74924">
        <ele>152</ele>
        <time>2011-03-05T13:40:32Z</time>
      </trkpt>
      <trkpt lat="44.08646" lon="1.74937">
        <ele>147</ele>
        <time>2011-03-05T13:40:37Z</time>
      </trkpt>
      <trkpt lat="44.08651" lon="1.74941">
        <ele>146</ele>
        <time>2011-03-05T13:40:38Z</time>
      </trkpt>
      <trkpt lat="44.08654" lon="1.74945">
        <ele>145</ele>
        <time>2011-03-05T13:40:39Z</time>
      </trkpt>
      <trkpt lat="44.08655" lon="1.74953">
        <ele>144</ele>
        <time>2011-03-05T13:40:41Z</time>
      </trkpt>
      <trkpt lat="44.08654" lon="1.74957">
        <ele>144</ele>
        <time>2011-03-05T13:40:42Z</time>
      </trkpt>
      <trkpt lat="44.08652" lon="1.74962">
        <ele>144</ele>
        <time>2011-03-05T13:40:44Z</time>
      </trkpt>
      <trkpt lat="44.08652" lon="1.74965">
        <ele>144</ele>
        <time>2011-03-05T13:40:45Z</time>
      </trkpt>
      <trkpt lat="44.08656" lon="1.74973">
        <ele>144</ele>
        <time>2011-03-05T13:40:49Z</time>
      </trkpt>
      <trkpt lat="44.08659" lon="1.74973">
        <ele>144</ele>
        <time>2011-03-05T13:40:51Z</time>
      </trkpt>
      <trkpt lat="44.08661" lon="1.74971">
        <ele>144</ele>
        <time>2011-03-05T13:40:53Z</time>
      </trkpt>
      <trkpt lat="44.08667" lon="1.74962">
        <ele>144</ele>
        <time>2011-03-05T13:40:59Z</time>
      </trkpt>
      <trkpt lat="44.08668" lon="1.74961">
        <ele>144</ele>
        <time>2011-03-05T13:41:00Z</time>
      </trkpt>
      <trkpt lat="44.08669" lon="1.74958">
        <ele>144</ele>
        <time>2011-03-05T13:41:02Z</time>
      </trkpt>
      <trkpt lat="44.08671" lon="1.74948">
        <ele>145</ele>
        <time>2011-03-05T13:41:08Z</time>
      </trkpt>
      <trkpt lat="44.0867" lon="1.7495">
        <ele>145</ele>
        <time>2011-03-05T13:41:11Z</time>
      </trkpt>
      <trkpt lat="44.08669" lon="1.74961">
        <ele>145</ele>
        <time>2011-03-05T13:41:15Z</time>
      </trkpt>
      <trkpt lat="44.08669" lon="1.74983">
        <ele>145</ele>
        <time>2011-03-05T13:41:21Z</time>
      </trkpt>
      <trkpt lat="44.08667" lon="1.74996">
        <ele>145</ele>
        <time>2011-03-05T13:41:24Z</time>
      </trkpt>
      <trkpt lat="44.08664" lon="1.75014">
        <ele>145</ele>
        <time>2011-03-05T13:41:28Z</time>
      </trkpt>
      <trkpt lat="44.08663" lon="1.75028">
        <ele>146</ele>
        <time>2011-03-05T13:41:31Z</time>
      </trkpt>
      <trkpt lat="44.08651" lon="1.75089">
        <ele>151</ele>
        <time>2011-03-05T13:41:45Z</time>
      </trkpt>
      <trkpt lat="44.08649" lon="1.75096">
        <ele>152</ele>
        <time>2011-03-05T13:41:47Z</time>
      </trkpt>
      <trkpt lat="44.08643" lon="1.75108">
        <ele>153</ele>
        <time>2011-03-05T13:41:50Z</time>
      </trkpt>
      <trkpt lat="44.08625" lon="1.75132">
        <ele>158</ele>
        <time>2011-03-05T13:41:58Z</time>
      </trkpt>
      <trkpt lat="44.08618" lon="1.75142">
        <ele>158</ele>
        <time>2011-03-05T13:42:01Z</time>
      </trkpt>
      <trkpt lat="44.08612" lon="1.75153">
        <ele>159</ele>
        <time>2011-03-05T13:42:04Z</time>
      </trkpt>
      <trkpt lat="44.08601" lon="1.75182">
        <ele>159</ele>
        <time>2011-03-05T13:42:11Z</time>
      </trkpt>
      <trkpt lat="44.08586" lon="1.75231">
        <ele>163</ele>
        <time>2011-03-05T13:42:21Z</time>
      </trkpt>
      <trkpt lat="44.08581" lon="1.75251">
        <ele>164</ele>
        <time>2011-03-05T13:42:25Z</time>
      </trkpt>
      <trkpt lat="44.08575" lon="1.75266">
        <ele>165</ele>
        <time>2011-03-05T13:42:28Z</time>
      </trkpt>
      <trkpt lat="44.08558" lon="1.75318">
        <ele>167</ele>
        <time>2011-03-05T13:42:39Z</time>
      </trkpt>
      <trkpt lat="44.08553" lon="1.75345">
        <ele>168</ele>
        <time>2011-03-05T13:42:44Z</time>
      </trkpt>
      <trkpt lat="44.08551" lon="1.75366">
        <ele>169</ele>
        <time>2011-03-05T13:42:48Z</time>
      </trkpt>
      <trkpt lat="44.08551" lon="1.75376">
        <ele>169</ele>
        <time>2011-03-05T13:42:50Z</time>
      </trkpt>
      <trkpt lat="44.08552" lon="1.75392">
        <ele>169</ele>
        <time>2011-03-05T13:42:53Z</time>
      </trkpt>
      <trkpt lat="44.08553" lon="1.75397">
        <ele>169</ele>
        <time>2011-03-05T13:42:54Z</time>
      </trkpt>
      <trkpt lat="44.08556" lon="1.75428">
        <ele>169</ele>
        <time>2011-03-05T13:43:00Z</time>
      </trkpt>
      <trkpt lat="44.08556" lon="1.75444">
        <ele>169</ele>
        <time>2011-03-05T13:43:03Z</time>
      </trkpt>
      <trkpt lat="44.08554" lon="1.75459">
        <ele>169</ele>
        <time>2011-03-05T13:43:06Z</time>
      </trkpt>
      <trkpt lat="44.08551" lon="1.75479">
        <ele>170</ele>
        <time>2011-03-05T13:43:10Z</time>
      </trkpt>
      <trkpt lat="44.0855" lon="1.75505">
        <ele>171</ele>
        <time>2011-03-05T13:43:15Z</time>
      </trkpt>
      <trkpt lat="44.08546" lon="1.75531">
        <ele>171</ele>
        <time>2011-03-05T13:43:21Z</time>
      </trkpt>
      <trkpt lat="44.08541" lon="1.75556">
        <ele>172</ele>
        <time>2011-03-05T13:43:25Z</time>
      </trkpt>
      <trkpt lat="44.0854" lon="1.75571">
        <ele>172</ele>
        <time>2011-03-05T13:43:28Z</time>
      </trkpt>
      <trkpt lat="44.08538" lon="1.75587">
        <ele>172</ele>
        <time>2011-03-05T13:43:31Z</time>
      </trkpt>
      <trkpt lat="44.08536" lon="1.75592">
        <ele>172</ele>
        <time>2011-03-05T13:43:32Z</time>
      </trkpt>
      <trkpt lat="44.08535" lon="1.75602">
        <ele>172</ele>
        <time>2011-03-05T13:43:34Z</time>
      </trkpt>
      <trkpt lat="44.08533" lon="1.75618">
        <ele>172</ele>
        <time>2011-03-05T13:43:37Z</time>
      </trkpt>
      <trkpt lat="44.08533" lon="1.75629">
        <ele>172</ele>
        <time>2011-03-05T13:43:39Z</time>
      </trkpt>
      <trkpt lat="44.08534" lon="1.75639">
        <ele>172</ele>
        <time>2011-03-05T13:43:41Z</time>
      </trkpt>
      <trkpt lat="44.08535" lon="1.75645">
        <ele>172</ele>
        <time>2011-03-05T13:43:42Z</time>
      </trkpt>
      <trkpt lat="44.08536" lon="1.7565">
        <ele>172</ele>
        <time>2011-03-05T13:43:44Z</time>
      </trkpt>
      <trkpt lat="44.08539" lon="1.75671">
        <ele>172</ele>
        <time>2011-03-05T13:43:47Z</time>
      </trkpt>
      <trkpt lat="44.08547" lon="1.75702">
        <ele>175</ele>
        <time>2011-03-05T13:43:53Z</time>
      </trkpt>
      <trkpt lat="44.08559" lon="1.7574">
        <ele>178</ele>
        <time>2011-03-05T13:44:01Z</time>
      </trkpt>
      <trkpt lat="44.08561" lon="1.7575">
        <ele>178</ele>
        <time>2011-03-05T13:44:03Z</time>
      </trkpt>
      <trkpt lat="44.08571" lon="1.75778">
        <ele>178</ele>
        <time>2011-03-05T13:44:09Z</time>
      </trkpt>
      <trkpt lat="44.08587" lon="1.75831">
        <ele>182</ele>
        <time>2011-03-05T13:44:21Z</time>
      </trkpt>
      <trkpt lat="44.08593" lon="1.75856">
        <ele>184</ele>
        <time>2011-03-05T13:44:25Z</time>
      </trkpt>
      <trkpt lat="44.08594" lon="1.75866">
        <ele>185</ele>
        <time>2011-03-05T13:44:27Z</time>
      </trkpt>
      <trkpt lat="44.08596" lon="1.75893">
        <ele>187</ele>
        <time>2011-03-05T13:44:32Z</time>
      </trkpt>
      <trkpt lat="44.08597" lon="1.75903">
        <ele>188</ele>
        <time>2011-03-05T13:44:34Z</time>
      </trkpt>
      <trkpt lat="44.08599" lon="1.75924">
        <ele>188</ele>
        <time>2011-03-05T13:44:38Z</time>
      </trkpt>
      <trkpt lat="44.08602" lon="1.75934">
        <ele>188</ele>
        <time>2011-03-05T13:44:40Z</time>
      </trkpt>
      <trkpt lat="44.08625" lon="1.75982">
        <ele>189</ele>
        <time>2011-03-05T13:44:51Z</time>
      </trkpt>
      <trkpt lat="44.08629" lon="1.75996">
        <ele>190</ele>
        <time>2011-03-05T13:44:54Z</time>
      </trkpt>
      <trkpt lat="44.08646" lon="1.76041">
        <ele>192</ele>
        <time>2011-03-05T13:45:04Z</time>
      </trkpt>
      <trkpt lat="44.08658" lon="1.76063">
        <ele>192</ele>
        <time>2011-03-05T13:45:09Z</time>
      </trkpt>
      <trkpt lat="44.08662" lon="1.76072">
        <ele>192</ele>
        <time>2011-03-05T13:45:11Z</time>
      </trkpt>
      <trkpt lat="44.08692" lon="1.76126">
        <ele>195</ele>
        <time>2011-03-05T13:45:24Z</time>
      </trkpt>
      <trkpt lat="44.08717" lon="1.76166">
        <ele>198</ele>
        <time>2011-03-05T13:45:34Z</time>
      </trkpt>
      <trkpt lat="44.08732" lon="1.76184">
        <ele>198</ele>
        <time>2011-03-05T13:45:39Z</time>
      </trkpt>
      <trkpt lat="44.08743" lon="1.76199">
        <ele>198</ele>
        <time>2011-03-05T13:45:43Z</time>
      </trkpt>
      <trkpt lat="44.08775" lon="1.76235">
        <ele>198</ele>
        <time>2011-03-05T13:45:53Z</time>
      </trkpt>
      <trkpt lat="44.08795" lon="1.7626">
        <ele>198</ele>
        <time>2011-03-05T13:45:59Z</time>
      </trkpt>
      <trkpt lat="44.08801" lon="1.76269">
        <ele>198</ele>
        <time>2011-03-05T13:46:01Z</time>
      </trkpt>
      <trkpt lat="44.08807" lon="1.76279">
        <ele>198</ele>
        <time>2011-03-05T13:46:03Z</time>
      </trkpt>
      <trkpt lat="44.08819" lon="1.76297">
        <ele>199</ele>
        <time>2011-03-05T13:46:07Z</time>
      </trkpt>
      <trkpt lat="44.0883" lon="1.76317">
        <ele>199</ele>
        <time>2011-03-05T13:46:11Z</time>
      </trkpt>
      <trkpt lat="44.08837" lon="1.76332">
        <ele>200</ele>
        <time>2011-03-05T13:46:14Z</time>
      </trkpt>
      <trkpt lat="44.08863" lon="1.76374">
        <ele>202</ele>
        <time>2011-03-05T13:46:23Z</time>
      </trkpt>
      <trkpt lat="44.08881" lon="1.76409">
        <ele>202</ele>
        <time>2011-03-05T13:46:30Z</time>
      </trkpt>
      <trkpt lat="44.08893" lon="1.76435">
        <ele>204</ele>
        <time>2011-03-05T13:46:35Z</time>
      </trkpt>
      <trkpt lat="44.08897" lon="1.76446">
        <ele>204</ele>
        <time>2011-03-05T13:46:37Z</time>
      </trkpt>
      <trkpt lat="44.08902" lon="1.76456">
        <ele>205</ele>
        <time>2011-03-05T13:46:39Z</time>
      </trkpt>
      <trkpt lat="44.08904" lon="1.76462">
        <ele>205</ele>
        <time>2011-03-05T13:46:40Z</time>
      </trkpt>
      <trkpt lat="44.08909" lon="1.76472">
        <ele>206</ele>
        <time>2011-03-05T13:46:42Z</time>
      </trkpt>
      <trkpt lat="44.08917" lon="1.76486">
        <ele>206</ele>
        <time>2011-03-05T13:46:45Z</time>
      </trkpt>
      <trkpt lat="44.08926" lon="1.765">
        <ele>206</ele>
        <time>2011-03-05T13:46:48Z</time>
      </trkpt>
      <trkpt lat="44.08936" lon="1.76513">
        <ele>206</ele>
        <time>2011-03-05T13:46:51Z</time>
      </trkpt>
      <trkpt lat="44.0895" lon="1.76529">
        <ele>206</ele>
        <time>2011-03-05T13:46:55Z</time>
      </trkpt>
      <trkpt lat="44.08952" lon="1.76533">
        <ele>206</ele>
        <time>2011-03-05T13:46:56Z</time>
      </trkpt>
      <trkpt lat="44.08956" lon="1.76537">
        <ele>207</ele>
        <time>2011-03-05T13:46:57Z</time>
      </trkpt>
      <trkpt lat="44.08963" lon="1.76544">
        <ele>208</ele>
        <time>2011-03-05T13:46:59Z</time>
      </trkpt>
      <trkpt lat="44.0897" lon="1.76551">
        <ele>209</ele>
        <time>2011-03-05T13:47:01Z</time>
      </trkpt>
      <trkpt lat="44.0898" lon="1.76564">
        <ele>209</ele>
        <time>2011-03-05T13:47:04Z</time>
      </trkpt>
      <trkpt lat="44.08995" lon="1.76593">
        <ele>209</ele>
        <time>2011-03-05T13:47:10Z</time>
      </trkpt>
      <trkpt lat="44.08996" lon="1.76598">
        <ele>209</ele>
        <time>2011-03-05T13:47:11Z</time>
      </trkpt>
      <trkpt lat="44.09002" lon="1.76608">
        <ele>209</ele>
        <time>2011-03-05T13:47:13Z</time>
      </trkpt>
      <trkpt lat="44.09006" lon="1.76618">
        <ele>209</ele>
        <time>2011-03-05T13:47:15Z</time>
      </trkpt>
      <trkpt lat="44.09014" lon="1.76634">
        <ele>209</ele>
        <time>2011-03-05T13:47:18Z</time>
      </trkpt>
      <trkpt lat="44.09035" lon="1.76665">
        <ele>209</ele>
        <time>2011-03-05T13:47:25Z</time>
      </trkpt>
      <trkpt lat="44.09046" lon="1.76684">
        <ele>210</ele>
        <time>2011-03-05T13:47:29Z</time>
      </trkpt>
      <trkpt lat="44.09049" lon="1.76696">
        <ele>210</ele>
        <time>2011-03-05T13:47:31Z</time>
      </trkpt>
      <trkpt lat="44.09049" lon="1.76702">
        <ele>210</ele>
        <time>2011-03-05T13:47:32Z</time>
      </trkpt>
      <trkpt lat="44.09053" lon="1.7672">
        <ele>211</ele>
        <time>2011-03-05T13:47:35Z</time>
      </trkpt>
      <trkpt lat="44.09056" lon="1.76731">
        <ele>212</ele>
        <time>2011-03-05T13:47:37Z</time>
      </trkpt>
      <trkpt lat="44.09061" lon="1.76742">
        <ele>212</ele>
        <time>2011-03-05T13:47:39Z</time>
      </trkpt>
      <trkpt lat="44.09068" lon="1.7675">
        <ele>213</ele>
        <time>2011-03-05T13:47:41Z</time>
      </trkpt>
      <trkpt lat="44.09083" lon="1.76765">
        <ele>213</ele>
        <time>2011-03-05T13:47:45Z</time>
      </trkpt>
      <trkpt lat="44.09099" lon="1.76778">
        <ele>214</ele>
        <time>2011-03-05T13:47:49Z</time>
      </trkpt>
      <trkpt lat="44.09105" lon="1.76787">
        <ele>216</ele>
        <time>2011-03-05T13:47:51Z</time>
      </trkpt>
      <trkpt lat="44.09135" lon="1.76812">
        <ele>220</ele>
        <time>2011-03-05T13:47:58Z</time>
      </trkpt>
      <trkpt lat="44.0914" lon="1.76815">
        <ele>220</ele>
        <time>2011-03-05T13:47:59Z</time>
      </trkpt>
      <trkpt lat="44.09158" lon="1.76829">
        <ele>220</ele>
        <time>2011-03-05T13:48:03Z</time>
      </trkpt>
      <trkpt lat="44.09175" lon="1.76845">
        <ele>220</ele>
        <time>2011-03-05T13:48:07Z</time>
      </trkpt>
      <trkpt lat="44.09186" lon="1.76862">
        <ele>220</ele>
        <time>2011-03-05T13:48:10Z</time>
      </trkpt>
      <trkpt lat="44.09207" lon="1.76886">
        <ele>220</ele>
        <time>2011-03-05T13:48:15Z</time>
      </trkpt>
      <trkpt lat="44.0922" lon="1.769">
        <ele>220</ele>
        <time>2011-03-05T13:48:18Z</time>
      </trkpt>
      <trkpt lat="44.09227" lon="1.7691">
        <ele>220</ele>
        <time>2011-03-05T13:48:21Z</time>
      </trkpt>
      <trkpt lat="44.09238" lon="1.76933">
        <ele>220</ele>
        <time>2011-03-05T13:48:24Z</time>
      </trkpt>
      <trkpt lat="44.0925" lon="1.76948">
        <ele>220</ele>
        <time>2011-03-05T13:48:27Z</time>
      </trkpt>
      <trkpt lat="44.09275" lon="1.76967">
        <ele>221</ele>
        <time>2011-03-05T13:48:33Z</time>
      </trkpt>
      <trkpt lat="44.09308" lon="1.76982">
        <ele>225</ele>
        <time>2011-03-05T13:48:40Z</time>
      </trkpt>
      <trkpt lat="44.09313" lon="1.76986">
        <ele>225</ele>
        <time>2011-03-05T13:48:41Z</time>
      </trkpt>
      <trkpt lat="44.09322" lon="1.76994">
        <ele>226</ele>
        <time>2011-03-05T13:48:43Z</time>
      </trkpt>
      <trkpt lat="44.09328" lon="1.77005">
        <ele>226</ele>
        <time>2011-03-05T13:48:45Z</time>
      </trkpt>
      <trkpt lat="44.09334" lon="1.77017">
        <ele>226</ele>
        <time>2011-03-05T13:48:47Z</time>
      </trkpt>
      <trkpt lat="44.09338" lon="1.77029">
        <ele>226</ele>
        <time>2011-03-05T13:48:49Z</time>
      </trkpt>
      <trkpt lat="44.09346" lon="1.77047">
        <ele>226</ele>
        <time>2011-03-05T13:48:52Z</time>
      </trkpt>
      <trkpt lat="44.09353" lon="1.77066">
        <ele>227</ele>
        <time>2011-03-05T13:48:55Z</time>
      </trkpt>
      <trkpt lat="44.09365" lon="1.77108">
        <ele>227</ele>
        <time>2011-03-05T13:49:01Z</time>
      </trkpt>
      <trkpt lat="44.09372" lon="1.77127">
        <ele>227</ele>
        <time>2011-03-05T13:49:04Z</time>
      </trkpt>
      <trkpt lat="44.09384" lon="1.77151">
        <ele>227</ele>
        <time>2011-03-05T13:49:08Z</time>
      </trkpt>
      <trkpt lat="44.09392" lon="1.77169">
        <ele>227</ele>
        <time>2011-03-05T13:49:11Z</time>
      </trkpt>
      <trkpt lat="44.09399" lon="1.77189">
        <ele>227</ele>
        <time>2011-03-05T13:49:14Z</time>
      </trkpt>
      <trkpt lat="44.09407" lon="1.77217">
        <ele>227</ele>
        <time>2011-03-05T13:49:18Z</time>
      </trkpt>
      <trkpt lat="44.0941" lon="1.77233">
        <ele>227</ele>
        <time>2011-03-05T13:49:21Z</time>
      </trkpt>
      <trkpt lat="44.09415" lon="1.77267">
        <ele>227</ele>
        <time>2011-03-05T13:49:24Z</time>
      </trkpt>
      <trkpt lat="44.09423" lon="1.77346">
        <ele>227</ele>
        <time>2011-03-05T13:49:34Z</time>
      </trkpt>
      <trkpt lat="44.09424" lon="1.77353">
        <ele>227</ele>
        <time>2011-03-05T13:49:35Z</time>
      </trkpt>
      <trkpt lat="44.09428" lon="1.77394">
        <ele>228</ele>
        <time>2011-03-05T13:49:41Z</time>
      </trkpt>
      <trkpt lat="44.09431" lon="1.77413">
        <ele>229</ele>
        <time>2011-03-05T13:49:44Z</time>
      </trkpt>
      <trkpt lat="44.09436" lon="1.77437">
        <ele>230</ele>
        <time>2011-03-05T13:49:48Z</time>
      </trkpt>
      <trkpt lat="44.09438" lon="1.77442">
        <ele>230</ele>
        <time>2011-03-05T13:49:49Z</time>
      </trkpt>
      <trkpt lat="44.09441" lon="1.77446">
        <ele>230</ele>
        <time>2011-03-05T13:49:50Z</time>
      </trkpt>
      <trkpt lat="44.09445" lon="1.77448">
        <ele>230</ele>
        <time>2011-03-05T13:49:51Z</time>
      </trkpt>
      <trkpt lat="44.09449" lon="1.77447">
        <ele>230</ele>
        <time>2011-03-05T13:49:52Z</time>
      </trkpt>
      <trkpt lat="44.09454" lon="1.77444">
        <ele>230</ele>
        <time>2011-03-05T13:49:53Z</time>
      </trkpt>
      <trkpt lat="44.09464" lon="1.77433">
        <ele>230</ele>
        <time>2011-03-05T13:49:55Z</time>
      </trkpt>
      <trkpt lat="44.09468" lon="1.77426">
        <ele>230</ele>
        <time>2011-03-05T13:49:56Z</time>
      </trkpt>
      <trkpt lat="44.09479" lon="1.77402">
        <ele>230</ele>
        <time>2011-03-05T13:49:59Z</time>
      </trkpt>
      <trkpt lat="44.09489" lon="1.77373">
        <ele>230</ele>
        <time>2011-03-05T13:50:04Z</time>
      </trkpt>
      <trkpt lat="44.09492" lon="1.77359">
        <ele>230</ele>
        <time>2011-03-05T13:50:08Z</time>
      </trkpt>
      <trkpt lat="44.09493" lon="1.77357">
        <ele>230</ele>
        <time>2011-03-05T13:50:09Z</time>
      </trkpt>
      <trkpt lat="44.09496" lon="1.77344">
        <ele>230</ele>
        <time>2011-03-05T13:50:14Z</time>
      </trkpt>
      <trkpt lat="44.095" lon="1.77336">
        <ele>230</ele>
        <time>2011-03-05T13:50:17Z</time>
      </trkpt>
      <trkpt lat="44.09509" lon="1.7732">
        <ele>233</ele>
        <time>2011-03-05T13:50:23Z</time>
      </trkpt>
      <trkpt lat="44.09515" lon="1.77314">
        <ele>234</ele>
        <time>2011-03-05T13:50:26Z</time>
      </trkpt>
      <trkpt lat="44.09519" lon="1.77311">
        <ele>235</ele>
        <time>2011-03-05T13:50:28Z</time>
      </trkpt>
      <trkpt lat="44.09524" lon="1.7731">
        <ele>236</ele>
        <time>2011-03-05T13:50:30Z</time>
      </trkpt>
      <trkpt lat="44.09531" lon="1.77311">
        <ele>238</ele>
        <time>2011-03-05T13:50:33Z</time>
      </trkpt>
      <trkpt lat="44.09536" lon="1.77313">
        <ele>239</ele>
        <time>2011-03-05T13:50:35Z</time>
      </trkpt>
      <trkpt lat="44.09543" lon="1.77318">
        <ele>239</ele>
        <time>2011-03-05T13:50:38Z</time>
      </trkpt>
      <trkpt lat="44.09547" lon="1.77323">
        <ele>240</ele>
        <time>2011-03-05T13:50:40Z</time>
      </trkpt>
      <trkpt lat="44.09557" lon="1.77341">
        <ele>240</ele>
        <time>2011-03-05T13:50:45Z</time>
      </trkpt>
      <trkpt lat="44.09563" lon="1.77355">
        <ele>240</ele>
        <time>2011-03-05T13:50:48Z</time>
      </trkpt>
      <trkpt lat="44.09574" lon="1.77393">
        <ele>240</ele>
        <time>2011-03-05T13:50:54Z</time>
      </trkpt>
      <trkpt lat="44.0958" lon="1.77408">
        <ele>240</ele>
        <time>2011-03-05T13:50:56Z</time>
      </trkpt>
      <trkpt lat="44.09582" lon="1.77415">
        <ele>240</ele>
        <time>2011-03-05T13:50:57Z</time>
      </trkpt>
      <trkpt lat="44.09595" lon="1.77444">
        <ele>240</ele>
        <time>2011-03-05T13:51:01Z</time>
      </trkpt>
      <trkpt lat="44.09611" lon="1.77476">
        <ele>240</ele>
        <time>2011-03-05T13:51:06Z</time>
      </trkpt>
      <trkpt lat="44.09619" lon="1.77487">
        <ele>240</ele>
        <time>2011-03-05T13:51:08Z</time>
      </trkpt>
      <trkpt lat="44.09646" lon="1.77516">
        <ele>241</ele>
        <time>2011-03-05T13:51:15Z</time>
      </trkpt>
      <trkpt lat="44.09703" lon="1.77574">
        <ele>247</ele>
        <time>2011-03-05T13:51:34Z</time>
      </trkpt>
      <trkpt lat="44.09711" lon="1.77581">
        <ele>247</ele>
        <time>2011-03-05T13:51:37Z</time>
      </trkpt>
      <trkpt lat="44.09718" lon="1.77589">
        <ele>247</ele>
        <time>2011-03-05T13:51:40Z</time>
      </trkpt>
      <trkpt lat="44.09727" lon="1.77601">
        <ele>249</ele>
        <time>2011-03-05T13:51:44Z</time>
      </trkpt>
      <trkpt lat="44.09736" lon="1.77611">
        <ele>251</ele>
        <time>2011-03-05T13:51:48Z</time>
      </trkpt>
      <trkpt lat="44.09743" lon="1.77615">
        <ele>252</ele>
        <time>2011-03-05T13:51:51Z</time>
      </trkpt>
      <trkpt lat="44.09748" lon="1.77616">
        <ele>253</ele>
        <time>2011-03-05T13:51:53Z</time>
      </trkpt>
      <trkpt lat="44.09753" lon="1.77615">
        <ele>254</ele>
        <time>2011-03-05T13:51:55Z</time>
      </trkpt>
      <trkpt lat="44.09758" lon="1.7761">
        <ele>255</ele>
        <time>2011-03-05T13:51:59Z</time>
      </trkpt>
      <trkpt lat="44.09763" lon="1.77602">
        <ele>257</ele>
        <time>2011-03-05T13:52:02Z</time>
      </trkpt>
      <trkpt lat="44.09771" lon="1.77585">
        <ele>259</ele>
        <time>2011-03-05T13:52:09Z</time>
      </trkpt>
      <trkpt lat="44.09781" lon="1.77558">
        <ele>261</ele>
        <time>2011-03-05T13:52:21Z</time>
      </trkpt>
      <trkpt lat="44.09787" lon="1.77542">
        <ele>264</ele>
        <time>2011-03-05T13:52:26Z</time>
      </trkpt>
      <trkpt lat="44.09789" lon="1.77537">
        <ele>265</ele>
        <time>2011-03-05T13:52:28Z</time>
      </trkpt>
      <trkpt lat="44.09792" lon="1.77527">
        <ele>267</ele>
        <time>2011-03-05T13:52:32Z</time>
      </trkpt>
      <trkpt lat="44.09798" lon="1.77508">
        <ele>269</ele>
        <time>2011-03-05T13:52:39Z</time>
      </trkpt>
      <trkpt lat="44.098" lon="1.77495">
        <ele>270</ele>
        <time>2011-03-05T13:52:44Z</time>
      </trkpt>
      <trkpt lat="44.09803" lon="1.77487">
        <ele>271</ele>
        <time>2011-03-05T13:52:47Z</time>
      </trkpt>
      <trkpt lat="44.09806" lon="1.77468">
        <ele>273</ele>
        <time>2011-03-05T13:52:54Z</time>
      </trkpt>
      <trkpt lat="44.09806" lon="1.77462">
        <ele>274</ele>
        <time>2011-03-05T13:52:56Z</time>
      </trkpt>
      <trkpt lat="44.09806" lon="1.77456">
        <ele>275</ele>
        <time>2011-03-05T13:52:58Z</time>
      </trkpt>
      <trkpt lat="44.09803" lon="1.77448">
        <ele>276</ele>
        <time>2011-03-05T13:53:01Z</time>
      </trkpt>
      <trkpt lat="44.09801" lon="1.77443">
        <ele>277</ele>
        <time>2011-03-05T13:53:03Z</time>
      </trkpt>
      <trkpt lat="44.09792" lon="1.77429">
        <ele>280</ele>
        <time>2011-03-05T13:53:09Z</time>
      </trkpt>
      <trkpt lat="44.0977" lon="1.77408">
        <ele>283</ele>
        <time>2011-03-05T13:53:21Z</time>
      </trkpt>
      <trkpt lat="44.09758" lon="1.77394">
        <ele>285</ele>
        <time>2011-03-05T13:53:28Z</time>
      </trkpt>
      <trkpt lat="44.0975" lon="1.77383">
        <ele>286</ele>
        <time>2011-03-05T13:53:33Z</time>
      </trkpt>
      <trkpt lat="44.09746" lon="1.77375">
        <ele>287</ele>
        <time>2011-03-05T13:53:36Z</time>
      </trkpt>
      <trkpt lat="44.09738" lon="1.77345">
        <ele>290</ele>
        <time>2011-03-05T13:53:46Z</time>
      </trkpt>
      <trkpt lat="44.09736" lon="1.77339">
        <ele>291</ele>
        <time>2011-03-05T13:53:48Z</time>
      </trkpt>
      <trkpt lat="44.09733" lon="1.77327">
        <ele>293</ele>
        <time>2011-03-05T13:53:52Z</time>
      </trkpt>
      <trkpt lat="44.09732" lon="1.77308">
        <ele>295</ele>
        <time>2011-03-05T13:53:58Z</time>
      </trkpt>
      <trkpt lat="44.09724" lon="1.77276">
        <ele>299</ele>
        <time>2011-03-05T13:54:09Z</time>
      </trkpt>
      <trkpt lat="44.09719" lon="1.77264">
        <ele>301</ele>
        <time>2011-03-05T13:54:13Z</time>
      </trkpt>
      <trkpt lat="44.09715" lon="1.77256">
        <ele>302</ele>
        <time>2011-03-05T13:54:16Z</time>
      </trkpt>
      <trkpt lat="44.09707" lon="1.77245">
        <ele>304</ele>
        <time>2011-03-05T13:54:21Z</time>
      </trkpt>
      <trkpt lat="44.097" lon="1.7724">
        <ele>304</ele>
        <time>2011-03-05T13:54:24Z</time>
      </trkpt>
      <trkpt lat="44.09691" lon="1.77236">
        <ele>305</ele>
        <time>2011-03-05T13:54:28Z</time>
      </trkpt>
      <trkpt lat="44.09688" lon="1.77232">
        <ele>305</ele>
        <time>2011-03-05T13:54:30Z</time>
      </trkpt>
      <trkpt lat="44.09687" lon="1.77229">
        <ele>305</ele>
        <time>2011-03-05T13:54:31Z</time>
      </trkpt>
      <trkpt lat="44.09687" lon="1.77227">
        <ele>306</ele>
        <time>2011-03-05T13:54:32Z</time>
      </trkpt>
      <trkpt lat="44.09688" lon="1.77224">
        <ele>306</ele>
        <time>2011-03-05T13:54:33Z</time>
      </trkpt>
      <trkpt lat="44.0969" lon="1.77223">
        <ele>306</ele>
        <time>2011-03-05T13:54:34Z</time>
      </trkpt>
      <trkpt lat="44.09699" lon="1.77224">
        <ele>307</ele>
        <time>2011-03-05T13:54:38Z</time>
      </trkpt>
      <trkpt lat="44.09708" lon="1.77222">
        <ele>308</ele>
        <time>2011-03-05T13:54:42Z</time>
      </trkpt>
      <trkpt lat="44.09712" lon="1.77219">
        <ele>309</ele>
        <time>2011-03-05T13:54:44Z</time>
      </trkpt>
      <trkpt lat="44.09721" lon="1.7721">
        <ele>310</ele>
        <time>2011-03-05T13:54:49Z</time>
      </trkpt>
      <trkpt lat="44.09725" lon="1.77207">
        <ele>310</ele>
        <time>2011-03-05T13:54:51Z</time>
      </trkpt>
      <trkpt lat="44.09741" lon="1.77185">
        <ele>310</ele>
        <time>2011-03-05T13:55:01Z</time>
      </trkpt>
      <trkpt lat="44.09752" lon="1.77166">
        <ele>312</ele>
        <time>2011-03-05T13:55:09Z</time>
      </trkpt>
      <trkpt lat="44.0976" lon="1.77151">
        <ele>312</ele>
        <time>2011-03-05T13:55:14Z</time>
      </trkpt>
      <trkpt lat="44.09761" lon="1.77144">
        <ele>312</ele>
        <time>2011-03-05T13:55:16Z</time>
      </trkpt>
      <trkpt lat="44.0976" lon="1.7714">
        <ele>312</ele>
        <time>2011-03-05T13:55:17Z</time>
      </trkpt>
      <trkpt lat="44.09757" lon="1.77133">
        <ele>312</ele>
        <time>2011-03-05T13:55:19Z</time>
      </trkpt>
      <trkpt lat="44.09753" lon="1.77126">
        <ele>312</ele>
        <time>2011-03-05T13:55:21Z</time>
      </trkpt>
      <trkpt lat="44.0974" lon="1.77111">
        <ele>312</ele>
        <time>2011-03-05T13:55:26Z</time>
      </trkpt>
      <trkpt lat="44.09737" lon="1.7711">
        <ele>312</ele>
        <time>2011-03-05T13:55:27Z</time>
      </trkpt>
      <trkpt lat="44.09733" lon="1.77109">
        <ele>312</ele>
        <time>2011-03-05T13:55:28Z</time>
      </trkpt>
      <trkpt lat="44.09711" lon="1.77112">
        <ele>314</ele>
        <time>2011-03-05T13:55:34Z</time>
      </trkpt>
      <trkpt lat="44.09704" lon="1.77111">
        <ele>314</ele>
        <time>2011-03-05T13:55:36Z</time>
      </trkpt>
      <trkpt lat="44.09692" lon="1.77106">
        <ele>315</ele>
        <time>2011-03-05T13:55:39Z</time>
      </trkpt>
      <trkpt lat="44.09677" lon="1.77097">
        <ele>315</ele>
        <time>2011-03-05T13:55:43Z</time>
      </trkpt>
      <trkpt lat="44.09671" lon="1.77092">
        <ele>315</ele>
        <time>2011-03-05T13:55:45Z</time>
      </trkpt>
      <trkpt lat="44.09659" lon="1.77083">
        <ele>315</ele>
        <time>2011-03-05T13:55:49Z</time>
      </trkpt>
      <trkpt lat="44.09654" lon="1.77078">
        <ele>315</ele>
        <time>2011-03-05T13:55:51Z</time>
      </trkpt>
      <trkpt lat="44.09634" lon="1.77062">
        <ele>315</ele>
        <time>2011-03-05T13:55:58Z</time>
      </trkpt>
      <trkpt lat="44.0962" lon="1.77055">
        <ele>315</ele>
        <time>2011-03-05T13:56:02Z</time>
      </trkpt>
      <trkpt lat="44.09614" lon="1.77047">
        <ele>315</ele>
        <time>2011-03-05T13:56:04Z</time>
      </trkpt>
      <trkpt lat="44.09605" lon="1.77032">
        <ele>315</ele>
        <time>2011-03-05T13:56:08Z</time>
      </trkpt>
      <trkpt lat="44.09594" lon="1.77016">
        <ele>315</ele>
        <time>2011-03-05T13:56:12Z</time>
      </trkpt>
      <trkpt lat="44.09574" lon="1.76993">
        <ele>315</ele>
        <time>2011-03-05T13:56:18Z</time>
      </trkpt>
      <trkpt lat="44.09569" lon="1.76984">
        <ele>315</ele>
        <time>2011-03-05T13:56:21Z</time>
      </trkpt>
      <trkpt lat="44.09559" lon="1.76962">
        <ele>315</ele>
        <time>2011-03-05T13:56:25Z</time>
      </trkpt>
      <trkpt lat="44.09554" lon="1.76954">
        <ele>315</ele>
        <time>2011-03-05T13:56:27Z</time>
      </trkpt>
      <trkpt lat="44.09551" lon="1.7695">
        <ele>315</ele>
        <time>2011-03-05T13:56:28Z</time>
      </trkpt>
      <trkpt lat="44.09546" lon="1.76942">
        <ele>315</ele>
        <time>2011-03-05T13:56:30Z</time>
      </trkpt>
      <trkpt lat="44.09541" lon="1.76933">
        <ele>315</ele>
        <time>2011-03-05T13:56:32Z</time>
      </trkpt>
      <trkpt lat="44.09534" lon="1.76921">
        <ele>315</ele>
        <time>2011-03-05T13:56:35Z</time>
      </trkpt>
      <trkpt lat="44.09526" lon="1.76904">
        <ele>315</ele>
        <time>2011-03-05T13:56:39Z</time>
      </trkpt>
      <trkpt lat="44.09523" lon="1.76893">
        <ele>315</ele>
        <time>2011-03-05T13:56:41Z</time>
      </trkpt>
      <trkpt lat="44.09519" lon="1.76884">
        <ele>315</ele>
        <time>2011-03-05T13:56:43Z</time>
      </trkpt>
      <trkpt lat="44.0951" lon="1.76868">
        <ele>315</ele>
        <time>2011-03-05T13:56:46Z</time>
      </trkpt>
      <trkpt lat="44.09504" lon="1.7685">
        <ele>315</ele>
        <time>2011-03-05T13:56:49Z</time>
      </trkpt>
      <trkpt lat="44.09499" lon="1.76839">
        <ele>315</ele>
        <time>2011-03-05T13:56:51Z</time>
      </trkpt>
      <trkpt lat="44.09492" lon="1.76821">
        <ele>315</ele>
        <time>2011-03-05T13:56:54Z</time>
      </trkpt>
      <trkpt lat="44.09487" lon="1.76795">
        <ele>315</ele>
        <time>2011-03-05T13:56:58Z</time>
      </trkpt>
      <trkpt lat="44.09484" lon="1.76788">
        <ele>315</ele>
        <time>2011-03-05T13:56:59Z</time>
      </trkpt>
      <trkpt lat="44.09478" lon="1.76775">
        <ele>315</ele>
        <time>2011-03-05T13:57:01Z</time>
      </trkpt>
      <trkpt lat="44.09465" lon="1.76746">
        <ele>314</ele>
        <time>2011-03-05T13:57:05Z</time>
      </trkpt>
      <trkpt lat="44.09459" lon="1.76724">
        <ele>312</ele>
        <time>2011-03-05T13:57:08Z</time>
      </trkpt>
      <trkpt lat="44.09445" lon="1.76701">
        <ele>310</ele>
        <time>2011-03-05T13:57:12Z</time>
      </trkpt>
      <trkpt lat="44.09438" lon="1.7669">
        <ele>309</ele>
        <time>2011-03-05T13:57:14Z</time>
      </trkpt>
      <trkpt lat="44.09424" lon="1.76658">
        <ele>308</ele>
        <time>2011-03-05T13:57:19Z</time>
      </trkpt>
      <trkpt lat="44.09416" lon="1.76646">
        <ele>308</ele>
        <time>2011-03-05T13:57:21Z</time>
      </trkpt>
      <trkpt lat="44.09406" lon="1.76637">
        <ele>308</ele>
        <time>2011-03-05T13:57:23Z</time>
      </trkpt>
      <trkpt lat="44.09384" lon="1.76612">
        <ele>308</ele>
        <time>2011-03-05T13:57:28Z</time>
      </trkpt>
      <trkpt lat="44.09372" lon="1.76602">
        <ele>307</ele>
        <time>2011-03-05T13:57:31Z</time>
      </trkpt>
      <trkpt lat="44.09354" lon="1.76587">
        <ele>307</ele>
        <time>2011-03-05T13:57:35Z</time>
      </trkpt>
      <trkpt lat="44.09338" lon="1.7657">
        <ele>307</ele>
        <time>2011-03-05T13:57:39Z</time>
      </trkpt>
      <trkpt lat="44.09334" lon="1.76565">
        <ele>307</ele>
        <time>2011-03-05T13:57:40Z</time>
      </trkpt>
      <trkpt lat="44.09315" lon="1.76544">
        <ele>307</ele>
        <time>2011-03-05T13:57:45Z</time>
      </trkpt>
      <trkpt lat="44.09308" lon="1.76537">
        <ele>307</ele>
        <time>2011-03-05T13:57:47Z</time>
      </trkpt>
      <trkpt lat="44.09302" lon="1.76528">
        <ele>307</ele>
        <time>2011-03-05T13:57:49Z</time>
      </trkpt>
      <trkpt lat="44.0929" lon="1.76508">
        <ele>307</ele>
        <time>2011-03-05T13:57:53Z</time>
      </trkpt>
      <trkpt lat="44.09283" lon="1.76499">
        <ele>307</ele>
        <time>2011-03-05T13:57:55Z</time>
      </trkpt>
      <trkpt lat="44.09259" lon="1.76478">
        <ele>307</ele>
        <time>2011-03-05T13:58:01Z</time>
      </trkpt>
      <trkpt lat="44.09251" lon="1.76471">
        <ele>307</ele>
        <time>2011-03-05T13:58:03Z</time>
      </trkpt>
      <trkpt lat="44.09224" lon="1.76458">
        <ele>304</ele>
        <time>2011-03-05T13:58:09Z</time>
      </trkpt>
      <trkpt lat="44.09205" lon="1.76443">
        <ele>304</ele>
        <time>2011-03-05T13:58:13Z</time>
      </trkpt>
      <trkpt lat="44.092" lon="1.76439">
        <ele>303</ele>
        <time>2011-03-05T13:58:14Z</time>
      </trkpt>
      <trkpt lat="44.09159" lon="1.7642">
        <ele>300</ele>
        <time>2011-03-05T13:58:22Z</time>
      </trkpt>
      <trkpt lat="44.09145" lon="1.76417">
        <ele>299</ele>
        <time>2011-03-05T13:58:25Z</time>
      </trkpt>
      <trkpt lat="44.09121" lon="1.76408">
        <ele>297</ele>
        <time>2011-03-05T13:58:31Z</time>
      </trkpt>
      <trkpt lat="44.09113" lon="1.76407">
        <ele>297</ele>
        <time>2011-03-05T13:58:33Z</time>
      </trkpt>
      <trkpt lat="44.09103" lon="1.76408">
        <ele>297</ele>
        <time>2011-03-05T13:58:35Z</time>
      </trkpt>
      <trkpt lat="44.09082" lon="1.76401">
        <ele>296</ele>
        <time>2011-03-05T13:58:40Z</time>
      </trkpt>
      <trkpt lat="44.09077" lon="1.76399">
        <ele>296</ele>
        <time>2011-03-05T13:58:41Z</time>
      </trkpt>
      <trkpt lat="44.09062" lon="1.76394">
        <ele>296</ele>
        <time>2011-03-05T13:58:44Z</time>
      </trkpt>
      <trkpt lat="44.09048" lon="1.76388">
        <ele>295</ele>
        <time>2011-03-05T13:58:47Z</time>
      </trkpt>
      <trkpt lat="44.0904" lon="1.76383">
        <ele>295</ele>
        <time>2011-03-05T13:58:49Z</time>
      </trkpt>
      <trkpt lat="44.09037" lon="1.76379">
        <ele>295</ele>
        <time>2011-03-05T13:58:50Z</time>
      </trkpt>
      <trkpt lat="44.09029" lon="1.76364">
        <ele>294</ele>
        <time>2011-03-05T13:58:55Z</time>
      </trkpt>
      <trkpt lat="44.09018" lon="1.76339">
        <ele>294</ele>
        <time>2011-03-05T13:59:04Z</time>
      </trkpt>
      <trkpt lat="44.09008" lon="1.76322">
        <ele>297</ele>
        <time>2011-03-05T13:59:11Z</time>
      </trkpt>
      <trkpt lat="44.09006" lon="1.76321">
        <ele>297</ele>
        <time>2011-03-05T13:59:12Z</time>
      </trkpt>
      <trkpt lat="44.09003" lon="1.76314">
        <ele>298</ele>
        <time>2011-03-05T13:59:15Z</time>
      </trkpt>
      <trkpt lat="44.08999" lon="1.76302">
        <ele>299</ele>
        <time>2011-03-05T13:59:21Z</time>
      </trkpt>
      <trkpt lat="44.08997" lon="1.763">
        <ele>300</ele>
        <time>2011-03-05T13:59:21Z</time>
      </trkpt>
      <trkpt lat="44.08993" lon="1.7629">
        <ele>300</ele>
        <time>2011-03-05T13:59:25Z</time>
      </trkpt>
      <trkpt lat="44.08989" lon="1.76283">
        <ele>301</ele>
        <time>2011-03-05T13:59:28Z</time>
      </trkpt>
      <trkpt lat="44.08982" lon="1.76276">
        <ele>301</ele>
        <time>2011-03-05T13:59:32Z</time>
      </trkpt>
      <trkpt lat="44.08975" lon="1.76258">
        <ele>303</ele>
        <time>2011-03-05T13:59:39Z</time>
      </trkpt>
      <trkpt lat="44.0897" lon="1.7625">
        <ele>303</ele>
        <time>2011-03-05T13:59:43Z</time>
      </trkpt>
      <trkpt lat="44.08968" lon="1.76244">
        <ele>303</ele>
        <time>2011-03-05T13:59:45Z</time>
      </trkpt>
      <trkpt lat="44.08965" lon="1.76232">
        <ele>303</ele>
        <time>2011-03-05T13:59:49Z</time>
      </trkpt>
      <trkpt lat="44.0895" lon="1.76206">
        <ele>304</ele>
        <time>2011-03-05T13:59:58Z</time>
      </trkpt>
      <trkpt lat="44.08947" lon="1.76199">
        <ele>304</ele>
        <time>2011-03-05T14:00:00Z</time>
      </trkpt>
      <trkpt lat="44.08944" lon="1.76192">
        <ele>304</ele>
        <time>2011-03-05T14:00:02Z</time>
      </trkpt>
      <trkpt lat="44.08941" lon="1.7619">
        <ele>304</ele>
        <time>2011-03-05T14:00:03Z</time>
      </trkpt>
      <trkpt lat="44.08934" lon="1.7618">
        <ele>305</ele>
        <time>2011-03-05T14:00:06Z</time>
      </trkpt>
      <trkpt lat="44.0893" lon="1.76172">
        <ele>305</ele>
        <time>2011-03-05T14:00:08Z</time>
      </trkpt>
      <trkpt lat="44.08917" lon="1.7613">
        <ele>306</ele>
        <time>2011-03-05T14:00:17Z</time>
      </trkpt>
      <trkpt lat="44.08917" lon="1.76127">
        <ele>306</ele>
        <time>2011-03-05T14:00:18Z</time>
      </trkpt>
      <trkpt lat="44.08913" lon="1.76113">
        <ele>307</ele>
        <time>2011-03-05T14:00:22Z</time>
      </trkpt>
      <trkpt lat="44.08905" lon="1.76092">
        <ele>307</ele>
        <time>2011-03-05T14:00:27Z</time>
      </trkpt>
      <trkpt lat="44.08904" lon="1.76087">
        <ele>307</ele>
        <time>2011-03-05T14:00:28Z</time>
      </trkpt>
      <trkpt lat="44.08893" lon="1.76056">
        <ele>307</ele>
        <time>2011-03-05T14:00:34Z</time>
      </trkpt>
      <trkpt lat="44.08887" lon="1.76045">
        <ele>307</ele>
        <time>2011-03-05T14:00:36Z</time>
      </trkpt>
      <trkpt lat="44.08884" lon="1.7604">
        <ele>307</ele>
        <time>2011-03-05T14:00:37Z</time>
      </trkpt>
      <trkpt lat="44.08874" lon="1.7602">
        <ele>307</ele>
        <time>2011-03-05T14:00:41Z</time>
      </trkpt>
      <trkpt lat="44.08867" lon="1.76002">
        <ele>307</ele>
        <time>2011-03-05T14:00:44Z</time>
      </trkpt>
      <trkpt lat="44.08864" lon="1.75996">
        <ele>306</ele>
        <time>2011-03-05T14:00:45Z</time>
      </trkpt>
      <trkpt lat="44.08852" lon="1.75978">
        <ele>305</ele>
        <time>2011-03-05T14:00:48Z</time>
      </trkpt>
      <trkpt lat="44.08849" lon="1.7597">
        <ele>305</ele>
        <time>2011-03-05T14:00:49Z</time>
      </trkpt>
      <trkpt lat="44.08845" lon="1.75956">
        <ele>305</ele>
        <time>2011-03-05T14:00:51Z</time>
      </trkpt>
      <trkpt lat="44.08844" lon="1.75949">
        <ele>305</ele>
        <time>2011-03-05T14:00:52Z</time>
      </trkpt>
      <trkpt lat="44.08839" lon="1.75936">
        <ele>305</ele>
        <time>2011-03-05T14:00:54Z</time>
      </trkpt>
      <trkpt lat="44.08834" lon="1.75926">
        <ele>304</ele>
        <time>2011-03-05T14:00:56Z</time>
      </trkpt>
      <trkpt lat="44.08827" lon="1.75903">
        <ele>303</ele>
        <time>2011-03-05T14:00:59Z</time>
      </trkpt>
      <trkpt lat="44.0882" lon="1.75889">
        <ele>302</ele>
        <time>2011-03-05T14:01:01Z</time>
      </trkpt>
      <trkpt lat="44.08809" lon="1.75874">
        <ele>301</ele>
        <time>2011-03-05T14:01:04Z</time>
      </trkpt>
      <trkpt lat="44.08806" lon="1.75866">
        <ele>301</ele>
        <time>2011-03-05T14:01:06Z</time>
      </trkpt>
      <trkpt lat="44.08801" lon="1.75837">
        <ele>301</ele>
        <time>2011-03-05T14:01:12Z</time>
      </trkpt>
      <trkpt lat="44.08798" lon="1.75827">
        <ele>301</ele>
        <time>2011-03-05T14:01:14Z</time>
      </trkpt>
      <trkpt lat="44.08793" lon="1.75817">
        <ele>301</ele>
        <time>2011-03-05T14:01:16Z</time>
      </trkpt>
      <trkpt lat="44.08788" lon="1.75802">
        <ele>301</ele>
        <time>2011-03-05T14:01:19Z</time>
      </trkpt>
      <trkpt lat="44.08776" lon="1.75787">
        <ele>301</ele>
        <time>2011-03-05T14:01:23Z</time>
      </trkpt>
      <trkpt lat="44.08757" lon="1.75766">
        <ele>301</ele>
        <time>2011-03-05T14:01:28Z</time>
      </trkpt>
      <trkpt lat="44.08751" lon="1.75756">
        <ele>301</ele>
        <time>2011-03-05T14:01:30Z</time>
      </trkpt>
      <trkpt lat="44.08749" lon="1.75751">
        <ele>301</ele>
        <time>2011-03-05T14:01:31Z</time>
      </trkpt>
      <trkpt lat="44.08746" lon="1.75747">
        <ele>301</ele>
        <time>2011-03-05T14:01:32Z</time>
      </trkpt>
      <trkpt lat="44.08742" lon="1.75735">
        <ele>301</ele>
        <time>2011-03-05T14:01:34Z</time>
      </trkpt>
      <trkpt lat="44.08733" lon="1.7572">
        <ele>301</ele>
        <time>2011-03-05T14:01:40Z</time>
      </trkpt>
      <trkpt lat="44.08734" lon="1.75719">
        <ele>301</ele>
        <time>2011-03-05T14:02:06Z</time>
      </trkpt>
      <trkpt lat="44.08732" lon="1.75718">
        <ele>298</ele>
        <time>2011-03-05T14:02:46Z</time>
      </trkpt>
      <trkpt lat="44.08727" lon="1.75703">
        <ele>293</ele>
        <time>2011-03-05T14:03:07Z</time>
      </trkpt>
      <trkpt lat="44.08727" lon="1.75694">
        <ele>291</ele>
        <time>2011-03-05T14:03:16Z</time>
      </trkpt>
      <trkpt lat="44.08728" lon="1.7569">
        <ele>291</ele>
        <time>2011-03-05T14:03:26Z</time>
      </trkpt>
      <trkpt lat="44.08726" lon="1.75687">
        <ele>291</ele>
        <time>2011-03-05T14:03:46Z</time>
      </trkpt>
      <trkpt lat="44.08725" lon="1.75687">
        <ele>290</ele>
        <time>2011-03-05T14:04:12Z</time>
      </trkpt>
      <trkpt lat="44.08726" lon="1.75685">
        <ele>290</ele>
        <time>2011-03-05T14:04:18Z</time>
      </trkpt>
      <trkpt lat="44.08733" lon="1.7568">
        <ele>290</ele>
        <time>2011-03-05T14:04:27Z</time>
      </trkpt>
      <trkpt lat="44.08737" lon="1.75674">
        <ele>290</ele>
        <time>2011-03-05T14:04:33Z</time>
      </trkpt>
      <trkpt lat="44.0874" lon="1.75671">
        <ele>290</ele>
        <time>2011-03-05T14:04:36Z</time>
      </trkpt>
      <trkpt lat="44.08742" lon="1.75667">
        <ele>290</ele>
        <time>2011-03-05T14:04:39Z</time>
      </trkpt>
      <trkpt lat="44.08745" lon="1.75663">
        <ele>291</ele>
        <time>2011-03-05T14:04:43Z</time>
      </trkpt>
      <trkpt lat="44.08752" lon="1.75653">
        <ele>292</ele>
        <time>2011-03-05T14:04:52Z</time>
      </trkpt>
      <trkpt lat="44.08755" lon="1.7565">
        <ele>292</ele>
        <time>2011-03-05T14:04:56Z</time>
      </trkpt>
      <trkpt lat="44.08757" lon="1.75646">
        <ele>292</ele>
        <time>2011-03-05T14:05:00Z</time>
      </trkpt>
      <trkpt lat="44.08757" lon="1.75644">
        <ele>292</ele>
        <time>2011-03-05T14:05:02Z</time>
      </trkpt>
      <trkpt lat="44.0876" lon="1.75638">
        <ele>292</ele>
        <time>2011-03-05T14:05:08Z</time>
      </trkpt>
      <trkpt lat="44.08766" lon="1.75619">
        <ele>292</ele>
        <time>2011-03-05T14:05:15Z</time>
      </trkpt>
      <trkpt lat="44.08766" lon="1.75601">
        <ele>292</ele>
        <time>2011-03-05T14:05:21Z</time>
      </trkpt>
      <trkpt lat="44.0877" lon="1.75578">
        <ele>292</ele>
        <time>2011-03-05T14:05:25Z</time>
      </trkpt>
      <trkpt lat="44.08774" lon="1.75561">
        <ele>292</ele>
        <time>2011-03-05T14:05:30Z</time>
      </trkpt>
      <trkpt lat="44.08777" lon="1.75554">
        <ele>292</ele>
        <time>2011-03-05T14:05:32Z</time>
      </trkpt>
      <trkpt lat="44.08781" lon="1.7554">
        <ele>292</ele>
        <time>2011-03-05T14:05:36Z</time>
      </trkpt>
      <trkpt lat="44.08782" lon="1.75526">
        <ele>292</ele>
        <time>2011-03-05T14:05:39Z</time>
      </trkpt>
      <trkpt lat="44.08783" lon="1.7552">
        <ele>292</ele>
        <time>2011-03-05T14:05:40Z</time>
      </trkpt>
      <trkpt lat="44.08788" lon="1.75509">
        <ele>292</ele>
        <time>2011-03-05T14:05:43Z</time>
      </trkpt>
      <trkpt lat="44.08793" lon="1.75491">
        <ele>292</ele>
        <time>2011-03-05T14:05:47Z</time>
      </trkpt>
      <trkpt lat="44.08795" lon="1.75477">
        <ele>292</ele>
        <time>2011-03-05T14:05:50Z</time>
      </trkpt>
      <trkpt lat="44.08795" lon="1.75471">
        <ele>292</ele>
        <time>2011-03-05T14:05:51Z</time>
      </trkpt>
      <trkpt lat="44.08799" lon="1.75455">
        <ele>292</ele>
        <time>2011-03-05T14:05:54Z</time>
      </trkpt>
      <trkpt lat="44.088" lon="1.7545">
        <ele>292</ele>
        <time>2011-03-05T14:05:55Z</time>
      </trkpt>
      <trkpt lat="44.088" lon="1.75444">
        <ele>292</ele>
        <time>2011-03-05T14:05:56Z</time>
      </trkpt>
      <trkpt lat="44.08801" lon="1.75439">
        <ele>292</ele>
        <time>2011-03-05T14:05:57Z</time>
      </trkpt>
      <trkpt lat="44.08803" lon="1.7542">
        <ele>292</ele>
        <time>2011-03-05T14:06:00Z</time>
      </trkpt>
      <trkpt lat="44.08806" lon="1.75404">
        <ele>292</ele>
        <time>2011-03-05T14:06:03Z</time>
      </trkpt>
      <trkpt lat="44.08807" lon="1.75398">
        <ele>292</ele>
        <time>2011-03-05T14:06:04Z</time>
      </trkpt>
      <trkpt lat="44.08809" lon="1.75389">
        <ele>292</ele>
        <time>2011-03-05T14:06:06Z</time>
      </trkpt>
      <trkpt lat="44.0881" lon="1.75379">
        <ele>292</ele>
        <time>2011-03-05T14:06:08Z</time>
      </trkpt>
      <trkpt lat="44.08821" lon="1.75342">
        <ele>292</ele>
        <time>2011-03-05T14:06:15Z</time>
      </trkpt>
      <trkpt lat="44.08825" lon="1.75319">
        <ele>292</ele>
        <time>2011-03-05T14:06:19Z</time>
      </trkpt>
      <trkpt lat="44.08834" lon="1.75275">
        <ele>290</ele>
        <time>2011-03-05T14:06:26Z</time>
      </trkpt>
      <trkpt lat="44.08837" lon="1.75236">
        <ele>290</ele>
        <time>2011-03-05T14:06:31Z</time>
      </trkpt>
      <trkpt lat="44.08842" lon="1.75216">
        <ele>290</ele>
        <time>2011-03-05T14:06:34Z</time>
      </trkpt>
      <trkpt lat="44.08843" lon="1.7521">
        <ele>290</ele>
        <time>2011-03-05T14:06:35Z</time>
      </trkpt>
      <trkpt lat="44.08847" lon="1.75194">
        <ele>289</ele>
        <time>2011-03-05T14:06:38Z</time>
      </trkpt>
      <trkpt lat="44.08852" lon="1.75183">
        <ele>288</ele>
        <time>2011-03-05T14:06:41Z</time>
      </trkpt>
      <trkpt lat="44.08854" lon="1.75174">
        <ele>288</ele>
        <time>2011-03-05T14:06:44Z</time>
      </trkpt>
      <trkpt lat="44.08855" lon="1.7517">
        <ele>288</ele>
        <time>2011-03-05T14:06:46Z</time>
      </trkpt>
      <trkpt lat="44.08856" lon="1.75155">
        <ele>288</ele>
        <time>2011-03-05T14:06:52Z</time>
      </trkpt>
      <trkpt lat="44.08857" lon="1.75147">
        <ele>288</ele>
        <time>2011-03-05T14:06:55Z</time>
      </trkpt>
      <trkpt lat="44.08857" lon="1.75143">
        <ele>288</ele>
        <time>2011-03-05T14:06:57Z</time>
      </trkpt>
      <trkpt lat="44.08859" lon="1.75123">
        <ele>288</ele>
        <time>2011-03-05T14:07:12Z</time>
      </trkpt>
      <trkpt lat="44.08859" lon="1.75117">
        <ele>288</ele>
        <time>2011-03-05T14:07:15Z</time>
      </trkpt>
      <trkpt lat="44.08858" lon="1.75114">
        <ele>288</ele>
        <time>2011-03-05T14:07:17Z</time>
      </trkpt>
      <trkpt lat="44.08859" lon="1.75103">
        <ele>288</ele>
        <time>2011-03-05T14:07:24Z</time>
      </trkpt>
      <trkpt lat="44.08861" lon="1.75099">
        <ele>288</ele>
        <time>2011-03-05T14:07:26Z</time>
      </trkpt>
      <trkpt lat="44.08862" lon="1.75093">
        <ele>288</ele>
        <time>2011-03-05T14:07:28Z</time>
      </trkpt>
      <trkpt lat="44.08861" lon="1.7509">
        <ele>288</ele>
        <time>2011-03-05T14:07:29Z</time>
      </trkpt>
      <trkpt lat="44.08862" lon="1.75084">
        <ele>288</ele>
        <time>2011-03-05T14:07:31Z</time>
      </trkpt>
      <trkpt lat="44.08863" lon="1.7506">
        <ele>288</ele>
        <time>2011-03-05T14:07:37Z</time>
      </trkpt>
      <trkpt lat="44.08863" lon="1.75053">
        <ele>288</ele>
        <time>2011-03-05T14:07:39Z</time>
      </trkpt>
      <trkpt lat="44.0887" lon="1.75032">
        <ele>289</ele>
        <time>2011-03-05T14:07:45Z</time>
      </trkpt>
      <trkpt lat="44.08871" lon="1.75023">
        <ele>289</ele>
        <time>2011-03-05T14:07:47Z</time>
      </trkpt>
      <trkpt lat="44.08873" lon="1.75016">
        <ele>289</ele>
        <time>2011-03-05T14:07:49Z</time>
      </trkpt>
      <trkpt lat="44.08875" lon="1.75008">
        <ele>289</ele>
        <time>2011-03-05T14:07:51Z</time>
      </trkpt>
      <trkpt lat="44.08877" lon="1.75002">
        <ele>289</ele>
        <time>2011-03-05T14:07:53Z</time>
      </trkpt>
      <trkpt lat="44.08878" lon="1.74995">
        <ele>289</ele>
        <time>2011-03-05T14:07:55Z</time>
      </trkpt>
      <trkpt lat="44.08874" lon="1.74978">
        <ele>289</ele>
        <time>2011-03-05T14:08:00Z</time>
      </trkpt>
      <trkpt lat="44.08874" lon="1.74971">
        <ele>289</ele>
        <time>2011-03-05T14:08:02Z</time>
      </trkpt>
      <trkpt lat="44.08874" lon="1.74959">
        <ele>289</ele>
        <time>2011-03-05T14:08:08Z</time>
      </trkpt>
      <trkpt lat="44.08873" lon="1.74939">
        <ele>289</ele>
        <time>2011-03-05T14:08:13Z</time>
      </trkpt>
      <trkpt lat="44.08872" lon="1.74936">
        <ele>289</ele>
        <time>2011-03-05T14:08:14Z</time>
      </trkpt>
      <trkpt lat="44.08872" lon="1.7492">
        <ele>289</ele>
        <time>2011-03-05T14:08:18Z</time>
      </trkpt>
      <trkpt lat="44.08868" lon="1.74908">
        <ele>289</ele>
        <time>2011-03-05T14:08:21Z</time>
      </trkpt>
      <trkpt lat="44.08868" lon="1.74904">
        <ele>289</ele>
        <time>2011-03-05T14:08:22Z</time>
      </trkpt>
      <trkpt lat="44.08871" lon="1.74886">
        <ele>289</ele>
        <time>2011-03-05T14:08:26Z</time>
      </trkpt>
      <trkpt lat="44.08872" lon="1.74875">
        <ele>289</ele>
        <time>2011-03-05T14:08:28Z</time>
      </trkpt>
      <trkpt lat="44.08874" lon="1.74856">
        <ele>289</ele>
        <time>2011-03-05T14:08:32Z</time>
      </trkpt>
      <trkpt lat="44.08877" lon="1.74846">
        <ele>289</ele>
        <time>2011-03-05T14:08:34Z</time>
      </trkpt>
      <trkpt lat="44.08887" lon="1.74818">
        <ele>289</ele>
        <time>2011-03-05T14:08:41Z</time>
      </trkpt>
      <trkpt lat="44.08891" lon="1.74801">
        <ele>289</ele>
        <time>2011-03-05T14:08:45Z</time>
      </trkpt>
      <trkpt lat="44.08891" lon="1.74793">
        <ele>289</ele>
        <time>2011-03-05T14:08:47Z</time>
      </trkpt>
      <trkpt lat="44.08888" lon="1.74778">
        <ele>289</ele>
        <time>2011-03-05T14:08:50Z</time>
      </trkpt>
      <trkpt lat="44.08888" lon="1.7475">
        <ele>290</ele>
        <time>2011-03-05T14:08:56Z</time>
      </trkpt>
      <trkpt lat="44.08886" lon="1.7473">
        <ele>291</ele>
        <time>2011-03-05T14:09:00Z</time>
      </trkpt>
      <trkpt lat="44.08887" lon="1.74726">
        <ele>291</ele>
        <time>2011-03-05T14:09:01Z</time>
      </trkpt>
      <trkpt lat="44.08889" lon="1.74722">
        <ele>291</ele>
        <time>2011-03-05T14:09:02Z</time>
      </trkpt>
      <trkpt lat="44.08894" lon="1.74716">
        <ele>291</ele>
        <time>2011-03-05T14:09:05Z</time>
      </trkpt>
      <trkpt lat="44.08895" lon="1.74714">
        <ele>291</ele>
        <time>2011-03-05T14:09:06Z</time>
      </trkpt>
      <trkpt lat="44.08904" lon="1.74703">
        <ele>291</ele>
        <time>2011-03-05T14:09:12Z</time>
      </trkpt>
      <trkpt lat="44.08905" lon="1.74691">
        <ele>293</ele>
        <time>2011-03-05T14:09:16Z</time>
      </trkpt>
      <trkpt lat="44.08907" lon="1.74681">
        <ele>293</ele>
        <time>2011-03-05T14:09:19Z</time>
      </trkpt>
      <trkpt lat="44.08907" lon="1.74673">
        <ele>294</ele>
        <time>2011-03-05T14:09:21Z</time>
      </trkpt>
      <trkpt lat="44.08905" lon="1.74656">
        <ele>294</ele>
        <time>2011-03-05T14:09:25Z</time>
      </trkpt>
      <trkpt lat="44.08903" lon="1.74635">
        <ele>295</ele>
        <time>2011-03-05T14:09:29Z</time>
      </trkpt>
      <trkpt lat="44.08903" lon="1.74618">
        <ele>296</ele>
        <time>2011-03-05T14:09:32Z</time>
      </trkpt>
      <trkpt lat="44.08902" lon="1.74601">
        <ele>296</ele>
        <time>2011-03-05T14:09:35Z</time>
      </trkpt>
      <trkpt lat="44.08903" lon="1.74596">
        <ele>296</ele>
        <time>2011-03-05T14:09:36Z</time>
      </trkpt>
      <trkpt lat="44.08903" lon="1.74587">
        <ele>296</ele>
        <time>2011-03-05T14:09:38Z</time>
      </trkpt>
      <trkpt lat="44.089" lon="1.74551">
        <ele>296</ele>
        <time>2011-03-05T14:09:45Z</time>
      </trkpt>
      <trkpt lat="44.08898" lon="1.74539">
        <ele>296</ele>
        <time>2011-03-05T14:09:47Z</time>
      </trkpt>
      <trkpt lat="44.08897" lon="1.74527">
        <ele>296</ele>
        <time>2011-03-05T14:09:49Z</time>
      </trkpt>
      <trkpt lat="44.08896" lon="1.74509">
        <ele>296</ele>
        <time>2011-03-05T14:09:52Z</time>
      </trkpt>
      <trkpt lat="44.08893" lon="1.74492">
        <ele>296</ele>
        <time>2011-03-05T14:09:55Z</time>
      </trkpt>
      <trkpt lat="44.08889" lon="1.7448">
        <ele>296</ele>
        <time>2011-03-05T14:09:57Z</time>
      </trkpt>
      <trkpt lat="44.08887" lon="1.74474">
        <ele>296</ele>
        <time>2011-03-05T14:09:58Z</time>
      </trkpt>
      <trkpt lat="44.08884" lon="1.74462">
        <ele>296</ele>
        <time>2011-03-05T14:10:00Z</time>
      </trkpt>
      <trkpt lat="44.08883" lon="1.74457">
        <ele>296</ele>
        <time>2011-03-05T14:10:01Z</time>
      </trkpt>
      <trkpt lat="44.0888" lon="1.74451">
        <ele>296</ele>
        <time>2011-03-05T14:10:02Z</time>
      </trkpt>
      <trkpt lat="44.08877" lon="1.74442">
        <ele>296</ele>
        <time>2011-03-05T14:10:04Z</time>
      </trkpt>
      <trkpt lat="44.08876" lon="1.74438">
        <ele>296</ele>
        <time>2011-03-05T14:10:05Z</time>
      </trkpt>
      <trkpt lat="44.08878" lon="1.74435">
        <ele>296</ele>
        <time>2011-03-05T14:10:06Z</time>
      </trkpt>
      <trkpt lat="44.08881" lon="1.7443">
        <ele>296</ele>
        <time>2011-03-05T14:10:09Z</time>
      </trkpt>
      <trkpt lat="44.08881" lon="1.74424">
        <ele>296</ele>
        <time>2011-03-05T14:10:11Z</time>
      </trkpt>
      <trkpt lat="44.08883" lon="1.74416">
        <ele>296</ele>
        <time>2011-03-05T14:10:13Z</time>
      </trkpt>
      <trkpt lat="44.08884" lon="1.74407">
        <ele>296</ele>
        <time>2011-03-05T14:10:15Z</time>
      </trkpt>
      <trkpt lat="44.08887" lon="1.74388">
        <ele>296</ele>
        <time>2011-03-05T14:10:19Z</time>
      </trkpt>
      <trkpt lat="44.08897" lon="1.74361">
        <ele>296</ele>
        <time>2011-03-05T14:10:25Z</time>
      </trkpt>
      <trkpt lat="44.08898" lon="1.74343">
        <ele>296</ele>
        <time>2011-03-05T14:10:29Z</time>
      </trkpt>
      <trkpt lat="44.08897" lon="1.74336">
        <ele>296</ele>
        <time>2011-03-05T14:10:32Z</time>
      </trkpt>
      <trkpt lat="44.08889" lon="1.74333">
        <ele>295</ele>
        <time>2011-03-05T14:10:35Z</time>
      </trkpt>
      <trkpt lat="44.08879" lon="1.74323">
        <ele>294</ele>
        <time>2011-03-05T14:10:38Z</time>
      </trkpt>
      <trkpt lat="44.08866" lon="1.74306">
        <ele>294</ele>
        <time>2011-03-05T14:10:43Z</time>
      </trkpt>
      <trkpt lat="44.08849" lon="1.74289">
        <ele>294</ele>
        <time>2011-03-05T14:10:48Z</time>
      </trkpt>
      <trkpt lat="44.0884" lon="1.74277">
        <ele>294</ele>
        <time>2011-03-05T14:10:52Z</time>
      </trkpt>
      <trkpt lat="44.08831" lon="1.74268">
        <ele>294</ele>
        <time>2011-03-05T14:10:55Z</time>
      </trkpt>
      <trkpt lat="44.08829" lon="1.74265">
        <ele>294</ele>
        <time>2011-03-05T14:10:56Z</time>
      </trkpt>
      <trkpt lat="44.0882" lon="1.74253">
        <ele>294</ele>
        <time>2011-03-05T14:11:00Z</time>
      </trkpt>
      <trkpt lat="44.08817" lon="1.74251">
        <ele>294</ele>
        <time>2011-03-05T14:11:01Z</time>
      </trkpt>
      <trkpt lat="44.08811" lon="1.74249">
        <ele>294</ele>
        <time>2011-03-05T14:11:03Z</time>
      </trkpt>
      <trkpt lat="44.08808" lon="1.74247">
        <ele>294</ele>
        <time>2011-03-05T14:11:04Z</time>
      </trkpt>
      <trkpt lat="44.08806" lon="1.74243">
        <ele>294</ele>
        <time>2011-03-05T14:11:05Z</time>
      </trkpt>
      <trkpt lat="44.08801" lon="1.74232">
        <ele>294</ele>
        <time>2011-03-05T14:11:08Z</time>
      </trkpt>
      <trkpt lat="44.08799" lon="1.74228">
        <ele>294</ele>
        <time>2011-03-05T14:11:09Z</time>
      </trkpt>
      <trkpt lat="44.08794" lon="1.74221">
        <ele>294</ele>
        <time>2011-03-05T14:11:11Z</time>
      </trkpt>
      <trkpt lat="44.08789" lon="1.74211">
        <ele>294</ele>
        <time>2011-03-05T14:11:13Z</time>
      </trkpt>
      <trkpt lat="44.08788" lon="1.74202">
        <ele>294</ele>
        <time>2011-03-05T14:11:15Z</time>
      </trkpt>
      <trkpt lat="44.08787" lon="1.74194">
        <ele>294</ele>
        <time>2011-03-05T14:11:17Z</time>
      </trkpt>
      <trkpt lat="44.08785" lon="1.74187">
        <ele>294</ele>
        <time>2011-03-05T14:11:19Z</time>
      </trkpt>
      <trkpt lat="44.0878" lon="1.74177">
        <ele>294</ele>
        <time>2011-03-05T14:11:22Z</time>
      </trkpt>
      <trkpt lat="44.08773" lon="1.74169">
        <ele>294</ele>
        <time>2011-03-05T14:11:25Z</time>
      </trkpt>
      <trkpt lat="44.08769" lon="1.74161">
        <ele>294</ele>
        <time>2011-03-05T14:11:27Z</time>
      </trkpt>
      <trkpt lat="44.08764" lon="1.74149">
        <ele>294</ele>
        <time>2011-03-05T14:11:30Z</time>
      </trkpt>
      <trkpt lat="44.08761" lon="1.74144">
        <ele>294</ele>
        <time>2011-03-05T14:11:31Z</time>
      </trkpt>
      <trkpt lat="44.08759" lon="1.74142">
        <ele>294</ele>
        <time>2011-03-05T14:11:32Z</time>
      </trkpt>
      <trkpt lat="44.08752" lon="1.74137">
        <ele>294</ele>
        <time>2011-03-05T14:11:34Z</time>
      </trkpt>
      <trkpt lat="44.08745" lon="1.74135">
        <ele>294</ele>
        <time>2011-03-05T14:11:36Z</time>
      </trkpt>
      <trkpt lat="44.08742" lon="1.74132">
        <ele>294</ele>
        <time>2011-03-05T14:11:37Z</time>
      </trkpt>
      <trkpt lat="44.08731" lon="1.74117">
        <ele>294</ele>
        <time>2011-03-05T14:11:41Z</time>
      </trkpt>
      <trkpt lat="44.08728" lon="1.74115">
        <ele>294</ele>
        <time>2011-03-05T14:11:42Z</time>
      </trkpt>
      <trkpt lat="44.08724" lon="1.74115">
        <ele>294</ele>
        <time>2011-03-05T14:11:43Z</time>
      </trkpt>
      <trkpt lat="44.08717" lon="1.74118">
        <ele>294</ele>
        <time>2011-03-05T14:11:45Z</time>
      </trkpt>
      <trkpt lat="44.08714" lon="1.74118">
        <ele>294</ele>
        <time>2011-03-05T14:11:46Z</time>
      </trkpt>
      <trkpt lat="44.08695" lon="1.741">
        <ele>294</ele>
        <time>2011-03-05T14:11:53Z</time>
      </trkpt>
      <trkpt lat="44.0869" lon="1.74093">
        <ele>294</ele>
        <time>2011-03-05T14:11:55Z</time>
      </trkpt>
      <trkpt lat="44.08685" lon="1.74087">
        <ele>294</ele>
        <time>2011-03-05T14:11:57Z</time>
      </trkpt>
      <trkpt lat="44.08672" lon="1.74081">
        <ele>294</ele>
        <time>2011-03-05T14:12:01Z</time>
      </trkpt>
      <trkpt lat="44.08669" lon="1.74078">
        <ele>294</ele>
        <time>2011-03-05T14:12:02Z</time>
      </trkpt>
      <trkpt lat="44.08664" lon="1.7407">
        <ele>294</ele>
        <time>2011-03-05T14:12:05Z</time>
      </trkpt>
      <trkpt lat="44.08653" lon="1.74065">
        <ele>294</ele>
        <time>2011-03-05T14:12:10Z</time>
      </trkpt>
      <trkpt lat="44.08646" lon="1.74059">
        <ele>294</ele>
        <time>2011-03-05T14:12:13Z</time>
      </trkpt>
      <trkpt lat="44.08644" lon="1.74055">
        <ele>294</ele>
        <time>2011-03-05T14:12:15Z</time>
      </trkpt>
      <trkpt lat="44.08639" lon="1.74053">
        <ele>294</ele>
        <time>2011-03-05T14:12:19Z</time>
      </trkpt>
      <trkpt lat="44.08632" lon="1.74046">
        <ele>294</ele>
        <time>2011-03-05T14:12:24Z</time>
      </trkpt>
      <trkpt lat="44.08631" lon="1.74044">
        <ele>294</ele>
        <time>2011-03-05T14:12:28Z</time>
      </trkpt>
      <trkpt lat="44.08631" lon="1.74041">
        <ele>294</ele>
        <time>2011-03-05T14:12:30Z</time>
      </trkpt>
      <trkpt lat="44.0863" lon="1.74037">
        <ele>294</ele>
        <time>2011-03-05T14:12:33Z</time>
      </trkpt>
      <trkpt lat="44.08624" lon="1.74032">
        <ele>294</ele>
        <time>2011-03-05T14:12:41Z</time>
      </trkpt>
      <trkpt lat="44.08623" lon="1.7403">
        <ele>294</ele>
        <time>2011-03-05T14:12:42Z</time>
      </trkpt>
      <trkpt lat="44.0862" lon="1.74027">
        <ele>294</ele>
        <time>2011-03-05T14:12:44Z</time>
      </trkpt>
      <trkpt lat="44.08618" lon="1.74025">
        <ele>294</ele>
        <time>2011-03-05T14:12:45Z</time>
      </trkpt>
      <trkpt lat="44.08607" lon="1.74014">
        <ele>294</ele>
        <time>2011-03-05T14:12:50Z</time>
      </trkpt>
      <trkpt lat="44.08604" lon="1.74006">
        <ele>294</ele>
        <time>2011-03-05T14:12:53Z</time>
      </trkpt>
      <trkpt lat="44.08602" lon="1.74005">
        <ele>294</ele>
        <time>2011-03-05T14:12:54Z</time>
      </trkpt>
      <trkpt lat="44.08595" lon="1.74003">
        <ele>294</ele>
        <time>2011-03-05T14:13:00Z</time>
      </trkpt>
      <trkpt lat="44.08593" lon="1.74002">
        <ele>294</ele>
        <time>2011-03-05T14:13:02Z</time>
      </trkpt>
      <trkpt lat="44.0859" lon="1.73997">
        <ele>293</ele>
        <time>2011-03-05T14:13:09Z</time>
      </trkpt>
      <trkpt lat="44.08584" lon="1.73997">
        <ele>292</ele>
        <time>2011-03-05T14:13:25Z</time>
      </trkpt>
      <trkpt lat="44.08585" lon="1.73998">
        <ele>288</ele>
        <time>2011-03-05T14:14:08Z</time>
      </trkpt>
      <trkpt lat="44.08583" lon="1.73997">
        <ele>287</ele>
        <time>2011-03-05T14:15:21Z</time>
      </trkpt>
      <trkpt lat="44.08584" lon="1.73998">
        <ele>287</ele>
        <time>2011-03-05T14:15:29Z</time>
      </trkpt>
      <trkpt lat="44.08585" lon="1.73996">
        <ele>285</ele>
        <time>2011-03-05T14:15:37Z</time>
      </trkpt>
      <trkpt lat="44.08586" lon="1.73997">
        <ele>285</ele>
        <time>2011-03-05T14:15:51Z</time>
      </trkpt>
      <trkpt lat="44.08585" lon="1.73997">
        <ele>285</ele>
        <time>2011-03-05T14:16:02Z</time>
      </trkpt>
      <trkpt lat="44.08584" lon="1.73999">
        <ele>285</ele>
        <time>2011-03-05T14:16:41Z</time>
      </trkpt>
      <trkpt lat="44.08583" lon="1.74002">
        <ele>285</ele>
        <time>2011-03-05T14:16:45Z</time>
      </trkpt>
      <trkpt lat="44.08585" lon="1.73999">
        <ele>285</ele>
        <time>2011-03-05T14:17:05Z</time>
      </trkpt>
      <trkpt lat="44.08583" lon="1.73996">
        <ele>286</ele>
        <time>2011-03-05T14:17:31Z</time>
      </trkpt>
      <trkpt lat="44.08585" lon="1.73996">
        <ele>290</ele>
        <time>2011-03-05T14:18:50Z</time>
      </trkpt>
      <trkpt lat="44.08585" lon="1.73997">
        <ele>289</ele>
        <time>2011-03-05T14:19:06Z</time>
      </trkpt>
      <trkpt lat="44.08585" lon="1.73996">
        <ele>289</ele>
        <time>2011-03-05T14:19:19Z</time>
      </trkpt>
      <trkpt lat="44.08586" lon="1.73996">
        <ele>289</ele>
        <time>2011-03-05T14:20:02Z</time>
      </trkpt>
      <trkpt lat="44.08585" lon="1.73997">
        <ele>286</ele>
        <time>2011-03-05T14:20:35Z</time>
      </trkpt>
      <trkpt lat="44.08586" lon="1.73998">
        <ele>286</ele>
        <time>2011-03-05T14:20:44Z</time>
      </trkpt>
      <trkpt lat="44.0859" lon="1.73998">
        <ele>286</ele>
        <time>2011-03-05T14:21:11Z</time>
      </trkpt>
      <trkpt lat="44.08593" lon="1.74002">
        <ele>286</ele>
        <time>2011-03-05T14:21:15Z</time>
      </trkpt>
      <trkpt lat="44.08596" lon="1.74004">
        <ele>286</ele>
        <time>2011-03-05T14:21:19Z</time>
      </trkpt>
      <trkpt lat="44.08597" lon="1.74004">
        <ele>286</ele>
        <time>2011-03-05T14:21:25Z</time>
      </trkpt>
      <trkpt lat="44.08596" lon="1.74004">
        <ele>286</ele>
        <time>2011-03-05T14:21:54Z</time>
      </trkpt>
      <trkpt lat="44.08595" lon="1.74002">
        <ele>286</ele>
        <time>2011-03-05T14:22:07Z</time>
      </trkpt>
      <trkpt lat="44.08595" lon="1.74001">
        <ele>289</ele>
        <time>2011-03-05T14:23:11Z</time>
      </trkpt>
      <trkpt lat="44.08596" lon="1.73998">
        <ele>289</ele>
        <time>2011-03-05T14:23:14Z</time>
      </trkpt>
      <trkpt lat="44.08618" lon="1.73989">
        <ele>289</ele>
        <time>2011-03-05T14:23:22Z</time>
      </trkpt>
      <trkpt lat="44.08656" lon="1.73984">
        <ele>289</ele>
        <time>2011-03-05T14:23:31Z</time>
      </trkpt>
      <trkpt lat="44.08663" lon="1.73981">
        <ele>289</ele>
        <time>2011-03-05T14:23:35Z</time>
      </trkpt>
      <trkpt lat="44.08662" lon="1.73982">
        <ele>289</ele>
        <time>2011-03-05T14:23:36Z</time>
      </trkpt>
      <trkpt lat="44.08661" lon="1.73983">
        <ele>289</ele>
        <time>2011-03-05T14:23:50Z</time>
      </trkpt>
      <trkpt lat="44.08664" lon="1.73984">
        <ele>289</ele>
        <time>2011-03-05T14:24:07Z</time>
      </trkpt>
      <trkpt lat="44.08667" lon="1.73983">
        <ele>289</ele>
        <time>2011-03-05T14:24:09Z</time>
      </trkpt>
      <trkpt lat="44.08675" lon="1.73979">
        <ele>289</ele>
        <time>2011-03-05T14:24:12Z</time>
      </trkpt>
      <trkpt lat="44.08688" lon="1.73976">
        <ele>289</ele>
        <time>2011-03-05T14:24:16Z</time>
      </trkpt>
      <trkpt lat="44.08702" lon="1.73975">
        <ele>289</ele>
        <time>2011-03-05T14:24:19Z</time>
      </trkpt>
      <trkpt lat="44.08716" lon="1.73972">
        <ele>289</ele>
        <time>2011-03-05T14:24:22Z</time>
      </trkpt>
      <trkpt lat="44.08724" lon="1.73969">
        <ele>287</ele>
        <time>2011-03-05T14:24:24Z</time>
      </trkpt>
      <trkpt lat="44.08729" lon="1.73966">
        <ele>287</ele>
        <time>2011-03-05T14:24:25Z</time>
      </trkpt>
      <trkpt lat="44.0875" lon="1.73944">
        <ele>284</ele>
        <time>2011-03-05T14:24:30Z</time>
      </trkpt>
      <trkpt lat="44.08764" lon="1.73932">
        <ele>283</ele>
        <time>2011-03-05T14:24:33Z</time>
      </trkpt>
      <trkpt lat="44.08777" lon="1.73918">
        <ele>281</ele>
        <time>2011-03-05T14:24:36Z</time>
      </trkpt>
      <trkpt lat="44.08789" lon="1.73903">
        <ele>278</ele>
        <time>2011-03-05T14:24:39Z</time>
      </trkpt>
      <trkpt lat="44.08805" lon="1.73878">
        <ele>273</ele>
        <time>2011-03-05T14:24:44Z</time>
      </trkpt>
      <trkpt lat="44.08828" lon="1.73856">
        <ele>269</ele>
        <time>2011-03-05T14:24:48Z</time>
      </trkpt>
      <trkpt lat="44.08838" lon="1.73845">
        <ele>268</ele>
        <time>2011-03-05T14:24:50Z</time>
      </trkpt>
      <trkpt lat="44.08845" lon="1.73833">
        <ele>267</ele>
        <time>2011-03-05T14:24:52Z</time>
      </trkpt>
      <trkpt lat="44.0885" lon="1.73827">
        <ele>266</ele>
        <time>2011-03-05T14:24:53Z</time>
      </trkpt>
      <trkpt lat="44.08872" lon="1.7379">
        <ele>260</ele>
        <time>2011-03-05T14:24:59Z</time>
      </trkpt>
      <trkpt lat="44.08878" lon="1.73777">
        <ele>258</ele>
        <time>2011-03-05T14:25:01Z</time>
      </trkpt>
      <trkpt lat="44.08887" lon="1.73753">
        <ele>254</ele>
        <time>2011-03-05T14:25:05Z</time>
      </trkpt>
      <trkpt lat="44.089" lon="1.73726">
        <ele>249</ele>
        <time>2011-03-05T14:25:10Z</time>
      </trkpt>
      <trkpt lat="44.08904" lon="1.7372">
        <ele>247</ele>
        <time>2011-03-05T14:25:12Z</time>
      </trkpt>
      <trkpt lat="44.08904" lon="1.73717">
        <ele>247</ele>
        <time>2011-03-05T14:25:13Z</time>
      </trkpt>
      <trkpt lat="44.08902" lon="1.73717">
        <ele>245</ele>
        <time>2011-03-05T14:25:15Z</time>
      </trkpt>
      <trkpt lat="44.0888" lon="1.73737">
        <ele>241</ele>
        <time>2011-03-05T14:25:22Z</time>
      </trkpt>
      <trkpt lat="44.08878" lon="1.73737">
        <ele>241</ele>
        <time>2011-03-05T14:25:23Z</time>
      </trkpt>
      <trkpt lat="44.08876" lon="1.73734">
        <ele>240</ele>
        <time>2011-03-05T14:25:24Z</time>
      </trkpt>
      <trkpt lat="44.08877" lon="1.7373">
        <ele>240</ele>
        <time>2011-03-05T14:25:25Z</time>
      </trkpt>
      <trkpt lat="44.08879" lon="1.73726">
        <ele>239</ele>
        <time>2011-03-05T14:25:26Z</time>
      </trkpt>
      <trkpt lat="44.08884" lon="1.73716">
        <ele>238</ele>
        <time>2011-03-05T14:25:28Z</time>
      </trkpt>
      <trkpt lat="44.08887" lon="1.73711">
        <ele>237</ele>
        <time>2011-03-05T14:25:29Z</time>
      </trkpt>
      <trkpt lat="44.08919" lon="1.73647">
        <ele>230</ele>
        <time>2011-03-05T14:25:40Z</time>
      </trkpt>
      <trkpt lat="44.08934" lon="1.73612">
        <ele>227</ele>
        <time>2011-03-05T14:25:45Z</time>
      </trkpt>
      <trkpt lat="44.08947" lon="1.73585">
        <ele>224</ele>
        <time>2011-03-05T14:25:49Z</time>
      </trkpt>
      <trkpt lat="44.08966" lon="1.73548">
        <ele>220</ele>
        <time>2011-03-05T14:25:55Z</time>
      </trkpt>
      <trkpt lat="44.08974" lon="1.73528">
        <ele>218</ele>
        <time>2011-03-05T14:25:58Z</time>
      </trkpt>
      <trkpt lat="44.08981" lon="1.73506">
        <ele>216</ele>
        <time>2011-03-05T14:26:01Z</time>
      </trkpt>
      <trkpt lat="44.08992" lon="1.7348">
        <ele>212</ele>
        <time>2011-03-05T14:26:05Z</time>
      </trkpt>
      <trkpt lat="44.09007" lon="1.73439">
        <ele>206</ele>
        <time>2011-03-05T14:26:11Z</time>
      </trkpt>
      <trkpt lat="44.09012" lon="1.73427">
        <ele>204</ele>
        <time>2011-03-05T14:26:13Z</time>
      </trkpt>
      <trkpt lat="44.09021" lon="1.73411">
        <ele>201</ele>
        <time>2011-03-05T14:26:16Z</time>
      </trkpt>
      <trkpt lat="44.09029" lon="1.73395">
        <ele>198</ele>
        <time>2011-03-05T14:26:19Z</time>
      </trkpt>
      <trkpt lat="44.09038" lon="1.73378">
        <ele>195</ele>
        <time>2011-03-05T14:26:22Z</time>
      </trkpt>
      <trkpt lat="44.09047" lon="1.73358">
        <ele>191</ele>
        <time>2011-03-05T14:26:26Z</time>
      </trkpt>
      <trkpt lat="44.09054" lon="1.73345">
        <ele>190</ele>
        <time>2011-03-05T14:26:29Z</time>
      </trkpt>
      <trkpt lat="44.09056" lon="1.7334">
        <ele>189</ele>
        <time>2011-03-05T14:26:30Z</time>
      </trkpt>
      <trkpt lat="44.09065" lon="1.73323">
        <ele>187</ele>
        <time>2011-03-05T14:26:34Z</time>
      </trkpt>
      <trkpt lat="44.09074" lon="1.73313">
        <ele>185</ele>
        <time>2011-03-05T14:26:37Z</time>
      </trkpt>
      <trkpt lat="44.09075" lon="1.73311">
        <ele>184</ele>
        <time>2011-03-05T14:26:38Z</time>
      </trkpt>
      <trkpt lat="44.09075" lon="1.73309">
        <ele>184</ele>
        <time>2011-03-05T14:26:39Z</time>
      </trkpt>
      <trkpt lat="44.09071" lon="1.73309">
        <ele>184</ele>
        <time>2011-03-05T14:26:41Z</time>
      </trkpt>
      <trkpt lat="44.09066" lon="1.73312">
        <ele>184</ele>
        <time>2011-03-05T14:26:43Z</time>
      </trkpt>
      <trkpt lat="44.09058" lon="1.73315">
        <ele>183</ele>
        <time>2011-03-05T14:26:45Z</time>
      </trkpt>
      <trkpt lat="44.09032" lon="1.73331">
        <ele>179</ele>
        <time>2011-03-05T14:26:51Z</time>
      </trkpt>
      <trkpt lat="44.08993" lon="1.73362">
        <ele>174</ele>
        <time>2011-03-05T14:26:59Z</time>
      </trkpt>
      <trkpt lat="44.08948" lon="1.73395">
        <ele>171</ele>
        <time>2011-03-05T14:27:07Z</time>
      </trkpt>
      <trkpt lat="44.08936" lon="1.73403">
        <ele>170</ele>
        <time>2011-03-05T14:27:09Z</time>
      </trkpt>
      <trkpt lat="44.08914" lon="1.73424">
        <ele>167</ele>
        <time>2011-03-05T14:27:14Z</time>
      </trkpt>
      <trkpt lat="44.08889" lon="1.73444">
        <ele>165</ele>
        <time>2011-03-05T14:27:19Z</time>
      </trkpt>
      <trkpt lat="44.08868" lon="1.73466">
        <ele>162</ele>
        <time>2011-03-05T14:27:24Z</time>
      </trkpt>
      <trkpt lat="44.08859" lon="1.73473">
        <ele>162</ele>
        <time>2011-03-05T14:27:26Z</time>
      </trkpt>
      <trkpt lat="44.08855" lon="1.73476">
        <ele>161</ele>
        <time>2011-03-05T14:27:27Z</time>
      </trkpt>
      <trkpt lat="44.0885" lon="1.73482">
        <ele>161</ele>
        <time>2011-03-05T14:27:29Z</time>
      </trkpt>
      <trkpt lat="44.08845" lon="1.73486">
        <ele>160</ele>
        <time>2011-03-05T14:27:31Z</time>
      </trkpt>
      <trkpt lat="44.08843" lon="1.73486">
        <ele>160</ele>
        <time>2011-03-05T14:27:32Z</time>
      </trkpt>
      <trkpt lat="44.08843" lon="1.73483">
        <ele>160</ele>
        <time>2011-03-05T14:27:33Z</time>
      </trkpt>
      <trkpt lat="44.08847" lon="1.73474">
        <ele>158</ele>
        <time>2011-03-05T14:27:36Z</time>
      </trkpt>
      <trkpt lat="44.08852" lon="1.73466">
        <ele>158</ele>
        <time>2011-03-05T14:27:38Z</time>
      </trkpt>
      <trkpt lat="44.0886" lon="1.73443">
        <ele>157</ele>
        <time>2011-03-05T14:27:42Z</time>
      </trkpt>
      <trkpt lat="44.08865" lon="1.73432">
        <ele>156</ele>
        <time>2011-03-05T14:27:44Z</time>
      </trkpt>
      <trkpt lat="44.08882" lon="1.73393">
        <ele>154</ele>
        <time>2011-03-05T14:27:51Z</time>
      </trkpt>
      <trkpt lat="44.08888" lon="1.73381">
        <ele>153</ele>
        <time>2011-03-05T14:27:53Z</time>
      </trkpt>
      <trkpt lat="44.08892" lon="1.73368">
        <ele>152</ele>
        <time>2011-03-05T14:27:55Z</time>
      </trkpt>
      <trkpt lat="44.08895" lon="1.73362">
        <ele>152</ele>
        <time>2011-03-05T14:27:56Z</time>
      </trkpt>
      <trkpt lat="44.08911" lon="1.73331">
        <ele>150</ele>
        <time>2011-03-05T14:28:01Z</time>
      </trkpt>
      <trkpt lat="44.08921" lon="1.73316">
        <ele>149</ele>
        <time>2011-03-05T14:28:04Z</time>
      </trkpt>
      <trkpt lat="44.08931" lon="1.73293">
        <ele>147</ele>
        <time>2011-03-05T14:28:08Z</time>
      </trkpt>
      <trkpt lat="44.08937" lon="1.73283">
        <ele>146</ele>
        <time>2011-03-05T14:28:10Z</time>
      </trkpt>
      <trkpt lat="44.08941" lon="1.73278">
        <ele>145</ele>
        <time>2011-03-05T14:28:11Z</time>
      </trkpt>
      <trkpt lat="44.08952" lon="1.73257">
        <ele>144</ele>
        <time>2011-03-05T14:28:15Z</time>
      </trkpt>
      <trkpt lat="44.08961" lon="1.73232">
        <ele>141</ele>
        <time>2011-03-05T14:28:19Z</time>
      </trkpt>
      <trkpt lat="44.08963" lon="1.73225">
        <ele>140</ele>
        <time>2011-03-05T14:28:20Z</time>
      </trkpt>
      <trkpt lat="44.08978" lon="1.7319">
        <ele>138</ele>
        <time>2011-03-05T14:28:25Z</time>
      </trkpt>
      <trkpt lat="44.08986" lon="1.73168">
        <ele>136</ele>
        <time>2011-03-05T14:28:28Z</time>
      </trkpt>
      <trkpt lat="44.08993" lon="1.73152">
        <ele>135</ele>
        <time>2011-03-05T14:28:30Z</time>
      </trkpt>
      <trkpt lat="44.09002" lon="1.73138">
        <ele>134</ele>
        <time>2011-03-05T14:28:32Z</time>
      </trkpt>
      <trkpt lat="44.09024" lon="1.73111">
        <ele>132</ele>
        <time>2011-03-05T14:28:37Z</time>
      </trkpt>
      <trkpt lat="44.09027" lon="1.73105">
        <ele>131</ele>
        <time>2011-03-05T14:28:38Z</time>
      </trkpt>
      <trkpt lat="44.09028" lon="1.73098">
        <ele>131</ele>
        <time>2011-03-05T14:28:39Z</time>
      </trkpt>
      <trkpt lat="44.09028" lon="1.73084">
        <ele>130</ele>
        <time>2011-03-05T14:28:41Z</time>
      </trkpt>
      <trkpt lat="44.09026" lon="1.73076">
        <ele>129</ele>
        <time>2011-03-05T14:28:42Z</time>
      </trkpt>
      <trkpt lat="44.09022" lon="1.7306">
        <ele>128</ele>
        <time>2011-03-05T14:28:44Z</time>
      </trkpt>
      <trkpt lat="44.09021" lon="1.73052">
        <ele>127</ele>
        <time>2011-03-05T14:28:45Z</time>
      </trkpt>
      <trkpt lat="44.09019" lon="1.73028">
        <ele>125</ele>
        <time>2011-03-05T14:28:48Z</time>
      </trkpt>
      <trkpt lat="44.09018" lon="1.73021">
        <ele>124</ele>
        <time>2011-03-05T14:28:49Z</time>
      </trkpt>
      <trkpt lat="44.09016" lon="1.73016">
        <ele>123</ele>
        <time>2011-03-05T14:28:50Z</time>
      </trkpt>
      <trkpt lat="44.09013" lon="1.73012">
        <ele>123</ele>
        <time>2011-03-05T14:28:51Z</time>
      </trkpt>
      <trkpt lat="44.09008" lon="1.7301">
        <ele>122</ele>
        <time>2011-03-05T14:28:52Z</time>
      </trkpt>
      <trkpt lat="44.09003" lon="1.7301">
        <ele>121</ele>
        <time>2011-03-05T14:28:53Z</time>
      </trkpt>
      <trkpt lat="44.08997" lon="1.73013">
        <ele>120</ele>
        <time>2011-03-05T14:28:54Z</time>
      </trkpt>
      <trkpt lat="44.08991" lon="1.73018">
        <ele>119</ele>
        <time>2011-03-05T14:28:55Z</time>
      </trkpt>
      <trkpt lat="44.08982" lon="1.73034">
        <ele>118</ele>
        <time>2011-03-05T14:28:57Z</time>
      </trkpt>
      <trkpt lat="44.08963" lon="1.73074">
        <ele>114</ele>
        <time>2011-03-05T14:29:01Z</time>
      </trkpt>
      <trkpt lat="44.08956" lon="1.73094">
        <ele>112</ele>
        <time>2011-03-05T14:29:03Z</time>
      </trkpt>
      <trkpt lat="44.0895" lon="1.73107">
        <ele>111</ele>
        <time>2011-03-05T14:29:05Z</time>
      </trkpt>
      <trkpt lat="44.08944" lon="1.73114">
        <ele>110</ele>
        <time>2011-03-05T14:29:07Z</time>
      </trkpt>
      <trkpt lat="44.0894" lon="1.73117">
        <ele>110</ele>
        <time>2011-03-05T14:29:08Z</time>
      </trkpt>
      <trkpt lat="44.08934" lon="1.73125">
        <ele>110</ele>
        <time>2011-03-05T14:29:10Z</time>
      </trkpt>
      <trkpt lat="44.08924" lon="1.73135">
        <ele>110</ele>
        <time>2011-03-05T14:29:13Z</time>
      </trkpt>
      <trkpt lat="44.08921" lon="1.7314">
        <ele>110</ele>
        <time>2011-03-05T14:29:14Z</time>
      </trkpt>
      <trkpt lat="44.08905" lon="1.73178">
        <ele>110</ele>
        <time>2011-03-05T14:29:21Z</time>
      </trkpt>
      <trkpt lat="44.08902" lon="1.73185">
        <ele>110</ele>
        <time>2011-03-05T14:29:22Z</time>
      </trkpt>
      <trkpt lat="44.08887" lon="1.73218">
        <ele>109</ele>
        <time>2011-03-05T14:29:27Z</time>
      </trkpt>
      <trkpt lat="44.0888" lon="1.73231">
        <ele>109</ele>
        <time>2011-03-05T14:29:29Z</time>
      </trkpt>
      <trkpt lat="44.08872" lon="1.73244">
        <ele>109</ele>
        <time>2011-03-05T14:29:31Z</time>
      </trkpt>
      <trkpt lat="44.08863" lon="1.73253">
        <ele>109</ele>
        <time>2011-03-05T14:29:33Z</time>
      </trkpt>
      <trkpt lat="44.08855" lon="1.73264">
        <ele>109</ele>
        <time>2011-03-05T14:29:35Z</time>
      </trkpt>
      <trkpt lat="44.08839" lon="1.73296">
        <ele>109</ele>
        <time>2011-03-05T14:29:40Z</time>
      </trkpt>
      <trkpt lat="44.08828" lon="1.73326">
        <ele>109</ele>
        <time>2011-03-05T14:29:46Z</time>
      </trkpt>
      <trkpt lat="44.08813" lon="1.73349">
        <ele>108</ele>
        <time>2011-03-05T14:29:50Z</time>
      </trkpt>
      <trkpt lat="44.08805" lon="1.73358">
        <ele>107</ele>
        <time>2011-03-05T14:29:52Z</time>
      </trkpt>
      <trkpt lat="44.08789" lon="1.73386">
        <ele>106</ele>
        <time>2011-03-05T14:29:57Z</time>
      </trkpt>
      <trkpt lat="44.08773" lon="1.73406">
        <ele>106</ele>
        <time>2011-03-05T14:30:01Z</time>
      </trkpt>
      <trkpt lat="44.0877" lon="1.73412">
        <ele>106</ele>
        <time>2011-03-05T14:30:02Z</time>
      </trkpt>
      <trkpt lat="44.08762" lon="1.73423">
        <ele>106</ele>
        <time>2011-03-05T14:30:04Z</time>
      </trkpt>
      <trkpt lat="44.08745" lon="1.73454">
        <ele>106</ele>
        <time>2011-03-05T14:30:09Z</time>
      </trkpt>
      <trkpt lat="44.08731" lon="1.73476">
        <ele>106</ele>
        <time>2011-03-05T14:30:13Z</time>
      </trkpt>
      <trkpt lat="44.08712" lon="1.73503">
        <ele>106</ele>
        <time>2011-03-05T14:30:18Z</time>
      </trkpt>
      <trkpt lat="44.08705" lon="1.73512">
        <ele>106</ele>
        <time>2011-03-05T14:30:20Z</time>
      </trkpt>
      <trkpt lat="44.08696" lon="1.73524">
        <ele>106</ele>
        <time>2011-03-05T14:30:22Z</time>
      </trkpt>
      <trkpt lat="44.08685" lon="1.73544">
        <ele>106</ele>
        <time>2011-03-05T14:30:25Z</time>
      </trkpt>
      <trkpt lat="44.08676" lon="1.73553">
        <ele>106</ele>
        <time>2011-03-05T14:30:27Z</time>
      </trkpt>
      <trkpt lat="44.08665" lon="1.73558">
        <ele>106</ele>
        <time>2011-03-05T14:30:29Z</time>
      </trkpt>
      <trkpt lat="44.0866" lon="1.73562">
        <ele>106</ele>
        <time>2011-03-05T14:30:30Z</time>
      </trkpt>
      <trkpt lat="44.08646" lon="1.73578">
        <ele>106</ele>
        <time>2011-03-05T14:30:33Z</time>
      </trkpt>
      <trkpt lat="44.08628" lon="1.73592">
        <ele>106</ele>
        <time>2011-03-05T14:30:37Z</time>
      </trkpt>
      <trkpt lat="44.08617" lon="1.73602">
        <ele>106</ele>
        <time>2011-03-05T14:30:39Z</time>
      </trkpt>
      <trkpt lat="44.08589" lon="1.73626">
        <ele>108</ele>
        <time>2011-03-05T14:30:45Z</time>
      </trkpt>
      <trkpt lat="44.08576" lon="1.73639">
        <ele>108</ele>
        <time>2011-03-05T14:30:48Z</time>
      </trkpt>
      <trkpt lat="44.08562" lon="1.7365">
        <ele>108</ele>
        <time>2011-03-05T14:30:51Z</time>
      </trkpt>
      <trkpt lat="44.08553" lon="1.73656">
        <ele>108</ele>
        <time>2011-03-05T14:30:53Z</time>
      </trkpt>
      <trkpt lat="44.08534" lon="1.73674">
        <ele>108</ele>
        <time>2011-03-05T14:30:57Z</time>
      </trkpt>
      <trkpt lat="44.08505" lon="1.73695">
        <ele>108</ele>
        <time>2011-03-05T14:31:03Z</time>
      </trkpt>
      <trkpt lat="44.08495" lon="1.73702">
        <ele>108</ele>
        <time>2011-03-05T14:31:05Z</time>
      </trkpt>
      <trkpt lat="44.08467" lon="1.73724">
        <ele>108</ele>
        <time>2011-03-05T14:31:11Z</time>
      </trkpt>
      <trkpt lat="44.08463" lon="1.73727">
        <ele>109</ele>
        <time>2011-03-05T14:31:12Z</time>
      </trkpt>
      <trkpt lat="44.08454" lon="1.73734">
        <ele>109</ele>
        <time>2011-03-05T14:31:14Z</time>
      </trkpt>
      <trkpt lat="44.08451" lon="1.73738">
        <ele>110</ele>
        <time>2011-03-05T14:31:15Z</time>
      </trkpt>
      <trkpt lat="44.08434" lon="1.7375">
        <ele>111</ele>
        <time>2011-03-05T14:31:19Z</time>
      </trkpt>
      <trkpt lat="44.08422" lon="1.73761">
        <ele>112</ele>
        <time>2011-03-05T14:31:22Z</time>
      </trkpt>
      <trkpt lat="44.08409" lon="1.73771">
        <ele>112</ele>
        <time>2011-03-05T14:31:25Z</time>
      </trkpt>
      <trkpt lat="44.08401" lon="1.73778">
        <ele>112</ele>
        <time>2011-03-05T14:31:27Z</time>
      </trkpt>
      <trkpt lat="44.08391" lon="1.73788">
        <ele>113</ele>
        <time>2011-03-05T14:31:30Z</time>
      </trkpt>
      <trkpt lat="44.08387" lon="1.73791">
        <ele>113</ele>
        <time>2011-03-05T14:31:31Z</time>
      </trkpt>
      <trkpt lat="44.08366" lon="1.73799">
        <ele>113</ele>
        <time>2011-03-05T14:31:36Z</time>
      </trkpt>
      <trkpt lat="44.0836" lon="1.73803">
        <ele>113</ele>
        <time>2011-03-05T14:31:38Z</time>
      </trkpt>
      <trkpt lat="44.08355" lon="1.73808">
        <ele>113</ele>
        <time>2011-03-05T14:31:40Z</time>
      </trkpt>
      <trkpt lat="44.08352" lon="1.73814">
        <ele>113</ele>
        <time>2011-03-05T14:31:42Z</time>
      </trkpt>
      <trkpt lat="44.08351" lon="1.73817">
        <ele>113</ele>
        <time>2011-03-05T14:31:43Z</time>
      </trkpt>
      <trkpt lat="44.0835" lon="1.73827">
        <ele>113</ele>
        <time>2011-03-05T14:31:45Z</time>
      </trkpt>
      <trkpt lat="44.08349" lon="1.73831">
        <ele>113</ele>
        <time>2011-03-05T14:31:46Z</time>
      </trkpt>
      <trkpt lat="44.08346" lon="1.73836">
        <ele>113</ele>
        <time>2011-03-05T14:31:47Z</time>
      </trkpt>
      <trkpt lat="44.08342" lon="1.73839">
        <ele>113</ele>
        <time>2011-03-05T14:31:48Z</time>
      </trkpt>
      <trkpt lat="44.08332" lon="1.73843">
        <ele>113</ele>
        <time>2011-03-05T14:31:50Z</time>
      </trkpt>
      <trkpt lat="44.08298" lon="1.73852">
        <ele>112</ele>
        <time>2011-03-05T14:31:55Z</time>
      </trkpt>
      <trkpt lat="44.08285" lon="1.73858">
        <ele>112</ele>
        <time>2011-03-05T14:31:57Z</time>
      </trkpt>
      <trkpt lat="44.08279" lon="1.73863">
        <ele>112</ele>
        <time>2011-03-05T14:31:58Z</time>
      </trkpt>
      <trkpt lat="44.08274" lon="1.73868">
        <ele>111</ele>
        <time>2011-03-05T14:31:59Z</time>
      </trkpt>
      <trkpt lat="44.08261" lon="1.73888">
        <ele>111</ele>
        <time>2011-03-05T14:32:02Z</time>
      </trkpt>
      <trkpt lat="44.08246" lon="1.73916">
        <ele>111</ele>
        <time>2011-03-05T14:32:06Z</time>
      </trkpt>
      <trkpt lat="44.08238" lon="1.73928">
        <ele>111</ele>
        <time>2011-03-05T14:32:08Z</time>
      </trkpt>
      <trkpt lat="44.08233" lon="1.73932">
        <ele>111</ele>
        <time>2011-03-05T14:32:09Z</time>
      </trkpt>
      <trkpt lat="44.08228" lon="1.73933">
        <ele>111</ele>
        <time>2011-03-05T14:32:10Z</time>
      </trkpt>
      <trkpt lat="44.08223" lon="1.73932">
        <ele>111</ele>
        <time>2011-03-05T14:32:11Z</time>
      </trkpt>
      <trkpt lat="44.08211" lon="1.7392">
        <ele>111</ele>
        <time>2011-03-05T14:32:14Z</time>
      </trkpt>
      <trkpt lat="44.08202" lon="1.73907">
        <ele>111</ele>
        <time>2011-03-05T14:32:17Z</time>
      </trkpt>
      <trkpt lat="44.08183" lon="1.73884">
        <ele>111</ele>
        <time>2011-03-05T14:32:23Z</time>
      </trkpt>
      <trkpt lat="44.08166" lon="1.73859">
        <ele>112</ele>
        <time>2011-03-05T14:32:29Z</time>
      </trkpt>
      <trkpt lat="44.08132" lon="1.73813">
        <ele>113</ele>
        <time>2011-03-05T14:32:37Z</time>
      </trkpt>
      <trkpt lat="44.08096" lon="1.73768">
        <ele>114</ele>
        <time>2011-03-05T14:32:44Z</time>
      </trkpt>
      <trkpt lat="44.08081" lon="1.73748">
        <ele>114</ele>
        <time>2011-03-05T14:32:47Z</time>
      </trkpt>
      <trkpt lat="44.0806" lon="1.73723">
        <ele>114</ele>
        <time>2011-03-05T14:32:51Z</time>
      </trkpt>
      <trkpt lat="44.08041" lon="1.73697">
        <ele>114</ele>
        <time>2011-03-05T14:32:55Z</time>
      </trkpt>
      <trkpt lat="44.07979" lon="1.7361">
        <ele>113</ele>
        <time>2011-03-05T14:33:09Z</time>
      </trkpt>
      <trkpt lat="44.07972" lon="1.73597">
        <ele>113</ele>
        <time>2011-03-05T14:33:11Z</time>
      </trkpt>
      <trkpt lat="44.07958" lon="1.73572">
        <ele>113</ele>
        <time>2011-03-05T14:33:15Z</time>
      </trkpt>
      <trkpt lat="44.07948" lon="1.73553">
        <ele>113</ele>
        <time>2011-03-05T14:33:18Z</time>
      </trkpt>
      <trkpt lat="44.07939" lon="1.73533">
        <ele>113</ele>
        <time>2011-03-05T14:33:21Z</time>
      </trkpt>
      <trkpt lat="44.07928" lon="1.73513">
        <ele>113</ele>
        <time>2011-03-05T14:33:24Z</time>
      </trkpt>
      <trkpt lat="44.07922" lon="1.73499">
        <ele>113</ele>
        <time>2011-03-05T14:33:26Z</time>
      </trkpt>
      <trkpt lat="44.07915" lon="1.73486">
        <ele>113</ele>
        <time>2011-03-05T14:33:28Z</time>
      </trkpt>
      <trkpt lat="44.07902" lon="1.73459">
        <ele>113</ele>
        <time>2011-03-05T14:33:32Z</time>
      </trkpt>
      <trkpt lat="44.07898" lon="1.73452">
        <ele>113</ele>
        <time>2011-03-05T14:33:33Z</time>
      </trkpt>
      <trkpt lat="44.0788" lon="1.73412">
        <ele>113</ele>
        <time>2011-03-05T14:33:39Z</time>
      </trkpt>
      <trkpt lat="44.07868" lon="1.73383">
        <ele>113</ele>
        <time>2011-03-05T14:33:43Z</time>
      </trkpt>
      <trkpt lat="44.0785" lon="1.73332">
        <ele>113</ele>
        <time>2011-03-05T14:33:50Z</time>
      </trkpt>
      <trkpt lat="44.07843" lon="1.73308">
        <ele>113</ele>
        <time>2011-03-05T14:33:53Z</time>
      </trkpt>
      <trkpt lat="44.07841" lon="1.733">
        <ele>113</ele>
        <time>2011-03-05T14:33:54Z</time>
      </trkpt>
      <trkpt lat="44.07827" lon="1.73247">
        <ele>115</ele>
        <time>2011-03-05T14:34:01Z</time>
      </trkpt>
      <trkpt lat="44.07825" lon="1.73239">
        <ele>115</ele>
        <time>2011-03-05T14:34:02Z</time>
      </trkpt>
      <trkpt lat="44.07821" lon="1.73224">
        <ele>115</ele>
        <time>2011-03-05T14:34:04Z</time>
      </trkpt>
      <trkpt lat="44.07817" lon="1.73209">
        <ele>115</ele>
        <time>2011-03-05T14:34:06Z</time>
      </trkpt>
      <trkpt lat="44.07814" lon="1.73193">
        <ele>115</ele>
        <time>2011-03-05T14:34:08Z</time>
      </trkpt>
      <trkpt lat="44.07811" lon="1.7317">
        <ele>115</ele>
        <time>2011-03-05T14:34:11Z</time>
      </trkpt>
      <trkpt lat="44.07809" lon="1.73139">
        <ele>115</ele>
        <time>2011-03-05T14:34:15Z</time>
      </trkpt>
      <trkpt lat="44.0781" lon="1.73116">
        <ele>115</ele>
        <time>2011-03-05T14:34:18Z</time>
      </trkpt>
      <trkpt lat="44.07814" lon="1.73086">
        <ele>115</ele>
        <time>2011-03-05T14:34:22Z</time>
      </trkpt>
      <trkpt lat="44.07823" lon="1.73047">
        <ele>115</ele>
        <time>2011-03-05T14:34:27Z</time>
      </trkpt>
      <trkpt lat="44.07824" lon="1.73038">
        <ele>114</ele>
        <time>2011-03-05T14:34:28Z</time>
      </trkpt>
      <trkpt lat="44.0783" lon="1.73007">
        <ele>113</ele>
        <time>2011-03-05T14:34:32Z</time>
      </trkpt>
      <trkpt lat="44.07839" lon="1.72974">
        <ele>112</ele>
        <time>2011-03-05T14:34:37Z</time>
      </trkpt>
      <trkpt lat="44.07843" lon="1.72962">
        <ele>111</ele>
        <time>2011-03-05T14:34:39Z</time>
      </trkpt>
      <trkpt lat="44.07845" lon="1.72956">
        <ele>111</ele>
        <time>2011-03-05T14:34:40Z</time>
      </trkpt>
      <trkpt lat="44.07856" lon="1.72925">
        <ele>110</ele>
        <time>2011-03-05T14:34:45Z</time>
      </trkpt>
      <trkpt lat="44.07863" lon="1.72911">
        <ele>110</ele>
        <time>2011-03-05T14:34:47Z</time>
      </trkpt>
      <trkpt lat="44.07868" lon="1.72897">
        <ele>110</ele>
        <time>2011-03-05T14:34:49Z</time>
      </trkpt>
      <trkpt lat="44.07875" lon="1.72882">
        <ele>110</ele>
        <time>2011-03-05T14:34:51Z</time>
      </trkpt>
      <trkpt lat="44.07883" lon="1.72867">
        <ele>109</ele>
        <time>2011-03-05T14:34:53Z</time>
      </trkpt>
      <trkpt lat="44.07899" lon="1.72826">
        <ele>107</ele>
        <time>2011-03-05T14:34:58Z</time>
      </trkpt>
      <trkpt lat="44.07906" lon="1.72809">
        <ele>106</ele>
        <time>2011-03-05T14:35:00Z</time>
      </trkpt>
      <trkpt lat="44.07917" lon="1.72778">
        <ele>104</ele>
        <time>2011-03-05T14:35:04Z</time>
      </trkpt>
      <trkpt lat="44.07925" lon="1.72755">
        <ele>102</ele>
        <time>2011-03-05T14:35:07Z</time>
      </trkpt>
      <trkpt lat="44.07927" lon="1.7274">
        <ele>102</ele>
        <time>2011-03-05T14:35:09Z</time>
      </trkpt>
      <trkpt lat="44.0794" lon="1.72691">
        <ele>101</ele>
        <time>2011-03-05T14:35:16Z</time>
      </trkpt>
      <trkpt lat="44.07943" lon="1.72678">
        <ele>101</ele>
        <time>2011-03-05T14:35:18Z</time>
      </trkpt>
      <trkpt lat="44.07945" lon="1.72674">
        <ele>101</ele>
        <time>2011-03-05T14:35:19Z</time>
      </trkpt>
      <trkpt lat="44.07947" lon="1.72672">
        <ele>101</ele>
        <time>2011-03-05T14:35:20Z</time>
      </trkpt>
      <trkpt lat="44.07952" lon="1.7267">
        <ele>101</ele>
        <time>2011-03-05T14:35:22Z</time>
      </trkpt>
      <trkpt lat="44.07956" lon="1.72671">
        <ele>101</ele>
        <time>2011-03-05T14:35:24Z</time>
      </trkpt>
      <trkpt lat="44.07965" lon="1.72674">
        <ele>101</ele>
        <time>2011-03-05T14:35:26Z</time>
      </trkpt>
      <trkpt lat="44.07985" lon="1.72685">
        <ele>101</ele>
        <time>2011-03-05T14:35:30Z</time>
      </trkpt>
      <trkpt lat="44.08075" lon="1.72739">
        <ele>106</ele>
        <time>2011-03-05T14:35:48Z</time>
      </trkpt>
      <trkpt lat="44.08094" lon="1.72752">
        <ele>107</ele>
        <time>2011-03-05T14:35:52Z</time>
      </trkpt>
      <trkpt lat="44.08136" lon="1.72777">
        <ele>109</ele>
        <time>2011-03-05T14:36:01Z</time>
      </trkpt>
      <trkpt lat="44.08193" lon="1.72814">
        <ele>114</ele>
        <time>2011-03-05T14:36:15Z</time>
      </trkpt>
      <trkpt lat="44.082" lon="1.72821">
        <ele>115</ele>
        <time>2011-03-05T14:36:17Z</time>
      </trkpt>
      <trkpt lat="44.08207" lon="1.72828">
        <ele>115</ele>
        <time>2011-03-05T14:36:19Z</time>
      </trkpt>
      <trkpt lat="44.08214" lon="1.72837">
        <ele>116</ele>
        <time>2011-03-05T14:36:21Z</time>
      </trkpt>
      <trkpt lat="44.08238" lon="1.72874">
        <ele>117</ele>
        <time>2011-03-05T14:36:29Z</time>
      </trkpt>
      <trkpt lat="44.08259" lon="1.72913">
        <ele>118</ele>
        <time>2011-03-05T14:36:37Z</time>
      </trkpt>
      <trkpt lat="44.08279" lon="1.72945">
        <ele>120</ele>
        <time>2011-03-05T14:36:44Z</time>
      </trkpt>
      <trkpt lat="44.08333" lon="1.73038">
        <ele>126</ele>
        <time>2011-03-05T14:37:04Z</time>
      </trkpt>
      <trkpt lat="44.08355" lon="1.73075">
        <ele>129</ele>
        <time>2011-03-05T14:37:12Z</time>
      </trkpt>
      <trkpt lat="44.08378" lon="1.73126">
        <ele>131</ele>
        <time>2011-03-05T14:37:22Z</time>
      </trkpt>
      <trkpt lat="44.08397" lon="1.73175">
        <ele>133</ele>
        <time>2011-03-05T14:37:32Z</time>
      </trkpt>
      <trkpt lat="44.08403" lon="1.73187">
        <ele>133</ele>
        <time>2011-03-05T14:37:35Z</time>
      </trkpt>
      <trkpt lat="44.08414" lon="1.73202">
        <ele>134</ele>
        <time>2011-03-05T14:37:39Z</time>
      </trkpt>
      <trkpt lat="44.08428" lon="1.73219">
        <ele>135</ele>
        <time>2011-03-05T14:37:44Z</time>
      </trkpt>
      <trkpt lat="44.08443" lon="1.73241">
        <ele>136</ele>
        <time>2011-03-05T14:37:50Z</time>
      </trkpt>
      <trkpt lat="44.08447" lon="1.73249">
        <ele>137</ele>
        <time>2011-03-05T14:37:52Z</time>
      </trkpt>
      <trkpt lat="44.08452" lon="1.73263">
        <ele>138</ele>
        <time>2011-03-05T14:37:55Z</time>
      </trkpt>
      <trkpt lat="44.0846" lon="1.73279">
        <ele>140</ele>
        <time>2011-03-05T14:37:59Z</time>
      </trkpt>
      <trkpt lat="44.08469" lon="1.73292">
        <ele>141</ele>
        <time>2011-03-05T14:38:03Z</time>
      </trkpt>
      <trkpt lat="44.08477" lon="1.73298">
        <ele>142</ele>
        <time>2011-03-05T14:38:06Z</time>
      </trkpt>
      <trkpt lat="44.08495" lon="1.73306">
        <ele>144</ele>
        <time>2011-03-05T14:38:13Z</time>
      </trkpt>
      <trkpt lat="44.085" lon="1.73307">
        <ele>144</ele>
        <time>2011-03-05T14:38:15Z</time>
      </trkpt>
      <trkpt lat="44.08507" lon="1.73308">
        <ele>146</ele>
        <time>2011-03-05T14:38:18Z</time>
      </trkpt>
      <trkpt lat="44.08514" lon="1.73306">
        <ele>147</ele>
        <time>2011-03-05T14:38:21Z</time>
      </trkpt>
      <trkpt lat="44.08524" lon="1.73303">
        <ele>148</ele>
        <time>2011-03-05T14:38:25Z</time>
      </trkpt>
      <trkpt lat="44.08535" lon="1.73295">
        <ele>150</ele>
        <time>2011-03-05T14:38:30Z</time>
      </trkpt>
      <trkpt lat="44.08548" lon="1.7328">
        <ele>151</ele>
        <time>2011-03-05T14:38:36Z</time>
      </trkpt>
      <trkpt lat="44.08555" lon="1.73269">
        <ele>152</ele>
        <time>2011-03-05T14:38:40Z</time>
      </trkpt>
      <trkpt lat="44.08567" lon="1.73253">
        <ele>154</ele>
        <time>2011-03-05T14:38:46Z</time>
      </trkpt>
      <trkpt lat="44.08593" lon="1.73212">
        <ele>157</ele>
        <time>2011-03-05T14:39:01Z</time>
      </trkpt>
      <trkpt lat="44.08595" lon="1.73208">
        <ele>157</ele>
        <time>2011-03-05T14:39:02Z</time>
      </trkpt>
      <trkpt lat="44.08607" lon="1.73186">
        <ele>159</ele>
        <time>2011-03-05T14:39:10Z</time>
      </trkpt>
      <trkpt lat="44.08614" lon="1.73167">
        <ele>161</ele>
        <time>2011-03-05T14:39:16Z</time>
      </trkpt>
      <trkpt lat="44.08616" lon="1.73157">
        <ele>162</ele>
        <time>2011-03-05T14:39:19Z</time>
      </trkpt>
      <trkpt lat="44.08617" lon="1.73151">
        <ele>163</ele>
        <time>2011-03-05T14:39:21Z</time>
      </trkpt>
      <trkpt lat="44.08617" lon="1.73135">
        <ele>165</ele>
        <time>2011-03-05T14:39:26Z</time>
      </trkpt>
      <trkpt lat="44.08615" lon="1.73118">
        <ele>166</ele>
        <time>2011-03-05T14:39:31Z</time>
      </trkpt>
      <trkpt lat="44.0861" lon="1.73105">
        <ele>167</ele>
        <time>2011-03-05T14:39:36Z</time>
      </trkpt>
      <trkpt lat="44.08591" lon="1.73067">
        <ele>173</ele>
        <time>2011-03-05T14:39:51Z</time>
      </trkpt>
      <trkpt lat="44.08587" lon="1.7306">
        <ele>174</ele>
        <time>2011-03-05T14:39:54Z</time>
      </trkpt>
      <trkpt lat="44.08574" lon="1.73034">
        <ele>178</ele>
        <time>2011-03-05T14:40:04Z</time>
      </trkpt>
      <trkpt lat="44.08566" lon="1.73018">
        <ele>178</ele>
        <time>2011-03-05T14:40:10Z</time>
      </trkpt>
      <trkpt lat="44.08553" lon="1.72985">
        <ele>182</ele>
        <time>2011-03-05T14:40:22Z</time>
      </trkpt>
      <trkpt lat="44.08547" lon="1.72964">
        <ele>185</ele>
        <time>2011-03-05T14:40:29Z</time>
      </trkpt>
      <trkpt lat="44.08542" lon="1.72955">
        <ele>187</ele>
        <time>2011-03-05T14:40:33Z</time>
      </trkpt>
      <trkpt lat="44.0854" lon="1.72947">
        <ele>188</ele>
        <time>2011-03-05T14:40:36Z</time>
      </trkpt>
      <trkpt lat="44.08535" lon="1.72935">
        <ele>190</ele>
        <time>2011-03-05T14:40:41Z</time>
      </trkpt>
      <trkpt lat="44.08524" lon="1.72915">
        <ele>192</ele>
        <time>2011-03-05T14:40:49Z</time>
      </trkpt>
      <trkpt lat="44.08514" lon="1.7289">
        <ele>194</ele>
        <time>2011-03-05T14:40:58Z</time>
      </trkpt>
      <trkpt lat="44.08506" lon="1.72868">
        <ele>196</ele>
        <time>2011-03-05T14:41:06Z</time>
      </trkpt>
      <trkpt lat="44.08494" lon="1.72831">
        <ele>199</ele>
        <time>2011-03-05T14:41:19Z</time>
      </trkpt>
      <trkpt lat="44.08493" lon="1.72828">
        <ele>199</ele>
        <time>2011-03-05T14:41:20Z</time>
      </trkpt>
      <trkpt lat="44.0849" lon="1.72817">
        <ele>200</ele>
        <time>2011-03-05T14:41:24Z</time>
      </trkpt>
      <trkpt lat="44.08482" lon="1.72797">
        <ele>202</ele>
        <time>2011-03-05T14:41:31Z</time>
      </trkpt>
      <trkpt lat="44.08476" lon="1.72784">
        <ele>203</ele>
        <time>2011-03-05T14:41:36Z</time>
      </trkpt>
      <trkpt lat="44.08467" lon="1.7277">
        <ele>203</ele>
        <time>2011-03-05T14:41:42Z</time>
      </trkpt>
      <trkpt lat="44.08435" lon="1.72727">
        <ele>207</ele>
        <time>2011-03-05T14:42:01Z</time>
      </trkpt>
      <trkpt lat="44.08428" lon="1.72714">
        <ele>208</ele>
        <time>2011-03-05T14:42:06Z</time>
      </trkpt>
      <trkpt lat="44.08427" lon="1.72712">
        <ele>209</ele>
        <time>2011-03-05T14:42:07Z</time>
      </trkpt>
      <trkpt lat="44.08427" lon="1.72708">
        <ele>209</ele>
        <time>2011-03-05T14:42:08Z</time>
      </trkpt>
      <trkpt lat="44.08428" lon="1.72705">
        <ele>209</ele>
        <time>2011-03-05T14:42:09Z</time>
      </trkpt>
      <trkpt lat="44.08432" lon="1.72701">
        <ele>209</ele>
        <time>2011-03-05T14:42:11Z</time>
      </trkpt>
      <trkpt lat="44.08434" lon="1.72701">
        <ele>209</ele>
        <time>2011-03-05T14:42:12Z</time>
      </trkpt>
      <trkpt lat="44.08439" lon="1.72701">
        <ele>210</ele>
        <time>2011-03-05T14:42:14Z</time>
      </trkpt>
      <trkpt lat="44.08445" lon="1.72707">
        <ele>210</ele>
        <time>2011-03-05T14:42:17Z</time>
      </trkpt>
      <trkpt lat="44.08461" lon="1.72727">
        <ele>213</ele>
        <time>2011-03-05T14:42:25Z</time>
      </trkpt>
      <trkpt lat="44.08468" lon="1.72732">
        <ele>213</ele>
        <time>2011-03-05T14:42:28Z</time>
      </trkpt>
      <trkpt lat="44.08473" lon="1.72735">
        <ele>213</ele>
        <time>2011-03-05T14:42:30Z</time>
      </trkpt>
      <trkpt lat="44.08481" lon="1.72737">
        <ele>214</ele>
        <time>2011-03-05T14:42:33Z</time>
      </trkpt>
      <trkpt lat="44.08508" lon="1.72742">
        <ele>216</ele>
        <time>2011-03-05T14:42:43Z</time>
      </trkpt>
      <trkpt lat="44.08521" lon="1.72748">
        <ele>217</ele>
        <time>2011-03-05T14:42:48Z</time>
      </trkpt>
      <trkpt lat="44.08525" lon="1.72752">
        <ele>217</ele>
        <time>2011-03-05T14:42:50Z</time>
      </trkpt>
      <trkpt lat="44.08537" lon="1.72767">
        <ele>219</ele>
        <time>2011-03-05T14:42:56Z</time>
      </trkpt>
      <trkpt lat="44.08546" lon="1.72782">
        <ele>221</ele>
        <time>2011-03-05T14:43:01Z</time>
      </trkpt>
      <trkpt lat="44.08553" lon="1.72793">
        <ele>222</ele>
        <time>2011-03-05T14:43:05Z</time>
      </trkpt>
      <trkpt lat="44.08558" lon="1.72796">
        <ele>223</ele>
        <time>2011-03-05T14:43:07Z</time>
      </trkpt>
      <trkpt lat="44.08564" lon="1.72797">
        <ele>223</ele>
        <time>2011-03-05T14:43:09Z</time>
      </trkpt>
      <trkpt lat="44.08568" lon="1.72794">
        <ele>224</ele>
        <time>2011-03-05T14:43:11Z</time>
      </trkpt>
      <trkpt lat="44.0857" lon="1.72791">
        <ele>224</ele>
        <time>2011-03-05T14:43:12Z</time>
      </trkpt>
      <trkpt lat="44.08572" lon="1.72785">
        <ele>224</ele>
        <time>2011-03-05T14:43:14Z</time>
      </trkpt>
      <trkpt lat="44.08572" lon="1.72777">
        <ele>224</ele>
        <time>2011-03-05T14:43:16Z</time>
      </trkpt>
      <trkpt lat="44.08569" lon="1.7277">
        <ele>225</ele>
        <time>2011-03-05T14:43:18Z</time>
      </trkpt>
      <trkpt lat="44.08561" lon="1.72758">
        <ele>226</ele>
        <time>2011-03-05T14:43:22Z</time>
      </trkpt>
      <trkpt lat="44.08553" lon="1.72747">
        <ele>226</ele>
        <time>2011-03-05T14:43:26Z</time>
      </trkpt>
      <trkpt lat="44.08547" lon="1.72734">
        <ele>226</ele>
        <time>2011-03-05T14:43:30Z</time>
      </trkpt>
      <trkpt lat="44.08543" lon="1.72725">
        <ele>226</ele>
        <time>2011-03-05T14:43:33Z</time>
      </trkpt>
      <trkpt lat="44.08542" lon="1.72721">
        <ele>226</ele>
        <time>2011-03-05T14:43:34Z</time>
      </trkpt>
      <trkpt lat="44.08534" lon="1.72699">
        <ele>228</ele>
        <time>2011-03-05T14:43:41Z</time>
      </trkpt>
      <trkpt lat="44.08526" lon="1.72686">
        <ele>229</ele>
        <time>2011-03-05T14:43:46Z</time>
      </trkpt>
      <trkpt lat="44.08516" lon="1.72675">
        <ele>230</ele>
        <time>2011-03-05T14:43:51Z</time>
      </trkpt>
      <trkpt lat="44.08513" lon="1.7267">
        <ele>230</ele>
        <time>2011-03-05T14:43:53Z</time>
      </trkpt>
      <trkpt lat="44.08495" lon="1.72646">
        <ele>233</ele>
        <time>2011-03-05T14:44:03Z</time>
      </trkpt>
      <trkpt lat="44.08483" lon="1.72624">
        <ele>236</ele>
        <time>2011-03-05T14:44:11Z</time>
      </trkpt>
      <trkpt lat="44.08472" lon="1.72595">
        <ele>238</ele>
        <time>2011-03-05T14:44:21Z</time>
      </trkpt>
      <trkpt lat="44.0847" lon="1.72585">
        <ele>239</ele>
        <time>2011-03-05T14:44:24Z</time>
      </trkpt>
      <trkpt lat="44.08468" lon="1.72572">
        <ele>240</ele>
        <time>2011-03-05T14:44:28Z</time>
      </trkpt>
      <trkpt lat="44.08465" lon="1.7256">
        <ele>241</ele>
        <time>2011-03-05T14:44:32Z</time>
      </trkpt>
      <trkpt lat="44.08464" lon="1.7255">
        <ele>242</ele>
        <time>2011-03-05T14:44:35Z</time>
      </trkpt>
      <trkpt lat="44.08457" lon="1.72515">
        <ele>246</ele>
        <time>2011-03-05T14:44:46Z</time>
      </trkpt>
      <trkpt lat="44.08449" lon="1.72481">
        <ele>249</ele>
        <time>2011-03-05T14:44:57Z</time>
      </trkpt>
      <trkpt lat="44.08444" lon="1.72466">
        <ele>250</ele>
        <time>2011-03-05T14:45:02Z</time>
      </trkpt>
      <trkpt lat="44.08442" lon="1.72456">
        <ele>251</ele>
        <time>2011-03-05T14:45:05Z</time>
      </trkpt>
      <trkpt lat="44.0844" lon="1.72428">
        <ele>252</ele>
        <time>2011-03-05T14:45:13Z</time>
      </trkpt>
      <trkpt lat="44.08441" lon="1.7242">
        <ele>253</ele>
        <time>2011-03-05T14:45:15Z</time>
      </trkpt>
      <trkpt lat="44.08441" lon="1.72394">
        <ele>254</ele>
        <time>2011-03-05T14:45:22Z</time>
      </trkpt>
      <trkpt lat="44.08442" lon="1.72383">
        <ele>255</ele>
        <time>2011-03-05T14:45:25Z</time>
      </trkpt>
      <trkpt lat="44.08442" lon="1.72376">
        <ele>256</ele>
        <time>2011-03-05T14:45:27Z</time>
      </trkpt>
      <trkpt lat="44.08444" lon="1.72361">
        <ele>256</ele>
        <time>2011-03-05T14:45:31Z</time>
      </trkpt>
      <trkpt lat="44.08445" lon="1.72354">
        <ele>257</ele>
        <time>2011-03-05T14:45:33Z</time>
      </trkpt>
      <trkpt lat="44.08452" lon="1.72333">
        <ele>258</ele>
        <time>2011-03-05T14:45:39Z</time>
      </trkpt>
      <trkpt lat="44.08452" lon="1.7233">
        <ele>258</ele>
        <time>2011-03-05T14:45:40Z</time>
      </trkpt>
      <trkpt lat="44.08458" lon="1.72309">
        <ele>260</ele>
        <time>2011-03-05T14:45:46Z</time>
      </trkpt>
      <trkpt lat="44.0846" lon="1.72295">
        <ele>261</ele>
        <time>2011-03-05T14:45:50Z</time>
      </trkpt>
      <trkpt lat="44.0846" lon="1.72288">
        <ele>262</ele>
        <time>2011-03-05T14:45:52Z</time>
      </trkpt>
      <trkpt lat="44.08459" lon="1.72281">
        <ele>262</ele>
        <time>2011-03-05T14:45:54Z</time>
      </trkpt>
      <trkpt lat="44.08458" lon="1.72275">
        <ele>263</ele>
        <time>2011-03-05T14:45:56Z</time>
      </trkpt>
      <trkpt lat="44.08453" lon="1.72266">
        <ele>263</ele>
        <time>2011-03-05T14:45:59Z</time>
      </trkpt>
      <trkpt lat="44.08448" lon="1.7225">
        <ele>264</ele>
        <time>2011-03-05T14:46:03Z</time>
      </trkpt>
      <trkpt lat="44.0844" lon="1.72234">
        <ele>264</ele>
        <time>2011-03-05T14:46:07Z</time>
      </trkpt>
      <trkpt lat="44.0843" lon="1.72209">
        <ele>264</ele>
        <time>2011-03-05T14:46:13Z</time>
      </trkpt>
      <trkpt lat="44.08421" lon="1.72189">
        <ele>264</ele>
        <time>2011-03-05T14:46:18Z</time>
      </trkpt>
      <trkpt lat="44.08414" lon="1.72174">
        <ele>265</ele>
        <time>2011-03-05T14:46:22Z</time>
      </trkpt>
      <trkpt lat="44.08404" lon="1.72155">
        <ele>266</ele>
        <time>2011-03-05T14:46:28Z</time>
      </trkpt>
      <trkpt lat="44.08396" lon="1.72145">
        <ele>267</ele>
        <time>2011-03-05T14:46:32Z</time>
      </trkpt>
      <trkpt lat="44.08382" lon="1.72131">
        <ele>270</ele>
        <time>2011-03-05T14:46:39Z</time>
      </trkpt>
      <trkpt lat="44.08371" lon="1.72118">
        <ele>271</ele>
        <time>2011-03-05T14:46:45Z</time>
      </trkpt>
      <trkpt lat="44.08364" lon="1.72104">
        <ele>271</ele>
        <time>2011-03-05T14:46:50Z</time>
      </trkpt>
      <trkpt lat="44.08359" lon="1.72093">
        <ele>272</ele>
        <time>2011-03-05T14:46:54Z</time>
      </trkpt>
      <trkpt lat="44.08353" lon="1.72072">
        <ele>274</ele>
        <time>2011-03-05T14:47:01Z</time>
      </trkpt>
      <trkpt lat="44.08351" lon="1.72069">
        <ele>274</ele>
        <time>2011-03-05T14:47:02Z</time>
      </trkpt>
      <trkpt lat="44.0835" lon="1.72066">
        <ele>274</ele>
        <time>2011-03-05T14:47:03Z</time>
      </trkpt>
      <trkpt lat="44.08347" lon="1.7206">
        <ele>274</ele>
        <time>2011-03-05T14:47:05Z</time>
      </trkpt>
      <trkpt lat="44.08343" lon="1.72046">
        <ele>274</ele>
        <time>2011-03-05T14:47:09Z</time>
      </trkpt>
      <trkpt lat="44.08337" lon="1.7202">
        <ele>274</ele>
        <time>2011-03-05T14:47:16Z</time>
      </trkpt>
      <trkpt lat="44.08334" lon="1.72006">
        <ele>274</ele>
        <time>2011-03-05T14:47:19Z</time>
      </trkpt>
      <trkpt lat="44.08331" lon="1.71969">
        <ele>274</ele>
        <time>2011-03-05T14:47:26Z</time>
      </trkpt>
      <trkpt lat="44.08326" lon="1.71937">
        <ele>274</ele>
        <time>2011-03-05T14:47:31Z</time>
      </trkpt>
      <trkpt lat="44.08317" lon="1.71865">
        <ele>274</ele>
        <time>2011-03-05T14:47:41Z</time>
      </trkpt>
      <trkpt lat="44.08316" lon="1.71851">
        <ele>274</ele>
        <time>2011-03-05T14:47:43Z</time>
      </trkpt>
      <trkpt lat="44.08314" lon="1.7183">
        <ele>273</ele>
        <time>2011-03-05T14:47:46Z</time>
      </trkpt>
      <trkpt lat="44.08312" lon="1.71824">
        <ele>273</ele>
        <time>2011-03-05T14:47:47Z</time>
      </trkpt>
      <trkpt lat="44.08309" lon="1.71818">
        <ele>273</ele>
        <time>2011-03-05T14:47:48Z</time>
      </trkpt>
      <trkpt lat="44.08287" lon="1.71786">
        <ele>271</ele>
        <time>2011-03-05T14:47:53Z</time>
      </trkpt>
      <trkpt lat="44.08271" lon="1.71765">
        <ele>270</ele>
        <time>2011-03-05T14:47:56Z</time>
      </trkpt>
      <trkpt lat="44.08256" lon="1.7174">
        <ele>269</ele>
        <time>2011-03-05T14:48:00Z</time>
      </trkpt>
      <trkpt lat="44.08253" lon="1.71738">
        <ele>269</ele>
        <time>2011-03-05T14:48:01Z</time>
      </trkpt>
      <trkpt lat="44.08251" lon="1.71739">
        <ele>268</ele>
        <time>2011-03-05T14:48:02Z</time>
      </trkpt>
      <trkpt lat="44.08249" lon="1.71741">
        <ele>268</ele>
        <time>2011-03-05T14:48:03Z</time>
      </trkpt>
      <trkpt lat="44.08249" lon="1.7175">
        <ele>267</ele>
        <time>2011-03-05T14:48:05Z</time>
      </trkpt>
      <trkpt lat="44.08246" lon="1.7176">
        <ele>266</ele>
        <time>2011-03-05T14:48:07Z</time>
      </trkpt>
      <trkpt lat="44.08242" lon="1.71771">
        <ele>264</ele>
        <time>2011-03-05T14:48:10Z</time>
      </trkpt>
      <trkpt lat="44.0824" lon="1.71773">
        <ele>264</ele>
        <time>2011-03-05T14:48:11Z</time>
      </trkpt>
      <trkpt lat="44.08238" lon="1.71774">
        <ele>264</ele>
        <time>2011-03-05T14:48:12Z</time>
      </trkpt>
      <trkpt lat="44.08227" lon="1.71774">
        <ele>262</ele>
        <time>2011-03-05T14:48:16Z</time>
      </trkpt>
      <trkpt lat="44.0823" lon="1.71773">
        <ele>261</ele>
        <time>2011-03-05T14:48:43Z</time>
      </trkpt>
      <trkpt lat="44.08234" lon="1.71774">
        <ele>261</ele>
        <time>2011-03-05T14:48:51Z</time>
      </trkpt>
      <trkpt lat="44.08238" lon="1.71773">
        <ele>261</ele>
        <time>2011-03-05T14:48:54Z</time>
      </trkpt>
      <trkpt lat="44.08248" lon="1.71759">
        <ele>261</ele>
        <time>2011-03-05T14:49:05Z</time>
      </trkpt>
      <trkpt lat="44.0825" lon="1.71751">
        <ele>261</ele>
        <time>2011-03-05T14:49:10Z</time>
      </trkpt>
      <trkpt lat="44.0825" lon="1.71746">
        <ele>261</ele>
        <time>2011-03-05T14:49:14Z</time>
      </trkpt>
      <trkpt lat="44.08252" lon="1.7174">
        <ele>261</ele>
        <time>2011-03-05T14:49:19Z</time>
      </trkpt>
      <trkpt lat="44.08253" lon="1.71737">
        <ele>262</ele>
        <time>2011-03-05T14:49:21Z</time>
      </trkpt>
      <trkpt lat="44.08254" lon="1.71734">
        <ele>262</ele>
        <time>2011-03-05T14:49:22Z</time>
      </trkpt>
      <trkpt lat="44.08252" lon="1.71728">
        <ele>262</ele>
        <time>2011-03-05T14:49:24Z</time>
      </trkpt>
      <trkpt lat="44.08249" lon="1.7172">
        <ele>262</ele>
        <time>2011-03-05T14:49:26Z</time>
      </trkpt>
      <trkpt lat="44.08239" lon="1.717">
        <ele>262</ele>
        <time>2011-03-05T14:49:31Z</time>
      </trkpt>
      <trkpt lat="44.08225" lon="1.71681">
        <ele>262</ele>
        <time>2011-03-05T14:49:36Z</time>
      </trkpt>
      <trkpt lat="44.08219" lon="1.71675">
        <ele>262</ele>
        <time>2011-03-05T14:49:38Z</time>
      </trkpt>
      <trkpt lat="44.08216" lon="1.71674">
        <ele>262</ele>
        <time>2011-03-05T14:49:39Z</time>
      </trkpt>
      <trkpt lat="44.08196" lon="1.7167">
        <ele>262</ele>
        <time>2011-03-05T14:49:45Z</time>
      </trkpt>
      <trkpt lat="44.08181" lon="1.71668">
        <ele>262</ele>
        <time>2011-03-05T14:49:50Z</time>
      </trkpt>
      <trkpt lat="44.08164" lon="1.7166">
        <ele>262</ele>
        <time>2011-03-05T14:49:57Z</time>
      </trkpt>
      <trkpt lat="44.0815" lon="1.71651">
        <ele>265</ele>
        <time>2011-03-05T14:50:02Z</time>
      </trkpt>
      <trkpt lat="44.08142" lon="1.71647">
        <ele>266</ele>
        <time>2011-03-05T14:50:05Z</time>
      </trkpt>
      <trkpt lat="44.08127" lon="1.71644">
        <ele>268</ele>
        <time>2011-03-05T14:50:10Z</time>
      </trkpt>
      <trkpt lat="44.0812" lon="1.71641">
        <ele>268</ele>
        <time>2011-03-05T14:50:12Z</time>
      </trkpt>
      <trkpt lat="44.08104" lon="1.71627">
        <ele>269</ele>
        <time>2011-03-05T14:50:17Z</time>
      </trkpt>
      <trkpt lat="44.08084" lon="1.71607">
        <ele>269</ele>
        <time>2011-03-05T14:50:23Z</time>
      </trkpt>
      <trkpt lat="44.08067" lon="1.71593">
        <ele>269</ele>
        <time>2011-03-05T14:50:27Z</time>
      </trkpt>
      <trkpt lat="44.08054" lon="1.71581">
        <ele>269</ele>
        <time>2011-03-05T14:50:30Z</time>
      </trkpt>
      <trkpt lat="44.08036" lon="1.71567">
        <ele>269</ele>
        <time>2011-03-05T14:50:34Z</time>
      </trkpt>
      <trkpt lat="44.08016" lon="1.71545">
        <ele>269</ele>
        <time>2011-03-05T14:50:39Z</time>
      </trkpt>
      <trkpt lat="44.08006" lon="1.71531">
        <ele>269</ele>
        <time>2011-03-05T14:50:42Z</time>
      </trkpt>
      <trkpt lat="44.07988" lon="1.71513">
        <ele>269</ele>
        <time>2011-03-05T14:50:48Z</time>
      </trkpt>
      <trkpt lat="44.07967" lon="1.715">
        <ele>269</ele>
        <time>2011-03-05T14:50:56Z</time>
      </trkpt>
      <trkpt lat="44.07955" lon="1.7149">
        <ele>270</ele>
        <time>2011-03-05T14:51:01Z</time>
      </trkpt>
      <trkpt lat="44.07946" lon="1.71477">
        <ele>272</ele>
        <time>2011-03-05T14:51:07Z</time>
      </trkpt>
      <trkpt lat="44.0794" lon="1.71465">
        <ele>274</ele>
        <time>2011-03-05T14:51:12Z</time>
      </trkpt>
      <trkpt lat="44.07937" lon="1.71457">
        <ele>275</ele>
        <time>2011-03-05T14:51:15Z</time>
      </trkpt>
      <trkpt lat="44.07931" lon="1.71446">
        <ele>276</ele>
        <time>2011-03-05T14:51:20Z</time>
      </trkpt>
      <trkpt lat="44.07925" lon="1.7144">
        <ele>277</ele>
        <time>2011-03-05T14:51:24Z</time>
      </trkpt>
      <trkpt lat="44.07915" lon="1.71434">
        <ele>278</ele>
        <time>2011-03-05T14:51:29Z</time>
      </trkpt>
      <trkpt lat="44.07912" lon="1.71429">
        <ele>278</ele>
        <time>2011-03-05T14:51:32Z</time>
      </trkpt>
      <trkpt lat="44.07906" lon="1.71409">
        <ele>280</ele>
        <time>2011-03-05T14:51:40Z</time>
      </trkpt>
      <trkpt lat="44.07903" lon="1.71403">
        <ele>281</ele>
        <time>2011-03-05T14:51:43Z</time>
      </trkpt>
      <trkpt lat="44.07891" lon="1.71391">
        <ele>283</ele>
        <time>2011-03-05T14:51:50Z</time>
      </trkpt>
      <trkpt lat="44.07886" lon="1.71385">
        <ele>283</ele>
        <time>2011-03-05T14:51:53Z</time>
      </trkpt>
      <trkpt lat="44.07885" lon="1.71383">
        <ele>283</ele>
        <time>2011-03-05T14:51:54Z</time>
      </trkpt>
      <trkpt lat="44.07883" lon="1.7138">
        <ele>283</ele>
        <time>2011-03-05T14:51:56Z</time>
      </trkpt>
      <trkpt lat="44.0788" lon="1.71381">
        <ele>284</ele>
        <time>2011-03-05T14:51:58Z</time>
      </trkpt>
      <trkpt lat="44.07876" lon="1.71388">
        <ele>284</ele>
        <time>2011-03-05T14:52:01Z</time>
      </trkpt>
      <trkpt lat="44.07873" lon="1.71391">
        <ele>284</ele>
        <time>2011-03-05T14:52:03Z</time>
      </trkpt>
      <trkpt lat="44.07871" lon="1.71393">
        <ele>284</ele>
        <time>2011-03-05T14:52:04Z</time>
      </trkpt>
      <trkpt lat="44.07866" lon="1.71393">
        <ele>284</ele>
        <time>2011-03-05T14:52:06Z</time>
      </trkpt>
      <trkpt lat="44.07861" lon="1.71389">
        <ele>284</ele>
        <time>2011-03-05T14:52:08Z</time>
      </trkpt>
      <trkpt lat="44.07856" lon="1.71382">
        <ele>284</ele>
        <time>2011-03-05T14:52:11Z</time>
      </trkpt>
      <trkpt lat="44.07851" lon="1.7138">
        <ele>284</ele>
        <time>2011-03-05T14:52:13Z</time>
      </trkpt>
      <trkpt lat="44.07849" lon="1.7138">
        <ele>284</ele>
        <time>2011-03-05T14:52:14Z</time>
      </trkpt>
      <trkpt lat="44.07844" lon="1.71384">
        <ele>284</ele>
        <time>2011-03-05T14:52:18Z</time>
      </trkpt>
      <trkpt lat="44.07841" lon="1.71383">
        <ele>284</ele>
        <time>2011-03-05T14:52:20Z</time>
      </trkpt>
      <trkpt lat="44.0783" lon="1.71372">
        <ele>284</ele>
        <time>2011-03-05T14:52:27Z</time>
      </trkpt>
      <trkpt lat="44.07811" lon="1.71341">
        <ele>284</ele>
        <time>2011-03-05T14:52:38Z</time>
      </trkpt>
      <trkpt lat="44.07809" lon="1.71334">
        <ele>284</ele>
        <time>2011-03-05T14:52:40Z</time>
      </trkpt>
      <trkpt lat="44.07808" lon="1.71321">
        <ele>284</ele>
        <time>2011-03-05T14:52:44Z</time>
      </trkpt>
      <trkpt lat="44.07808" lon="1.71318">
        <ele>284</ele>
        <time>2011-03-05T14:52:45Z</time>
      </trkpt>
      <trkpt lat="44.07804" lon="1.71314">
        <ele>284</ele>
        <time>2011-03-05T14:52:47Z</time>
      </trkpt>
      <trkpt lat="44.07798" lon="1.71309">
        <ele>284</ele>
        <time>2011-03-05T14:52:50Z</time>
      </trkpt>
      <trkpt lat="44.07795" lon="1.71307">
        <ele>284</ele>
        <time>2011-03-05T14:52:51Z</time>
      </trkpt>
      <trkpt lat="44.07791" lon="1.71295">
        <ele>284</ele>
        <time>2011-03-05T14:52:54Z</time>
      </trkpt>
      <trkpt lat="44.0779" lon="1.71291">
        <ele>284</ele>
        <time>2011-03-05T14:52:55Z</time>
      </trkpt>
      <trkpt lat="44.07789" lon="1.71287">
        <ele>284</ele>
        <time>2011-03-05T14:52:56Z</time>
      </trkpt>
      <trkpt lat="44.0779" lon="1.71283">
        <ele>284</ele>
        <time>2011-03-05T14:52:57Z</time>
      </trkpt>
      <trkpt lat="44.07798" lon="1.71263">
        <ele>284</ele>
        <time>2011-03-05T14:53:03Z</time>
      </trkpt>
      <trkpt lat="44.078" lon="1.71261">
        <ele>284</ele>
        <time>2011-03-05T14:53:04Z</time>
      </trkpt>
      <trkpt lat="44.07803" lon="1.71251">
        <ele>284</ele>
        <time>2011-03-05T14:53:07Z</time>
      </trkpt>
      <trkpt lat="44.07805" lon="1.71248">
        <ele>284</ele>
        <time>2011-03-05T14:53:08Z</time>
      </trkpt>
      <trkpt lat="44.07816" lon="1.71236">
        <ele>284</ele>
        <time>2011-03-05T14:53:13Z</time>
      </trkpt>
      <trkpt lat="44.0782" lon="1.7123">
        <ele>284</ele>
        <time>2011-03-05T14:53:15Z</time>
      </trkpt>
      <trkpt lat="44.07823" lon="1.71223">
        <ele>284</ele>
        <time>2011-03-05T14:53:17Z</time>
      </trkpt>
      <trkpt lat="44.07823" lon="1.71215">
        <ele>284</ele>
        <time>2011-03-05T14:53:19Z</time>
      </trkpt>
      <trkpt lat="44.0782" lon="1.71209">
        <ele>284</ele>
        <time>2011-03-05T14:53:21Z</time>
      </trkpt>
      <trkpt lat="44.07814" lon="1.712">
        <ele>284</ele>
        <time>2011-03-05T14:53:24Z</time>
      </trkpt>
      <trkpt lat="44.07811" lon="1.71194">
        <ele>284</ele>
        <time>2011-03-05T14:53:26Z</time>
      </trkpt>
      <trkpt lat="44.07809" lon="1.71191">
        <ele>284</ele>
        <time>2011-03-05T14:53:27Z</time>
      </trkpt>
      <trkpt lat="44.07808" lon="1.71187">
        <ele>284</ele>
        <time>2011-03-05T14:53:28Z</time>
      </trkpt>
      <trkpt lat="44.07808" lon="1.71175">
        <ele>284</ele>
        <time>2011-03-05T14:53:31Z</time>
      </trkpt>
      <trkpt lat="44.07807" lon="1.71168">
        <ele>284</ele>
        <time>2011-03-05T14:53:33Z</time>
      </trkpt>
      <trkpt lat="44.078" lon="1.71151">
        <ele>284</ele>
        <time>2011-03-05T14:53:38Z</time>
      </trkpt>
      <trkpt lat="44.07797" lon="1.71139">
        <ele>284</ele>
        <time>2011-03-05T14:53:41Z</time>
      </trkpt>
      <trkpt lat="44.07795" lon="1.71136">
        <ele>284</ele>
        <time>2011-03-05T14:53:42Z</time>
      </trkpt>
      <trkpt lat="44.0779" lon="1.71124">
        <ele>284</ele>
        <time>2011-03-05T14:53:45Z</time>
      </trkpt>
      <trkpt lat="44.07787" lon="1.71113">
        <ele>284</ele>
        <time>2011-03-05T14:53:48Z</time>
      </trkpt>
      <trkpt lat="44.07785" lon="1.71111">
        <ele>284</ele>
        <time>2011-03-05T14:53:49Z</time>
      </trkpt>
      <trkpt lat="44.07782" lon="1.7111">
        <ele>284</ele>
        <time>2011-03-05T14:53:50Z</time>
      </trkpt>
      <trkpt lat="44.07779" lon="1.71108">
        <ele>284</ele>
        <time>2011-03-05T14:53:51Z</time>
      </trkpt>
      <trkpt lat="44.07769" lon="1.71092">
        <ele>284</ele>
        <time>2011-03-05T14:53:56Z</time>
      </trkpt>
      <trkpt lat="44.07767" lon="1.71083">
        <ele>284</ele>
        <time>2011-03-05T14:53:58Z</time>
      </trkpt>
      <trkpt lat="44.07766" lon="1.71079">
        <ele>284</ele>
        <time>2011-03-05T14:53:59Z</time>
      </trkpt>
      <trkpt lat="44.07767" lon="1.71075">
        <ele>284</ele>
        <time>2011-03-05T14:54:00Z</time>
      </trkpt>
      <trkpt lat="44.07771" lon="1.71059">
        <ele>284</ele>
        <time>2011-03-05T14:54:04Z</time>
      </trkpt>
      <trkpt lat="44.07774" lon="1.71053">
        <ele>285</ele>
        <time>2011-03-05T14:54:06Z</time>
      </trkpt>
      <trkpt lat="44.07776" lon="1.71047">
        <ele>286</ele>
        <time>2011-03-05T14:54:08Z</time>
      </trkpt>
      <trkpt lat="44.07777" lon="1.71032">
        <ele>287</ele>
        <time>2011-03-05T14:54:12Z</time>
      </trkpt>
      <trkpt lat="44.07776" lon="1.71024">
        <ele>287</ele>
        <time>2011-03-05T14:54:14Z</time>
      </trkpt>
      <trkpt lat="44.07774" lon="1.71015">
        <ele>289</ele>
        <time>2011-03-05T14:54:16Z</time>
      </trkpt>
      <trkpt lat="44.07773" lon="1.7101">
        <ele>289</ele>
        <time>2011-03-05T14:54:17Z</time>
      </trkpt>
      <trkpt lat="44.07774" lon="1.71006">
        <ele>290</ele>
        <time>2011-03-05T14:54:18Z</time>
      </trkpt>
      <trkpt lat="44.07779" lon="1.70996">
        <ele>291</ele>
        <time>2011-03-05T14:54:21Z</time>
      </trkpt>
      <trkpt lat="44.07782" lon="1.70989">
        <ele>292</ele>
        <time>2011-03-05T14:54:23Z</time>
      </trkpt>
      <trkpt lat="44.07785" lon="1.70973">
        <ele>293</ele>
        <time>2011-03-05T14:54:27Z</time>
      </trkpt>
      <trkpt lat="44.07786" lon="1.70965">
        <ele>293</ele>
        <time>2011-03-05T14:54:29Z</time>
      </trkpt>
      <trkpt lat="44.07785" lon="1.70957">
        <ele>293</ele>
        <time>2011-03-05T14:54:31Z</time>
      </trkpt>
      <trkpt lat="44.07788" lon="1.70946">
        <ele>294</ele>
        <time>2011-03-05T14:54:34Z</time>
      </trkpt>
      <trkpt lat="44.07788" lon="1.70942">
        <ele>294</ele>
        <time>2011-03-05T14:54:35Z</time>
      </trkpt>
      <trkpt lat="44.07784" lon="1.70931">
        <ele>294</ele>
        <time>2011-03-05T14:54:38Z</time>
      </trkpt>
      <trkpt lat="44.07782" lon="1.70927">
        <ele>294</ele>
        <time>2011-03-05T14:54:39Z</time>
      </trkpt>
      <trkpt lat="44.0778" lon="1.70925">
        <ele>294</ele>
        <time>2011-03-05T14:54:40Z</time>
      </trkpt>
      <trkpt lat="44.07775" lon="1.70926">
        <ele>294</ele>
        <time>2011-03-05T14:54:42Z</time>
      </trkpt>
      <trkpt lat="44.07773" lon="1.70925">
        <ele>294</ele>
        <time>2011-03-05T14:54:43Z</time>
      </trkpt>
      <trkpt lat="44.07772" lon="1.70923">
        <ele>294</ele>
        <time>2011-03-05T14:54:44Z</time>
      </trkpt>
      <trkpt lat="44.07767" lon="1.70918">
        <ele>294</ele>
        <time>2011-03-05T14:54:46Z</time>
      </trkpt>
      <trkpt lat="44.07766" lon="1.70914">
        <ele>294</ele>
        <time>2011-03-05T14:54:47Z</time>
      </trkpt>
      <trkpt lat="44.07765" lon="1.7091">
        <ele>294</ele>
        <time>2011-03-05T14:54:48Z</time>
      </trkpt>
      <trkpt lat="44.07764" lon="1.70896">
        <ele>294</ele>
        <time>2011-03-05T14:54:51Z</time>
      </trkpt>
      <trkpt lat="44.07767" lon="1.70885">
        <ele>294</ele>
        <time>2011-03-05T14:54:54Z</time>
      </trkpt>
      <trkpt lat="44.07767" lon="1.70879">
        <ele>294</ele>
        <time>2011-03-05T14:54:56Z</time>
      </trkpt>
      <trkpt lat="44.07769" lon="1.70866">
        <ele>294</ele>
        <time>2011-03-05T14:54:59Z</time>
      </trkpt>
      <trkpt lat="44.07772" lon="1.70854">
        <ele>294</ele>
        <time>2011-03-05T14:55:02Z</time>
      </trkpt>
      <trkpt lat="44.07775" lon="1.70841">
        <ele>294</ele>
        <time>2011-03-05T14:55:05Z</time>
      </trkpt>
      <trkpt lat="44.07776" lon="1.70832">
        <ele>294</ele>
        <time>2011-03-05T14:55:07Z</time>
      </trkpt>
      <trkpt lat="44.07779" lon="1.70824">
        <ele>294</ele>
        <time>2011-03-05T14:55:10Z</time>
      </trkpt>
      <trkpt lat="44.07779" lon="1.70821">
        <ele>294</ele>
        <time>2011-03-05T14:55:11Z</time>
      </trkpt>
      <trkpt lat="44.07769" lon="1.70811">
        <ele>294</ele>
        <time>2011-03-05T14:55:16Z</time>
      </trkpt>
      <trkpt lat="44.07766" lon="1.70804">
        <ele>294</ele>
        <time>2011-03-05T14:55:18Z</time>
      </trkpt>
      <trkpt lat="44.07761" lon="1.70791">
        <ele>294</ele>
        <time>2011-03-05T14:55:21Z</time>
      </trkpt>
      <trkpt lat="44.0776" lon="1.70786">
        <ele>294</ele>
        <time>2011-03-05T14:55:22Z</time>
      </trkpt>
      <trkpt lat="44.07759" lon="1.70754">
        <ele>294</ele>
        <time>2011-03-05T14:55:28Z</time>
      </trkpt>
      <trkpt lat="44.07756" lon="1.70745">
        <ele>294</ele>
        <time>2011-03-05T14:55:30Z</time>
      </trkpt>
      <trkpt lat="44.07757" lon="1.70736">
        <ele>294</ele>
        <time>2011-03-05T14:55:32Z</time>
      </trkpt>
      <trkpt lat="44.07757" lon="1.70721">
        <ele>294</ele>
        <time>2011-03-05T14:55:35Z</time>
      </trkpt>
      <trkpt lat="44.07759" lon="1.707">
        <ele>294</ele>
        <time>2011-03-05T14:55:40Z</time>
      </trkpt>
      <trkpt lat="44.07758" lon="1.70696">
        <ele>294</ele>
        <time>2011-03-05T14:55:41Z</time>
      </trkpt>
      <trkpt lat="44.07758" lon="1.70692">
        <ele>294</ele>
        <time>2011-03-05T14:55:42Z</time>
      </trkpt>
      <trkpt lat="44.07758" lon="1.70687">
        <ele>294</ele>
        <time>2011-03-05T14:55:43Z</time>
      </trkpt>
      <trkpt lat="44.07757" lon="1.70677">
        <ele>294</ele>
        <time>2011-03-05T14:55:45Z</time>
      </trkpt>
      <trkpt lat="44.07759" lon="1.70668">
        <ele>294</ele>
        <time>2011-03-05T14:55:47Z</time>
      </trkpt>
      <trkpt lat="44.07759" lon="1.70664">
        <ele>294</ele>
        <time>2011-03-05T14:55:48Z</time>
      </trkpt>
      <trkpt lat="44.07756" lon="1.70651">
        <ele>294</ele>
        <time>2011-03-05T14:55:51Z</time>
      </trkpt>
      <trkpt lat="44.07757" lon="1.70646">
        <ele>294</ele>
        <time>2011-03-05T14:55:52Z</time>
      </trkpt>
      <trkpt lat="44.0776" lon="1.70637">
        <ele>294</ele>
        <time>2011-03-05T14:55:54Z</time>
      </trkpt>
      <trkpt lat="44.07762" lon="1.70623">
        <ele>293</ele>
        <time>2011-03-05T14:55:57Z</time>
      </trkpt>
      <trkpt lat="44.07762" lon="1.70614">
        <ele>292</ele>
        <time>2011-03-05T14:55:59Z</time>
      </trkpt>
      <trkpt lat="44.07763" lon="1.70609">
        <ele>292</ele>
        <time>2011-03-05T14:56:00Z</time>
      </trkpt>
      <trkpt lat="44.07766" lon="1.706">
        <ele>290</ele>
        <time>2011-03-05T14:56:03Z</time>
      </trkpt>
      <trkpt lat="44.07767" lon="1.70592">
        <ele>289</ele>
        <time>2011-03-05T14:56:05Z</time>
      </trkpt>
      <trkpt lat="44.07765" lon="1.70587">
        <ele>289</ele>
        <time>2011-03-05T14:56:06Z</time>
      </trkpt>
      <trkpt lat="44.07759" lon="1.70579">
        <ele>288</ele>
        <time>2011-03-05T14:56:08Z</time>
      </trkpt>
      <trkpt lat="44.07756" lon="1.70576">
        <ele>288</ele>
        <time>2011-03-05T14:56:09Z</time>
      </trkpt>
      <trkpt lat="44.07749" lon="1.70573">
        <ele>287</ele>
        <time>2011-03-05T14:56:11Z</time>
      </trkpt>
      <trkpt lat="44.07747" lon="1.7057">
        <ele>287</ele>
        <time>2011-03-05T14:56:12Z</time>
      </trkpt>
      <trkpt lat="44.07746" lon="1.70566">
        <ele>286</ele>
        <time>2011-03-05T14:56:13Z</time>
      </trkpt>
      <trkpt lat="44.07745" lon="1.70562">
        <ele>286</ele>
        <time>2011-03-05T14:56:14Z</time>
      </trkpt>
      <trkpt lat="44.07744" lon="1.70558">
        <ele>286</ele>
        <time>2011-03-05T14:56:15Z</time>
      </trkpt>
      <trkpt lat="44.07742" lon="1.70539">
        <ele>283</ele>
        <time>2011-03-05T14:56:19Z</time>
      </trkpt>
      <trkpt lat="44.07741" lon="1.7053">
        <ele>282</ele>
        <time>2011-03-05T14:56:21Z</time>
      </trkpt>
      <trkpt lat="44.0774" lon="1.70526">
        <ele>282</ele>
        <time>2011-03-05T14:56:22Z</time>
      </trkpt>
      <trkpt lat="44.07739" lon="1.70521">
        <ele>281</ele>
        <time>2011-03-05T14:56:23Z</time>
      </trkpt>
      <trkpt lat="44.07736" lon="1.70512">
        <ele>281</ele>
        <time>2011-03-05T14:56:25Z</time>
      </trkpt>
      <trkpt lat="44.07735" lon="1.70507">
        <ele>280</ele>
        <time>2011-03-05T14:56:26Z</time>
      </trkpt>
      <trkpt lat="44.07734" lon="1.70495">
        <ele>279</ele>
        <time>2011-03-05T14:56:28Z</time>
      </trkpt>
      <trkpt lat="44.07735" lon="1.7049">
        <ele>279</ele>
        <time>2011-03-05T14:56:29Z</time>
      </trkpt>
      <trkpt lat="44.07737" lon="1.70485">
        <ele>278</ele>
        <time>2011-03-05T14:56:30Z</time>
      </trkpt>
      <trkpt lat="44.0774" lon="1.70482">
        <ele>278</ele>
        <time>2011-03-05T14:56:31Z</time>
      </trkpt>
      <trkpt lat="44.07744" lon="1.7048">
        <ele>278</ele>
        <time>2011-03-05T14:56:32Z</time>
      </trkpt>
      <trkpt lat="44.0775" lon="1.7048">
        <ele>278</ele>
        <time>2011-03-05T14:56:34Z</time>
      </trkpt>
      <trkpt lat="44.07756" lon="1.70477">
        <ele>278</ele>
        <time>2011-03-05T14:56:36Z</time>
      </trkpt>
      <trkpt lat="44.07763" lon="1.70476">
        <ele>278</ele>
        <time>2011-03-05T14:56:38Z</time>
      </trkpt>
      <trkpt lat="44.07766" lon="1.70473">
        <ele>278</ele>
        <time>2011-03-05T14:56:39Z</time>
      </trkpt>
      <trkpt lat="44.07771" lon="1.70466">
        <ele>278</ele>
        <time>2011-03-05T14:56:41Z</time>
      </trkpt>
      <trkpt lat="44.07774" lon="1.70464">
        <ele>278</ele>
        <time>2011-03-05T14:56:42Z</time>
      </trkpt>
      <trkpt lat="44.07778" lon="1.70463">
        <ele>278</ele>
        <time>2011-03-05T14:56:43Z</time>
      </trkpt>
      <trkpt lat="44.07782" lon="1.70464">
        <ele>278</ele>
        <time>2011-03-05T14:56:44Z</time>
      </trkpt>
      <trkpt lat="44.07794" lon="1.70475">
        <ele>278</ele>
        <time>2011-03-05T14:56:48Z</time>
      </trkpt>
      <trkpt lat="44.07818" lon="1.70494">
        <ele>278</ele>
        <time>2011-03-05T14:56:54Z</time>
      </trkpt>
      <trkpt lat="44.0783" lon="1.70506">
        <ele>277</ele>
        <time>2011-03-05T14:56:58Z</time>
      </trkpt>
      <trkpt lat="44.07839" lon="1.70512">
        <ele>277</ele>
        <time>2011-03-05T14:57:00Z</time>
      </trkpt>
      <trkpt lat="44.07851" lon="1.70521">
        <ele>276</ele>
        <time>2011-03-05T14:57:03Z</time>
      </trkpt>
      <trkpt lat="44.07864" lon="1.70529">
        <ele>275</ele>
        <time>2011-03-05T14:57:07Z</time>
      </trkpt>
      <trkpt lat="44.07869" lon="1.70534">
        <ele>275</ele>
        <time>2011-03-05T14:57:09Z</time>
      </trkpt>
      <trkpt lat="44.07872" lon="1.70535">
        <ele>274</ele>
        <time>2011-03-05T14:57:10Z</time>
      </trkpt>
      <trkpt lat="44.07884" lon="1.70534">
        <ele>274</ele>
        <time>2011-03-05T14:57:14Z</time>
      </trkpt>
      <trkpt lat="44.07893" lon="1.70535">
        <ele>274</ele>
        <time>2011-03-05T14:57:17Z</time>
      </trkpt>
      <trkpt lat="44.07899" lon="1.70538">
        <ele>274</ele>
        <time>2011-03-05T14:57:19Z</time>
      </trkpt>
      <trkpt lat="44.07904" lon="1.70544">
        <ele>274</ele>
        <time>2011-03-05T14:57:21Z</time>
      </trkpt>
      <trkpt lat="44.07916" lon="1.70553">
        <ele>274</ele>
        <time>2011-03-05T14:57:25Z</time>
      </trkpt>
      <trkpt lat="44.07925" lon="1.70556">
        <ele>274</ele>
        <time>2011-03-05T14:57:28Z</time>
      </trkpt>
      <trkpt lat="44.07935" lon="1.70562">
        <ele>274</ele>
        <time>2011-03-05T14:57:33Z</time>
      </trkpt>
      <trkpt lat="44.07936" lon="1.70563">
        <ele>273</ele>
        <time>2011-03-05T14:57:37Z</time>
      </trkpt>
      <trkpt lat="44.07952" lon="1.7057">
        <ele>271</ele>
        <time>2011-03-05T14:57:49Z</time>
      </trkpt>
      <trkpt lat="44.07954" lon="1.7057">
        <ele>271</ele>
        <time>2011-03-05T14:57:50Z</time>
      </trkpt>
      <trkpt lat="44.07957" lon="1.70568">
        <ele>271</ele>
        <time>2011-03-05T14:57:52Z</time>
      </trkpt>
      <trkpt lat="44.07964" lon="1.70565">
        <ele>271</ele>
        <time>2011-03-05T14:57:55Z</time>
      </trkpt>
      <trkpt lat="44.0798" lon="1.70554">
        <ele>270</ele>
        <time>2011-03-05T14:58:00Z</time>
      </trkpt>
      <trkpt lat="44.07986" lon="1.70548">
        <ele>269</ele>
        <time>2011-03-05T14:58:02Z</time>
      </trkpt>
      <trkpt lat="44.07991" lon="1.70542">
        <ele>269</ele>
        <time>2011-03-05T14:58:04Z</time>
      </trkpt>
      <trkpt lat="44.07994" lon="1.70538">
        <ele>268</ele>
        <time>2011-03-05T14:58:06Z</time>
      </trkpt>
      <trkpt lat="44.07996" lon="1.70534">
        <ele>268</ele>
        <time>2011-03-05T14:58:10Z</time>
      </trkpt>
      <trkpt lat="44.07997" lon="1.70527">
        <ele>267</ele>
        <time>2011-03-05T14:58:13Z</time>
      </trkpt>
      <trkpt lat="44.08004" lon="1.70507">
        <ele>264</ele>
        <time>2011-03-05T14:58:19Z</time>
      </trkpt>
      <trkpt lat="44.08007" lon="1.70496">
        <ele>263</ele>
        <time>2011-03-05T14:58:22Z</time>
      </trkpt>
      <trkpt lat="44.08013" lon="1.70477">
        <ele>262</ele>
        <time>2011-03-05T14:58:28Z</time>
      </trkpt>
      <trkpt lat="44.08019" lon="1.70463">
        <ele>262</ele>
        <time>2011-03-05T14:58:32Z</time>
      </trkpt>
      <trkpt lat="44.0802" lon="1.70459">
        <ele>262</ele>
        <time>2011-03-05T14:58:33Z</time>
      </trkpt>
      <trkpt lat="44.08023" lon="1.70453">
        <ele>262</ele>
        <time>2011-03-05T14:58:35Z</time>
      </trkpt>
      <trkpt lat="44.08028" lon="1.70438">
        <ele>262</ele>
        <time>2011-03-05T14:58:39Z</time>
      </trkpt>
      <trkpt lat="44.0803" lon="1.70425">
        <ele>262</ele>
        <time>2011-03-05T14:58:43Z</time>
      </trkpt>
      <trkpt lat="44.08032" lon="1.70418">
        <ele>262</ele>
        <time>2011-03-05T14:58:46Z</time>
      </trkpt>
      <trkpt lat="44.08032" lon="1.70414">
        <ele>262</ele>
        <time>2011-03-05T14:58:48Z</time>
      </trkpt>
      <trkpt lat="44.08034" lon="1.70407">
        <ele>262</ele>
        <time>2011-03-05T14:58:51Z</time>
      </trkpt>
      <trkpt lat="44.08035" lon="1.70402">
        <ele>262</ele>
        <time>2011-03-05T14:58:53Z</time>
      </trkpt>
      <trkpt lat="44.08038" lon="1.70394">
        <ele>262</ele>
        <time>2011-03-05T14:58:57Z</time>
      </trkpt>
      <trkpt lat="44.08042" lon="1.7038">
        <ele>264</ele>
        <time>2011-03-05T14:59:05Z</time>
      </trkpt>
      <trkpt lat="44.08046" lon="1.7037">
        <ele>265</ele>
        <time>2011-03-05T14:59:10Z</time>
      </trkpt>
      <trkpt lat="44.08048" lon="1.70362">
        <ele>266</ele>
        <time>2011-03-05T14:59:14Z</time>
      </trkpt>
      <trkpt lat="44.08052" lon="1.70351">
        <ele>266</ele>
        <time>2011-03-05T14:59:19Z</time>
      </trkpt>
      <trkpt lat="44.08053" lon="1.70349">
        <ele>266</ele>
        <time>2011-03-05T14:59:20Z</time>
      </trkpt>
      <trkpt lat="44.08057" lon="1.70338">
        <ele>267</ele>
        <time>2011-03-05T14:59:25Z</time>
      </trkpt>
      <trkpt lat="44.08061" lon="1.70324">
        <ele>268</ele>
        <time>2011-03-05T14:59:30Z</time>
      </trkpt>
      <trkpt lat="44.08073" lon="1.70291">
        <ele>268</ele>
        <time>2011-03-05T14:59:41Z</time>
      </trkpt>
      <trkpt lat="44.08079" lon="1.7027">
        <ele>268</ele>
        <time>2011-03-05T14:59:47Z</time>
      </trkpt>
      <trkpt lat="44.08083" lon="1.70259">
        <ele>268</ele>
        <time>2011-03-05T14:59:50Z</time>
      </trkpt>
      <trkpt lat="44.08089" lon="1.7024">
        <ele>268</ele>
        <time>2011-03-05T14:59:56Z</time>
      </trkpt>
      <trkpt lat="44.08093" lon="1.7023">
        <ele>268</ele>
        <time>2011-03-05T14:59:59Z</time>
      </trkpt>
      <trkpt lat="44.08097" lon="1.70217">
        <ele>268</ele>
        <time>2011-03-05T15:00:02Z</time>
      </trkpt>
      <trkpt lat="44.08105" lon="1.70202">
        <ele>268</ele>
        <time>2011-03-05T15:00:07Z</time>
      </trkpt>
      <trkpt lat="44.08116" lon="1.70175">
        <ele>268</ele>
        <time>2011-03-05T15:00:14Z</time>
      </trkpt>
      <trkpt lat="44.08125" lon="1.70157">
        <ele>268</ele>
        <time>2011-03-05T15:00:18Z</time>
      </trkpt>
      <trkpt lat="44.08126" lon="1.70153">
        <ele>268</ele>
        <time>2011-03-05T15:00:19Z</time>
      </trkpt>
      <trkpt lat="44.0813" lon="1.70145">
        <ele>268</ele>
        <time>2011-03-05T15:00:21Z</time>
      </trkpt>
      <trkpt lat="44.08143" lon="1.70128">
        <ele>266</ele>
        <time>2011-03-05T15:00:25Z</time>
      </trkpt>
      <trkpt lat="44.08155" lon="1.70115">
        <ele>265</ele>
        <time>2011-03-05T15:00:28Z</time>
      </trkpt>
      <trkpt lat="44.08173" lon="1.70098">
        <ele>264</ele>
        <time>2011-03-05T15:00:33Z</time>
      </trkpt>
      <trkpt lat="44.08182" lon="1.70089">
        <ele>262</ele>
        <time>2011-03-05T15:00:36Z</time>
      </trkpt>
      <trkpt lat="44.08192" lon="1.70079">
        <ele>261</ele>
        <time>2011-03-05T15:00:39Z</time>
      </trkpt>
      <trkpt lat="44.082" lon="1.70069">
        <ele>261</ele>
        <time>2011-03-05T15:00:42Z</time>
      </trkpt>
      <trkpt lat="44.08204" lon="1.7006">
        <ele>260</ele>
        <time>2011-03-05T15:00:44Z</time>
      </trkpt>
      <trkpt lat="44.08209" lon="1.70052">
        <ele>260</ele>
        <time>2011-03-05T15:00:46Z</time>
      </trkpt>
      <trkpt lat="44.08221" lon="1.7003">
        <ele>259</ele>
        <time>2011-03-05T15:00:51Z</time>
      </trkpt>
      <trkpt lat="44.08287" lon="1.6995">
        <ele>254</ele>
        <time>2011-03-05T15:01:05Z</time>
      </trkpt>
      <trkpt lat="44.08316" lon="1.69906">
        <ele>249</ele>
        <time>2011-03-05T15:01:11Z</time>
      </trkpt>
      <trkpt lat="44.08321" lon="1.699">
        <ele>249</ele>
        <time>2011-03-05T15:01:12Z</time>
      </trkpt>
      <trkpt lat="44.08331" lon="1.69889">
        <ele>248</ele>
        <time>2011-03-05T15:01:15Z</time>
      </trkpt>
      <trkpt lat="44.08334" lon="1.6988">
        <ele>247</ele>
        <time>2011-03-05T15:01:17Z</time>
      </trkpt>
      <trkpt lat="44.08338" lon="1.69824">
        <ele>244</ele>
        <time>2011-03-05T15:01:27Z</time>
      </trkpt>
      <trkpt lat="44.08335" lon="1.69814">
        <ele>244</ele>
        <time>2011-03-05T15:01:30Z</time>
      </trkpt>
      <trkpt lat="44.08333" lon="1.69808">
        <ele>244</ele>
        <time>2011-03-05T15:01:32Z</time>
      </trkpt>
      <trkpt lat="44.08328" lon="1.6979">
        <ele>244</ele>
        <time>2011-03-05T15:01:39Z</time>
      </trkpt>
      <trkpt lat="44.08332" lon="1.69777">
        <ele>244</ele>
        <time>2011-03-05T15:01:44Z</time>
      </trkpt>
      <trkpt lat="44.08336" lon="1.69769">
        <ele>244</ele>
        <time>2011-03-05T15:01:47Z</time>
      </trkpt>
      <trkpt lat="44.08338" lon="1.69763">
        <ele>244</ele>
        <time>2011-03-05T15:01:49Z</time>
      </trkpt>
      <trkpt lat="44.08343" lon="1.69738">
        <ele>246</ele>
        <time>2011-03-05T15:01:57Z</time>
      </trkpt>
      <trkpt lat="44.08347" lon="1.69725">
        <ele>246</ele>
        <time>2011-03-05T15:02:01Z</time>
      </trkpt>
      <trkpt lat="44.08348" lon="1.69719">
        <ele>246</ele>
        <time>2011-03-05T15:02:03Z</time>
      </trkpt>
      <trkpt lat="44.08344" lon="1.69709">
        <ele>246</ele>
        <time>2011-03-05T15:02:07Z</time>
      </trkpt>
      <trkpt lat="44.08338" lon="1.697">
        <ele>247</ele>
        <time>2011-03-05T15:02:11Z</time>
      </trkpt>
      <trkpt lat="44.08334" lon="1.6969">
        <ele>247</ele>
        <time>2011-03-05T15:02:15Z</time>
      </trkpt>
      <trkpt lat="44.08332" lon="1.69685">
        <ele>248</ele>
        <time>2011-03-05T15:02:17Z</time>
      </trkpt>
      <trkpt lat="44.0833" lon="1.69681">
        <ele>248</ele>
        <time>2011-03-05T15:02:19Z</time>
      </trkpt>
      <trkpt lat="44.08325" lon="1.69676">
        <ele>249</ele>
        <time>2011-03-05T15:02:22Z</time>
      </trkpt>
      <trkpt lat="44.08307" lon="1.69649">
        <ele>255</ele>
        <time>2011-03-05T15:02:35Z</time>
      </trkpt>
      <trkpt lat="44.08294" lon="1.69631">
        <ele>258</ele>
        <time>2011-03-05T15:02:44Z</time>
      </trkpt>
      <trkpt lat="44.08289" lon="1.69627">
        <ele>259</ele>
        <time>2011-03-05T15:02:47Z</time>
      </trkpt>
      <trkpt lat="44.0827" lon="1.69617">
        <ele>263</ele>
        <time>2011-03-05T15:02:57Z</time>
      </trkpt>
      <trkpt lat="44.08264" lon="1.6961">
        <ele>264</ele>
        <time>2011-03-05T15:03:01Z</time>
      </trkpt>
      <trkpt lat="44.08242" lon="1.69595">
        <ele>266</ele>
        <time>2011-03-05T15:03:12Z</time>
      </trkpt>
      <trkpt lat="44.08217" lon="1.69566">
        <ele>268</ele>
        <time>2011-03-05T15:03:26Z</time>
      </trkpt>
      <trkpt lat="44.08206" lon="1.69552">
        <ele>268</ele>
        <time>2011-03-05T15:03:32Z</time>
      </trkpt>
      <trkpt lat="44.08195" lon="1.69533">
        <ele>269</ele>
        <time>2011-03-05T15:03:39Z</time>
      </trkpt>
      <trkpt lat="44.08175" lon="1.69513">
        <ele>269</ele>
        <time>2011-03-05T15:03:48Z</time>
      </trkpt>
      <trkpt lat="44.08169" lon="1.69509">
        <ele>269</ele>
        <time>2011-03-05T15:03:50Z</time>
      </trkpt>
      <trkpt lat="44.08162" lon="1.69501">
        <ele>269</ele>
        <time>2011-03-05T15:03:53Z</time>
      </trkpt>
      <trkpt lat="44.08157" lon="1.69496">
        <ele>269</ele>
        <time>2011-03-05T15:03:55Z</time>
      </trkpt>
      <trkpt lat="44.08154" lon="1.69495">
        <ele>269</ele>
        <time>2011-03-05T15:03:56Z</time>
      </trkpt>
      <trkpt lat="44.0814" lon="1.69496">
        <ele>269</ele>
        <time>2011-03-05T15:04:00Z</time>
      </trkpt>
      <trkpt lat="44.08127" lon="1.69493">
        <ele>269</ele>
        <time>2011-03-05T15:04:03Z</time>
      </trkpt>
      <trkpt lat="44.08114" lon="1.69485">
        <ele>269</ele>
        <time>2011-03-05T15:04:06Z</time>
      </trkpt>
      <trkpt lat="44.0811" lon="1.69482">
        <ele>269</ele>
        <time>2011-03-05T15:04:07Z</time>
      </trkpt>
      <trkpt lat="44.08092" lon="1.69461">
        <ele>269</ele>
        <time>2011-03-05T15:04:12Z</time>
      </trkpt>
      <trkpt lat="44.08085" lon="1.69456">
        <ele>269</ele>
        <time>2011-03-05T15:04:14Z</time>
      </trkpt>
      <trkpt lat="44.0806" lon="1.69441">
        <ele>269</ele>
        <time>2011-03-05T15:04:21Z</time>
      </trkpt>
      <trkpt lat="44.08041" lon="1.69427">
        <ele>269</ele>
        <time>2011-03-05T15:04:26Z</time>
      </trkpt>
      <trkpt lat="44.08027" lon="1.69417">
        <ele>269</ele>
        <time>2011-03-05T15:04:30Z</time>
      </trkpt>
      <trkpt lat="44.07993" lon="1.69402">
        <ele>269</ele>
        <time>2011-03-05T15:04:39Z</time>
      </trkpt>
      <trkpt lat="44.07976" lon="1.69397">
        <ele>269</ele>
        <time>2011-03-05T15:04:43Z</time>
      </trkpt>
      <trkpt lat="44.07941" lon="1.69392">
        <ele>269</ele>
        <time>2011-03-05T15:04:52Z</time>
      </trkpt>
      <trkpt lat="44.07926" lon="1.69392">
        <ele>269</ele>
        <time>2011-03-05T15:04:56Z</time>
      </trkpt>
      <trkpt lat="44.07903" lon="1.69389">
        <ele>269</ele>
        <time>2011-03-05T15:05:03Z</time>
      </trkpt>
      <trkpt lat="44.07897" lon="1.69387">
        <ele>269</ele>
        <time>2011-03-05T15:05:05Z</time>
      </trkpt>
      <trkpt lat="44.07888" lon="1.69386">
        <ele>269</ele>
        <time>2011-03-05T15:05:08Z</time>
      </trkpt>
      <trkpt lat="44.07873" lon="1.69381">
        <ele>270</ele>
        <time>2011-03-05T15:05:14Z</time>
      </trkpt>
      <trkpt lat="44.07858" lon="1.69378">
        <ele>270</ele>
        <time>2011-03-05T15:05:19Z</time>
      </trkpt>
      <trkpt lat="44.07853" lon="1.69376">
        <ele>270</ele>
        <time>2011-03-05T15:05:21Z</time>
      </trkpt>
      <trkpt lat="44.07837" lon="1.69373">
        <ele>271</ele>
        <time>2011-03-05T15:05:27Z</time>
      </trkpt>
      <trkpt lat="44.07818" lon="1.69372">
        <ele>271</ele>
        <time>2011-03-05T15:05:35Z</time>
      </trkpt>
      <trkpt lat="44.07813" lon="1.6937">
        <ele>272</ele>
        <time>2011-03-05T15:05:49Z</time>
      </trkpt>
      <trkpt lat="44.07802" lon="1.69368">
        <ele>272</ele>
        <time>2011-03-05T15:05:53Z</time>
      </trkpt>
      <trkpt lat="44.07796" lon="1.69365">
        <ele>272</ele>
        <time>2011-03-05T15:05:55Z</time>
      </trkpt>
      <trkpt lat="44.07778" lon="1.69355">
        <ele>272</ele>
        <time>2011-03-05T15:06:01Z</time>
      </trkpt>
      <trkpt lat="44.07771" lon="1.69354">
        <ele>272</ele>
        <time>2011-03-05T15:06:03Z</time>
      </trkpt>
      <trkpt lat="44.07759" lon="1.69356">
        <ele>272</ele>
        <time>2011-03-05T15:06:06Z</time>
      </trkpt>
      <trkpt lat="44.07748" lon="1.69355">
        <ele>272</ele>
        <time>2011-03-05T15:06:09Z</time>
      </trkpt>
      <trkpt lat="44.0774" lon="1.69352">
        <ele>272</ele>
        <time>2011-03-05T15:06:11Z</time>
      </trkpt>
      <trkpt lat="44.07734" lon="1.69348">
        <ele>272</ele>
        <time>2011-03-05T15:06:13Z</time>
      </trkpt>
      <trkpt lat="44.0773" lon="1.69344">
        <ele>272</ele>
        <time>2011-03-05T15:06:14Z</time>
      </trkpt>
      <trkpt lat="44.07721" lon="1.6933">
        <ele>272</ele>
        <time>2011-03-05T15:06:17Z</time>
      </trkpt>
      <trkpt lat="44.07711" lon="1.69311">
        <ele>272</ele>
        <time>2011-03-05T15:06:20Z</time>
      </trkpt>
      <trkpt lat="44.07704" lon="1.69298">
        <ele>272</ele>
        <time>2011-03-05T15:06:22Z</time>
      </trkpt>
      <trkpt lat="44.07701" lon="1.6929">
        <ele>272</ele>
        <time>2011-03-05T15:06:23Z</time>
      </trkpt>
      <trkpt lat="44.07693" lon="1.69276">
        <ele>272</ele>
        <time>2011-03-05T15:06:25Z</time>
      </trkpt>
      <trkpt lat="44.07683" lon="1.69266">
        <ele>271</ele>
        <time>2011-03-05T15:06:27Z</time>
      </trkpt>
      <trkpt lat="44.07677" lon="1.69263">
        <ele>271</ele>
        <time>2011-03-05T15:06:28Z</time>
      </trkpt>
      <trkpt lat="44.07665" lon="1.69257">
        <ele>270</ele>
        <time>2011-03-05T15:06:30Z</time>
      </trkpt>
      <trkpt lat="44.0766" lon="1.69253">
        <ele>270</ele>
        <time>2011-03-05T15:06:31Z</time>
      </trkpt>
      <trkpt lat="44.07632" lon="1.6923">
        <ele>268</ele>
        <time>2011-03-05T15:06:36Z</time>
      </trkpt>
      <trkpt lat="44.07613" lon="1.69213">
        <ele>267</ele>
        <time>2011-03-05T15:06:39Z</time>
      </trkpt>
      <trkpt lat="44.07601" lon="1.69201">
        <ele>266</ele>
        <time>2011-03-05T15:06:41Z</time>
      </trkpt>
      <trkpt lat="44.07571" lon="1.69174">
        <ele>263</ele>
        <time>2011-03-05T15:06:46Z</time>
      </trkpt>
      <trkpt lat="44.07553" lon="1.69161">
        <ele>261</ele>
        <time>2011-03-05T15:06:49Z</time>
      </trkpt>
      <trkpt lat="44.07547" lon="1.69155">
        <ele>261</ele>
        <time>2011-03-05T15:06:50Z</time>
      </trkpt>
      <trkpt lat="44.07529" lon="1.69132">
        <ele>259</ele>
        <time>2011-03-05T15:06:53Z</time>
      </trkpt>
      <trkpt lat="44.07525" lon="1.69124">
        <ele>258</ele>
        <time>2011-03-05T15:06:54Z</time>
      </trkpt>
      <trkpt lat="44.0752" lon="1.69107">
        <ele>257</ele>
        <time>2011-03-05T15:06:56Z</time>
      </trkpt>
      <trkpt lat="44.07502" lon="1.69064">
        <ele>257</ele>
        <time>2011-03-05T15:07:02Z</time>
      </trkpt>
      <trkpt lat="44.075" lon="1.69057">
        <ele>257</ele>
        <time>2011-03-05T15:07:03Z</time>
      </trkpt>
      <trkpt lat="44.07499" lon="1.6905">
        <ele>257</ele>
        <time>2011-03-05T15:07:04Z</time>
      </trkpt>
      <trkpt lat="44.07499" lon="1.6902">
        <ele>257</ele>
        <time>2011-03-05T15:07:08Z</time>
      </trkpt>
      <trkpt lat="44.07502" lon="1.68998">
        <ele>257</ele>
        <time>2011-03-05T15:07:11Z</time>
      </trkpt>
      <trkpt lat="44.07502" lon="1.68983">
        <ele>257</ele>
        <time>2011-03-05T15:07:13Z</time>
      </trkpt>
      <trkpt lat="44.07502" lon="1.6896">
        <ele>257</ele>
        <time>2011-03-05T15:07:16Z</time>
      </trkpt>
      <trkpt lat="44.07503" lon="1.68948">
        <ele>257</ele>
        <time>2011-03-05T15:07:18Z</time>
      </trkpt>
      <trkpt lat="44.07499" lon="1.68939">
        <ele>257</ele>
        <time>2011-03-05T15:07:20Z</time>
      </trkpt>
      <trkpt lat="44.07487" lon="1.68925">
        <ele>257</ele>
        <time>2011-03-05T15:07:24Z</time>
      </trkpt>
      <trkpt lat="44.07478" lon="1.68914">
        <ele>257</ele>
        <time>2011-03-05T15:07:27Z</time>
      </trkpt>
      <trkpt lat="44.07474" lon="1.68912">
        <ele>257</ele>
        <time>2011-03-05T15:07:28Z</time>
      </trkpt>
      <trkpt lat="44.07467" lon="1.68911">
        <ele>257</ele>
        <time>2011-03-05T15:07:30Z</time>
      </trkpt>
      <trkpt lat="44.07458" lon="1.68914">
        <ele>257</ele>
        <time>2011-03-05T15:07:33Z</time>
      </trkpt>
      <trkpt lat="44.07453" lon="1.68914">
        <ele>257</ele>
        <time>2011-03-05T15:07:35Z</time>
      </trkpt>
      <trkpt lat="44.07447" lon="1.68914">
        <ele>257</ele>
        <time>2011-03-05T15:07:37Z</time>
      </trkpt>
      <trkpt lat="44.07435" lon="1.68918">
        <ele>257</ele>
        <time>2011-03-05T15:07:41Z</time>
      </trkpt>
      <trkpt lat="44.0743" lon="1.68921">
        <ele>257</ele>
        <time>2011-03-05T15:07:43Z</time>
      </trkpt>
      <trkpt lat="44.07409" lon="1.6893">
        <ele>257</ele>
        <time>2011-03-05T15:07:51Z</time>
      </trkpt>
      <trkpt lat="44.07401" lon="1.6893">
        <ele>257</ele>
        <time>2011-03-05T15:07:54Z</time>
      </trkpt>
      <trkpt lat="44.07395" lon="1.68928">
        <ele>257</ele>
        <time>2011-03-05T15:07:56Z</time>
      </trkpt>
      <trkpt lat="44.07383" lon="1.68926">
        <ele>257</ele>
        <time>2011-03-05T15:08:00Z</time>
      </trkpt>
      <trkpt lat="44.07378" lon="1.68927">
        <ele>259</ele>
        <time>2011-03-05T15:08:02Z</time>
      </trkpt>
      <trkpt lat="44.07374" lon="1.6893">
        <ele>259</ele>
        <time>2011-03-05T15:08:04Z</time>
      </trkpt>
      <trkpt lat="44.07364" lon="1.68943">
        <ele>261</ele>
        <time>2011-03-05T15:08:09Z</time>
      </trkpt>
      <trkpt lat="44.07358" lon="1.6895">
        <ele>262</ele>
        <time>2011-03-05T15:08:12Z</time>
      </trkpt>
      <trkpt lat="44.07353" lon="1.68959">
        <ele>263</ele>
        <time>2011-03-05T15:08:15Z</time>
      </trkpt>
      <trkpt lat="44.07349" lon="1.68964">
        <ele>264</ele>
        <time>2011-03-05T15:08:17Z</time>
      </trkpt>
      <trkpt lat="44.07336" lon="1.68977">
        <ele>266</ele>
        <time>2011-03-05T15:08:22Z</time>
      </trkpt>
      <trkpt lat="44.07325" lon="1.68993">
        <ele>267</ele>
        <time>2011-03-05T15:08:27Z</time>
      </trkpt>
      <trkpt lat="44.07309" lon="1.69012">
        <ele>269</ele>
        <time>2011-03-05T15:08:33Z</time>
      </trkpt>
      <trkpt lat="44.07272" lon="1.69054">
        <ele>269</ele>
        <time>2011-03-05T15:08:44Z</time>
      </trkpt>
      <trkpt lat="44.07263" lon="1.6906">
        <ele>269</ele>
        <time>2011-03-05T15:08:46Z</time>
      </trkpt>
      <trkpt lat="44.07258" lon="1.69062">
        <ele>269</ele>
        <time>2011-03-05T15:08:47Z</time>
      </trkpt>
      <trkpt lat="44.07243" lon="1.69063">
        <ele>269</ele>
        <time>2011-03-05T15:08:50Z</time>
      </trkpt>
      <trkpt lat="44.07238" lon="1.69066">
        <ele>269</ele>
        <time>2011-03-05T15:08:51Z</time>
      </trkpt>
      <trkpt lat="44.07225" lon="1.69077">
        <ele>269</ele>
        <time>2011-03-05T15:08:54Z</time>
      </trkpt>
      <trkpt lat="44.07214" lon="1.69083">
        <ele>269</ele>
        <time>2011-03-05T15:08:56Z</time>
      </trkpt>
      <trkpt lat="44.0721" lon="1.69086">
        <ele>269</ele>
        <time>2011-03-05T15:08:57Z</time>
      </trkpt>
      <trkpt lat="44.07206" lon="1.69091">
        <ele>269</ele>
        <time>2011-03-05T15:08:58Z</time>
      </trkpt>
      <trkpt lat="44.07203" lon="1.69097">
        <ele>269</ele>
        <time>2011-03-05T15:08:59Z</time>
      </trkpt>
      <trkpt lat="44.07202" lon="1.69104">
        <ele>269</ele>
        <time>2011-03-05T15:09:00Z</time>
      </trkpt>
      <trkpt lat="44.07202" lon="1.69121">
        <ele>269</ele>
        <time>2011-03-05T15:09:02Z</time>
      </trkpt>
      <trkpt lat="44.07203" lon="1.69129">
        <ele>269</ele>
        <time>2011-03-05T15:09:03Z</time>
      </trkpt>
      <trkpt lat="44.07203" lon="1.69144">
        <ele>269</ele>
        <time>2011-03-05T15:09:05Z</time>
      </trkpt>
      <trkpt lat="44.07201" lon="1.69151">
        <ele>269</ele>
        <time>2011-03-05T15:09:06Z</time>
      </trkpt>
      <trkpt lat="44.07198" lon="1.69157">
        <ele>269</ele>
        <time>2011-03-05T15:09:07Z</time>
      </trkpt>
      <trkpt lat="44.07195" lon="1.69161">
        <ele>269</ele>
        <time>2011-03-05T15:09:08Z</time>
      </trkpt>
      <trkpt lat="44.07188" lon="1.69169">
        <ele>269</ele>
        <time>2011-03-05T15:09:10Z</time>
      </trkpt>
      <trkpt lat="44.07183" lon="1.69172">
        <ele>269</ele>
        <time>2011-03-05T15:09:11Z</time>
      </trkpt>
      <trkpt lat="44.07174" lon="1.69175">
        <ele>269</ele>
        <time>2011-03-05T15:09:13Z</time>
      </trkpt>
      <trkpt lat="44.07158" lon="1.69178">
        <ele>267</ele>
        <time>2011-03-05T15:09:16Z</time>
      </trkpt>
      <trkpt lat="44.07153" lon="1.6918">
        <ele>266</ele>
        <time>2011-03-05T15:09:17Z</time>
      </trkpt>
      <trkpt lat="44.07149" lon="1.69183">
        <ele>266</ele>
        <time>2011-03-05T15:09:18Z</time>
      </trkpt>
      <trkpt lat="44.07145" lon="1.69187">
        <ele>265</ele>
        <time>2011-03-05T15:09:19Z</time>
      </trkpt>
      <trkpt lat="44.07137" lon="1.69201">
        <ele>265</ele>
        <time>2011-03-05T15:09:22Z</time>
      </trkpt>
      <trkpt lat="44.07135" lon="1.6921">
        <ele>265</ele>
        <time>2011-03-05T15:09:24Z</time>
      </trkpt>
      <trkpt lat="44.07131" lon="1.6922">
        <ele>265</ele>
        <time>2011-03-05T15:09:26Z</time>
      </trkpt>
      <trkpt lat="44.07122" lon="1.69235">
        <ele>265</ele>
        <time>2011-03-05T15:09:30Z</time>
      </trkpt>
      <trkpt lat="44.07112" lon="1.69259">
        <ele>265</ele>
        <time>2011-03-05T15:09:36Z</time>
      </trkpt>
      <trkpt lat="44.07105" lon="1.69272">
        <ele>265</ele>
        <time>2011-03-05T15:09:40Z</time>
      </trkpt>
      <trkpt lat="44.07095" lon="1.69289">
        <ele>265</ele>
        <time>2011-03-05T15:09:46Z</time>
      </trkpt>
      <trkpt lat="44.07091" lon="1.69293">
        <ele>265</ele>
        <time>2011-03-05T15:09:48Z</time>
      </trkpt>
      <trkpt lat="44.07086" lon="1.69296">
        <ele>265</ele>
        <time>2011-03-05T15:09:50Z</time>
      </trkpt>
      <trkpt lat="44.07067" lon="1.69301">
        <ele>265</ele>
        <time>2011-03-05T15:09:57Z</time>
      </trkpt>
      <trkpt lat="44.07043" lon="1.6931">
        <ele>265</ele>
        <time>2011-03-05T15:10:06Z</time>
      </trkpt>
      <trkpt lat="44.07035" lon="1.69308">
        <ele>265</ele>
        <time>2011-03-05T15:10:09Z</time>
      </trkpt>
      <trkpt lat="44.0703" lon="1.69306">
        <ele>265</ele>
        <time>2011-03-05T15:10:11Z</time>
      </trkpt>
      <trkpt lat="44.07012" lon="1.6929">
        <ele>268</ele>
        <time>2011-03-05T15:10:18Z</time>
      </trkpt>
      <trkpt lat="44.06992" lon="1.69275">
        <ele>268</ele>
        <time>2011-03-05T15:10:24Z</time>
      </trkpt>
      <trkpt lat="44.0699" lon="1.69273">
        <ele>268</ele>
        <time>2011-03-05T15:10:25Z</time>
      </trkpt>
      <trkpt lat="44.06983" lon="1.69261">
        <ele>268</ele>
        <time>2011-03-05T15:10:28Z</time>
      </trkpt>
      <trkpt lat="44.06979" lon="1.69257">
        <ele>268</ele>
        <time>2011-03-05T15:10:29Z</time>
      </trkpt>
      <trkpt lat="44.06971" lon="1.69252">
        <ele>268</ele>
        <time>2011-03-05T15:10:31Z</time>
      </trkpt>
      <trkpt lat="44.06953" lon="1.69245">
        <ele>268</ele>
        <time>2011-03-05T15:10:35Z</time>
      </trkpt>
      <trkpt lat="44.06936" lon="1.69241">
        <ele>268</ele>
        <time>2011-03-05T15:10:39Z</time>
      </trkpt>
      <trkpt lat="44.06923" lon="1.69242">
        <ele>268</ele>
        <time>2011-03-05T15:10:42Z</time>
      </trkpt>
      <trkpt lat="44.06918" lon="1.69242">
        <ele>268</ele>
        <time>2011-03-05T15:10:43Z</time>
      </trkpt>
      <trkpt lat="44.06895" lon="1.69231">
        <ele>268</ele>
        <time>2011-03-05T15:10:48Z</time>
      </trkpt>
      <trkpt lat="44.0689" lon="1.6923">
        <ele>268</ele>
        <time>2011-03-05T15:10:49Z</time>
      </trkpt>
      <trkpt lat="44.06885" lon="1.69231">
        <ele>268</ele>
        <time>2011-03-05T15:10:50Z</time>
      </trkpt>
      <trkpt lat="44.06868" lon="1.69245">
        <ele>268</ele>
        <time>2011-03-05T15:10:54Z</time>
      </trkpt>
      <trkpt lat="44.06864" lon="1.69247">
        <ele>268</ele>
        <time>2011-03-05T15:10:55Z</time>
      </trkpt>
      <trkpt lat="44.0686" lon="1.69247">
        <ele>268</ele>
        <time>2011-03-05T15:10:56Z</time>
      </trkpt>
      <trkpt lat="44.06856" lon="1.69245">
        <ele>267</ele>
        <time>2011-03-05T15:10:57Z</time>
      </trkpt>
      <trkpt lat="44.06853" lon="1.69242">
        <ele>267</ele>
        <time>2011-03-05T15:10:58Z</time>
      </trkpt>
      <trkpt lat="44.06851" lon="1.69238">
        <ele>266</ele>
        <time>2011-03-05T15:10:59Z</time>
      </trkpt>
      <trkpt lat="44.06847" lon="1.69227">
        <ele>265</ele>
        <time>2011-03-05T15:11:01Z</time>
      </trkpt>
      <trkpt lat="44.06845" lon="1.69222">
        <ele>265</ele>
        <time>2011-03-05T15:11:02Z</time>
      </trkpt>
      <trkpt lat="44.06841" lon="1.69218">
        <ele>264</ele>
        <time>2011-03-05T15:11:03Z</time>
      </trkpt>
      <trkpt lat="44.06836" lon="1.69215">
        <ele>263</ele>
        <time>2011-03-05T15:11:04Z</time>
      </trkpt>
      <trkpt lat="44.06833" lon="1.69211">
        <ele>263</ele>
        <time>2011-03-05T15:11:05Z</time>
      </trkpt>
      <trkpt lat="44.0683" lon="1.69206">
        <ele>262</ele>
        <time>2011-03-05T15:11:06Z</time>
      </trkpt>
      <trkpt lat="44.06827" lon="1.69199">
        <ele>261</ele>
        <time>2011-03-05T15:11:07Z</time>
      </trkpt>
      <trkpt lat="44.06824" lon="1.69187">
        <ele>259</ele>
        <time>2011-03-05T15:11:09Z</time>
      </trkpt>
      <trkpt lat="44.06821" lon="1.69183">
        <ele>259</ele>
        <time>2011-03-05T15:11:10Z</time>
      </trkpt>
      <trkpt lat="44.06818" lon="1.6918">
        <ele>258</ele>
        <time>2011-03-05T15:11:11Z</time>
      </trkpt>
      <trkpt lat="44.06815" lon="1.69179">
        <ele>258</ele>
        <time>2011-03-05T15:11:12Z</time>
      </trkpt>
      <trkpt lat="44.06806" lon="1.69177">
        <ele>257</ele>
        <time>2011-03-05T15:11:14Z</time>
      </trkpt>
      <trkpt lat="44.068" lon="1.69177">
        <ele>256</ele>
        <time>2011-03-05T15:11:15Z</time>
      </trkpt>
      <trkpt lat="44.06796" lon="1.69178">
        <ele>256</ele>
        <time>2011-03-05T15:11:16Z</time>
      </trkpt>
      <trkpt lat="44.06791" lon="1.69181">
        <ele>255</ele>
        <time>2011-03-05T15:11:17Z</time>
      </trkpt>
      <trkpt lat="44.06779" lon="1.69192">
        <ele>253</ele>
        <time>2011-03-05T15:11:20Z</time>
      </trkpt>
      <trkpt lat="44.06776" lon="1.69195">
        <ele>252</ele>
        <time>2011-03-05T15:11:21Z</time>
      </trkpt>
      <trkpt lat="44.06773" lon="1.69195">
        <ele>251</ele>
        <time>2011-03-05T15:11:22Z</time>
      </trkpt>
      <trkpt lat="44.0677" lon="1.69193">
        <ele>250</ele>
        <time>2011-03-05T15:11:23Z</time>
      </trkpt>
      <trkpt lat="44.06767" lon="1.6919">
        <ele>250</ele>
        <time>2011-03-05T15:11:24Z</time>
      </trkpt>
      <trkpt lat="44.06765" lon="1.69184">
        <ele>249</ele>
        <time>2011-03-05T15:11:25Z</time>
      </trkpt>
      <trkpt lat="44.06762" lon="1.69157">
        <ele>246</ele>
        <time>2011-03-05T15:11:29Z</time>
      </trkpt>
      <trkpt lat="44.06758" lon="1.69143">
        <ele>245</ele>
        <time>2011-03-05T15:11:31Z</time>
      </trkpt>
      <trkpt lat="44.06754" lon="1.69132">
        <ele>243</ele>
        <time>2011-03-05T15:11:33Z</time>
      </trkpt>
      <trkpt lat="44.06751" lon="1.69129">
        <ele>242</ele>
        <time>2011-03-05T15:11:34Z</time>
      </trkpt>
      <trkpt lat="44.06747" lon="1.69128">
        <ele>242</ele>
        <time>2011-03-05T15:11:35Z</time>
      </trkpt>
      <trkpt lat="44.06743" lon="1.69128">
        <ele>241</ele>
        <time>2011-03-05T15:11:36Z</time>
      </trkpt>
      <trkpt lat="44.06723" lon="1.69137">
        <ele>238</ele>
        <time>2011-03-05T15:11:40Z</time>
      </trkpt>
      <trkpt lat="44.06711" lon="1.69145">
        <ele>235</ele>
        <time>2011-03-05T15:11:43Z</time>
      </trkpt>
      <trkpt lat="44.06707" lon="1.69147">
        <ele>233</ele>
        <time>2011-03-05T15:12:08Z</time>
      </trkpt>
      <trkpt lat="44.06706" lon="1.69152">
        <ele>232</ele>
        <time>2011-03-05T15:12:58Z</time>
      </trkpt>
      <trkpt lat="44.06706" lon="1.6915">
        <ele>232</ele>
        <time>2011-03-05T15:13:02Z</time>
      </trkpt>
      <trkpt lat="44.06704" lon="1.69146">
        <ele>232</ele>
        <time>2011-03-05T15:13:14Z</time>
      </trkpt>
      <trkpt lat="44.06695" lon="1.69134">
        <ele>231</ele>
        <time>2011-03-05T15:13:19Z</time>
      </trkpt>
      <trkpt lat="44.06689" lon="1.69125">
        <ele>229</ele>
        <time>2011-03-05T15:13:21Z</time>
      </trkpt>
      <trkpt lat="44.06684" lon="1.69112">
        <ele>227</ele>
        <time>2011-03-05T15:13:24Z</time>
      </trkpt>
      <trkpt lat="44.0668" lon="1.69098">
        <ele>225</ele>
        <time>2011-03-05T15:13:27Z</time>
      </trkpt>
      <trkpt lat="44.06672" lon="1.69081">
        <ele>221</ele>
        <time>2011-03-05T15:13:31Z</time>
      </trkpt>
      <trkpt lat="44.06669" lon="1.69078">
        <ele>220</ele>
        <time>2011-03-05T15:13:32Z</time>
      </trkpt>
      <trkpt lat="44.06663" lon="1.69074">
        <ele>218</ele>
        <time>2011-03-05T15:13:34Z</time>
      </trkpt>
      <trkpt lat="44.06656" lon="1.69071">
        <ele>216</ele>
        <time>2011-03-05T15:13:36Z</time>
      </trkpt>
      <trkpt lat="44.06652" lon="1.69065">
        <ele>214</ele>
        <time>2011-03-05T15:13:38Z</time>
      </trkpt>
      <trkpt lat="44.06646" lon="1.69053">
        <ele>211</ele>
        <time>2011-03-05T15:13:41Z</time>
      </trkpt>
      <trkpt lat="44.06641" lon="1.69047">
        <ele>209</ele>
        <time>2011-03-05T15:13:43Z</time>
      </trkpt>
      <trkpt lat="44.06628" lon="1.6904">
        <ele>205</ele>
        <time>2011-03-05T15:13:47Z</time>
      </trkpt>
      <trkpt lat="44.06617" lon="1.69036">
        <ele>202</ele>
        <time>2011-03-05T15:13:50Z</time>
      </trkpt>
      <trkpt lat="44.06611" lon="1.69031">
        <ele>200</ele>
        <time>2011-03-05T15:13:52Z</time>
      </trkpt>
      <trkpt lat="44.06598" lon="1.69017">
        <ele>196</ele>
        <time>2011-03-05T15:13:57Z</time>
      </trkpt>
      <trkpt lat="44.06596" lon="1.69015">
        <ele>195</ele>
        <time>2011-03-05T15:13:58Z</time>
      </trkpt>
      <trkpt lat="44.06593" lon="1.69014">
        <ele>194</ele>
        <time>2011-03-05T15:13:59Z</time>
      </trkpt>
      <trkpt lat="44.0659" lon="1.69014">
        <ele>193</ele>
        <time>2011-03-05T15:14:00Z</time>
      </trkpt>
      <trkpt lat="44.06582" lon="1.69017">
        <ele>191</ele>
        <time>2011-03-05T15:14:03Z</time>
      </trkpt>
      <trkpt lat="44.06581" lon="1.69017">
        <ele>190</ele>
        <time>2011-03-05T15:14:04Z</time>
      </trkpt>
      <trkpt lat="44.0658" lon="1.69016">
        <ele>190</ele>
        <time>2011-03-05T15:14:05Z</time>
      </trkpt>
      <trkpt lat="44.0658" lon="1.69009">
        <ele>189</ele>
        <time>2011-03-05T15:14:07Z</time>
      </trkpt>
      <trkpt lat="44.06583" lon="1.68995">
        <ele>187</ele>
        <time>2011-03-05T15:14:10Z</time>
      </trkpt>
      <trkpt lat="44.06598" lon="1.6896">
        <ele>186</ele>
        <time>2011-03-05T15:14:16Z</time>
      </trkpt>
      <trkpt lat="44.06601" lon="1.68955">
        <ele>186</ele>
        <time>2011-03-05T15:14:17Z</time>
      </trkpt>
      <trkpt lat="44.06617" lon="1.68939">
        <ele>185</ele>
        <time>2011-03-05T15:14:21Z</time>
      </trkpt>
      <trkpt lat="44.06621" lon="1.68936">
        <ele>185</ele>
        <time>2011-03-05T15:14:22Z</time>
      </trkpt>
      <trkpt lat="44.06635" lon="1.6893">
        <ele>185</ele>
        <time>2011-03-05T15:14:26Z</time>
      </trkpt>
      <trkpt lat="44.0664" lon="1.68927">
        <ele>185</ele>
        <time>2011-03-05T15:14:28Z</time>
      </trkpt>
      <trkpt lat="44.06644" lon="1.68921">
        <ele>185</ele>
        <time>2011-03-05T15:14:30Z</time>
      </trkpt>
      <trkpt lat="44.06643" lon="1.68913">
        <ele>185</ele>
        <time>2011-03-05T15:14:32Z</time>
      </trkpt>
      <trkpt lat="44.06641" lon="1.68902">
        <ele>185</ele>
        <time>2011-03-05T15:14:34Z</time>
      </trkpt>
      <trkpt lat="44.06639" lon="1.68896">
        <ele>185</ele>
        <time>2011-03-05T15:14:36Z</time>
      </trkpt>
      <trkpt lat="44.06619" lon="1.68874">
        <ele>187</ele>
        <time>2011-03-05T15:14:51Z</time>
      </trkpt>
      <trkpt lat="44.06617" lon="1.68869">
        <ele>188</ele>
        <time>2011-03-05T15:14:54Z</time>
      </trkpt>
      <trkpt lat="44.06611" lon="1.68862">
        <ele>188</ele>
        <time>2011-03-05T15:14:59Z</time>
      </trkpt>
      <trkpt lat="44.06604" lon="1.68851">
        <ele>189</ele>
        <time>2011-03-05T15:15:06Z</time>
      </trkpt>
      <trkpt lat="44.06601" lon="1.68841">
        <ele>191</ele>
        <time>2011-03-05T15:15:11Z</time>
      </trkpt>
      <trkpt lat="44.06598" lon="1.68834">
        <ele>191</ele>
        <time>2011-03-05T15:15:15Z</time>
      </trkpt>
      <trkpt lat="44.06596" lon="1.6883">
        <ele>191</ele>
        <time>2011-03-05T15:15:17Z</time>
      </trkpt>
      <trkpt lat="44.06591" lon="1.68818">
        <ele>192</ele>
        <time>2011-03-05T15:15:22Z</time>
      </trkpt>
      <trkpt lat="44.06589" lon="1.68805">
        <ele>192</ele>
        <time>2011-03-05T15:15:26Z</time>
      </trkpt>
      <trkpt lat="44.06587" lon="1.68776">
        <ele>192</ele>
        <time>2011-03-05T15:15:33Z</time>
      </trkpt>
      <trkpt lat="44.06587" lon="1.68745">
        <ele>192</ele>
        <time>2011-03-05T15:15:39Z</time>
      </trkpt>
      <trkpt lat="44.06588" lon="1.68739">
        <ele>192</ele>
        <time>2011-03-05T15:15:40Z</time>
      </trkpt>
      <trkpt lat="44.06588" lon="1.68733">
        <ele>192</ele>
        <time>2011-03-05T15:15:41Z</time>
      </trkpt>
      <trkpt lat="44.0659" lon="1.6871">
        <ele>192</ele>
        <time>2011-03-05T15:15:45Z</time>
      </trkpt>
      <trkpt lat="44.06592" lon="1.68691">
        <ele>192</ele>
        <time>2011-03-05T15:15:48Z</time>
      </trkpt>
      <trkpt lat="44.06598" lon="1.68657">
        <ele>192</ele>
        <time>2011-03-05T15:15:54Z</time>
      </trkpt>
      <trkpt lat="44.066" lon="1.68645">
        <ele>192</ele>
        <time>2011-03-05T15:15:56Z</time>
      </trkpt>
      <trkpt lat="44.06609" lon="1.68616">
        <ele>192</ele>
        <time>2011-03-05T15:16:01Z</time>
      </trkpt>
      <trkpt lat="44.06618" lon="1.68584">
        <ele>191</ele>
        <time>2011-03-05T15:16:06Z</time>
      </trkpt>
      <trkpt lat="44.06625" lon="1.68567">
        <ele>191</ele>
        <time>2011-03-05T15:16:09Z</time>
      </trkpt>
      <trkpt lat="44.06628" lon="1.68562">
        <ele>191</ele>
        <time>2011-03-05T15:16:10Z</time>
      </trkpt>
      <trkpt lat="44.06634" lon="1.68554">
        <ele>191</ele>
        <time>2011-03-05T15:16:12Z</time>
      </trkpt>
      <trkpt lat="44.06648" lon="1.68529">
        <ele>191</ele>
        <time>2011-03-05T15:16:18Z</time>
      </trkpt>
      <trkpt lat="44.0665" lon="1.68524">
        <ele>191</ele>
        <time>2011-03-05T15:16:19Z</time>
      </trkpt>
      <trkpt lat="44.06653" lon="1.68514">
        <ele>191</ele>
        <time>2011-03-05T15:16:21Z</time>
      </trkpt>
      <trkpt lat="44.06651" lon="1.68493">
        <ele>190</ele>
        <time>2011-03-05T15:16:24Z</time>
      </trkpt>
      <trkpt lat="44.06647" lon="1.68478">
        <ele>189</ele>
        <time>2011-03-05T15:16:26Z</time>
      </trkpt>
      <trkpt lat="44.06645" lon="1.68463">
        <ele>189</ele>
        <time>2011-03-05T15:16:28Z</time>
      </trkpt>
      <trkpt lat="44.06644" lon="1.68455">
        <ele>189</ele>
        <time>2011-03-05T15:16:29Z</time>
      </trkpt>
      <trkpt lat="44.06645" lon="1.68448">
        <ele>189</ele>
        <time>2011-03-05T15:16:30Z</time>
      </trkpt>
      <trkpt lat="44.06647" lon="1.68432">
        <ele>188</ele>
        <time>2011-03-05T15:16:32Z</time>
      </trkpt>
      <trkpt lat="44.06652" lon="1.68416">
        <ele>188</ele>
        <time>2011-03-05T15:16:34Z</time>
      </trkpt>
      <trkpt lat="44.06654" lon="1.68402">
        <ele>187</ele>
        <time>2011-03-05T15:16:36Z</time>
      </trkpt>
      <trkpt lat="44.06659" lon="1.68371">
        <ele>184</ele>
        <time>2011-03-05T15:16:41Z</time>
      </trkpt>
      <trkpt lat="44.0666" lon="1.68366">
        <ele>183</ele>
        <time>2011-03-05T15:16:42Z</time>
      </trkpt>
      <trkpt lat="44.06663" lon="1.68351">
        <ele>181</ele>
        <time>2011-03-05T15:16:45Z</time>
      </trkpt>
      <trkpt lat="44.06666" lon="1.68343">
        <ele>179</ele>
        <time>2011-03-05T15:16:47Z</time>
      </trkpt>
      <trkpt lat="44.06667" lon="1.68334">
        <ele>177</ele>
        <time>2011-03-05T15:16:49Z</time>
      </trkpt>
      <trkpt lat="44.06666" lon="1.68328">
        <ele>176</ele>
        <time>2011-03-05T15:16:50Z</time>
      </trkpt>
      <trkpt lat="44.06662" lon="1.68316">
        <ele>174</ele>
        <time>2011-03-05T15:16:52Z</time>
      </trkpt>
      <trkpt lat="44.06662" lon="1.68309">
        <ele>173</ele>
        <time>2011-03-05T15:16:53Z</time>
      </trkpt>
      <trkpt lat="44.06663" lon="1.68303">
        <ele>172</ele>
        <time>2011-03-05T15:16:54Z</time>
      </trkpt>
      <trkpt lat="44.06663" lon="1.68291">
        <ele>170</ele>
        <time>2011-03-05T15:16:56Z</time>
      </trkpt>
      <trkpt lat="44.06665" lon="1.68274">
        <ele>167</ele>
        <time>2011-03-05T15:16:59Z</time>
      </trkpt>
      <trkpt lat="44.06666" lon="1.6827">
        <ele>166</ele>
        <time>2011-03-05T15:17:00Z</time>
      </trkpt>
      <trkpt lat="44.06668" lon="1.68266">
        <ele>165</ele>
        <time>2011-03-05T15:17:01Z</time>
      </trkpt>
      <trkpt lat="44.06672" lon="1.68263">
        <ele>164</ele>
        <time>2011-03-05T15:17:02Z</time>
      </trkpt>
      <trkpt lat="44.06676" lon="1.68263">
        <ele>163</ele>
        <time>2011-03-05T15:17:03Z</time>
      </trkpt>
      <trkpt lat="44.06686" lon="1.68265">
        <ele>161</ele>
        <time>2011-03-05T15:17:05Z</time>
      </trkpt>
      <trkpt lat="44.06691" lon="1.68265">
        <ele>160</ele>
        <time>2011-03-05T15:17:06Z</time>
      </trkpt>
      <trkpt lat="44.06701" lon="1.68261">
        <ele>159</ele>
        <time>2011-03-05T15:17:08Z</time>
      </trkpt>
      <trkpt lat="44.06706" lon="1.68258">
        <ele>159</ele>
        <time>2011-03-05T15:17:09Z</time>
      </trkpt>
      <trkpt lat="44.06718" lon="1.68242">
        <ele>158</ele>
        <time>2011-03-05T15:17:12Z</time>
      </trkpt>
      <trkpt lat="44.06722" lon="1.68235">
        <ele>157</ele>
        <time>2011-03-05T15:17:13Z</time>
      </trkpt>
      <trkpt lat="44.06725" lon="1.68227">
        <ele>156</ele>
        <time>2011-03-05T15:17:14Z</time>
      </trkpt>
      <trkpt lat="44.06726" lon="1.68219">
        <ele>155</ele>
        <time>2011-03-05T15:17:15Z</time>
      </trkpt>
      <trkpt lat="44.06726" lon="1.68194">
        <ele>153</ele>
        <time>2011-03-05T15:17:18Z</time>
      </trkpt>
      <trkpt lat="44.0673" lon="1.68169">
        <ele>150</ele>
        <time>2011-03-05T15:17:21Z</time>
      </trkpt>
      <trkpt lat="44.06734" lon="1.68148">
        <ele>148</ele>
        <time>2011-03-05T15:17:24Z</time>
      </trkpt>
      <trkpt lat="44.06735" lon="1.68141">
        <ele>147</ele>
        <time>2011-03-05T15:17:25Z</time>
      </trkpt>
      <trkpt lat="44.06735" lon="1.68134">
        <ele>146</ele>
        <time>2011-03-05T15:17:26Z</time>
      </trkpt>
      <trkpt lat="44.06734" lon="1.68127">
        <ele>145</ele>
        <time>2011-03-05T15:17:27Z</time>
      </trkpt>
      <trkpt lat="44.06733" lon="1.68111">
        <ele>144</ele>
        <time>2011-03-05T15:17:29Z</time>
      </trkpt>
      <trkpt lat="44.06736" lon="1.68091">
        <ele>142</ele>
        <time>2011-03-05T15:17:31Z</time>
      </trkpt>
      <trkpt lat="44.0674" lon="1.68069">
        <ele>141</ele>
        <time>2011-03-05T15:17:33Z</time>
      </trkpt>
      <trkpt lat="44.06755" lon="1.67964">
        <ele>132</ele>
        <time>2011-03-05T15:17:42Z</time>
      </trkpt>
      <trkpt lat="44.06757" lon="1.67954">
        <ele>131</ele>
        <time>2011-03-05T15:17:43Z</time>
      </trkpt>
      <trkpt lat="44.06762" lon="1.67936">
        <ele>129</ele>
        <time>2011-03-05T15:17:45Z</time>
      </trkpt>
      <trkpt lat="44.06768" lon="1.67924">
        <ele>127</ele>
        <time>2011-03-05T15:17:47Z</time>
      </trkpt>
      <trkpt lat="44.06771" lon="1.67921">
        <ele>126</ele>
        <time>2011-03-05T15:17:48Z</time>
      </trkpt>
      <trkpt lat="44.06775" lon="1.67921">
        <ele>125</ele>
        <time>2011-03-05T15:17:49Z</time>
      </trkpt>
      <trkpt lat="44.06778" lon="1.67923">
        <ele>124</ele>
        <time>2011-03-05T15:17:50Z</time>
      </trkpt>
      <trkpt lat="44.06786" lon="1.67933">
        <ele>120</ele>
        <time>2011-03-05T15:17:54Z</time>
      </trkpt>
      <trkpt lat="44.06797" lon="1.67945">
        <ele>115</ele>
        <time>2011-03-05T15:18:00Z</time>
      </trkpt>
      <trkpt lat="44.06805" lon="1.67948">
        <ele>115</ele>
        <time>2011-03-05T15:18:03Z</time>
      </trkpt>
      <trkpt lat="44.06819" lon="1.67947">
        <ele>116</ele>
        <time>2011-03-05T15:18:09Z</time>
      </trkpt>
      <trkpt lat="44.0683" lon="1.67943">
        <ele>121</ele>
        <time>2011-03-05T15:18:14Z</time>
      </trkpt>
      <trkpt lat="44.06837" lon="1.67938">
        <ele>125</ele>
        <time>2011-03-05T15:18:18Z</time>
      </trkpt>
      <trkpt lat="44.06842" lon="1.67935">
        <ele>128</ele>
        <time>2011-03-05T15:18:21Z</time>
      </trkpt>
      <trkpt lat="44.06859" lon="1.67934">
        <ele>136</ele>
        <time>2011-03-05T15:18:29Z</time>
      </trkpt>
      <trkpt lat="44.06868" lon="1.67936">
        <ele>141</ele>
        <time>2011-03-05T15:18:34Z</time>
      </trkpt>
      <trkpt lat="44.06877" lon="1.67938">
        <ele>144</ele>
        <time>2011-03-05T15:18:39Z</time>
      </trkpt>
      <trkpt lat="44.06924" lon="1.67956">
        <ele>151</ele>
        <time>2011-03-05T15:19:05Z</time>
      </trkpt>
      <trkpt lat="44.06931" lon="1.67958">
        <ele>151</ele>
        <time>2011-03-05T15:19:09Z</time>
      </trkpt>
      <trkpt lat="44.06941" lon="1.67961">
        <ele>151</ele>
        <time>2011-03-05T15:19:15Z</time>
      </trkpt>
      <trkpt lat="44.06972" lon="1.67976">
        <ele>153</ele>
        <time>2011-03-05T15:19:34Z</time>
      </trkpt>
      <trkpt lat="44.06982" lon="1.6798">
        <ele>154</ele>
        <time>2011-03-05T15:19:40Z</time>
      </trkpt>
      <trkpt lat="44.06991" lon="1.67985">
        <ele>155</ele>
        <time>2011-03-05T15:19:46Z</time>
      </trkpt>
      <trkpt lat="44.06996" lon="1.67986">
        <ele>155</ele>
        <time>2011-03-05T15:19:49Z</time>
      </trkpt>
      <trkpt lat="44.07006" lon="1.67991">
        <ele>156</ele>
        <time>2011-03-05T15:19:55Z</time>
      </trkpt>
      <trkpt lat="44.07019" lon="1.68">
        <ele>158</ele>
        <time>2011-03-05T15:20:03Z</time>
      </trkpt>
      <trkpt lat="44.07027" lon="1.68008">
        <ele>160</ele>
        <time>2011-03-05T15:20:08Z</time>
      </trkpt>
      <trkpt lat="44.07043" lon="1.68024">
        <ele>163</ele>
        <time>2011-03-05T15:20:18Z</time>
      </trkpt>
      <trkpt lat="44.07047" lon="1.68026">
        <ele>163</ele>
        <time>2011-03-05T15:20:20Z</time>
      </trkpt>
      <trkpt lat="44.07049" lon="1.68028">
        <ele>164</ele>
        <time>2011-03-05T15:20:21Z</time>
      </trkpt>
      <trkpt lat="44.07072" lon="1.68045">
        <ele>168</ele>
        <time>2011-03-05T15:20:34Z</time>
      </trkpt>
      <trkpt lat="44.07077" lon="1.6805">
        <ele>168</ele>
        <time>2011-03-05T15:20:37Z</time>
      </trkpt>
      <trkpt lat="44.07087" lon="1.68059">
        <ele>169</ele>
        <time>2011-03-05T15:20:43Z</time>
      </trkpt>
      <trkpt lat="44.0711" lon="1.68082">
        <ele>171</ele>
        <time>2011-03-05T15:20:57Z</time>
      </trkpt>
      <trkpt lat="44.07132" lon="1.68096">
        <ele>174</ele>
        <time>2011-03-05T15:21:09Z</time>
      </trkpt>
      <trkpt lat="44.07135" lon="1.68099">
        <ele>174</ele>
        <time>2011-03-05T15:21:11Z</time>
      </trkpt>
      <trkpt lat="44.07144" lon="1.68104">
        <ele>176</ele>
        <time>2011-03-05T15:21:16Z</time>
      </trkpt>
      <trkpt lat="44.07149" lon="1.68108">
        <ele>177</ele>
        <time>2011-03-05T15:21:19Z</time>
      </trkpt>
      <trkpt lat="44.07167" lon="1.68128">
        <ele>179</ele>
        <time>2011-03-05T15:21:31Z</time>
      </trkpt>
      <trkpt lat="44.07185" lon="1.6815">
        <ele>181</ele>
        <time>2011-03-05T15:21:43Z</time>
      </trkpt>
      <trkpt lat="44.07205" lon="1.68172">
        <ele>184</ele>
        <time>2011-03-05T15:21:56Z</time>
      </trkpt>
      <trkpt lat="44.07219" lon="1.68182">
        <ele>187</ele>
        <time>2011-03-05T15:22:04Z</time>
      </trkpt>
      <trkpt lat="44.07226" lon="1.68186">
        <ele>189</ele>
        <time>2011-03-05T15:22:08Z</time>
      </trkpt>
      <trkpt lat="44.07229" lon="1.68189">
        <ele>190</ele>
        <time>2011-03-05T15:22:10Z</time>
      </trkpt>
      <trkpt lat="44.07245" lon="1.68198">
        <ele>193</ele>
        <time>2011-03-05T15:22:19Z</time>
      </trkpt>
      <trkpt lat="44.0725" lon="1.68202">
        <ele>194</ele>
        <time>2011-03-05T15:22:22Z</time>
      </trkpt>
      <trkpt lat="44.07259" lon="1.68207">
        <ele>196</ele>
        <time>2011-03-05T15:22:27Z</time>
      </trkpt>
      <trkpt lat="44.07273" lon="1.68219">
        <ele>199</ele>
        <time>2011-03-05T15:22:36Z</time>
      </trkpt>
      <trkpt lat="44.07284" lon="1.68231">
        <ele>200</ele>
        <time>2011-03-05T15:22:43Z</time>
      </trkpt>
      <trkpt lat="44.07292" lon="1.68239">
        <ele>201</ele>
        <time>2011-03-05T15:22:48Z</time>
      </trkpt>
      <trkpt lat="44.07309" lon="1.68256">
        <ele>203</ele>
        <time>2011-03-05T15:22:59Z</time>
      </trkpt>
      <trkpt lat="44.0732" lon="1.68269">
        <ele>204</ele>
        <time>2011-03-05T15:23:06Z</time>
      </trkpt>
      <trkpt lat="44.07329" lon="1.68277">
        <ele>204</ele>
        <time>2011-03-05T15:23:11Z</time>
      </trkpt>
      <trkpt lat="44.07344" lon="1.68283">
        <ele>204</ele>
        <time>2011-03-05T15:23:19Z</time>
      </trkpt>
      <trkpt lat="44.07348" lon="1.68286">
        <ele>204</ele>
        <time>2011-03-05T15:23:21Z</time>
      </trkpt>
      <trkpt lat="44.07351" lon="1.68289">
        <ele>204</ele>
        <time>2011-03-05T15:23:23Z</time>
      </trkpt>
      <trkpt lat="44.07362" lon="1.68305">
        <ele>204</ele>
        <time>2011-03-05T15:23:31Z</time>
      </trkpt>
      <trkpt lat="44.07369" lon="1.68314">
        <ele>205</ele>
        <time>2011-03-05T15:23:36Z</time>
      </trkpt>
      <trkpt lat="44.0739" lon="1.68344">
        <ele>207</ele>
        <time>2011-03-05T15:23:51Z</time>
      </trkpt>
      <trkpt lat="44.07404" lon="1.68362">
        <ele>208</ele>
        <time>2011-03-05T15:24:00Z</time>
      </trkpt>
      <trkpt lat="44.07411" lon="1.68373">
        <ele>209</ele>
        <time>2011-03-05T15:24:05Z</time>
      </trkpt>
      <trkpt lat="44.07428" lon="1.68393">
        <ele>213</ele>
        <time>2011-03-05T15:24:16Z</time>
      </trkpt>
      <trkpt lat="44.07435" lon="1.68404">
        <ele>213</ele>
        <time>2011-03-05T15:24:21Z</time>
      </trkpt>
      <trkpt lat="44.07452" lon="1.68439">
        <ele>214</ele>
        <time>2011-03-05T15:24:36Z</time>
      </trkpt>
      <trkpt lat="44.0747" lon="1.68471">
        <ele>218</ele>
        <time>2011-03-05T15:24:49Z</time>
      </trkpt>
      <trkpt lat="44.07472" lon="1.68473">
        <ele>219</ele>
        <time>2011-03-05T15:24:50Z</time>
      </trkpt>
      <trkpt lat="44.07473" lon="1.68476">
        <ele>220</ele>
        <time>2011-03-05T15:24:51Z</time>
      </trkpt>
      <trkpt lat="44.07482" lon="1.68491">
        <ele>223</ele>
        <time>2011-03-05T15:24:57Z</time>
      </trkpt>
      <trkpt lat="44.07492" lon="1.68502">
        <ele>225</ele>
        <time>2011-03-05T15:25:03Z</time>
      </trkpt>
      <trkpt lat="44.07497" lon="1.68504">
        <ele>225</ele>
        <time>2011-03-05T15:25:05Z</time>
      </trkpt>
      <trkpt lat="44.07513" lon="1.68506">
        <ele>228</ele>
        <time>2011-03-05T15:25:12Z</time>
      </trkpt>
      <trkpt lat="44.0752" lon="1.68509">
        <ele>228</ele>
        <time>2011-03-05T15:25:16Z</time>
      </trkpt>
      <trkpt lat="44.07527" lon="1.68514">
        <ele>229</ele>
        <time>2011-03-05T15:25:20Z</time>
      </trkpt>
      <trkpt lat="44.07533" lon="1.68522">
        <ele>230</ele>
        <time>2011-03-05T15:25:24Z</time>
      </trkpt>
      <trkpt lat="44.07539" lon="1.68533">
        <ele>231</ele>
        <time>2011-03-05T15:25:29Z</time>
      </trkpt>
      <trkpt lat="44.07543" lon="1.6854">
        <ele>232</ele>
        <time>2011-03-05T15:25:32Z</time>
      </trkpt>
      <trkpt lat="44.07553" lon="1.68557">
        <ele>234</ele>
        <time>2011-03-05T15:25:40Z</time>
      </trkpt>
      <trkpt lat="44.07564" lon="1.6858">
        <ele>235</ele>
        <time>2011-03-05T15:25:50Z</time>
      </trkpt>
      <trkpt lat="44.0757" lon="1.68589">
        <ele>235</ele>
        <time>2011-03-05T15:25:54Z</time>
      </trkpt>
      <trkpt lat="44.07571" lon="1.68592">
        <ele>235</ele>
        <time>2011-03-05T15:25:55Z</time>
      </trkpt>
      <trkpt lat="44.07575" lon="1.686">
        <ele>236</ele>
        <time>2011-03-05T15:25:58Z</time>
      </trkpt>
      <trkpt lat="44.07581" lon="1.68621">
        <ele>237</ele>
        <time>2011-03-05T15:26:05Z</time>
      </trkpt>
      <trkpt lat="44.07585" lon="1.68637">
        <ele>237</ele>
        <time>2011-03-05T15:26:10Z</time>
      </trkpt>
      <trkpt lat="44.07594" lon="1.6867">
        <ele>237</ele>
        <time>2011-03-05T15:26:20Z</time>
      </trkpt>
      <trkpt lat="44.07595" lon="1.68673">
        <ele>237</ele>
        <time>2011-03-05T15:26:21Z</time>
      </trkpt>
      <trkpt lat="44.07597" lon="1.68679">
        <ele>237</ele>
        <time>2011-03-05T15:26:23Z</time>
      </trkpt>
      <trkpt lat="44.076" lon="1.68686">
        <ele>237</ele>
        <time>2011-03-05T15:26:26Z</time>
      </trkpt>
      <trkpt lat="44.07604" lon="1.68687">
        <ele>238</ele>
        <time>2011-03-05T15:26:28Z</time>
      </trkpt>
      <trkpt lat="44.07605" lon="1.68685">
        <ele>238</ele>
        <time>2011-03-05T15:26:29Z</time>
      </trkpt>
      <trkpt lat="44.07607" lon="1.68677">
        <ele>238</ele>
        <time>2011-03-05T15:26:32Z</time>
      </trkpt>
      <trkpt lat="44.07609" lon="1.68653">
        <ele>238</ele>
        <time>2011-03-05T15:26:38Z</time>
      </trkpt>
      <trkpt lat="44.07613" lon="1.6859">
        <ele>238</ele>
        <time>2011-03-05T15:26:50Z</time>
      </trkpt>
      <trkpt lat="44.07616" lon="1.68575">
        <ele>238</ele>
        <time>2011-03-05T15:26:53Z</time>
      </trkpt>
      <trkpt lat="44.07621" lon="1.68568">
        <ele>238</ele>
        <time>2011-03-05T15:26:55Z</time>
      </trkpt>
      <trkpt lat="44.07627" lon="1.68562">
        <ele>238</ele>
        <time>2011-03-05T15:26:57Z</time>
      </trkpt>
      <trkpt lat="44.07658" lon="1.68543">
        <ele>239</ele>
        <time>2011-03-05T15:27:09Z</time>
      </trkpt>
      <trkpt lat="44.07663" lon="1.68538">
        <ele>239</ele>
        <time>2011-03-05T15:27:11Z</time>
      </trkpt>
      <trkpt lat="44.07676" lon="1.6853">
        <ele>241</ele>
        <time>2011-03-05T15:27:16Z</time>
      </trkpt>
      <trkpt lat="44.07679" lon="1.68526">
        <ele>242</ele>
        <time>2011-03-05T15:27:18Z</time>
      </trkpt>
      <trkpt lat="44.07681" lon="1.68521">
        <ele>242</ele>
        <time>2011-03-05T15:27:20Z</time>
      </trkpt>
      <trkpt lat="44.07681" lon="1.68519">
        <ele>242</ele>
        <time>2011-03-05T15:27:21Z</time>
      </trkpt>
      <trkpt lat="44.07679" lon="1.68515">
        <ele>242</ele>
        <time>2011-03-05T15:27:23Z</time>
      </trkpt>
      <trkpt lat="44.07675" lon="1.6851">
        <ele>242</ele>
        <time>2011-03-05T15:27:25Z</time>
      </trkpt>
      <trkpt lat="44.07667" lon="1.68503">
        <ele>242</ele>
        <time>2011-03-05T15:27:28Z</time>
      </trkpt>
      <trkpt lat="44.07644" lon="1.68487">
        <ele>242</ele>
        <time>2011-03-05T15:27:35Z</time>
      </trkpt>
      <trkpt lat="44.0763" lon="1.68475">
        <ele>242</ele>
        <time>2011-03-05T15:27:39Z</time>
      </trkpt>
      <trkpt lat="44.07593" lon="1.68438">
        <ele>242</ele>
        <time>2011-03-05T15:27:50Z</time>
      </trkpt>
      <trkpt lat="44.07549" lon="1.68395">
        <ele>242</ele>
        <time>2011-03-05T15:28:02Z</time>
      </trkpt>
      <trkpt lat="44.07514" lon="1.68359">
        <ele>242</ele>
        <time>2011-03-05T15:28:11Z</time>
      </trkpt>
      <trkpt lat="44.07491" lon="1.68336">
        <ele>241</ele>
        <time>2011-03-05T15:28:16Z</time>
      </trkpt>
      <trkpt lat="44.07473" lon="1.6831">
        <ele>241</ele>
        <time>2011-03-05T15:28:20Z</time>
      </trkpt>
      <trkpt lat="44.07425" lon="1.68219">
        <ele>240</ele>
        <time>2011-03-05T15:28:33Z</time>
      </trkpt>
      <trkpt lat="44.07417" lon="1.68207">
        <ele>240</ele>
        <time>2011-03-05T15:28:35Z</time>
      </trkpt>
      <trkpt lat="44.07405" lon="1.68183">
        <ele>240</ele>
        <time>2011-03-05T15:28:39Z</time>
      </trkpt>
      <trkpt lat="44.07402" lon="1.6818">
        <ele>240</ele>
        <time>2011-03-05T15:28:40Z</time>
      </trkpt>
      <trkpt lat="44.07398" lon="1.68176">
        <ele>240</ele>
        <time>2011-03-05T15:28:42Z</time>
      </trkpt>
      <trkpt lat="44.07389" lon="1.68163">
        <ele>240</ele>
        <time>2011-03-05T15:28:46Z</time>
      </trkpt>
      <trkpt lat="44.07367" lon="1.68127">
        <ele>240</ele>
        <time>2011-03-05T15:28:54Z</time>
      </trkpt>
      <trkpt lat="44.07361" lon="1.68112">
        <ele>240</ele>
        <time>2011-03-05T15:28:57Z</time>
      </trkpt>
      <trkpt lat="44.07359" lon="1.68109">
        <ele>240</ele>
        <time>2011-03-05T15:28:58Z</time>
      </trkpt>
      <trkpt lat="44.07352" lon="1.68105">
        <ele>240</ele>
        <time>2011-03-05T15:29:00Z</time>
      </trkpt>
      <trkpt lat="44.07349" lon="1.68102">
        <ele>240</ele>
        <time>2011-03-05T15:29:01Z</time>
      </trkpt>
      <trkpt lat="44.07336" lon="1.68087">
        <ele>240</ele>
        <time>2011-03-05T15:29:05Z</time>
      </trkpt>
      <trkpt lat="44.07329" lon="1.6808">
        <ele>240</ele>
        <time>2011-03-05T15:29:07Z</time>
      </trkpt>
      <trkpt lat="44.0732" lon="1.68069">
        <ele>240</ele>
        <time>2011-03-05T15:29:10Z</time>
      </trkpt>
      <trkpt lat="44.0731" lon="1.6806">
        <ele>240</ele>
        <time>2011-03-05T15:29:13Z</time>
      </trkpt>
      <trkpt lat="44.07306" lon="1.68058">
        <ele>240</ele>
        <time>2011-03-05T15:29:14Z</time>
      </trkpt>
      <trkpt lat="44.07298" lon="1.68059">
        <ele>240</ele>
        <time>2011-03-05T15:29:16Z</time>
      </trkpt>
      <trkpt lat="44.07294" lon="1.68057">
        <ele>240</ele>
        <time>2011-03-05T15:29:17Z</time>
      </trkpt>
      <trkpt lat="44.0729" lon="1.68054">
        <ele>240</ele>
        <time>2011-03-05T15:29:18Z</time>
      </trkpt>
      <trkpt lat="44.07284" lon="1.68046">
        <ele>240</ele>
        <time>2011-03-05T15:29:20Z</time>
      </trkpt>
      <trkpt lat="44.07273" lon="1.6803">
        <ele>240</ele>
        <time>2011-03-05T15:29:24Z</time>
      </trkpt>
      <trkpt lat="44.07255" lon="1.68005">
        <ele>240</ele>
        <time>2011-03-05T15:29:30Z</time>
      </trkpt>
      <trkpt lat="44.0725" lon="1.67996">
        <ele>240</ele>
        <time>2011-03-05T15:29:32Z</time>
      </trkpt>
      <trkpt lat="44.07234" lon="1.67974">
        <ele>240</ele>
        <time>2011-03-05T15:29:38Z</time>
      </trkpt>
      <trkpt lat="44.07228" lon="1.67968">
        <ele>240</ele>
        <time>2011-03-05T15:29:40Z</time>
      </trkpt>
      <trkpt lat="44.07219" lon="1.67963">
        <ele>240</ele>
        <time>2011-03-05T15:29:42Z</time>
      </trkpt>
      <trkpt lat="44.07215" lon="1.67959">
        <ele>240</ele>
        <time>2011-03-05T15:29:43Z</time>
      </trkpt>
      <trkpt lat="44.07204" lon="1.67946">
        <ele>240</ele>
        <time>2011-03-05T15:29:46Z</time>
      </trkpt>
      <trkpt lat="44.07201" lon="1.6794">
        <ele>240</ele>
        <time>2011-03-05T15:29:47Z</time>
      </trkpt>
      <trkpt lat="44.07187" lon="1.67924">
        <ele>240</ele>
        <time>2011-03-05T15:29:51Z</time>
      </trkpt>
      <trkpt lat="44.0718" lon="1.67918">
        <ele>240</ele>
        <time>2011-03-05T15:29:53Z</time>
      </trkpt>
      <trkpt lat="44.07143" lon="1.67895">
        <ele>239</ele>
        <time>2011-03-05T15:30:01Z</time>
      </trkpt>
      <trkpt lat="44.07138" lon="1.67891">
        <ele>238</ele>
        <time>2011-03-05T15:30:02Z</time>
      </trkpt>
      <trkpt lat="44.07135" lon="1.67886">
        <ele>238</ele>
        <time>2011-03-05T15:30:03Z</time>
      </trkpt>
      <trkpt lat="44.07132" lon="1.6788">
        <ele>238</ele>
        <time>2011-03-05T15:30:04Z</time>
      </trkpt>
      <trkpt lat="44.07131" lon="1.67875">
        <ele>238</ele>
        <time>2011-03-05T15:30:05Z</time>
      </trkpt>
      <trkpt lat="44.07132" lon="1.67863">
        <ele>237</ele>
        <time>2011-03-05T15:30:08Z</time>
      </trkpt>
      <trkpt lat="44.07129" lon="1.67853">
        <ele>237</ele>
        <time>2011-03-05T15:30:10Z</time>
      </trkpt>
      <trkpt lat="44.07119" lon="1.67836">
        <ele>237</ele>
        <time>2011-03-05T15:30:14Z</time>
      </trkpt>
      <trkpt lat="44.07104" lon="1.67819">
        <ele>236</ele>
        <time>2011-03-05T15:30:18Z</time>
      </trkpt>
      <trkpt lat="44.07101" lon="1.67814">
        <ele>236</ele>
        <time>2011-03-05T15:30:19Z</time>
      </trkpt>
      <trkpt lat="44.07089" lon="1.67791">
        <ele>236</ele>
        <time>2011-03-05T15:30:23Z</time>
      </trkpt>
      <trkpt lat="44.07085" lon="1.67785">
        <ele>236</ele>
        <time>2011-03-05T15:30:24Z</time>
      </trkpt>
      <trkpt lat="44.07077" lon="1.67776">
        <ele>235</ele>
        <time>2011-03-05T15:30:26Z</time>
      </trkpt>
      <trkpt lat="44.07073" lon="1.6777">
        <ele>235</ele>
        <time>2011-03-05T15:30:27Z</time>
      </trkpt>
      <trkpt lat="44.0707" lon="1.67763">
        <ele>234</ele>
        <time>2011-03-05T15:30:28Z</time>
      </trkpt>
      <trkpt lat="44.07055" lon="1.67713">
        <ele>232</ele>
        <time>2011-03-05T15:30:35Z</time>
      </trkpt>
      <trkpt lat="44.07037" lon="1.67665">
        <ele>229</ele>
        <time>2011-03-05T15:30:42Z</time>
      </trkpt>
      <trkpt lat="44.07022" lon="1.67616">
        <ele>227</ele>
        <time>2011-03-05T15:30:48Z</time>
      </trkpt>
      <trkpt lat="44.07013" lon="1.67591">
        <ele>226</ele>
        <time>2011-03-05T15:30:51Z</time>
      </trkpt>
      <trkpt lat="44.07007" lon="1.67565">
        <ele>225</ele>
        <time>2011-03-05T15:30:54Z</time>
      </trkpt>
      <trkpt lat="44.07004" lon="1.67557">
        <ele>225</ele>
        <time>2011-03-05T15:30:55Z</time>
      </trkpt>
      <trkpt lat="44.06995" lon="1.67537">
        <ele>225</ele>
        <time>2011-03-05T15:30:58Z</time>
      </trkpt>
      <trkpt lat="44.06988" lon="1.67525">
        <ele>224</ele>
        <time>2011-03-05T15:31:00Z</time>
      </trkpt>
      <trkpt lat="44.06962" lon="1.67464">
        <ele>220</ele>
        <time>2011-03-05T15:31:08Z</time>
      </trkpt>
      <trkpt lat="44.06952" lon="1.67447">
        <ele>219</ele>
        <time>2011-03-05T15:31:11Z</time>
      </trkpt>
      <trkpt lat="44.06941" lon="1.6743">
        <ele>216</ele>
        <time>2011-03-05T15:31:15Z</time>
      </trkpt>
      <trkpt lat="44.06938" lon="1.6742">
        <ele>215</ele>
        <time>2011-03-05T15:31:17Z</time>
      </trkpt>
      <trkpt lat="44.06937" lon="1.67407">
        <ele>214</ele>
        <time>2011-03-05T15:31:20Z</time>
      </trkpt>
      <trkpt lat="44.0693" lon="1.67391">
        <ele>213</ele>
        <time>2011-03-05T15:31:23Z</time>
      </trkpt>
      <trkpt lat="44.06925" lon="1.67374">
        <ele>213</ele>
        <time>2011-03-05T15:31:26Z</time>
      </trkpt>
      <trkpt lat="44.06913" lon="1.67344">
        <ele>213</ele>
        <time>2011-03-05T15:31:32Z</time>
      </trkpt>
      <trkpt lat="44.06898" lon="1.67313">
        <ele>213</ele>
        <time>2011-03-05T15:31:39Z</time>
      </trkpt>
      <trkpt lat="44.06883" lon="1.67279">
        <ele>213</ele>
        <time>2011-03-05T15:31:46Z</time>
      </trkpt>
      <trkpt lat="44.06876" lon="1.67265">
        <ele>213</ele>
        <time>2011-03-05T15:31:49Z</time>
      </trkpt>
      <trkpt lat="44.06867" lon="1.67253">
        <ele>213</ele>
        <time>2011-03-05T15:31:52Z</time>
      </trkpt>
      <trkpt lat="44.06864" lon="1.6725">
        <ele>213</ele>
        <time>2011-03-05T15:31:53Z</time>
      </trkpt>
      <trkpt lat="44.06852" lon="1.67242">
        <ele>213</ele>
        <time>2011-03-05T15:31:56Z</time>
      </trkpt>
      <trkpt lat="44.06841" lon="1.67232">
        <ele>213</ele>
        <time>2011-03-05T15:31:59Z</time>
      </trkpt>
      <trkpt lat="44.06811" lon="1.67199">
        <ele>213</ele>
        <time>2011-03-05T15:32:07Z</time>
      </trkpt>
      <trkpt lat="44.06788" lon="1.6718">
        <ele>212</ele>
        <time>2011-03-05T15:32:12Z</time>
      </trkpt>
      <trkpt lat="44.06764" lon="1.67165">
        <ele>209</ele>
        <time>2011-03-05T15:32:16Z</time>
      </trkpt>
      <trkpt lat="44.06729" lon="1.67152">
        <ele>206</ele>
        <time>2011-03-05T15:32:21Z</time>
      </trkpt>
      <trkpt lat="44.06711" lon="1.67147">
        <ele>204</ele>
        <time>2011-03-05T15:32:24Z</time>
      </trkpt>
      <trkpt lat="44.06701" lon="1.67141">
        <ele>203</ele>
        <time>2011-03-05T15:32:26Z</time>
      </trkpt>
      <trkpt lat="44.06696" lon="1.67136">
        <ele>203</ele>
        <time>2011-03-05T15:32:27Z</time>
      </trkpt>
      <trkpt lat="44.06689" lon="1.67124">
        <ele>202</ele>
        <time>2011-03-05T15:32:29Z</time>
      </trkpt>
      <trkpt lat="44.06681" lon="1.67116">
        <ele>201</ele>
        <time>2011-03-05T15:32:31Z</time>
      </trkpt>
      <trkpt lat="44.06667" lon="1.67106">
        <ele>199</ele>
        <time>2011-03-05T15:32:34Z</time>
      </trkpt>
      <trkpt lat="44.06662" lon="1.67104">
        <ele>199</ele>
        <time>2011-03-05T15:32:35Z</time>
      </trkpt>
      <trkpt lat="44.06642" lon="1.67099">
        <ele>196</ele>
        <time>2011-03-05T15:32:39Z</time>
      </trkpt>
      <trkpt lat="44.06628" lon="1.67093">
        <ele>194</ele>
        <time>2011-03-05T15:32:42Z</time>
      </trkpt>
      <trkpt lat="44.06618" lon="1.67087">
        <ele>192</ele>
        <time>2011-03-05T15:32:44Z</time>
      </trkpt>
      <trkpt lat="44.06607" lon="1.67074">
        <ele>189</ele>
        <time>2011-03-05T15:32:47Z</time>
      </trkpt>
      <trkpt lat="44.06603" lon="1.67068">
        <ele>188</ele>
        <time>2011-03-05T15:32:48Z</time>
      </trkpt>
      <trkpt lat="44.06595" lon="1.67059">
        <ele>186</ele>
        <time>2011-03-05T15:32:50Z</time>
      </trkpt>
      <trkpt lat="44.06578" lon="1.67043">
        <ele>183</ele>
        <time>2011-03-05T15:32:53Z</time>
      </trkpt>
      <trkpt lat="44.06568" lon="1.67032">
        <ele>181</ele>
        <time>2011-03-05T15:32:55Z</time>
      </trkpt>
      <trkpt lat="44.06554" lon="1.67016">
        <ele>178</ele>
        <time>2011-03-05T15:32:58Z</time>
      </trkpt>
      <trkpt lat="44.06549" lon="1.67011">
        <ele>177</ele>
        <time>2011-03-05T15:32:59Z</time>
      </trkpt>
      <trkpt lat="44.06533" lon="1.67002">
        <ele>174</ele>
        <time>2011-03-05T15:33:02Z</time>
      </trkpt>
      <trkpt lat="44.06525" lon="1.66995">
        <ele>172</ele>
        <time>2011-03-05T15:33:04Z</time>
      </trkpt>
      <trkpt lat="44.06506" lon="1.66989">
        <ele>169</ele>
        <time>2011-03-05T15:33:08Z</time>
      </trkpt>
      <trkpt lat="44.06478" lon="1.6698">
        <ele>165</ele>
        <time>2011-03-05T15:33:13Z</time>
      </trkpt>
      <trkpt lat="44.06473" lon="1.66977">
        <ele>165</ele>
        <time>2011-03-05T15:33:14Z</time>
      </trkpt>
      <trkpt lat="44.06465" lon="1.66971">
        <ele>164</ele>
        <time>2011-03-05T15:33:16Z</time>
      </trkpt>
      <trkpt lat="44.06452" lon="1.66964">
        <ele>163</ele>
        <time>2011-03-05T15:33:19Z</time>
      </trkpt>
      <trkpt lat="44.06441" lon="1.6696">
        <ele>162</ele>
        <time>2011-03-05T15:33:21Z</time>
      </trkpt>
      <trkpt lat="44.06435" lon="1.66959">
        <ele>162</ele>
        <time>2011-03-05T15:33:22Z</time>
      </trkpt>
      <trkpt lat="44.06406" lon="1.66962">
        <ele>160</ele>
        <time>2011-03-05T15:33:26Z</time>
      </trkpt>
      <trkpt lat="44.06391" lon="1.66965">
        <ele>160</ele>
        <time>2011-03-05T15:33:28Z</time>
      </trkpt>
      <trkpt lat="44.06361" lon="1.66977">
        <ele>158</ele>
        <time>2011-03-05T15:33:32Z</time>
      </trkpt>
      <trkpt lat="44.06331" lon="1.66987">
        <ele>155</ele>
        <time>2011-03-05T15:33:36Z</time>
      </trkpt>
      <trkpt lat="44.06312" lon="1.66991">
        <ele>152</ele>
        <time>2011-03-05T15:33:39Z</time>
      </trkpt>
      <trkpt lat="44.06307" lon="1.6699">
        <ele>151</ele>
        <time>2011-03-05T15:33:40Z</time>
      </trkpt>
      <trkpt lat="44.06298" lon="1.66984">
        <ele>150</ele>
        <time>2011-03-05T15:33:42Z</time>
      </trkpt>
      <trkpt lat="44.06282" lon="1.6698">
        <ele>147</ele>
        <time>2011-03-05T15:33:51Z</time>
      </trkpt>
      <trkpt lat="44.06281" lon="1.66981">
        <ele>147</ele>
        <time>2011-03-05T15:33:54Z</time>
      </trkpt>
      <trkpt lat="44.0628" lon="1.66982">
        <ele>147</ele>
        <time>2011-03-05T15:33:57Z</time>
      </trkpt>
      <trkpt lat="44.06278" lon="1.66982">
        <ele>147</ele>
        <time>2011-03-05T15:34:00Z</time>
      </trkpt>
      <trkpt lat="44.06276" lon="1.66979">
        <ele>147</ele>
        <time>2011-03-05T15:34:06Z</time>
      </trkpt>
      <trkpt lat="44.0626" lon="1.66975">
        <ele>147</ele>
        <time>2011-03-05T15:34:18Z</time>
      </trkpt>
      <trkpt lat="44.06246" lon="1.66968">
        <ele>147</ele>
        <time>2011-03-05T15:34:23Z</time>
      </trkpt>
      <trkpt lat="44.06237" lon="1.66961">
        <ele>147</ele>
        <time>2011-03-05T15:34:27Z</time>
      </trkpt>
      <trkpt lat="44.06228" lon="1.66952">
        <ele>148</ele>
        <time>2011-03-05T15:34:32Z</time>
      </trkpt>
      <trkpt lat="44.06216" lon="1.66944">
        <ele>150</ele>
        <time>2011-03-05T15:34:37Z</time>
      </trkpt>
      <trkpt lat="44.06195" lon="1.66933">
        <ele>152</ele>
        <time>2011-03-05T15:34:46Z</time>
      </trkpt>
      <trkpt lat="44.06183" lon="1.66931">
        <ele>153</ele>
        <time>2011-03-05T15:34:51Z</time>
      </trkpt>
      <trkpt lat="44.06171" lon="1.66931">
        <ele>154</ele>
        <time>2011-03-05T15:34:56Z</time>
      </trkpt>
      <trkpt lat="44.06158" lon="1.66934">
        <ele>155</ele>
        <time>2011-03-05T15:35:01Z</time>
      </trkpt>
      <trkpt lat="44.06129" lon="1.6695">
        <ele>157</ele>
        <time>2011-03-05T15:35:13Z</time>
      </trkpt>
      <trkpt lat="44.06114" lon="1.66954">
        <ele>157</ele>
        <time>2011-03-05T15:35:17Z</time>
      </trkpt>
      <trkpt lat="44.06099" lon="1.66954">
        <ele>157</ele>
        <time>2011-03-05T15:35:20Z</time>
      </trkpt>
      <trkpt lat="44.06093" lon="1.66953">
        <ele>157</ele>
        <time>2011-03-05T15:35:21Z</time>
      </trkpt>
      <trkpt lat="44.06085" lon="1.66947">
        <ele>157</ele>
        <time>2011-03-05T15:35:23Z</time>
      </trkpt>
      <trkpt lat="44.06077" lon="1.66936">
        <ele>154</ele>
        <time>2011-03-05T15:35:27Z</time>
      </trkpt>
      <trkpt lat="44.06076" lon="1.66934">
        <ele>154</ele>
        <time>2011-03-05T15:35:30Z</time>
      </trkpt>
      <trkpt lat="44.06075" lon="1.66935">
        <ele>154</ele>
        <time>2011-03-05T15:35:49Z</time>
      </trkpt>
      <trkpt lat="44.06076" lon="1.66935">
        <ele>154</ele>
        <time>2011-03-05T15:36:24Z</time>
      </trkpt>
      <trkpt lat="44.06076" lon="1.66936">
        <ele>154</ele>
        <time>2011-03-05T15:37:26Z</time>
      </trkpt>
      <trkpt lat="44.06074" lon="1.66936">
        <ele>154</ele>
        <time>2011-03-05T15:38:17Z</time>
      </trkpt>
      <trkpt lat="44.06075" lon="1.66936">
        <ele>154</ele>
        <time>2011-03-05T15:39:32Z</time>
      </trkpt>
      <trkpt lat="44.06075" lon="1.66934">
        <ele>154</ele>
        <time>2011-03-05T15:40:04Z</time>
      </trkpt>
      <trkpt lat="44.06076" lon="1.66934">
        <ele>154</ele>
        <time>2011-03-05T15:40:35Z</time>
      </trkpt>
      <trkpt lat="44.06078" lon="1.66931">
        <ele>154</ele>
        <time>2011-03-05T15:41:10Z</time>
      </trkpt>
      <trkpt lat="44.0608" lon="1.66926">
        <ele>155</ele>
        <time>2011-03-05T15:41:22Z</time>
      </trkpt>
      <trkpt lat="44.06083" lon="1.66922">
        <ele>156</ele>
        <time>2011-03-05T15:41:26Z</time>
      </trkpt>
      <trkpt lat="44.06083" lon="1.6692">
        <ele>156</ele>
        <time>2011-03-05T15:41:39Z</time>
      </trkpt>
      <trkpt lat="44.06089" lon="1.66915">
        <ele>156</ele>
        <time>2011-03-05T15:41:45Z</time>
      </trkpt>
      <trkpt lat="44.0609" lon="1.66912">
        <ele>156</ele>
        <time>2011-03-05T15:41:47Z</time>
      </trkpt>
      <trkpt lat="44.06093" lon="1.6691">
        <ele>156</ele>
        <time>2011-03-05T15:41:49Z</time>
      </trkpt>
      <trkpt lat="44.06095" lon="1.6691">
        <ele>156</ele>
        <time>2011-03-05T15:41:51Z</time>
      </trkpt>
      <trkpt lat="44.06101" lon="1.66914">
        <ele>157</ele>
        <time>2011-03-05T15:41:59Z</time>
      </trkpt>
      <trkpt lat="44.06104" lon="1.66914">
        <ele>158</ele>
        <time>2011-03-05T15:42:03Z</time>
      </trkpt>
      <trkpt lat="44.06111" lon="1.66909">
        <ele>159</ele>
        <time>2011-03-05T15:42:11Z</time>
      </trkpt>
      <trkpt lat="44.06118" lon="1.66906">
        <ele>160</ele>
        <time>2011-03-05T15:42:17Z</time>
      </trkpt>
      <trkpt lat="44.06121" lon="1.66906">
        <ele>160</ele>
        <time>2011-03-05T15:42:21Z</time>
      </trkpt>
      <trkpt lat="44.06124" lon="1.66903">
        <ele>160</ele>
        <time>2011-03-05T15:42:25Z</time>
      </trkpt>
      <trkpt lat="44.06131" lon="1.66899">
        <ele>162</ele>
        <time>2011-03-05T15:42:34Z</time>
      </trkpt>
      <trkpt lat="44.06134" lon="1.66896">
        <ele>162</ele>
        <time>2011-03-05T15:42:36Z</time>
      </trkpt>
      <trkpt lat="44.06137" lon="1.66895">
        <ele>163</ele>
        <time>2011-03-05T15:42:38Z</time>
      </trkpt>
      <trkpt lat="44.06141" lon="1.66892">
        <ele>164</ele>
        <time>2011-03-05T15:42:41Z</time>
      </trkpt>
      <trkpt lat="44.06144" lon="1.66892">
        <ele>165</ele>
        <time>2011-03-05T15:42:43Z</time>
      </trkpt>
      <trkpt lat="44.0616" lon="1.66882">
        <ele>168</ele>
        <time>2011-03-05T15:42:57Z</time>
      </trkpt>
      <trkpt lat="44.06164" lon="1.66878">
        <ele>168</ele>
        <time>2011-03-05T15:43:00Z</time>
      </trkpt>
      <trkpt lat="44.06168" lon="1.66877">
        <ele>169</ele>
        <time>2011-03-05T15:43:03Z</time>
      </trkpt>
      <trkpt lat="44.06171" lon="1.66873">
        <ele>170</ele>
        <time>2011-03-05T15:43:06Z</time>
      </trkpt>
      <trkpt lat="44.06178" lon="1.66871">
        <ele>171</ele>
        <time>2011-03-05T15:43:11Z</time>
      </trkpt>
      <trkpt lat="44.06187" lon="1.66866">
        <ele>172</ele>
        <time>2011-03-05T15:43:18Z</time>
      </trkpt>
      <trkpt lat="44.06192" lon="1.66862">
        <ele>173</ele>
        <time>2011-03-05T15:43:22Z</time>
      </trkpt>
      <trkpt lat="44.06193" lon="1.66862">
        <ele>174</ele>
        <time>2011-03-05T15:43:23Z</time>
      </trkpt>
      <trkpt lat="44.06199" lon="1.66864">
        <ele>176</ele>
        <time>2011-03-05T15:43:35Z</time>
      </trkpt>
      <trkpt lat="44.06202" lon="1.66863">
        <ele>178</ele>
        <time>2011-03-05T15:43:41Z</time>
      </trkpt>
      <trkpt lat="44.06206" lon="1.66858">
        <ele>180</ele>
        <time>2011-03-05T15:43:48Z</time>
      </trkpt>
      <trkpt lat="44.0621" lon="1.66856">
        <ele>180</ele>
        <time>2011-03-05T15:43:52Z</time>
      </trkpt>
      <trkpt lat="44.06218" lon="1.66848">
        <ele>181</ele>
        <time>2011-03-05T15:44:02Z</time>
      </trkpt>
      <trkpt lat="44.06224" lon="1.66848">
        <ele>182</ele>
        <time>2011-03-05T15:44:10Z</time>
      </trkpt>
      <trkpt lat="44.06228" lon="1.66849">
        <ele>183</ele>
        <time>2011-03-05T15:44:14Z</time>
      </trkpt>
      <trkpt lat="44.0623" lon="1.66848">
        <ele>183</ele>
        <time>2011-03-05T15:44:16Z</time>
      </trkpt>
      <trkpt lat="44.06234" lon="1.66844">
        <ele>184</ele>
        <time>2011-03-05T15:44:22Z</time>
      </trkpt>
      <trkpt lat="44.06243" lon="1.6684">
        <ele>186</ele>
        <time>2011-03-05T15:44:34Z</time>
      </trkpt>
      <trkpt lat="44.06256" lon="1.66832">
        <ele>187</ele>
        <time>2011-03-05T15:44:48Z</time>
      </trkpt>
      <trkpt lat="44.06259" lon="1.66829">
        <ele>188</ele>
        <time>2011-03-05T15:44:52Z</time>
      </trkpt>
      <trkpt lat="44.06263" lon="1.66826">
        <ele>188</ele>
        <time>2011-03-05T15:44:56Z</time>
      </trkpt>
      <trkpt lat="44.06272" lon="1.66818">
        <ele>190</ele>
        <time>2011-03-05T15:45:12Z</time>
      </trkpt>
      <trkpt lat="44.0629" lon="1.66807">
        <ele>193</ele>
        <time>2011-03-05T15:45:32Z</time>
      </trkpt>
      <trkpt lat="44.06295" lon="1.66803">
        <ele>194</ele>
        <time>2011-03-05T15:45:36Z</time>
      </trkpt>
      <trkpt lat="44.06316" lon="1.66783">
        <ele>194</ele>
        <time>2011-03-05T15:45:49Z</time>
      </trkpt>
      <trkpt lat="44.06326" lon="1.66778">
        <ele>194</ele>
        <time>2011-03-05T15:45:54Z</time>
      </trkpt>
      <trkpt lat="44.06333" lon="1.66772">
        <ele>194</ele>
        <time>2011-03-05T15:45:58Z</time>
      </trkpt>
      <trkpt lat="44.06348" lon="1.6676">
        <ele>194</ele>
        <time>2011-03-05T15:46:06Z</time>
      </trkpt>
      <trkpt lat="44.06353" lon="1.66755">
        <ele>194</ele>
        <time>2011-03-05T15:46:09Z</time>
      </trkpt>
      <trkpt lat="44.06365" lon="1.66746">
        <ele>195</ele>
        <time>2011-03-05T15:46:15Z</time>
      </trkpt>
      <trkpt lat="44.06371" lon="1.66744">
        <ele>195</ele>
        <time>2011-03-05T15:46:18Z</time>
      </trkpt>
      <trkpt lat="44.06379" lon="1.66737">
        <ele>196</ele>
        <time>2011-03-05T15:46:22Z</time>
      </trkpt>
      <trkpt lat="44.06407" lon="1.66717">
        <ele>198</ele>
        <time>2011-03-05T15:46:37Z</time>
      </trkpt>
      <trkpt lat="44.06411" lon="1.66715">
        <ele>199</ele>
        <time>2011-03-05T15:46:39Z</time>
      </trkpt>
      <trkpt lat="44.06413" lon="1.66713">
        <ele>200</ele>
        <time>2011-03-05T15:46:41Z</time>
      </trkpt>
      <trkpt lat="44.06417" lon="1.6671">
        <ele>200</ele>
        <time>2011-03-05T15:46:44Z</time>
      </trkpt>
      <trkpt lat="44.06419" lon="1.66706">
        <ele>201</ele>
        <time>2011-03-05T15:46:47Z</time>
      </trkpt>
      <trkpt lat="44.06422" lon="1.66703">
        <ele>201</ele>
        <time>2011-03-05T15:46:49Z</time>
      </trkpt>
      <trkpt lat="44.06424" lon="1.66702">
        <ele>202</ele>
        <time>2011-03-05T15:46:51Z</time>
      </trkpt>
      <trkpt lat="44.06427" lon="1.66699">
        <ele>202</ele>
        <time>2011-03-05T15:46:53Z</time>
      </trkpt>
      <trkpt lat="44.06434" lon="1.66695">
        <ele>203</ele>
        <time>2011-03-05T15:46:58Z</time>
      </trkpt>
      <trkpt lat="44.06436" lon="1.66692">
        <ele>203</ele>
        <time>2011-03-05T15:47:00Z</time>
      </trkpt>
      <trkpt lat="44.06438" lon="1.66688">
        <ele>203</ele>
        <time>2011-03-05T15:47:02Z</time>
      </trkpt>
      <trkpt lat="44.0644" lon="1.66685">
        <ele>204</ele>
        <time>2011-03-05T15:47:04Z</time>
      </trkpt>
      <trkpt lat="44.06448" lon="1.66683">
        <ele>205</ele>
        <time>2011-03-05T15:47:09Z</time>
      </trkpt>
      <trkpt lat="44.06452" lon="1.66681">
        <ele>205</ele>
        <time>2011-03-05T15:47:12Z</time>
      </trkpt>
      <trkpt lat="44.0646" lon="1.66679">
        <ele>206</ele>
        <time>2011-03-05T15:47:17Z</time>
      </trkpt>
      <trkpt lat="44.06463" lon="1.66676">
        <ele>206</ele>
        <time>2011-03-05T15:47:19Z</time>
      </trkpt>
      <trkpt lat="44.06469" lon="1.66669">
        <ele>207</ele>
        <time>2011-03-05T15:47:24Z</time>
      </trkpt>
      <trkpt lat="44.06475" lon="1.6666">
        <ele>207</ele>
        <time>2011-03-05T15:47:30Z</time>
      </trkpt>
      <trkpt lat="44.06486" lon="1.6665">
        <ele>208</ele>
        <time>2011-03-05T15:47:38Z</time>
      </trkpt>
      <trkpt lat="44.06489" lon="1.66645">
        <ele>208</ele>
        <time>2011-03-05T15:47:41Z</time>
      </trkpt>
      <trkpt lat="44.06499" lon="1.66635">
        <ele>209</ele>
        <time>2011-03-05T15:47:48Z</time>
      </trkpt>
      <trkpt lat="44.06505" lon="1.66628">
        <ele>210</ele>
        <time>2011-03-05T15:47:52Z</time>
      </trkpt>
      <trkpt lat="44.06521" lon="1.66613">
        <ele>212</ele>
        <time>2011-03-05T15:48:02Z</time>
      </trkpt>
      <trkpt lat="44.06525" lon="1.66607">
        <ele>213</ele>
        <time>2011-03-05T15:48:05Z</time>
      </trkpt>
      <trkpt lat="44.06525" lon="1.66605">
        <ele>213</ele>
        <time>2011-03-05T15:48:06Z</time>
      </trkpt>
      <trkpt lat="44.0653" lon="1.66597">
        <ele>213</ele>
        <time>2011-03-05T15:48:10Z</time>
      </trkpt>
      <trkpt lat="44.06538" lon="1.66587">
        <ele>214</ele>
        <time>2011-03-05T15:48:16Z</time>
      </trkpt>
      <trkpt lat="44.06541" lon="1.66585">
        <ele>214</ele>
        <time>2011-03-05T15:48:18Z</time>
      </trkpt>
      <trkpt lat="44.06548" lon="1.66584">
        <ele>214</ele>
        <time>2011-03-05T15:48:22Z</time>
      </trkpt>
      <trkpt lat="44.0655" lon="1.66583">
        <ele>214</ele>
        <time>2011-03-05T15:48:23Z</time>
      </trkpt>
      <trkpt lat="44.06562" lon="1.66565">
        <ele>214</ele>
        <time>2011-03-05T15:48:31Z</time>
      </trkpt>
      <trkpt lat="44.06564" lon="1.66559">
        <ele>214</ele>
        <time>2011-03-05T15:48:33Z</time>
      </trkpt>
      <trkpt lat="44.06565" lon="1.66556">
        <ele>214</ele>
        <time>2011-03-05T15:48:34Z</time>
      </trkpt>
      <trkpt lat="44.06567" lon="1.6655">
        <ele>214</ele>
        <time>2011-03-05T15:48:36Z</time>
      </trkpt>
      <trkpt lat="44.06578" lon="1.66529">
        <ele>214</ele>
        <time>2011-03-05T15:48:43Z</time>
      </trkpt>
      <trkpt lat="44.06607" lon="1.66491">
        <ele>214</ele>
        <time>2011-03-05T15:48:55Z</time>
      </trkpt>
      <trkpt lat="44.06628" lon="1.66472">
        <ele>214</ele>
        <time>2011-03-05T15:49:02Z</time>
      </trkpt>
      <trkpt lat="44.06643" lon="1.66455">
        <ele>214</ele>
        <time>2011-03-05T15:49:07Z</time>
      </trkpt>
      <trkpt lat="44.06649" lon="1.66449">
        <ele>214</ele>
        <time>2011-03-05T15:49:09Z</time>
      </trkpt>
      <trkpt lat="44.06667" lon="1.66426">
        <ele>214</ele>
        <time>2011-03-05T15:49:15Z</time>
      </trkpt>
      <trkpt lat="44.06675" lon="1.6642">
        <ele>214</ele>
        <time>2011-03-05T15:49:17Z</time>
      </trkpt>
      <trkpt lat="44.06691" lon="1.66411">
        <ele>214</ele>
        <time>2011-03-05T15:49:21Z</time>
      </trkpt>
      <trkpt lat="44.06733" lon="1.66384">
        <ele>212</ele>
        <time>2011-03-05T15:49:32Z</time>
      </trkpt>
      <trkpt lat="44.06737" lon="1.66382">
        <ele>212</ele>
        <time>2011-03-05T15:49:33Z</time>
      </trkpt>
      <trkpt lat="44.06742" lon="1.66381">
        <ele>211</ele>
        <time>2011-03-05T15:49:34Z</time>
      </trkpt>
      <trkpt lat="44.06746" lon="1.66382">
        <ele>211</ele>
        <time>2011-03-05T15:49:35Z</time>
      </trkpt>
      <trkpt lat="44.0676" lon="1.66387">
        <ele>210</ele>
        <time>2011-03-05T15:49:38Z</time>
      </trkpt>
      <trkpt lat="44.06776" lon="1.66392">
        <ele>208</ele>
        <time>2011-03-05T15:49:42Z</time>
      </trkpt>
      <trkpt lat="44.06788" lon="1.664">
        <ele>205</ele>
        <time>2011-03-05T15:49:48Z</time>
      </trkpt>
      <trkpt lat="44.06797" lon="1.66403">
        <ele>204</ele>
        <time>2011-03-05T15:49:51Z</time>
      </trkpt>
      <trkpt lat="44.06805" lon="1.66406">
        <ele>203</ele>
        <time>2011-03-05T15:49:53Z</time>
      </trkpt>
      <trkpt lat="44.06817" lon="1.6641">
        <ele>203</ele>
        <time>2011-03-05T15:49:56Z</time>
      </trkpt>
      <trkpt lat="44.06835" lon="1.66417">
        <ele>202</ele>
        <time>2011-03-05T15:50:00Z</time>
      </trkpt>
      <trkpt lat="44.06851" lon="1.66423">
        <ele>202</ele>
        <time>2011-03-05T15:50:03Z</time>
      </trkpt>
      <trkpt lat="44.06873" lon="1.66438">
        <ele>202</ele>
        <time>2011-03-05T15:50:08Z</time>
      </trkpt>
      <trkpt lat="44.06886" lon="1.66448">
        <ele>202</ele>
        <time>2011-03-05T15:50:11Z</time>
      </trkpt>
      <trkpt lat="44.069" lon="1.66457">
        <ele>202</ele>
        <time>2011-03-05T15:50:14Z</time>
      </trkpt>
      <trkpt lat="44.06916" lon="1.66465">
        <ele>202</ele>
        <time>2011-03-05T15:50:17Z</time>
      </trkpt>
      <trkpt lat="44.06926" lon="1.66471">
        <ele>202</ele>
        <time>2011-03-05T15:50:19Z</time>
      </trkpt>
      <trkpt lat="44.06936" lon="1.66479">
        <ele>202</ele>
        <time>2011-03-05T15:50:21Z</time>
      </trkpt>
      <trkpt lat="44.06961" lon="1.66491">
        <ele>202</ele>
        <time>2011-03-05T15:50:26Z</time>
      </trkpt>
      <trkpt lat="44.06969" lon="1.66495">
        <ele>202</ele>
        <time>2011-03-05T15:50:28Z</time>
      </trkpt>
      <trkpt lat="44.06978" lon="1.66496">
        <ele>202</ele>
        <time>2011-03-05T15:50:30Z</time>
      </trkpt>
      <trkpt lat="44.06997" lon="1.66498">
        <ele>202</ele>
        <time>2011-03-05T15:50:36Z</time>
      </trkpt>
      <trkpt lat="44.07015" lon="1.66501">
        <ele>205</ele>
        <time>2011-03-05T15:50:41Z</time>
      </trkpt>
      <trkpt lat="44.07024" lon="1.66505">
        <ele>207</ele>
        <time>2011-03-05T15:50:44Z</time>
      </trkpt>
      <trkpt lat="44.07036" lon="1.66515">
        <ele>209</ele>
        <time>2011-03-05T15:50:48Z</time>
      </trkpt>
      <trkpt lat="44.07043" lon="1.66524">
        <ele>210</ele>
        <time>2011-03-05T15:50:51Z</time>
      </trkpt>
      <trkpt lat="44.07066" lon="1.66549">
        <ele>211</ele>
        <time>2011-03-05T15:50:59Z</time>
      </trkpt>
      <trkpt lat="44.07077" lon="1.66565">
        <ele>212</ele>
        <time>2011-03-05T15:51:04Z</time>
      </trkpt>
      <trkpt lat="44.07078" lon="1.66568">
        <ele>212</ele>
        <time>2011-03-05T15:51:05Z</time>
      </trkpt>
      <trkpt lat="44.07094" lon="1.66593">
        <ele>213</ele>
        <time>2011-03-05T15:51:14Z</time>
      </trkpt>
      <trkpt lat="44.07096" lon="1.66601">
        <ele>214</ele>
        <time>2011-03-05T15:51:17Z</time>
      </trkpt>
      <trkpt lat="44.07099" lon="1.66606">
        <ele>214</ele>
        <time>2011-03-05T15:51:19Z</time>
      </trkpt>
      <trkpt lat="44.07108" lon="1.66621">
        <ele>215</ele>
        <time>2011-03-05T15:51:25Z</time>
      </trkpt>
      <trkpt lat="44.07118" lon="1.66631">
        <ele>216</ele>
        <time>2011-03-05T15:51:30Z</time>
      </trkpt>
      <trkpt lat="44.07121" lon="1.66635">
        <ele>216</ele>
        <time>2011-03-05T15:51:32Z</time>
      </trkpt>
      <trkpt lat="44.07123" lon="1.66637">
        <ele>217</ele>
        <time>2011-03-05T15:51:33Z</time>
      </trkpt>
      <trkpt lat="44.07135" lon="1.66642">
        <ele>218</ele>
        <time>2011-03-05T15:51:38Z</time>
      </trkpt>
      <trkpt lat="44.0714" lon="1.66644">
        <ele>218</ele>
        <time>2011-03-05T15:51:40Z</time>
      </trkpt>
      <trkpt lat="44.07145" lon="1.66646">
        <ele>218</ele>
        <time>2011-03-05T15:51:42Z</time>
      </trkpt>
      <trkpt lat="44.07158" lon="1.66655">
        <ele>219</ele>
        <time>2011-03-05T15:51:47Z</time>
      </trkpt>
      <trkpt lat="44.07164" lon="1.66662">
        <ele>220</ele>
        <time>2011-03-05T15:51:50Z</time>
      </trkpt>
      <trkpt lat="44.0717" lon="1.66671">
        <ele>220</ele>
        <time>2011-03-05T15:51:53Z</time>
      </trkpt>
      <trkpt lat="44.07177" lon="1.6668">
        <ele>220</ele>
        <time>2011-03-05T15:51:56Z</time>
      </trkpt>
      <trkpt lat="44.07189" lon="1.66698">
        <ele>220</ele>
        <time>2011-03-05T15:52:02Z</time>
      </trkpt>
      <trkpt lat="44.07203" lon="1.66724">
        <ele>220</ele>
        <time>2011-03-05T15:52:09Z</time>
      </trkpt>
      <trkpt lat="44.0721" lon="1.66742">
        <ele>221</ele>
        <time>2011-03-05T15:52:13Z</time>
      </trkpt>
      <trkpt lat="44.07214" lon="1.66753">
        <ele>221</ele>
        <time>2011-03-05T15:52:15Z</time>
      </trkpt>
      <trkpt lat="44.07225" lon="1.66778">
        <ele>221</ele>
        <time>2011-03-05T15:52:20Z</time>
      </trkpt>
      <trkpt lat="44.0723" lon="1.66787">
        <ele>221</ele>
        <time>2011-03-05T15:52:22Z</time>
      </trkpt>
      <trkpt lat="44.07247" lon="1.6681">
        <ele>221</ele>
        <time>2011-03-05T15:52:27Z</time>
      </trkpt>
      <trkpt lat="44.0727" lon="1.66837">
        <ele>221</ele>
        <time>2011-03-05T15:52:33Z</time>
      </trkpt>
      <trkpt lat="44.07283" lon="1.6685">
        <ele>221</ele>
        <time>2011-03-05T15:52:36Z</time>
      </trkpt>
      <trkpt lat="44.07288" lon="1.66852">
        <ele>221</ele>
        <time>2011-03-05T15:52:37Z</time>
      </trkpt>
      <trkpt lat="44.07324" lon="1.6686">
        <ele>219</ele>
        <time>2011-03-05T15:52:43Z</time>
      </trkpt>
      <trkpt lat="44.0733" lon="1.66862">
        <ele>219</ele>
        <time>2011-03-05T15:52:44Z</time>
      </trkpt>
      <trkpt lat="44.07355" lon="1.66878">
        <ele>218</ele>
        <time>2011-03-05T15:52:49Z</time>
      </trkpt>
      <trkpt lat="44.07377" lon="1.66885">
        <ele>217</ele>
        <time>2011-03-05T15:52:53Z</time>
      </trkpt>
      <trkpt lat="44.07402" lon="1.66889">
        <ele>216</ele>
        <time>2011-03-05T15:52:57Z</time>
      </trkpt>
      <trkpt lat="44.07413" lon="1.66894">
        <ele>216</ele>
        <time>2011-03-05T15:52:59Z</time>
      </trkpt>
      <trkpt lat="44.07428" lon="1.66906">
        <ele>216</ele>
        <time>2011-03-05T15:53:02Z</time>
      </trkpt>
      <trkpt lat="44.07434" lon="1.66912">
        <ele>216</ele>
        <time>2011-03-05T15:53:04Z</time>
      </trkpt>
      <trkpt lat="44.0744" lon="1.66914">
        <ele>215</ele>
        <time>2011-03-05T15:53:06Z</time>
      </trkpt>
      <trkpt lat="44.07457" lon="1.66922">
        <ele>215</ele>
        <time>2011-03-05T15:53:10Z</time>
      </trkpt>
      <trkpt lat="44.07467" lon="1.66929">
        <ele>215</ele>
        <time>2011-03-05T15:53:12Z</time>
      </trkpt>
      <trkpt lat="44.07476" lon="1.66938">
        <ele>215</ele>
        <time>2011-03-05T15:53:14Z</time>
      </trkpt>
      <trkpt lat="44.07484" lon="1.66948">
        <ele>215</ele>
        <time>2011-03-05T15:53:16Z</time>
      </trkpt>
      <trkpt lat="44.07488" lon="1.66955">
        <ele>215</ele>
        <time>2011-03-05T15:53:17Z</time>
      </trkpt>
      <trkpt lat="44.07495" lon="1.66974">
        <ele>215</ele>
        <time>2011-03-05T15:53:20Z</time>
      </trkpt>
      <trkpt lat="44.07508" lon="1.66999">
        <ele>215</ele>
        <time>2011-03-05T15:53:24Z</time>
      </trkpt>
      <trkpt lat="44.07516" lon="1.67011">
        <ele>215</ele>
        <time>2011-03-05T15:53:26Z</time>
      </trkpt>
      <trkpt lat="44.07525" lon="1.6702">
        <ele>215</ele>
        <time>2011-03-05T15:53:28Z</time>
      </trkpt>
      <trkpt lat="44.07534" lon="1.67028">
        <ele>215</ele>
        <time>2011-03-05T15:53:30Z</time>
      </trkpt>
      <trkpt lat="44.07562" lon="1.67049">
        <ele>216</ele>
        <time>2011-03-05T15:53:36Z</time>
      </trkpt>
      <trkpt lat="44.07576" lon="1.67062">
        <ele>217</ele>
        <time>2011-03-05T15:53:40Z</time>
      </trkpt>
      <trkpt lat="44.07582" lon="1.6707">
        <ele>218</ele>
        <time>2011-03-05T15:53:42Z</time>
      </trkpt>
      <trkpt lat="44.07588" lon="1.67076">
        <ele>219</ele>
        <time>2011-03-05T15:53:44Z</time>
      </trkpt>
      <trkpt lat="44.076" lon="1.67089">
        <ele>219</ele>
        <time>2011-03-05T15:53:48Z</time>
      </trkpt>
      <trkpt lat="44.0761" lon="1.67098">
        <ele>219</ele>
        <time>2011-03-05T15:53:51Z</time>
      </trkpt>
      <trkpt lat="44.07634" lon="1.67114">
        <ele>219</ele>
        <time>2011-03-05T15:53:57Z</time>
      </trkpt>
      <trkpt lat="44.07641" lon="1.67121">
        <ele>220</ele>
        <time>2011-03-05T15:53:59Z</time>
      </trkpt>
      <trkpt lat="44.07663" lon="1.67147">
        <ele>221</ele>
        <time>2011-03-05T15:54:06Z</time>
      </trkpt>
      <trkpt lat="44.07671" lon="1.67158">
        <ele>222</ele>
        <time>2011-03-05T15:54:09Z</time>
      </trkpt>
      <trkpt lat="44.07689" lon="1.67192">
        <ele>223</ele>
        <time>2011-03-05T15:54:16Z</time>
      </trkpt>
      <trkpt lat="44.07698" lon="1.67207">
        <ele>224</ele>
        <time>2011-03-05T15:54:19Z</time>
      </trkpt>
      <trkpt lat="44.07702" lon="1.67218">
        <ele>224</ele>
        <time>2011-03-05T15:54:21Z</time>
      </trkpt>
      <trkpt lat="44.07711" lon="1.67233">
        <ele>224</ele>
        <time>2011-03-05T15:54:24Z</time>
      </trkpt>
      <trkpt lat="44.07719" lon="1.67242">
        <ele>224</ele>
        <time>2011-03-05T15:54:26Z</time>
      </trkpt>
      <trkpt lat="44.07749" lon="1.67267">
        <ele>224</ele>
        <time>2011-03-05T15:54:33Z</time>
      </trkpt>
      <trkpt lat="44.07761" lon="1.6728">
        <ele>224</ele>
        <time>2011-03-05T15:54:36Z</time>
      </trkpt>
      <trkpt lat="44.07778" lon="1.67295">
        <ele>224</ele>
        <time>2011-03-05T15:54:40Z</time>
      </trkpt>
      <trkpt lat="44.07786" lon="1.67304">
        <ele>224</ele>
        <time>2011-03-05T15:54:42Z</time>
      </trkpt>
      <trkpt lat="44.07801" lon="1.67332">
        <ele>224</ele>
        <time>2011-03-05T15:54:47Z</time>
      </trkpt>
      <trkpt lat="44.07809" lon="1.67352">
        <ele>224</ele>
        <time>2011-03-05T15:54:51Z</time>
      </trkpt>
      <trkpt lat="44.07812" lon="1.67356">
        <ele>224</ele>
        <time>2011-03-05T15:54:52Z</time>
      </trkpt>
      <trkpt lat="44.07816" lon="1.67359">
        <ele>224</ele>
        <time>2011-03-05T15:54:53Z</time>
      </trkpt>
      <trkpt lat="44.07826" lon="1.67364">
        <ele>224</ele>
        <time>2011-03-05T15:54:56Z</time>
      </trkpt>
      <trkpt lat="44.07833" lon="1.67367">
        <ele>224</ele>
        <time>2011-03-05T15:54:58Z</time>
      </trkpt>
      <trkpt lat="44.07848" lon="1.67378">
        <ele>224</ele>
        <time>2011-03-05T15:55:02Z</time>
      </trkpt>
      <trkpt lat="44.07855" lon="1.67385">
        <ele>224</ele>
        <time>2011-03-05T15:55:04Z</time>
      </trkpt>
      <trkpt lat="44.07875" lon="1.67405">
        <ele>224</ele>
        <time>2011-03-05T15:55:10Z</time>
      </trkpt>
      <trkpt lat="44.07877" lon="1.67409">
        <ele>224</ele>
        <time>2011-03-05T15:55:11Z</time>
      </trkpt>
      <trkpt lat="44.07889" lon="1.67434">
        <ele>224</ele>
        <time>2011-03-05T15:55:16Z</time>
      </trkpt>
      <trkpt lat="44.07892" lon="1.67438">
        <ele>224</ele>
        <time>2011-03-05T15:55:17Z</time>
      </trkpt>
      <trkpt lat="44.07899" lon="1.67446">
        <ele>224</ele>
        <time>2011-03-05T15:55:19Z</time>
      </trkpt>
      <trkpt lat="44.0791" lon="1.67455">
        <ele>224</ele>
        <time>2011-03-05T15:55:22Z</time>
      </trkpt>
      <trkpt lat="44.07919" lon="1.67459">
        <ele>224</ele>
        <time>2011-03-05T15:55:24Z</time>
      </trkpt>
      <trkpt lat="44.07926" lon="1.67465">
        <ele>224</ele>
        <time>2011-03-05T15:55:26Z</time>
      </trkpt>
      <trkpt lat="44.0798" lon="1.67493">
        <ele>224</ele>
        <time>2011-03-05T15:55:38Z</time>
      </trkpt>
      <trkpt lat="44.08001" lon="1.67506">
        <ele>224</ele>
        <time>2011-03-05T15:55:43Z</time>
      </trkpt>
      <trkpt lat="44.08011" lon="1.67516">
        <ele>225</ele>
        <time>2011-03-05T15:55:46Z</time>
      </trkpt>
      <trkpt lat="44.0803" lon="1.67544">
        <ele>226</ele>
        <time>2011-03-05T15:55:52Z</time>
      </trkpt>
      <trkpt lat="44.08043" lon="1.67562">
        <ele>227</ele>
        <time>2011-03-05T15:55:56Z</time>
      </trkpt>
      <trkpt lat="44.08047" lon="1.67573">
        <ele>227</ele>
        <time>2011-03-05T15:55:58Z</time>
      </trkpt>
      <trkpt lat="44.08048" lon="1.67579">
        <ele>228</ele>
        <time>2011-03-05T15:55:59Z</time>
      </trkpt>
      <trkpt lat="44.08048" lon="1.67586">
        <ele>228</ele>
        <time>2011-03-05T15:56:00Z</time>
      </trkpt>
      <trkpt lat="44.08046" lon="1.67597">
        <ele>228</ele>
        <time>2011-03-05T15:56:02Z</time>
      </trkpt>
      <trkpt lat="44.08047" lon="1.67607">
        <ele>228</ele>
        <time>2011-03-05T15:56:04Z</time>
      </trkpt>
      <trkpt lat="44.08047" lon="1.67612">
        <ele>228</ele>
        <time>2011-03-05T15:56:05Z</time>
      </trkpt>
      <trkpt lat="44.08049" lon="1.67617">
        <ele>228</ele>
        <time>2011-03-05T15:56:06Z</time>
      </trkpt>
      <trkpt lat="44.08052" lon="1.6762">
        <ele>228</ele>
        <time>2011-03-05T15:56:07Z</time>
      </trkpt>
      <trkpt lat="44.08056" lon="1.67622">
        <ele>228</ele>
        <time>2011-03-05T15:56:08Z</time>
      </trkpt>
      <trkpt lat="44.08069" lon="1.67623">
        <ele>228</ele>
        <time>2011-03-05T15:56:11Z</time>
      </trkpt>
      <trkpt lat="44.08091" lon="1.67623">
        <ele>228</ele>
        <time>2011-03-05T15:56:16Z</time>
      </trkpt>
      <trkpt lat="44.08138" lon="1.6762">
        <ele>228</ele>
        <time>2011-03-05T15:56:26Z</time>
      </trkpt>
      <trkpt lat="44.08152" lon="1.67617">
        <ele>228</ele>
        <time>2011-03-05T15:56:29Z</time>
      </trkpt>
      <trkpt lat="44.08186" lon="1.67606">
        <ele>228</ele>
        <time>2011-03-05T15:56:36Z</time>
      </trkpt>
      <trkpt lat="44.08209" lon="1.67595">
        <ele>228</ele>
        <time>2011-03-05T15:56:41Z</time>
      </trkpt>
      <trkpt lat="44.08214" lon="1.67593">
        <ele>228</ele>
        <time>2011-03-05T15:56:42Z</time>
      </trkpt>
      <trkpt lat="44.08234" lon="1.67589">
        <ele>228</ele>
        <time>2011-03-05T15:56:46Z</time>
      </trkpt>
      <trkpt lat="44.08239" lon="1.67589">
        <ele>228</ele>
        <time>2011-03-05T15:56:47Z</time>
      </trkpt>
      <trkpt lat="44.08249" lon="1.67591">
        <ele>228</ele>
        <time>2011-03-05T15:56:49Z</time>
      </trkpt>
      <trkpt lat="44.08269" lon="1.67603">
        <ele>228</ele>
        <time>2011-03-05T15:56:53Z</time>
      </trkpt>
      <trkpt lat="44.08288" lon="1.67617">
        <ele>228</ele>
        <time>2011-03-05T15:56:57Z</time>
      </trkpt>
      <trkpt lat="44.08297" lon="1.67622">
        <ele>228</ele>
        <time>2011-03-05T15:56:59Z</time>
      </trkpt>
      <trkpt lat="44.08312" lon="1.67629">
        <ele>228</ele>
        <time>2011-03-05T15:57:02Z</time>
      </trkpt>
      <trkpt lat="44.08334" lon="1.67638">
        <ele>229</ele>
        <time>2011-03-05T15:57:07Z</time>
      </trkpt>
      <trkpt lat="44.08338" lon="1.67638">
        <ele>230</ele>
        <time>2011-03-05T15:57:08Z</time>
      </trkpt>
      <trkpt lat="44.08341" lon="1.67636">
        <ele>230</ele>
        <time>2011-03-05T15:57:09Z</time>
      </trkpt>
      <trkpt lat="44.08347" lon="1.67629">
        <ele>230</ele>
        <time>2011-03-05T15:57:11Z</time>
      </trkpt>
      <trkpt lat="44.08364" lon="1.67601">
        <ele>231</ele>
        <time>2011-03-05T15:57:17Z</time>
      </trkpt>
      <trkpt lat="44.08369" lon="1.67592">
        <ele>231</ele>
        <time>2011-03-05T15:57:19Z</time>
      </trkpt>
      <trkpt lat="44.08373" lon="1.67582">
        <ele>231</ele>
        <time>2011-03-05T15:57:21Z</time>
      </trkpt>
      <trkpt lat="44.08381" lon="1.67568">
        <ele>231</ele>
        <time>2011-03-05T15:57:24Z</time>
      </trkpt>
      <trkpt lat="44.08387" lon="1.6756">
        <ele>231</ele>
        <time>2011-03-05T15:57:26Z</time>
      </trkpt>
      <trkpt lat="44.084" lon="1.67543">
        <ele>231</ele>
        <time>2011-03-05T15:57:30Z</time>
      </trkpt>
      <trkpt lat="44.0841" lon="1.67531">
        <ele>231</ele>
        <time>2011-03-05T15:57:33Z</time>
      </trkpt>
      <trkpt lat="44.0843" lon="1.67492">
        <ele>231</ele>
        <time>2011-03-05T15:57:41Z</time>
      </trkpt>
      <trkpt lat="44.08437" lon="1.67467">
        <ele>230</ele>
        <time>2011-03-05T15:57:46Z</time>
      </trkpt>
      <trkpt lat="44.08438" lon="1.67461">
        <ele>230</ele>
        <time>2011-03-05T15:57:47Z</time>
      </trkpt>
      <trkpt lat="44.08442" lon="1.67448">
        <ele>229</ele>
        <time>2011-03-05T15:57:49Z</time>
      </trkpt>
      <trkpt lat="44.08444" lon="1.67434">
        <ele>228</ele>
        <time>2011-03-05T15:57:51Z</time>
      </trkpt>
      <trkpt lat="44.08448" lon="1.67413">
        <ele>227</ele>
        <time>2011-03-05T15:57:54Z</time>
      </trkpt>
      <trkpt lat="44.08456" lon="1.67385">
        <ele>226</ele>
        <time>2011-03-05T15:57:58Z</time>
      </trkpt>
      <trkpt lat="44.0846" lon="1.67371">
        <ele>225</ele>
        <time>2011-03-05T15:58:00Z</time>
      </trkpt>
      <trkpt lat="44.08462" lon="1.67365">
        <ele>225</ele>
        <time>2011-03-05T15:58:01Z</time>
      </trkpt>
      <trkpt lat="44.08463" lon="1.67358">
        <ele>225</ele>
        <time>2011-03-05T15:58:02Z</time>
      </trkpt>
      <trkpt lat="44.08468" lon="1.67328">
        <ele>223</ele>
        <time>2011-03-05T15:58:07Z</time>
      </trkpt>
      <trkpt lat="44.08468" lon="1.67322">
        <ele>223</ele>
        <time>2011-03-05T15:58:08Z</time>
      </trkpt>
      <trkpt lat="44.0847" lon="1.67297">
        <ele>223</ele>
        <time>2011-03-05T15:58:12Z</time>
      </trkpt>
      <trkpt lat="44.08471" lon="1.67286">
        <ele>223</ele>
        <time>2011-03-05T15:58:14Z</time>
      </trkpt>
      <trkpt lat="44.08469" lon="1.67268">
        <ele>221</ele>
        <time>2011-03-05T15:58:17Z</time>
      </trkpt>
      <trkpt lat="44.08462" lon="1.67251">
        <ele>220</ele>
        <time>2011-03-05T15:58:20Z</time>
      </trkpt>
      <trkpt lat="44.08455" lon="1.67243">
        <ele>218</ele>
        <time>2011-03-05T15:58:22Z</time>
      </trkpt>
      <trkpt lat="44.08451" lon="1.6724">
        <ele>217</ele>
        <time>2011-03-05T15:58:23Z</time>
      </trkpt>
      <trkpt lat="44.0844" lon="1.67235">
        <ele>215</ele>
        <time>2011-03-05T15:58:26Z</time>
      </trkpt>
      <trkpt lat="44.08437" lon="1.67232">
        <ele>215</ele>
        <time>2011-03-05T15:58:27Z</time>
      </trkpt>
      <trkpt lat="44.08435" lon="1.67226">
        <ele>215</ele>
        <time>2011-03-05T15:58:28Z</time>
      </trkpt>
      <trkpt lat="44.08434" lon="1.67219">
        <ele>214</ele>
        <time>2011-03-05T15:58:29Z</time>
      </trkpt>
      <trkpt lat="44.08435" lon="1.67204">
        <ele>214</ele>
        <time>2011-03-05T15:58:31Z</time>
      </trkpt>
      <trkpt lat="44.08438" lon="1.6719">
        <ele>213</ele>
        <time>2011-03-05T15:58:33Z</time>
      </trkpt>
      <trkpt lat="44.08445" lon="1.67173">
        <ele>211</ele>
        <time>2011-03-05T15:58:36Z</time>
      </trkpt>
      <trkpt lat="44.08448" lon="1.6716">
        <ele>209</ele>
        <time>2011-03-05T15:58:38Z</time>
      </trkpt>
      <trkpt lat="44.0845" lon="1.67153">
        <ele>209</ele>
        <time>2011-03-05T15:58:39Z</time>
      </trkpt>
      <trkpt lat="44.08455" lon="1.67141">
        <ele>207</ele>
        <time>2011-03-05T15:58:41Z</time>
      </trkpt>
      <trkpt lat="44.08467" lon="1.67119">
        <ele>206</ele>
        <time>2011-03-05T15:58:45Z</time>
      </trkpt>
      <trkpt lat="44.08471" lon="1.67114">
        <ele>205</ele>
        <time>2011-03-05T15:58:46Z</time>
      </trkpt>
      <trkpt lat="44.08476" lon="1.67103">
        <ele>204</ele>
        <time>2011-03-05T15:58:48Z</time>
      </trkpt>
      <trkpt lat="44.08482" lon="1.67089">
        <ele>201</ele>
        <time>2011-03-05T15:58:51Z</time>
      </trkpt>
      <trkpt lat="44.08484" lon="1.67083">
        <ele>199</ele>
        <time>2011-03-05T15:58:53Z</time>
      </trkpt>
      <trkpt lat="44.08484" lon="1.67067">
        <ele>195</ele>
        <time>2011-03-05T15:58:57Z</time>
      </trkpt>
      <trkpt lat="44.08485" lon="1.67062">
        <ele>194</ele>
        <time>2011-03-05T15:58:58Z</time>
      </trkpt>
      <trkpt lat="44.08485" lon="1.67045">
        <ele>191</ele>
        <time>2011-03-05T15:59:01Z</time>
      </trkpt>
      <trkpt lat="44.08485" lon="1.6704">
        <ele>190</ele>
        <time>2011-03-05T15:59:02Z</time>
      </trkpt>
      <trkpt lat="44.08483" lon="1.67036">
        <ele>189</ele>
        <time>2011-03-05T15:59:03Z</time>
      </trkpt>
      <trkpt lat="44.08479" lon="1.67031">
        <ele>188</ele>
        <time>2011-03-05T15:59:04Z</time>
      </trkpt>
      <trkpt lat="44.08471" lon="1.67025">
        <ele>186</ele>
        <time>2011-03-05T15:59:06Z</time>
      </trkpt>
      <trkpt lat="44.08464" lon="1.67023">
        <ele>185</ele>
        <time>2011-03-05T15:59:08Z</time>
      </trkpt>
      <trkpt lat="44.08462" lon="1.67024">
        <ele>184</ele>
        <time>2011-03-05T15:59:09Z</time>
      </trkpt>
      <trkpt lat="44.0846" lon="1.67027">
        <ele>184</ele>
        <time>2011-03-05T15:59:10Z</time>
      </trkpt>
      <trkpt lat="44.08459" lon="1.6703">
        <ele>183</ele>
        <time>2011-03-05T15:59:11Z</time>
      </trkpt>
      <trkpt lat="44.08459" lon="1.67042">
        <ele>183</ele>
        <time>2011-03-05T15:59:14Z</time>
      </trkpt>
      <trkpt lat="44.08458" lon="1.67069">
        <ele>181</ele>
        <time>2011-03-05T15:59:19Z</time>
      </trkpt>
      <trkpt lat="44.08456" lon="1.67075">
        <ele>181</ele>
        <time>2011-03-05T15:59:20Z</time>
      </trkpt>
      <trkpt lat="44.08453" lon="1.67087">
        <ele>181</ele>
        <time>2011-03-05T15:59:23Z</time>
      </trkpt>
      <trkpt lat="44.08446" lon="1.67098">
        <ele>178</ele>
        <time>2011-03-05T15:59:27Z</time>
      </trkpt>
      <trkpt lat="44.08445" lon="1.67099">
        <ele>177</ele>
        <time>2011-03-05T15:59:28Z</time>
      </trkpt>
      <trkpt lat="44.08442" lon="1.67099">
        <ele>176</ele>
        <time>2011-03-05T15:59:29Z</time>
      </trkpt>
      <trkpt lat="44.08441" lon="1.67097">
        <ele>176</ele>
        <time>2011-03-05T15:59:30Z</time>
      </trkpt>
      <trkpt lat="44.0844" lon="1.67095">
        <ele>175</ele>
        <time>2011-03-05T15:59:31Z</time>
      </trkpt>
      <trkpt lat="44.0844" lon="1.67091">
        <ele>175</ele>
        <time>2011-03-05T15:59:32Z</time>
      </trkpt>
      <trkpt lat="44.08442" lon="1.67074">
        <ele>174</ele>
        <time>2011-03-05T15:59:35Z</time>
      </trkpt>
      <trkpt lat="44.08443" lon="1.67061">
        <ele>174</ele>
        <time>2011-03-05T15:59:37Z</time>
      </trkpt>
      <trkpt lat="44.08441" lon="1.67045">
        <ele>174</ele>
        <time>2011-03-05T15:59:39Z</time>
      </trkpt>
      <trkpt lat="44.0844" lon="1.67023">
        <ele>174</ele>
        <time>2011-03-05T15:59:42Z</time>
      </trkpt>
      <trkpt lat="44.08442" lon="1.67006">
        <ele>174</ele>
        <time>2011-03-05T15:59:44Z</time>
      </trkpt>
      <trkpt lat="44.08444" lon="1.66998">
        <ele>174</ele>
        <time>2011-03-05T15:59:45Z</time>
      </trkpt>
      <trkpt lat="44.08456" lon="1.6697">
        <ele>174</ele>
        <time>2011-03-05T15:59:49Z</time>
      </trkpt>
      <trkpt lat="44.08458" lon="1.66963">
        <ele>174</ele>
        <time>2011-03-05T15:59:50Z</time>
      </trkpt>
      <trkpt lat="44.08461" lon="1.66943">
        <ele>172</ele>
        <time>2011-03-05T15:59:53Z</time>
      </trkpt>
      <trkpt lat="44.08465" lon="1.66933">
        <ele>172</ele>
        <time>2011-03-05T15:59:55Z</time>
      </trkpt>
      <trkpt lat="44.08477" lon="1.66927">
        <ele>171</ele>
        <time>2011-03-05T15:59:59Z</time>
      </trkpt>
      <trkpt lat="44.08492" lon="1.66925">
        <ele>167</ele>
        <time>2011-03-05T16:00:03Z</time>
      </trkpt>
      <trkpt lat="44.08494" lon="1.66923">
        <ele>166</ele>
        <time>2011-03-05T16:00:04Z</time>
      </trkpt>
      <trkpt lat="44.08495" lon="1.66921">
        <ele>166</ele>
        <time>2011-03-05T16:00:05Z</time>
      </trkpt>
      <trkpt lat="44.08496" lon="1.66918">
        <ele>166</ele>
        <time>2011-03-05T16:00:06Z</time>
      </trkpt>
      <trkpt lat="44.08495" lon="1.66912">
        <ele>166</ele>
        <time>2011-03-05T16:00:08Z</time>
      </trkpt>
      <trkpt lat="44.08492" lon="1.66907">
        <ele>166</ele>
        <time>2011-03-05T16:00:10Z</time>
      </trkpt>
      <trkpt lat="44.08486" lon="1.66904">
        <ele>166</ele>
        <time>2011-03-05T16:00:12Z</time>
      </trkpt>
      <trkpt lat="44.08482" lon="1.66903">
        <ele>166</ele>
        <time>2011-03-05T16:00:13Z</time>
      </trkpt>
      <trkpt lat="44.08462" lon="1.66904">
        <ele>166</ele>
        <time>2011-03-05T16:00:17Z</time>
      </trkpt>
      <trkpt lat="44.08447" lon="1.66902">
        <ele>166</ele>
        <time>2011-03-05T16:00:20Z</time>
      </trkpt>
      <trkpt lat="44.08427" lon="1.66894">
        <ele>166</ele>
        <time>2011-03-05T16:00:24Z</time>
      </trkpt>
      <trkpt lat="44.08387" lon="1.66876">
        <ele>166</ele>
        <time>2011-03-05T16:00:32Z</time>
      </trkpt>
      <trkpt lat="44.08377" lon="1.66873">
        <ele>166</ele>
        <time>2011-03-05T16:00:34Z</time>
      </trkpt>
      <trkpt lat="44.08373" lon="1.66873">
        <ele>166</ele>
        <time>2011-03-05T16:00:35Z</time>
      </trkpt>
      <trkpt lat="44.08364" lon="1.66875">
        <ele>166</ele>
        <time>2011-03-05T16:00:37Z</time>
      </trkpt>
      <trkpt lat="44.08356" lon="1.66875">
        <ele>166</ele>
        <time>2011-03-05T16:00:39Z</time>
      </trkpt>
      <trkpt lat="44.08351" lon="1.66876">
        <ele>166</ele>
        <time>2011-03-05T16:00:40Z</time>
      </trkpt>
      <trkpt lat="44.08341" lon="1.66882">
        <ele>166</ele>
        <time>2011-03-05T16:00:42Z</time>
      </trkpt>
      <trkpt lat="44.08331" lon="1.6689">
        <ele>166</ele>
        <time>2011-03-05T16:00:44Z</time>
      </trkpt>
      <trkpt lat="44.08316" lon="1.66905">
        <ele>166</ele>
        <time>2011-03-05T16:00:47Z</time>
      </trkpt>
      <trkpt lat="44.08304" lon="1.66918">
        <ele>166</ele>
        <time>2011-03-05T16:00:50Z</time>
      </trkpt>
      <trkpt lat="44.08298" lon="1.66924">
        <ele>166</ele>
        <time>2011-03-05T16:00:51Z</time>
      </trkpt>
      <trkpt lat="44.08294" lon="1.66926">
        <ele>166</ele>
        <time>2011-03-05T16:00:52Z</time>
      </trkpt>
      <trkpt lat="44.08289" lon="1.66928">
        <ele>166</ele>
        <time>2011-03-05T16:00:53Z</time>
      </trkpt>
      <trkpt lat="44.08286" lon="1.66927">
        <ele>166</ele>
        <time>2011-03-05T16:00:54Z</time>
      </trkpt>
      <trkpt lat="44.08268" lon="1.66921">
        <ele>166</ele>
        <time>2011-03-05T16:01:01Z</time>
      </trkpt>
      <trkpt lat="44.08259" lon="1.66919">
        <ele>166</ele>
        <time>2011-03-05T16:01:03Z</time>
      </trkpt>
      <trkpt lat="44.08255" lon="1.6692">
        <ele>166</ele>
        <time>2011-03-05T16:01:04Z</time>
      </trkpt>
      <trkpt lat="44.08236" lon="1.6692">
        <ele>164</ele>
        <time>2011-03-05T16:01:07Z</time>
      </trkpt>
      <trkpt lat="44.08229" lon="1.66918">
        <ele>164</ele>
        <time>2011-03-05T16:01:08Z</time>
      </trkpt>
      <trkpt lat="44.08224" lon="1.66914">
        <ele>163</ele>
        <time>2011-03-05T16:01:09Z</time>
      </trkpt>
      <trkpt lat="44.08219" lon="1.66909">
        <ele>163</ele>
        <time>2011-03-05T16:01:10Z</time>
      </trkpt>
      <trkpt lat="44.08204" lon="1.6689">
        <ele>161</ele>
        <time>2011-03-05T16:01:14Z</time>
      </trkpt>
      <trkpt lat="44.08199" lon="1.66888">
        <ele>161</ele>
        <time>2011-03-05T16:01:16Z</time>
      </trkpt>
      <trkpt lat="44.082" lon="1.66887">
        <ele>160</ele>
        <time>2011-03-05T16:01:18Z</time>
      </trkpt>
      <trkpt lat="44.08204" lon="1.66886">
        <ele>160</ele>
        <time>2011-03-05T16:01:21Z</time>
      </trkpt>
      <trkpt lat="44.08204" lon="1.66884">
        <ele>160</ele>
        <time>2011-03-05T16:01:22Z</time>
      </trkpt>
      <trkpt lat="44.08205" lon="1.66877">
        <ele>160</ele>
        <time>2011-03-05T16:01:25Z</time>
      </trkpt>
      <trkpt lat="44.08205" lon="1.66871">
        <ele>160</ele>
        <time>2011-03-05T16:01:27Z</time>
      </trkpt>
      <trkpt lat="44.08205" lon="1.66866">
        <ele>160</ele>
        <time>2011-03-05T16:01:29Z</time>
      </trkpt>
      <trkpt lat="44.08205" lon="1.6686">
        <ele>160</ele>
        <time>2011-03-05T16:01:31Z</time>
      </trkpt>
      <trkpt lat="44.08205" lon="1.66851">
        <ele>160</ele>
        <time>2011-03-05T16:01:34Z</time>
      </trkpt>
      <trkpt lat="44.08205" lon="1.6684">
        <ele>160</ele>
        <time>2011-03-05T16:01:37Z</time>
      </trkpt>
      <trkpt lat="44.08206" lon="1.66823">
        <ele>165</ele>
        <time>2011-03-05T16:01:42Z</time>
      </trkpt>
      <trkpt lat="44.0821" lon="1.66808">
        <ele>167</ele>
        <time>2011-03-05T16:01:47Z</time>
      </trkpt>
      <trkpt lat="44.08211" lon="1.66802">
        <ele>168</ele>
        <time>2011-03-05T16:01:49Z</time>
      </trkpt>
      <trkpt lat="44.0821" lon="1.66799">
        <ele>169</ele>
        <time>2011-03-05T16:01:50Z</time>
      </trkpt>
      <trkpt lat="44.08208" lon="1.66797">
        <ele>169</ele>
        <time>2011-03-05T16:01:51Z</time>
      </trkpt>
      <trkpt lat="44.08205" lon="1.66796">
        <ele>169</ele>
        <time>2011-03-05T16:01:52Z</time>
      </trkpt>
      <trkpt lat="44.08196" lon="1.66796">
        <ele>169</ele>
        <time>2011-03-05T16:01:54Z</time>
      </trkpt>
      <trkpt lat="44.08188" lon="1.66793">
        <ele>169</ele>
        <time>2011-03-05T16:01:56Z</time>
      </trkpt>
      <trkpt lat="44.08183" lon="1.66789">
        <ele>169</ele>
        <time>2011-03-05T16:01:57Z</time>
      </trkpt>
      <trkpt lat="44.08171" lon="1.66777">
        <ele>169</ele>
        <time>2011-03-05T16:02:00Z</time>
      </trkpt>
      <trkpt lat="44.08168" lon="1.66775">
        <ele>169</ele>
        <time>2011-03-05T16:02:01Z</time>
      </trkpt>
      <trkpt lat="44.08159" lon="1.66774">
        <ele>169</ele>
        <time>2011-03-05T16:02:03Z</time>
      </trkpt>
      <trkpt lat="44.0815" lon="1.66778">
        <ele>169</ele>
        <time>2011-03-05T16:02:05Z</time>
      </trkpt>
      <trkpt lat="44.08145" lon="1.66779">
        <ele>169</ele>
        <time>2011-03-05T16:02:06Z</time>
      </trkpt>
      <trkpt lat="44.08123" lon="1.66781">
        <ele>166</ele>
        <time>2011-03-05T16:02:10Z</time>
      </trkpt>
      <trkpt lat="44.08108" lon="1.66783">
        <ele>163</ele>
        <time>2011-03-05T16:02:13Z</time>
      </trkpt>
      <trkpt lat="44.08103" lon="1.66782">
        <ele>162</ele>
        <time>2011-03-05T16:02:14Z</time>
      </trkpt>
      <trkpt lat="44.08094" lon="1.6678">
        <ele>162</ele>
        <time>2011-03-05T16:02:16Z</time>
      </trkpt>
      <trkpt lat="44.08084" lon="1.66776">
        <ele>161</ele>
        <time>2011-03-05T16:02:18Z</time>
      </trkpt>
      <trkpt lat="44.08062" lon="1.66769">
        <ele>161</ele>
        <time>2011-03-05T16:02:23Z</time>
      </trkpt>
      <trkpt lat="44.08052" lon="1.66763">
        <ele>161</ele>
        <time>2011-03-05T16:02:26Z</time>
      </trkpt>
      <trkpt lat="44.08039" lon="1.66762">
        <ele>160</ele>
        <time>2011-03-05T16:02:29Z</time>
      </trkpt>
      <trkpt lat="44.08014" lon="1.66756">
        <ele>160</ele>
        <time>2011-03-05T16:02:35Z</time>
      </trkpt>
      <trkpt lat="44.0801" lon="1.66754">
        <ele>160</ele>
        <time>2011-03-05T16:02:36Z</time>
      </trkpt>
      <trkpt lat="44.07997" lon="1.66746">
        <ele>160</ele>
        <time>2011-03-05T16:02:39Z</time>
      </trkpt>
      <trkpt lat="44.07993" lon="1.66742">
        <ele>160</ele>
        <time>2011-03-05T16:02:40Z</time>
      </trkpt>
      <trkpt lat="44.07979" lon="1.66719">
        <ele>160</ele>
        <time>2011-03-05T16:02:44Z</time>
      </trkpt>
      <trkpt lat="44.07965" lon="1.66693">
        <ele>159</ele>
        <time>2011-03-05T16:02:48Z</time>
      </trkpt>
      <trkpt lat="44.07948" lon="1.66664">
        <ele>157</ele>
        <time>2011-03-05T16:02:53Z</time>
      </trkpt>
      <trkpt lat="44.07941" lon="1.66645">
        <ele>155</ele>
        <time>2011-03-05T16:02:56Z</time>
      </trkpt>
      <trkpt lat="44.07938" lon="1.66632">
        <ele>153</ele>
        <time>2011-03-05T16:02:58Z</time>
      </trkpt>
      <trkpt lat="44.07936" lon="1.66628">
        <ele>153</ele>
        <time>2011-03-05T16:02:59Z</time>
      </trkpt>
      <trkpt lat="44.07934" lon="1.66625">
        <ele>152</ele>
        <time>2011-03-05T16:03:00Z</time>
      </trkpt>
      <trkpt lat="44.0793" lon="1.66623">
        <ele>152</ele>
        <time>2011-03-05T16:03:01Z</time>
      </trkpt>
      <trkpt lat="44.07924" lon="1.66625">
        <ele>152</ele>
        <time>2011-03-05T16:03:03Z</time>
      </trkpt>
      <trkpt lat="44.07912" lon="1.66629">
        <ele>152</ele>
        <time>2011-03-05T16:03:06Z</time>
      </trkpt>
      <trkpt lat="44.07904" lon="1.66631">
        <ele>152</ele>
        <time>2011-03-05T16:03:08Z</time>
      </trkpt>
      <trkpt lat="44.07898" lon="1.6663">
        <ele>152</ele>
        <time>2011-03-05T16:03:10Z</time>
      </trkpt>
      <trkpt lat="44.07892" lon="1.66631">
        <ele>152</ele>
        <time>2011-03-05T16:03:14Z</time>
      </trkpt>
      <trkpt lat="44.07891" lon="1.6663">
        <ele>152</ele>
        <time>2011-03-05T16:03:16Z</time>
      </trkpt>
      <trkpt lat="44.07886" lon="1.66627">
        <ele>152</ele>
        <time>2011-03-05T16:03:24Z</time>
      </trkpt>
      <trkpt lat="44.0788" lon="1.66617">
        <ele>152</ele>
        <time>2011-03-05T16:03:28Z</time>
      </trkpt>
      <trkpt lat="44.07876" lon="1.66599">
        <ele>152</ele>
        <time>2011-03-05T16:03:32Z</time>
      </trkpt>
      <trkpt lat="44.07874" lon="1.66594">
        <ele>152</ele>
        <time>2011-03-05T16:03:33Z</time>
      </trkpt>
      <trkpt lat="44.07866" lon="1.66565">
        <ele>152</ele>
        <time>2011-03-05T16:03:38Z</time>
      </trkpt>
      <trkpt lat="44.07863" lon="1.66558">
        <ele>153</ele>
        <time>2011-03-05T16:03:39Z</time>
      </trkpt>
      <trkpt lat="44.07859" lon="1.66554">
        <ele>153</ele>
        <time>2011-03-05T16:03:40Z</time>
      </trkpt>
      <trkpt lat="44.07855" lon="1.66552">
        <ele>153</ele>
        <time>2011-03-05T16:03:41Z</time>
      </trkpt>
      <trkpt lat="44.0785" lon="1.66551">
        <ele>153</ele>
        <time>2011-03-05T16:03:42Z</time>
      </trkpt>
      <trkpt lat="44.07842" lon="1.66551">
        <ele>153</ele>
        <time>2011-03-05T16:03:44Z</time>
      </trkpt>
      <trkpt lat="44.07831" lon="1.66555">
        <ele>153</ele>
        <time>2011-03-05T16:03:46Z</time>
      </trkpt>
      <trkpt lat="44.0782" lon="1.66557">
        <ele>152</ele>
        <time>2011-03-05T16:03:48Z</time>
      </trkpt>
      <trkpt lat="44.0781" lon="1.6656">
        <ele>150</ele>
        <time>2011-03-05T16:03:50Z</time>
      </trkpt>
      <trkpt lat="44.07795" lon="1.66569">
        <ele>147</ele>
        <time>2011-03-05T16:03:53Z</time>
      </trkpt>
      <trkpt lat="44.07791" lon="1.66571">
        <ele>146</ele>
        <time>2011-03-05T16:03:54Z</time>
      </trkpt>
      <trkpt lat="44.07788" lon="1.66575">
        <ele>145</ele>
        <time>2011-03-05T16:03:55Z</time>
      </trkpt>
      <trkpt lat="44.07787" lon="1.66576">
        <ele>145</ele>
        <time>2011-03-05T16:03:56Z</time>
      </trkpt>
      <trkpt lat="44.07784" lon="1.6658">
        <ele>145</ele>
        <time>2011-03-05T16:03:58Z</time>
      </trkpt>
      <trkpt lat="44.07781" lon="1.66581">
        <ele>145</ele>
        <time>2011-03-05T16:04:00Z</time>
      </trkpt>
      <trkpt lat="44.07778" lon="1.66574">
        <ele>145</ele>
        <time>2011-03-05T16:04:03Z</time>
      </trkpt>
      <trkpt lat="44.07776" lon="1.66577">
        <ele>145</ele>
        <time>2011-03-05T16:04:06Z</time>
      </trkpt>
      <trkpt lat="44.07774" lon="1.66581">
        <ele>145</ele>
        <time>2011-03-05T16:04:08Z</time>
      </trkpt>
      <trkpt lat="44.0777" lon="1.66586">
        <ele>146</ele>
        <time>2011-03-05T16:04:10Z</time>
      </trkpt>
      <trkpt lat="44.07755" lon="1.66597">
        <ele>146</ele>
        <time>2011-03-05T16:04:16Z</time>
      </trkpt>
      <trkpt lat="44.07748" lon="1.66602">
        <ele>146</ele>
        <time>2011-03-05T16:04:18Z</time>
      </trkpt>
      <trkpt lat="44.07745" lon="1.66604">
        <ele>146</ele>
        <time>2011-03-05T16:04:19Z</time>
      </trkpt>
      <trkpt lat="44.07722" lon="1.66606">
        <ele>142</ele>
        <time>2011-03-05T16:04:25Z</time>
      </trkpt>
      <trkpt lat="44.07712" lon="1.6661">
        <ele>140</ele>
        <time>2011-03-05T16:04:28Z</time>
      </trkpt>
      <trkpt lat="44.07704" lon="1.66619">
        <ele>140</ele>
        <time>2011-03-05T16:04:31Z</time>
      </trkpt>
      <trkpt lat="44.07697" lon="1.66623">
        <ele>140</ele>
        <time>2011-03-05T16:04:33Z</time>
      </trkpt>
      <trkpt lat="44.07678" lon="1.66637">
        <ele>139</ele>
        <time>2011-03-05T16:04:38Z</time>
      </trkpt>
      <trkpt lat="44.07672" lon="1.66638">
        <ele>138</ele>
        <time>2011-03-05T16:04:40Z</time>
      </trkpt>
      <trkpt lat="44.07664" lon="1.66638">
        <ele>138</ele>
        <time>2011-03-05T16:04:42Z</time>
      </trkpt>
      <trkpt lat="44.0765" lon="1.66633">
        <ele>138</ele>
        <time>2011-03-05T16:04:45Z</time>
      </trkpt>
      <trkpt lat="44.07645" lon="1.66632">
        <ele>138</ele>
        <time>2011-03-05T16:04:46Z</time>
      </trkpt>
      <trkpt lat="44.07637" lon="1.66628">
        <ele>138</ele>
        <time>2011-03-05T16:04:48Z</time>
      </trkpt>
      <trkpt lat="44.07628" lon="1.66622">
        <ele>138</ele>
        <time>2011-03-05T16:04:50Z</time>
      </trkpt>
      <trkpt lat="44.07618" lon="1.66607">
        <ele>137</ele>
        <time>2011-03-05T16:04:53Z</time>
      </trkpt>
      <trkpt lat="44.07605" lon="1.66595">
        <ele>136</ele>
        <time>2011-03-05T16:04:56Z</time>
      </trkpt>
      <trkpt lat="44.07593" lon="1.66586">
        <ele>136</ele>
        <time>2011-03-05T16:04:59Z</time>
      </trkpt>
      <trkpt lat="44.07583" lon="1.66574">
        <ele>136</ele>
        <time>2011-03-05T16:05:02Z</time>
      </trkpt>
      <trkpt lat="44.07578" lon="1.66572">
        <ele>136</ele>
        <time>2011-03-05T16:05:03Z</time>
      </trkpt>
      <trkpt lat="44.07571" lon="1.66567">
        <ele>136</ele>
        <time>2011-03-05T16:05:05Z</time>
      </trkpt>
      <trkpt lat="44.07564" lon="1.6656">
        <ele>136</ele>
        <time>2011-03-05T16:05:07Z</time>
      </trkpt>
      <trkpt lat="44.0756" lon="1.66555">
        <ele>136</ele>
        <time>2011-03-05T16:05:08Z</time>
      </trkpt>
      <trkpt lat="44.0755" lon="1.66546">
        <ele>137</ele>
        <time>2011-03-05T16:05:11Z</time>
      </trkpt>
      <trkpt lat="44.07545" lon="1.66539">
        <ele>139</ele>
        <time>2011-03-05T16:05:13Z</time>
      </trkpt>
      <trkpt lat="44.07536" lon="1.66529">
        <ele>139</ele>
        <time>2011-03-05T16:05:17Z</time>
      </trkpt>
      <trkpt lat="44.07528" lon="1.66517">
        <ele>139</ele>
        <time>2011-03-05T16:05:20Z</time>
      </trkpt>
      <trkpt lat="44.07522" lon="1.66509">
        <ele>139</ele>
        <time>2011-03-05T16:05:22Z</time>
      </trkpt>
      <trkpt lat="44.07512" lon="1.6649">
        <ele>139</ele>
        <time>2011-03-05T16:05:26Z</time>
      </trkpt>
      <trkpt lat="44.07497" lon="1.66454">
        <ele>140</ele>
        <time>2011-03-05T16:05:33Z</time>
      </trkpt>
      <trkpt lat="44.07493" lon="1.66447">
        <ele>141</ele>
        <time>2011-03-05T16:05:35Z</time>
      </trkpt>
      <trkpt lat="44.07485" lon="1.66439">
        <ele>141</ele>
        <time>2011-03-05T16:05:40Z</time>
      </trkpt>
      <trkpt lat="44.07481" lon="1.6643">
        <ele>141</ele>
        <time>2011-03-05T16:05:44Z</time>
      </trkpt>
      <trkpt lat="44.07481" lon="1.66427">
        <ele>140</ele>
        <time>2011-03-05T16:05:46Z</time>
      </trkpt>
      <trkpt lat="44.07479" lon="1.66421">
        <ele>140</ele>
        <time>2011-03-05T16:05:48Z</time>
      </trkpt>
      <trkpt lat="44.07476" lon="1.66418">
        <ele>140</ele>
        <time>2011-03-05T16:05:50Z</time>
      </trkpt>
      <trkpt lat="44.07472" lon="1.6641">
        <ele>140</ele>
        <time>2011-03-05T16:05:52Z</time>
      </trkpt>
      <trkpt lat="44.07471" lon="1.66402">
        <ele>140</ele>
        <time>2011-03-05T16:05:54Z</time>
      </trkpt>
      <trkpt lat="44.07468" lon="1.66389">
        <ele>140</ele>
        <time>2011-03-05T16:05:57Z</time>
      </trkpt>
      <trkpt lat="44.07466" lon="1.66375">
        <ele>139</ele>
        <time>2011-03-05T16:06:00Z</time>
      </trkpt>
      <trkpt lat="44.07462" lon="1.66367">
        <ele>139</ele>
        <time>2011-03-05T16:06:02Z</time>
      </trkpt>
      <trkpt lat="44.07455" lon="1.66355">
        <ele>138</ele>
        <time>2011-03-05T16:06:05Z</time>
      </trkpt>
      <trkpt lat="44.07448" lon="1.66344">
        <ele>136</ele>
        <time>2011-03-05T16:06:08Z</time>
      </trkpt>
      <trkpt lat="44.0744" lon="1.66334">
        <ele>134</ele>
        <time>2011-03-05T16:06:11Z</time>
      </trkpt>
      <trkpt lat="44.07408" lon="1.66289">
        <ele>130</ele>
        <time>2011-03-05T16:06:23Z</time>
      </trkpt>
      <trkpt lat="44.07402" lon="1.66283">
        <ele>129</ele>
        <time>2011-03-05T16:06:25Z</time>
      </trkpt>
      <trkpt lat="44.07398" lon="1.66278">
        <ele>129</ele>
        <time>2011-03-05T16:06:26Z</time>
      </trkpt>
      <trkpt lat="44.07391" lon="1.66274">
        <ele>129</ele>
        <time>2011-03-05T16:06:28Z</time>
      </trkpt>
      <trkpt lat="44.07376" lon="1.66271">
        <ele>129</ele>
        <time>2011-03-05T16:06:32Z</time>
      </trkpt>
      <trkpt lat="44.07359" lon="1.66274">
        <ele>125</ele>
        <time>2011-03-05T16:06:36Z</time>
      </trkpt>
      <trkpt lat="44.07351" lon="1.66274">
        <ele>123</ele>
        <time>2011-03-05T16:06:38Z</time>
      </trkpt>
      <trkpt lat="44.07338" lon="1.6627">
        <ele>121</ele>
        <time>2011-03-05T16:06:41Z</time>
      </trkpt>
      <trkpt lat="44.07333" lon="1.66267">
        <ele>121</ele>
        <time>2011-03-05T16:06:42Z</time>
      </trkpt>
      <trkpt lat="44.07324" lon="1.66264">
        <ele>121</ele>
        <time>2011-03-05T16:06:44Z</time>
      </trkpt>
      <trkpt lat="44.07314" lon="1.6626">
        <ele>121</ele>
        <time>2011-03-05T16:06:46Z</time>
      </trkpt>
      <trkpt lat="44.07294" lon="1.66258">
        <ele>121</ele>
        <time>2011-03-05T16:06:51Z</time>
      </trkpt>
      <trkpt lat="44.07287" lon="1.66256">
        <ele>121</ele>
        <time>2011-03-05T16:06:53Z</time>
      </trkpt>
      <trkpt lat="44.07272" lon="1.66255">
        <ele>121</ele>
        <time>2011-03-05T16:06:56Z</time>
      </trkpt>
      <trkpt lat="44.07257" lon="1.66248">
        <ele>121</ele>
        <time>2011-03-05T16:07:01Z</time>
      </trkpt>
      <trkpt lat="44.07252" lon="1.66249">
        <ele>121</ele>
        <time>2011-03-05T16:07:02Z</time>
      </trkpt>
      <trkpt lat="44.07244" lon="1.66244">
        <ele>121</ele>
        <time>2011-03-05T16:07:05Z</time>
      </trkpt>
      <trkpt lat="44.0724" lon="1.6624">
        <ele>121</ele>
        <time>2011-03-05T16:07:07Z</time>
      </trkpt>
      <trkpt lat="44.07224" lon="1.66231">
        <ele>121</ele>
        <time>2011-03-05T16:07:12Z</time>
      </trkpt>
      <trkpt lat="44.07221" lon="1.66227">
        <ele>121</ele>
        <time>2011-03-05T16:07:13Z</time>
      </trkpt>
      <trkpt lat="44.07217" lon="1.66225">
        <ele>121</ele>
        <time>2011-03-05T16:07:14Z</time>
      </trkpt>
      <trkpt lat="44.07215" lon="1.66221">
        <ele>121</ele>
        <time>2011-03-05T16:07:15Z</time>
      </trkpt>
      <trkpt lat="44.07208" lon="1.66216">
        <ele>121</ele>
        <time>2011-03-05T16:07:17Z</time>
      </trkpt>
      <trkpt lat="44.07189" lon="1.66188">
        <ele>121</ele>
        <time>2011-03-05T16:07:24Z</time>
      </trkpt>
      <trkpt lat="44.07173" lon="1.66172">
        <ele>121</ele>
        <time>2011-03-05T16:07:29Z</time>
      </trkpt>
      <trkpt lat="44.0717" lon="1.66168">
        <ele>121</ele>
        <time>2011-03-05T16:07:30Z</time>
      </trkpt>
      <trkpt lat="44.07167" lon="1.66157">
        <ele>121</ele>
        <time>2011-03-05T16:07:32Z</time>
      </trkpt>
      <trkpt lat="44.07163" lon="1.6614">
        <ele>121</ele>
        <time>2011-03-05T16:07:35Z</time>
      </trkpt>
      <trkpt lat="44.07157" lon="1.66121">
        <ele>122</ele>
        <time>2011-03-05T16:07:38Z</time>
      </trkpt>
      <trkpt lat="44.0715" lon="1.66104">
        <ele>122</ele>
        <time>2011-03-05T16:07:41Z</time>
      </trkpt>
      <trkpt lat="44.07135" lon="1.66088">
        <ele>122</ele>
        <time>2011-03-05T16:07:45Z</time>
      </trkpt>
      <trkpt lat="44.07132" lon="1.66084">
        <ele>122</ele>
        <time>2011-03-05T16:07:46Z</time>
      </trkpt>
      <trkpt lat="44.07119" lon="1.6607">
        <ele>120</ele>
        <time>2011-03-05T16:07:51Z</time>
      </trkpt>
      <trkpt lat="44.07098" lon="1.66055">
        <ele>117</ele>
        <time>2011-03-05T16:07:56Z</time>
      </trkpt>
      <trkpt lat="44.07088" lon="1.66051">
        <ele>116</ele>
        <time>2011-03-05T16:07:58Z</time>
      </trkpt>
      <trkpt lat="44.07084" lon="1.66048">
        <ele>115</ele>
        <time>2011-03-05T16:07:59Z</time>
      </trkpt>
      <trkpt lat="44.07073" lon="1.66037">
        <ele>114</ele>
        <time>2011-03-05T16:08:02Z</time>
      </trkpt>
      <trkpt lat="44.07064" lon="1.66026">
        <ele>112</ele>
        <time>2011-03-05T16:08:05Z</time>
      </trkpt>
      <trkpt lat="44.07053" lon="1.66017">
        <ele>111</ele>
        <time>2011-03-05T16:08:08Z</time>
      </trkpt>
      <trkpt lat="44.07046" lon="1.66014">
        <ele>109</ele>
        <time>2011-03-05T16:08:10Z</time>
      </trkpt>
      <trkpt lat="44.07036" lon="1.66008">
        <ele>109</ele>
        <time>2011-03-05T16:08:13Z</time>
      </trkpt>
      <trkpt lat="44.07028" lon="1.66006">
        <ele>109</ele>
        <time>2011-03-05T16:08:16Z</time>
      </trkpt>
      <trkpt lat="44.07024" lon="1.66006">
        <ele>109</ele>
        <time>2011-03-05T16:08:18Z</time>
      </trkpt>
      <trkpt lat="44.07019" lon="1.66005">
        <ele>109</ele>
        <time>2011-03-05T16:08:20Z</time>
      </trkpt>
      <trkpt lat="44.07012" lon="1.65998">
        <ele>109</ele>
        <time>2011-03-05T16:08:23Z</time>
      </trkpt>
      <trkpt lat="44.06997" lon="1.65985">
        <ele>109</ele>
        <time>2011-03-05T16:08:29Z</time>
      </trkpt>
      <trkpt lat="44.06986" lon="1.6598">
        <ele>107</ele>
        <time>2011-03-05T16:08:35Z</time>
      </trkpt>
      <trkpt lat="44.06982" lon="1.65977">
        <ele>107</ele>
        <time>2011-03-05T16:08:37Z</time>
      </trkpt>
      <trkpt lat="44.06976" lon="1.65968">
        <ele>107</ele>
        <time>2011-03-05T16:08:41Z</time>
      </trkpt>
      <trkpt lat="44.06967" lon="1.65964">
        <ele>106</ele>
        <time>2011-03-05T16:08:45Z</time>
      </trkpt>
      <trkpt lat="44.06961" lon="1.65959">
        <ele>106</ele>
        <time>2011-03-05T16:08:47Z</time>
      </trkpt>
      <trkpt lat="44.06947" lon="1.65952">
        <ele>106</ele>
        <time>2011-03-05T16:08:50Z</time>
      </trkpt>
      <trkpt lat="44.06933" lon="1.65945">
        <ele>105</ele>
        <time>2011-03-05T16:08:53Z</time>
      </trkpt>
      <trkpt lat="44.06898" lon="1.6592">
        <ele>103</ele>
        <time>2011-03-05T16:09:01Z</time>
      </trkpt>
      <trkpt lat="44.06895" lon="1.65916">
        <ele>103</ele>
        <time>2011-03-05T16:09:02Z</time>
      </trkpt>
      <trkpt lat="44.06884" lon="1.65901">
        <ele>103</ele>
        <time>2011-03-05T16:09:05Z</time>
      </trkpt>
      <trkpt lat="44.06875" lon="1.65892">
        <ele>103</ele>
        <time>2011-03-05T16:09:07Z</time>
      </trkpt>
      <trkpt lat="44.06867" lon="1.65885">
        <ele>103</ele>
        <time>2011-03-05T16:09:09Z</time>
      </trkpt>
      <trkpt lat="44.06856" lon="1.65874">
        <ele>103</ele>
        <time>2011-03-05T16:09:12Z</time>
      </trkpt>
      <trkpt lat="44.06851" lon="1.65872">
        <ele>102</ele>
        <time>2011-03-05T16:09:13Z</time>
      </trkpt>
      <trkpt lat="44.06847" lon="1.65872">
        <ele>102</ele>
        <time>2011-03-05T16:09:14Z</time>
      </trkpt>
      <trkpt lat="44.0684" lon="1.65866">
        <ele>102</ele>
        <time>2011-03-05T16:09:16Z</time>
      </trkpt>
      <trkpt lat="44.06837" lon="1.65866">
        <ele>102</ele>
        <time>2011-03-05T16:09:17Z</time>
      </trkpt>
      <trkpt lat="44.06834" lon="1.65867">
        <ele>101</ele>
        <time>2011-03-05T16:09:18Z</time>
      </trkpt>
      <trkpt lat="44.06828" lon="1.65874">
        <ele>101</ele>
        <time>2011-03-05T16:09:20Z</time>
      </trkpt>
      <trkpt lat="44.06824" lon="1.65876">
        <ele>101</ele>
        <time>2011-03-05T16:09:21Z</time>
      </trkpt>
      <trkpt lat="44.0681" lon="1.65887">
        <ele>100</ele>
        <time>2011-03-05T16:09:24Z</time>
      </trkpt>
      <trkpt lat="44.06792" lon="1.65903">
        <ele>100</ele>
        <time>2011-03-05T16:09:28Z</time>
      </trkpt>
      <trkpt lat="44.06764" lon="1.65934">
        <ele>100</ele>
        <time>2011-03-05T16:09:34Z</time>
      </trkpt>
      <trkpt lat="44.06735" lon="1.65972">
        <ele>100</ele>
        <time>2011-03-05T16:09:41Z</time>
      </trkpt>
      <trkpt lat="44.06727" lon="1.65982">
        <ele>100</ele>
        <time>2011-03-05T16:09:43Z</time>
      </trkpt>
      <trkpt lat="44.06702" lon="1.66016">
        <ele>100</ele>
        <time>2011-03-05T16:09:49Z</time>
      </trkpt>
      <trkpt lat="44.06666" lon="1.66059">
        <ele>99</ele>
        <time>2011-03-05T16:09:57Z</time>
      </trkpt>
      <trkpt lat="44.06645" lon="1.66079">
        <ele>98</ele>
        <time>2011-03-05T16:10:01Z</time>
      </trkpt>
      <trkpt lat="44.06624" lon="1.66097">
        <ele>98</ele>
        <time>2011-03-05T16:10:05Z</time>
      </trkpt>
      <trkpt lat="44.06605" lon="1.66117">
        <ele>98</ele>
        <time>2011-03-05T16:10:09Z</time>
      </trkpt>
      <trkpt lat="44.06595" lon="1.66128">
        <ele>98</ele>
        <time>2011-03-05T16:10:11Z</time>
      </trkpt>
      <trkpt lat="44.06574" lon="1.66156">
        <ele>98</ele>
        <time>2011-03-05T16:10:16Z</time>
      </trkpt>
      <trkpt lat="44.06562" lon="1.66175">
        <ele>98</ele>
        <time>2011-03-05T16:10:19Z</time>
      </trkpt>
      <trkpt lat="44.06542" lon="1.66216">
        <ele>98</ele>
        <time>2011-03-05T16:10:25Z</time>
      </trkpt>
      <trkpt lat="44.0653" lon="1.66234">
        <ele>98</ele>
        <time>2011-03-05T16:10:28Z</time>
      </trkpt>
      <trkpt lat="44.06522" lon="1.66243">
        <ele>98</ele>
        <time>2011-03-05T16:10:30Z</time>
      </trkpt>
      <trkpt lat="44.06497" lon="1.66265">
        <ele>98</ele>
        <time>2011-03-05T16:10:35Z</time>
      </trkpt>
      <trkpt lat="44.06492" lon="1.6627">
        <ele>98</ele>
        <time>2011-03-05T16:10:36Z</time>
      </trkpt>
      <trkpt lat="44.06483" lon="1.66283">
        <ele>97</ele>
        <time>2011-03-05T16:10:38Z</time>
      </trkpt>
      <trkpt lat="44.06475" lon="1.66297">
        <ele>97</ele>
        <time>2011-03-05T16:10:40Z</time>
      </trkpt>
      <trkpt lat="44.06431" lon="1.66378">
        <ele>97</ele>
        <time>2011-03-05T16:10:52Z</time>
      </trkpt>
      <trkpt lat="44.06428" lon="1.66385">
        <ele>97</ele>
        <time>2011-03-05T16:10:53Z</time>
      </trkpt>
      <trkpt lat="44.06391" lon="1.66454">
        <ele>97</ele>
        <time>2011-03-05T16:11:04Z</time>
      </trkpt>
      <trkpt lat="44.06371" lon="1.66487">
        <ele>97</ele>
        <time>2011-03-05T16:11:10Z</time>
      </trkpt>
      <trkpt lat="44.06354" lon="1.66513">
        <ele>97</ele>
        <time>2011-03-05T16:11:15Z</time>
      </trkpt>
      <trkpt lat="44.06329" lon="1.66547">
        <ele>97</ele>
        <time>2011-03-05T16:11:22Z</time>
      </trkpt>
      <trkpt lat="44.06311" lon="1.66568">
        <ele>97</ele>
        <time>2011-03-05T16:11:27Z</time>
      </trkpt>
      <trkpt lat="44.06294" lon="1.66584">
        <ele>97</ele>
        <time>2011-03-05T16:11:31Z</time>
      </trkpt>
      <trkpt lat="44.06275" lon="1.66598">
        <ele>97</ele>
        <time>2011-03-05T16:11:35Z</time>
      </trkpt>
      <trkpt lat="44.06238" lon="1.66623">
        <ele>97</ele>
        <time>2011-03-05T16:11:42Z</time>
      </trkpt>
      <trkpt lat="44.06223" lon="1.66632">
        <ele>97</ele>
        <time>2011-03-05T16:11:45Z</time>
      </trkpt>
      <trkpt lat="44.06182" lon="1.6666">
        <ele>97</ele>
        <time>2011-03-05T16:11:53Z</time>
      </trkpt>
      <trkpt lat="44.06148" lon="1.66688">
        <ele>95</ele>
        <time>2011-03-05T16:12:00Z</time>
      </trkpt>
      <trkpt lat="44.06138" lon="1.66694">
        <ele>95</ele>
        <time>2011-03-05T16:12:02Z</time>
      </trkpt>
      <trkpt lat="44.06102" lon="1.66727">
        <ele>95</ele>
        <time>2011-03-05T16:12:10Z</time>
      </trkpt>
      <trkpt lat="44.06093" lon="1.66735">
        <ele>95</ele>
        <time>2011-03-05T16:12:12Z</time>
      </trkpt>
      <trkpt lat="44.06079" lon="1.66745">
        <ele>95</ele>
        <time>2011-03-05T16:12:15Z</time>
      </trkpt>
      <trkpt lat="44.05976" lon="1.66797">
        <ele>96</ele>
        <time>2011-03-05T16:12:34Z</time>
      </trkpt>
      <trkpt lat="44.05951" lon="1.66808">
        <ele>97</ele>
        <time>2011-03-05T16:12:39Z</time>
      </trkpt>
      <trkpt lat="44.05941" lon="1.66811">
        <ele>98</ele>
        <time>2011-03-05T16:12:41Z</time>
      </trkpt>
      <trkpt lat="44.05921" lon="1.66814">
        <ele>98</ele>
        <time>2011-03-05T16:12:45Z</time>
      </trkpt>
      <trkpt lat="44.05888" lon="1.66816">
        <ele>98</ele>
        <time>2011-03-05T16:12:51Z</time>
      </trkpt>
      <trkpt lat="44.05854" lon="1.66814">
        <ele>98</ele>
        <time>2011-03-05T16:12:57Z</time>
      </trkpt>
      <trkpt lat="44.05828" lon="1.6681">
        <ele>99</ele>
        <time>2011-03-05T16:13:02Z</time>
      </trkpt>
      <trkpt lat="44.05818" lon="1.6681">
        <ele>100</ele>
        <time>2011-03-05T16:13:04Z</time>
      </trkpt>
      <trkpt lat="44.05807" lon="1.66812">
        <ele>101</ele>
        <time>2011-03-05T16:13:06Z</time>
      </trkpt>
      <trkpt lat="44.05797" lon="1.66815">
        <ele>101</ele>
        <time>2011-03-05T16:13:08Z</time>
      </trkpt>
      <trkpt lat="44.05787" lon="1.66822">
        <ele>101</ele>
        <time>2011-03-05T16:13:10Z</time>
      </trkpt>
      <trkpt lat="44.05779" lon="1.66831">
        <ele>101</ele>
        <time>2011-03-05T16:13:12Z</time>
      </trkpt>
      <trkpt lat="44.05771" lon="1.66841">
        <ele>102</ele>
        <time>2011-03-05T16:13:14Z</time>
      </trkpt>
      <trkpt lat="44.05764" lon="1.66854">
        <ele>103</ele>
        <time>2011-03-05T16:13:16Z</time>
      </trkpt>
      <trkpt lat="44.05755" lon="1.66873">
        <ele>103</ele>
        <time>2011-03-05T16:13:19Z</time>
      </trkpt>
      <trkpt lat="44.0575" lon="1.66886">
        <ele>103</ele>
        <time>2011-03-05T16:13:21Z</time>
      </trkpt>
      <trkpt lat="44.0574" lon="1.66917">
        <ele>104</ele>
        <time>2011-03-05T16:13:25Z</time>
      </trkpt>
      <trkpt lat="44.05733" lon="1.66932">
        <ele>104</ele>
        <time>2011-03-05T16:13:27Z</time>
      </trkpt>
      <trkpt lat="44.05729" lon="1.66939">
        <ele>104</ele>
        <time>2011-03-05T16:13:28Z</time>
      </trkpt>
      <trkpt lat="44.05723" lon="1.66946">
        <ele>104</ele>
        <time>2011-03-05T16:13:29Z</time>
      </trkpt>
      <trkpt lat="44.05717" lon="1.66951">
        <ele>104</ele>
        <time>2011-03-05T16:13:30Z</time>
      </trkpt>
      <trkpt lat="44.0571" lon="1.66955">
        <ele>104</ele>
        <time>2011-03-05T16:13:31Z</time>
      </trkpt>
      <trkpt lat="44.05697" lon="1.6696">
        <ele>104</ele>
        <time>2011-03-05T16:13:33Z</time>
      </trkpt>
      <trkpt lat="44.0569" lon="1.66961">
        <ele>104</ele>
        <time>2011-03-05T16:13:34Z</time>
      </trkpt>
      <trkpt lat="44.05672" lon="1.6696">
        <ele>104</ele>
        <time>2011-03-05T16:13:37Z</time>
      </trkpt>
      <trkpt lat="44.0563" lon="1.66956">
        <ele>104</ele>
        <time>2011-03-05T16:13:46Z</time>
      </trkpt>
      <trkpt lat="44.05628" lon="1.66958">
        <ele>104</ele>
        <time>2011-03-05T16:13:47Z</time>
      </trkpt>
      <trkpt lat="44.05626" lon="1.66962">
        <ele>104</ele>
        <time>2011-03-05T16:13:48Z</time>
      </trkpt>
      <trkpt lat="44.05624" lon="1.66967">
        <ele>104</ele>
        <time>2011-03-05T16:13:49Z</time>
      </trkpt>
      <trkpt lat="44.05624" lon="1.6698">
        <ele>103</ele>
        <time>2011-03-05T16:13:51Z</time>
      </trkpt>
      <trkpt lat="44.05626" lon="1.67008">
        <ele>102</ele>
        <time>2011-03-05T16:13:55Z</time>
      </trkpt>
      <trkpt lat="44.05627" lon="1.67021">
        <ele>102</ele>
        <time>2011-03-05T16:13:57Z</time>
      </trkpt>
      <trkpt lat="44.05628" lon="1.67042">
        <ele>102</ele>
        <time>2011-03-05T16:14:00Z</time>
      </trkpt>
      <trkpt lat="44.05626" lon="1.67056">
        <ele>102</ele>
        <time>2011-03-05T16:14:02Z</time>
      </trkpt>
      <trkpt lat="44.05621" lon="1.67068">
        <ele>102</ele>
        <time>2011-03-05T16:14:04Z</time>
      </trkpt>
      <trkpt lat="44.05613" lon="1.67077">
        <ele>102</ele>
        <time>2011-03-05T16:14:06Z</time>
      </trkpt>
      <trkpt lat="44.05593" lon="1.67091">
        <ele>102</ele>
        <time>2011-03-05T16:14:10Z</time>
      </trkpt>
      <trkpt lat="44.05573" lon="1.67104">
        <ele>102</ele>
        <time>2011-03-05T16:14:14Z</time>
      </trkpt>
      <trkpt lat="44.05569" lon="1.67104">
        <ele>102</ele>
        <time>2011-03-05T16:14:15Z</time>
      </trkpt>
      <trkpt lat="44.05566" lon="1.67102">
        <ele>102</ele>
        <time>2011-03-05T16:14:16Z</time>
      </trkpt>
      <trkpt lat="44.05566" lon="1.67097">
        <ele>102</ele>
        <time>2011-03-05T16:14:17Z</time>
      </trkpt>
      <trkpt lat="44.05567" lon="1.67092">
        <ele>102</ele>
        <time>2011-03-05T16:14:18Z</time>
      </trkpt>
      <trkpt lat="44.0557" lon="1.67087">
        <ele>101</ele>
        <time>2011-03-05T16:14:19Z</time>
      </trkpt>
      <trkpt lat="44.05574" lon="1.67085">
        <ele>101</ele>
        <time>2011-03-05T16:14:20Z</time>
      </trkpt>
      <trkpt lat="44.05595" lon="1.67073">
        <ele>100</ele>
        <time>2011-03-05T16:14:24Z</time>
      </trkpt>
      <trkpt lat="44.05605" lon="1.67063">
        <ele>99</ele>
        <time>2011-03-05T16:14:26Z</time>
      </trkpt>
      <trkpt lat="44.05607" lon="1.67058">
        <ele>99</ele>
        <time>2011-03-05T16:14:27Z</time>
      </trkpt>
      <trkpt lat="44.05607" lon="1.67054">
        <ele>98</ele>
        <time>2011-03-05T16:14:28Z</time>
      </trkpt>
      <trkpt lat="44.05605" lon="1.67051">
        <ele>98</ele>
        <time>2011-03-05T16:14:29Z</time>
      </trkpt>
      <trkpt lat="44.05597" lon="1.67044">
        <ele>97</ele>
        <time>2011-03-05T16:14:31Z</time>
      </trkpt>
      <trkpt lat="44.05588" lon="1.67038">
        <ele>97</ele>
        <time>2011-03-05T16:14:33Z</time>
      </trkpt>
      <trkpt lat="44.05565" lon="1.67028">
        <ele>97</ele>
        <time>2011-03-05T16:14:38Z</time>
      </trkpt>
      <trkpt lat="44.05561" lon="1.67024">
        <ele>97</ele>
        <time>2011-03-05T16:14:39Z</time>
      </trkpt>
      <trkpt lat="44.05558" lon="1.67019">
        <ele>97</ele>
        <time>2011-03-05T16:14:40Z</time>
      </trkpt>
      <trkpt lat="44.05556" lon="1.67008">
        <ele>97</ele>
        <time>2011-03-05T16:14:42Z</time>
      </trkpt>
      <trkpt lat="44.05555" lon="1.6699">
        <ele>97</ele>
        <time>2011-03-05T16:14:45Z</time>
      </trkpt>
      <trkpt lat="44.05553" lon="1.66973">
        <ele>97</ele>
        <time>2011-03-05T16:14:48Z</time>
      </trkpt>
      <trkpt lat="44.05553" lon="1.66962">
        <ele>97</ele>
        <time>2011-03-05T16:14:50Z</time>
      </trkpt>
      <trkpt lat="44.05552" lon="1.66955">
        <ele>97</ele>
        <time>2011-03-05T16:14:51Z</time>
      </trkpt>
      <trkpt lat="44.0555" lon="1.66947">
        <ele>98</ele>
        <time>2011-03-05T16:14:52Z</time>
      </trkpt>
      <trkpt lat="44.05544" lon="1.66936">
        <ele>100</ele>
        <time>2011-03-05T16:14:54Z</time>
      </trkpt>
      <trkpt lat="44.05524" lon="1.66907">
        <ele>106</ele>
        <time>2011-03-05T16:15:01Z</time>
      </trkpt>
      <trkpt lat="44.05516" lon="1.66898">
        <ele>106</ele>
        <time>2011-03-05T16:15:04Z</time>
      </trkpt>
      <trkpt lat="44.0549" lon="1.66863">
        <ele>106</ele>
        <time>2011-03-05T16:15:17Z</time>
      </trkpt>
      <trkpt lat="44.05487" lon="1.66858">
        <ele>106</ele>
        <time>2011-03-05T16:15:19Z</time>
      </trkpt>
      <trkpt lat="44.05483" lon="1.66853">
        <ele>106</ele>
        <time>2011-03-05T16:15:21Z</time>
      </trkpt>
      <trkpt lat="44.05478" lon="1.66846">
        <ele>106</ele>
        <time>2011-03-05T16:15:24Z</time>
      </trkpt>
      <trkpt lat="44.05472" lon="1.66833">
        <ele>107</ele>
        <time>2011-03-05T16:15:29Z</time>
      </trkpt>
      <trkpt lat="44.05468" lon="1.66827">
        <ele>107</ele>
        <time>2011-03-05T16:15:32Z</time>
      </trkpt>
      <trkpt lat="44.05459" lon="1.66818">
        <ele>107</ele>
        <time>2011-03-05T16:15:37Z</time>
      </trkpt>
      <trkpt lat="44.05449" lon="1.66805">
        <ele>108</ele>
        <time>2011-03-05T16:15:43Z</time>
      </trkpt>
      <trkpt lat="44.0544" lon="1.66795">
        <ele>110</ele>
        <time>2011-03-05T16:15:48Z</time>
      </trkpt>
      <trkpt lat="44.05434" lon="1.66787">
        <ele>111</ele>
        <time>2011-03-05T16:15:52Z</time>
      </trkpt>
      <trkpt lat="44.05423" lon="1.66776">
        <ele>112</ele>
        <time>2011-03-05T16:15:58Z</time>
      </trkpt>
      <trkpt lat="44.05413" lon="1.6676">
        <ele>114</ele>
        <time>2011-03-05T16:16:05Z</time>
      </trkpt>
      <trkpt lat="44.0541" lon="1.66755">
        <ele>115</ele>
        <time>2011-03-05T16:16:07Z</time>
      </trkpt>
      <trkpt lat="44.05408" lon="1.66743">
        <ele>116</ele>
        <time>2011-03-05T16:16:11Z</time>
      </trkpt>
      <trkpt lat="44.05403" lon="1.66722">
        <ele>118</ele>
        <time>2011-03-05T16:16:18Z</time>
      </trkpt>
      <trkpt lat="44.05398" lon="1.66697">
        <ele>119</ele>
        <time>2011-03-05T16:16:26Z</time>
      </trkpt>
      <trkpt lat="44.05396" lon="1.66678">
        <ele>119</ele>
        <time>2011-03-05T16:16:32Z</time>
      </trkpt>
      <trkpt lat="44.05397" lon="1.66626">
        <ele>120</ele>
        <time>2011-03-05T16:16:48Z</time>
      </trkpt>
      <trkpt lat="44.05398" lon="1.6661">
        <ele>121</ele>
        <time>2011-03-05T16:16:53Z</time>
      </trkpt>
      <trkpt lat="44.05396" lon="1.66591">
        <ele>123</ele>
        <time>2011-03-05T16:16:59Z</time>
      </trkpt>
      <trkpt lat="44.05396" lon="1.66561">
        <ele>125</ele>
        <time>2011-03-05T16:17:09Z</time>
      </trkpt>
      <trkpt lat="44.05398" lon="1.66549">
        <ele>125</ele>
        <time>2011-03-05T16:17:13Z</time>
      </trkpt>
      <trkpt lat="44.05398" lon="1.66544">
        <ele>126</ele>
        <time>2011-03-05T16:17:15Z</time>
      </trkpt>
      <trkpt lat="44.05397" lon="1.66539">
        <ele>126</ele>
        <time>2011-03-05T16:17:17Z</time>
      </trkpt>
      <trkpt lat="44.05396" lon="1.66535">
        <ele>126</ele>
        <time>2011-03-05T16:17:18Z</time>
      </trkpt>
      <trkpt lat="44.05394" lon="1.66533">
        <ele>128</ele>
        <time>2011-03-05T16:17:20Z</time>
      </trkpt>
      <trkpt lat="44.05388" lon="1.66534">
        <ele>129</ele>
        <time>2011-03-05T16:17:22Z</time>
      </trkpt>
      <trkpt lat="44.05382" lon="1.66538">
        <ele>130</ele>
        <time>2011-03-05T16:17:24Z</time>
      </trkpt>
      <trkpt lat="44.05371" lon="1.66543">
        <ele>133</ele>
        <time>2011-03-05T16:17:27Z</time>
      </trkpt>
      <trkpt lat="44.05368" lon="1.66543">
        <ele>134</ele>
        <time>2011-03-05T16:17:28Z</time>
      </trkpt>
      <trkpt lat="44.05366" lon="1.66542">
        <ele>135</ele>
        <time>2011-03-05T16:17:29Z</time>
      </trkpt>
      <trkpt lat="44.05343" lon="1.66551">
        <ele>141</ele>
        <time>2011-03-05T16:17:38Z</time>
      </trkpt>
      <trkpt lat="44.05328" lon="1.66553">
        <ele>141</ele>
        <time>2011-03-05T16:17:47Z</time>
      </trkpt>
      <trkpt lat="44.05318" lon="1.66556">
        <ele>141</ele>
        <time>2011-03-05T16:17:53Z</time>
      </trkpt>
      <trkpt lat="44.053" lon="1.66557">
        <ele>141</ele>
        <time>2011-03-05T16:18:05Z</time>
      </trkpt>
      <trkpt lat="44.05293" lon="1.66555">
        <ele>141</ele>
        <time>2011-03-05T16:18:10Z</time>
      </trkpt>
      <trkpt lat="44.05273" lon="1.66545">
        <ele>142</ele>
        <time>2011-03-05T16:18:24Z</time>
      </trkpt>
      <trkpt lat="44.05271" lon="1.66545">
        <ele>142</ele>
        <time>2011-03-05T16:18:27Z</time>
      </trkpt>
      <trkpt lat="44.05265" lon="1.66542">
        <ele>143</ele>
        <time>2011-03-05T16:18:38Z</time>
      </trkpt>
      <trkpt lat="44.05264" lon="1.66543">
        <ele>144</ele>
        <time>2011-03-05T16:18:41Z</time>
      </trkpt>
      <trkpt lat="44.05256" lon="1.66557">
        <ele>148</ele>
        <time>2011-03-05T16:19:01Z</time>
      </trkpt>
      <trkpt lat="44.05252" lon="1.66559">
        <ele>150</ele>
        <time>2011-03-05T16:19:09Z</time>
      </trkpt>
      <trkpt lat="44.05252" lon="1.66561">
        <ele>151</ele>
        <time>2011-03-05T16:19:11Z</time>
      </trkpt>
      <trkpt lat="44.0525" lon="1.66564">
        <ele>151</ele>
        <time>2011-03-05T16:19:17Z</time>
      </trkpt>
      <trkpt lat="44.05249" lon="1.66564">
        <ele>152</ele>
        <time>2011-03-05T16:19:19Z</time>
      </trkpt>
      <trkpt lat="44.05249" lon="1.66566">
        <ele>154</ele>
        <time>2011-03-05T16:19:28Z</time>
      </trkpt>
      <trkpt lat="44.05247" lon="1.66566">
        <ele>154</ele>
        <time>2011-03-05T16:19:32Z</time>
      </trkpt>
      <trkpt lat="44.05243" lon="1.66569">
        <ele>154</ele>
        <time>2011-03-05T16:19:37Z</time>
      </trkpt>
      <trkpt lat="44.05242" lon="1.66569">
        <ele>155</ele>
        <time>2011-03-05T16:19:39Z</time>
      </trkpt>
      <trkpt lat="44.05241" lon="1.6657">
        <ele>155</ele>
        <time>2011-03-05T16:19:45Z</time>
      </trkpt>
      <trkpt lat="44.05238" lon="1.66572">
        <ele>156</ele>
        <time>2011-03-05T16:19:49Z</time>
      </trkpt>
      <trkpt lat="44.0523" lon="1.6658">
        <ele>158</ele>
        <time>2011-03-05T16:20:06Z</time>
      </trkpt>
      <trkpt lat="44.05229" lon="1.66581">
        <ele>158</ele>
        <time>2011-03-05T16:20:08Z</time>
      </trkpt>
      <trkpt lat="44.05227" lon="1.66583">
        <ele>159</ele>
        <time>2011-03-05T16:20:12Z</time>
      </trkpt>
      <trkpt lat="44.05226" lon="1.66586">
        <ele>162</ele>
        <time>2011-03-05T16:20:16Z</time>
      </trkpt>
      <trkpt lat="44.0522" lon="1.66588">
        <ele>164</ele>
        <time>2011-03-05T16:20:23Z</time>
      </trkpt>
      <trkpt lat="44.05219" lon="1.6659">
        <ele>165</ele>
        <time>2011-03-05T16:20:26Z</time>
      </trkpt>
      <trkpt lat="44.05216" lon="1.66592">
        <ele>168</ele>
        <time>2011-03-05T16:20:36Z</time>
      </trkpt>
      <trkpt lat="44.05216" lon="1.66598">
        <ele>169</ele>
        <time>2011-03-05T16:20:43Z</time>
      </trkpt>
      <trkpt lat="44.05218" lon="1.66601">
        <ele>169</ele>
        <time>2011-03-05T16:20:48Z</time>
      </trkpt>
      <trkpt lat="44.05216" lon="1.66605">
        <ele>169</ele>
        <time>2011-03-05T16:20:54Z</time>
      </trkpt>
      <trkpt lat="44.05216" lon="1.66607">
        <ele>169</ele>
        <time>2011-03-05T16:20:56Z</time>
      </trkpt>
      <trkpt lat="44.05217" lon="1.66613">
        <ele>170</ele>
        <time>2011-03-05T16:21:02Z</time>
      </trkpt>
      <trkpt lat="44.05218" lon="1.66623">
        <ele>172</ele>
        <time>2011-03-05T16:21:10Z</time>
      </trkpt>
      <trkpt lat="44.0522" lon="1.66627">
        <ele>172</ele>
        <time>2011-03-05T16:21:14Z</time>
      </trkpt>
      <trkpt lat="44.05221" lon="1.66632">
        <ele>172</ele>
        <time>2011-03-05T16:21:18Z</time>
      </trkpt>
      <trkpt lat="44.05225" lon="1.66636">
        <ele>173</ele>
        <time>2011-03-05T16:21:25Z</time>
      </trkpt>
      <trkpt lat="44.05228" lon="1.66645">
        <ele>174</ele>
        <time>2011-03-05T16:21:35Z</time>
      </trkpt>
      <trkpt lat="44.05228" lon="1.66647">
        <ele>174</ele>
        <time>2011-03-05T16:21:37Z</time>
      </trkpt>
      <trkpt lat="44.05231" lon="1.66654">
        <ele>174</ele>
        <time>2011-03-05T16:21:45Z</time>
      </trkpt>
      <trkpt lat="44.05232" lon="1.66656">
        <ele>175</ele>
        <time>2011-03-05T16:21:47Z</time>
      </trkpt>
      <trkpt lat="44.05233" lon="1.66662">
        <ele>178</ele>
        <time>2011-03-05T16:21:59Z</time>
      </trkpt>
      <trkpt lat="44.05234" lon="1.66666">
        <ele>178</ele>
        <time>2011-03-05T16:22:03Z</time>
      </trkpt>
      <trkpt lat="44.05233" lon="1.66675">
        <ele>178</ele>
        <time>2011-03-05T16:22:16Z</time>
      </trkpt>
      <trkpt lat="44.05229" lon="1.66685">
        <ele>182</ele>
        <time>2011-03-05T16:22:32Z</time>
      </trkpt>
      <trkpt lat="44.05229" lon="1.6669">
        <ele>183</ele>
        <time>2011-03-05T16:22:39Z</time>
      </trkpt>
      <trkpt lat="44.05229" lon="1.66695">
        <ele>187</ele>
        <time>2011-03-05T16:23:02Z</time>
      </trkpt>
      <trkpt lat="44.05228" lon="1.66702">
        <ele>188</ele>
        <time>2011-03-05T16:23:08Z</time>
      </trkpt>
      <trkpt lat="44.05228" lon="1.66703">
        <ele>189</ele>
        <time>2011-03-05T16:23:10Z</time>
      </trkpt>
      <trkpt lat="44.05226" lon="1.66712">
        <ele>192</ele>
        <time>2011-03-05T16:23:21Z</time>
      </trkpt>
      <trkpt lat="44.05223" lon="1.66715">
        <ele>193</ele>
        <time>2011-03-05T16:23:26Z</time>
      </trkpt>
      <trkpt lat="44.05222" lon="1.6672">
        <ele>194</ele>
        <time>2011-03-05T16:23:32Z</time>
      </trkpt>
      <trkpt lat="44.05224" lon="1.66724">
        <ele>196</ele>
        <time>2011-03-05T16:23:38Z</time>
      </trkpt>
      <trkpt lat="44.05222" lon="1.6673">
        <ele>196</ele>
        <time>2011-03-05T16:23:45Z</time>
      </trkpt>
      <trkpt lat="44.05221" lon="1.66735">
        <ele>196</ele>
        <time>2011-03-05T16:23:51Z</time>
      </trkpt>
      <trkpt lat="44.05217" lon="1.6674">
        <ele>198</ele>
        <time>2011-03-05T16:23:58Z</time>
      </trkpt>
      <trkpt lat="44.05216" lon="1.66748">
        <ele>199</ele>
        <time>2011-03-05T16:24:06Z</time>
      </trkpt>
      <trkpt lat="44.05218" lon="1.66749">
        <ele>199</ele>
        <time>2011-03-05T16:24:08Z</time>
      </trkpt>
      <trkpt lat="44.05218" lon="1.66754">
        <ele>199</ele>
        <time>2011-03-05T16:24:12Z</time>
      </trkpt>
      <trkpt lat="44.05216" lon="1.66757">
        <ele>199</ele>
        <time>2011-03-05T16:24:18Z</time>
      </trkpt>
      <trkpt lat="44.05216" lon="1.66759">
        <ele>199</ele>
        <time>2011-03-05T16:24:21Z</time>
      </trkpt>
      <trkpt lat="44.05214" lon="1.66762">
        <ele>201</ele>
        <time>2011-03-05T16:24:26Z</time>
      </trkpt>
      <trkpt lat="44.05215" lon="1.66764">
        <ele>202</ele>
        <time>2011-03-05T16:24:29Z</time>
      </trkpt>
      <trkpt lat="44.05214" lon="1.6677">
        <ele>202</ele>
        <time>2011-03-05T16:24:37Z</time>
      </trkpt>
      <trkpt lat="44.05215" lon="1.66773">
        <ele>202</ele>
        <time>2011-03-05T16:24:41Z</time>
      </trkpt>
      <trkpt lat="44.05217" lon="1.66775">
        <ele>202</ele>
        <time>2011-03-05T16:24:50Z</time>
      </trkpt>
      <trkpt lat="44.05216" lon="1.66776">
        <ele>202</ele>
        <time>2011-03-05T16:24:56Z</time>
      </trkpt>
      <trkpt lat="44.05217" lon="1.66775">
        <ele>202</ele>
        <time>2011-03-05T16:25:07Z</time>
      </trkpt>
      <trkpt lat="44.05218" lon="1.66774">
        <ele>202</ele>
        <time>2011-03-05T16:25:11Z</time>
      </trkpt>
      <trkpt lat="44.05219" lon="1.66776">
        <ele>202</ele>
        <time>2011-03-05T16:25:13Z</time>
      </trkpt>
      <trkpt lat="44.05217" lon="1.66773">
        <ele>202</ele>
        <time>2011-03-05T16:25:21Z</time>
      </trkpt>
      <trkpt lat="44.05214" lon="1.66772">
        <ele>202</ele>
        <time>2011-03-05T16:25:26Z</time>
      </trkpt>
      <trkpt lat="44.05212" lon="1.66769">
        <ele>202</ele>
        <time>2011-03-05T16:25:33Z</time>
      </trkpt>
      <trkpt lat="44.05212" lon="1.66767">
        <ele>202</ele>
        <time>2011-03-05T16:25:35Z</time>
      </trkpt>
      <trkpt lat="44.0521" lon="1.66767">
        <ele>202</ele>
        <time>2011-03-05T16:25:40Z</time>
      </trkpt>
      <trkpt lat="44.05206" lon="1.66773">
        <ele>202</ele>
        <time>2011-03-05T16:25:50Z</time>
      </trkpt>
      <trkpt lat="44.05211" lon="1.66779">
        <ele>203</ele>
        <time>2011-03-05T16:25:59Z</time>
      </trkpt>
      <trkpt lat="44.05211" lon="1.66781">
        <ele>205</ele>
        <time>2011-03-05T16:26:01Z</time>
      </trkpt>
      <trkpt lat="44.05208" lon="1.66785">
        <ele>208</ele>
        <time>2011-03-05T16:26:06Z</time>
      </trkpt>
      <trkpt lat="44.05206" lon="1.66793">
        <ele>212</ele>
        <time>2011-03-05T16:26:17Z</time>
      </trkpt>
      <trkpt lat="44.05202" lon="1.66794">
        <ele>213</ele>
        <time>2011-03-05T16:26:21Z</time>
      </trkpt>
      <trkpt lat="44.05198" lon="1.66803">
        <ele>217</ele>
        <time>2011-03-05T16:26:36Z</time>
      </trkpt>
      <trkpt lat="44.05188" lon="1.6681">
        <ele>221</ele>
        <time>2011-03-05T16:26:49Z</time>
      </trkpt>
      <trkpt lat="44.05186" lon="1.66814">
        <ele>224</ele>
        <time>2011-03-05T16:26:55Z</time>
      </trkpt>
      <trkpt lat="44.05185" lon="1.66815">
        <ele>224</ele>
        <time>2011-03-05T16:26:56Z</time>
      </trkpt>
      <trkpt lat="44.05179" lon="1.66817">
        <ele>226</ele>
        <time>2011-03-05T16:27:03Z</time>
      </trkpt>
      <trkpt lat="44.05178" lon="1.66816">
        <ele>226</ele>
        <time>2011-03-05T16:27:06Z</time>
      </trkpt>
      <trkpt lat="44.05164" lon="1.66824">
        <ele>226</ele>
        <time>2011-03-05T16:27:23Z</time>
      </trkpt>
      <trkpt lat="44.0516" lon="1.66824">
        <ele>226</ele>
        <time>2011-03-05T16:27:27Z</time>
      </trkpt>
      <trkpt lat="44.05156" lon="1.66823">
        <ele>226</ele>
        <time>2011-03-05T16:27:31Z</time>
      </trkpt>
      <trkpt lat="44.05151" lon="1.66817">
        <ele>226</ele>
        <time>2011-03-05T16:27:39Z</time>
      </trkpt>
      <trkpt lat="44.05145" lon="1.66816">
        <ele>226</ele>
        <time>2011-03-05T16:27:46Z</time>
      </trkpt>
      <trkpt lat="44.05144" lon="1.66818">
        <ele>226</ele>
        <time>2011-03-05T16:27:50Z</time>
      </trkpt>
      <trkpt lat="44.05143" lon="1.66816">
        <ele>226</ele>
        <time>2011-03-05T16:27:57Z</time>
      </trkpt>
      <trkpt lat="44.05143" lon="1.66813">
        <ele>226</ele>
        <time>2011-03-05T16:28:08Z</time>
      </trkpt>
      <trkpt lat="44.0514" lon="1.66815">
        <ele>226</ele>
        <time>2011-03-05T16:28:29Z</time>
      </trkpt>
      <trkpt lat="44.0513" lon="1.66818">
        <ele>227</ele>
        <time>2011-03-05T16:28:36Z</time>
      </trkpt>
      <trkpt lat="44.05118" lon="1.66823">
        <ele>230</ele>
        <time>2011-03-05T16:28:44Z</time>
      </trkpt>
      <trkpt lat="44.05115" lon="1.66823">
        <ele>230</ele>
        <time>2011-03-05T16:28:46Z</time>
      </trkpt>
      <trkpt lat="44.05109" lon="1.6682">
        <ele>231</ele>
        <time>2011-03-05T16:28:50Z</time>
      </trkpt>
      <trkpt lat="44.05107" lon="1.66817">
        <ele>232</ele>
        <time>2011-03-05T16:28:52Z</time>
      </trkpt>
      <trkpt lat="44.05106" lon="1.66811">
        <ele>233</ele>
        <time>2011-03-05T16:28:55Z</time>
      </trkpt>
      <trkpt lat="44.05099" lon="1.66789">
        <ele>233</ele>
        <time>2011-03-05T16:29:06Z</time>
      </trkpt>
      <trkpt lat="44.05094" lon="1.66783">
        <ele>233</ele>
        <time>2011-03-05T16:29:10Z</time>
      </trkpt>
      <trkpt lat="44.0509" lon="1.66781">
        <ele>234</ele>
        <time>2011-03-05T16:29:13Z</time>
      </trkpt>
      <trkpt lat="44.05084" lon="1.66777">
        <ele>235</ele>
        <time>2011-03-05T16:29:17Z</time>
      </trkpt>
      <trkpt lat="44.05073" lon="1.66773">
        <ele>236</ele>
        <time>2011-03-05T16:29:24Z</time>
      </trkpt>
      <trkpt lat="44.05068" lon="1.66771">
        <ele>238</ele>
        <time>2011-03-05T16:29:27Z</time>
      </trkpt>
      <trkpt lat="44.05057" lon="1.66769">
        <ele>240</ele>
        <time>2011-03-05T16:29:34Z</time>
      </trkpt>
      <trkpt lat="44.05053" lon="1.66771">
        <ele>241</ele>
        <time>2011-03-05T16:29:37Z</time>
      </trkpt>
      <trkpt lat="44.05047" lon="1.66777">
        <ele>242</ele>
        <time>2011-03-05T16:29:42Z</time>
      </trkpt>
      <trkpt lat="44.05034" lon="1.66785">
        <ele>246</ele>
        <time>2011-03-05T16:29:53Z</time>
      </trkpt>
      <trkpt lat="44.05027" lon="1.66786">
        <ele>246</ele>
        <time>2011-03-05T16:29:58Z</time>
      </trkpt>
      <trkpt lat="44.05021" lon="1.66788">
        <ele>247</ele>
        <time>2011-03-05T16:30:02Z</time>
      </trkpt>
      <trkpt lat="44.05015" lon="1.66793">
        <ele>248</ele>
        <time>2011-03-05T16:30:07Z</time>
      </trkpt>
      <trkpt lat="44.05001" lon="1.66799">
        <ele>250</ele>
        <time>2011-03-05T16:30:18Z</time>
      </trkpt>
      <trkpt lat="44.04995" lon="1.668">
        <ele>252</ele>
        <time>2011-03-05T16:30:23Z</time>
      </trkpt>
      <trkpt lat="44.04988" lon="1.66797">
        <ele>253</ele>
        <time>2011-03-05T16:30:28Z</time>
      </trkpt>
      <trkpt lat="44.04985" lon="1.66797">
        <ele>253</ele>
        <time>2011-03-05T16:30:30Z</time>
      </trkpt>
      <trkpt lat="44.0498" lon="1.66798">
        <ele>254</ele>
        <time>2011-03-05T16:30:34Z</time>
      </trkpt>
      <trkpt lat="44.04977" lon="1.66801">
        <ele>254</ele>
        <time>2011-03-05T16:30:37Z</time>
      </trkpt>
      <trkpt lat="44.04974" lon="1.66802">
        <ele>254</ele>
        <time>2011-03-05T16:30:39Z</time>
      </trkpt>
      <trkpt lat="44.04969" lon="1.66802">
        <ele>255</ele>
        <time>2011-03-05T16:30:42Z</time>
      </trkpt>
      <trkpt lat="44.04964" lon="1.66801">
        <ele>256</ele>
        <time>2011-03-05T16:30:46Z</time>
      </trkpt>
      <trkpt lat="44.04958" lon="1.66797">
        <ele>257</ele>
        <time>2011-03-05T16:30:51Z</time>
      </trkpt>
      <trkpt lat="44.04955" lon="1.6679">
        <ele>257</ele>
        <time>2011-03-05T16:30:56Z</time>
      </trkpt>
      <trkpt lat="44.04956" lon="1.66782">
        <ele>258</ele>
        <time>2011-03-05T16:31:00Z</time>
      </trkpt>
      <trkpt lat="44.04955" lon="1.66781">
        <ele>258</ele>
        <time>2011-03-05T16:31:01Z</time>
      </trkpt>
      <trkpt lat="44.04953" lon="1.66778">
        <ele>258</ele>
        <time>2011-03-05T16:31:03Z</time>
      </trkpt>
      <trkpt lat="44.0495" lon="1.66774">
        <ele>259</ele>
        <time>2011-03-05T16:31:06Z</time>
      </trkpt>
      <trkpt lat="44.04947" lon="1.66768">
        <ele>261</ele>
        <time>2011-03-05T16:31:11Z</time>
      </trkpt>
      <trkpt lat="44.04946" lon="1.66766">
        <ele>262</ele>
        <time>2011-03-05T16:31:19Z</time>
      </trkpt>
      <trkpt lat="44.04944" lon="1.66757">
        <ele>264</ele>
        <time>2011-03-05T16:31:30Z</time>
      </trkpt>
      <trkpt lat="44.04942" lon="1.66755">
        <ele>264</ele>
        <time>2011-03-05T16:31:32Z</time>
      </trkpt>
      <trkpt lat="44.04937" lon="1.66751">
        <ele>265</ele>
        <time>2011-03-05T16:31:36Z</time>
      </trkpt>
      <trkpt lat="44.04933" lon="1.66749">
        <ele>265</ele>
        <time>2011-03-05T16:31:39Z</time>
      </trkpt>
      <trkpt lat="44.04931" lon="1.66747">
        <ele>266</ele>
        <time>2011-03-05T16:31:41Z</time>
      </trkpt>
      <trkpt lat="44.04921" lon="1.66735">
        <ele>269</ele>
        <time>2011-03-05T16:31:51Z</time>
      </trkpt>
      <trkpt lat="44.04915" lon="1.66728">
        <ele>270</ele>
        <time>2011-03-05T16:31:57Z</time>
      </trkpt>
      <trkpt lat="44.04909" lon="1.66724">
        <ele>272</ele>
        <time>2011-03-05T16:32:10Z</time>
      </trkpt>
      <trkpt lat="44.04904" lon="1.66724">
        <ele>273</ele>
        <time>2011-03-05T16:32:16Z</time>
      </trkpt>
      <trkpt lat="44.049" lon="1.66725">
        <ele>273</ele>
        <time>2011-03-05T16:32:20Z</time>
      </trkpt>
      <trkpt lat="44.04899" lon="1.66724">
        <ele>274</ele>
        <time>2011-03-05T16:32:22Z</time>
      </trkpt>
      <trkpt lat="44.04887" lon="1.66727">
        <ele>276</ele>
        <time>2011-03-05T16:32:36Z</time>
      </trkpt>
      <trkpt lat="44.04879" lon="1.66728">
        <ele>278</ele>
        <time>2011-03-05T16:32:46Z</time>
      </trkpt>
      <trkpt lat="44.04875" lon="1.66728">
        <ele>278</ele>
        <time>2011-03-05T16:32:50Z</time>
      </trkpt>
      <trkpt lat="44.04873" lon="1.66725">
        <ele>278</ele>
        <time>2011-03-05T16:33:31Z</time>
      </trkpt>
      <trkpt lat="44.04862" lon="1.66719">
        <ele>280</ele>
        <time>2011-03-05T16:33:39Z</time>
      </trkpt>
      <trkpt lat="44.04855" lon="1.66711">
        <ele>281</ele>
        <time>2011-03-05T16:33:45Z</time>
      </trkpt>
      <trkpt lat="44.0485" lon="1.66693">
        <ele>284</ele>
        <time>2011-03-05T16:33:54Z</time>
      </trkpt>
      <trkpt lat="44.04845" lon="1.66683">
        <ele>285</ele>
        <time>2011-03-05T16:34:00Z</time>
      </trkpt>
      <trkpt lat="44.04831" lon="1.6666">
        <ele>288</ele>
        <time>2011-03-05T16:34:13Z</time>
      </trkpt>
      <trkpt lat="44.04828" lon="1.66655">
        <ele>289</ele>
        <time>2011-03-05T16:34:16Z</time>
      </trkpt>
      <trkpt lat="44.04824" lon="1.66651">
        <ele>290</ele>
        <time>2011-03-05T16:34:19Z</time>
      </trkpt>
      <trkpt lat="44.04813" lon="1.66647">
        <ele>291</ele>
        <time>2011-03-05T16:34:25Z</time>
      </trkpt>
      <trkpt lat="44.04797" lon="1.66639">
        <ele>292</ele>
        <time>2011-03-05T16:34:34Z</time>
      </trkpt>
      <trkpt lat="44.04789" lon="1.66634">
        <ele>293</ele>
        <time>2011-03-05T16:34:39Z</time>
      </trkpt>
      <trkpt lat="44.04769" lon="1.66625">
        <ele>294</ele>
        <time>2011-03-05T16:34:50Z</time>
      </trkpt>
      <trkpt lat="44.04762" lon="1.66619">
        <ele>294</ele>
        <time>2011-03-05T16:34:54Z</time>
      </trkpt>
      <trkpt lat="44.04758" lon="1.66612">
        <ele>295</ele>
        <time>2011-03-05T16:34:57Z</time>
      </trkpt>
      <trkpt lat="44.04755" lon="1.66605">
        <ele>295</ele>
        <time>2011-03-05T16:35:00Z</time>
      </trkpt>
      <trkpt lat="44.04751" lon="1.66592">
        <ele>296</ele>
        <time>2011-03-05T16:35:05Z</time>
      </trkpt>
      <trkpt lat="44.04748" lon="1.66584">
        <ele>296</ele>
        <time>2011-03-05T16:35:08Z</time>
      </trkpt>
      <trkpt lat="44.04739" lon="1.66569">
        <ele>297</ele>
        <time>2011-03-05T16:35:14Z</time>
      </trkpt>
      <trkpt lat="44.04727" lon="1.66553">
        <ele>297</ele>
        <time>2011-03-05T16:35:20Z</time>
      </trkpt>
      <trkpt lat="44.04721" lon="1.66542">
        <ele>297</ele>
        <time>2011-03-05T16:35:23Z</time>
      </trkpt>
      <trkpt lat="44.04715" lon="1.66531">
        <ele>297</ele>
        <time>2011-03-05T16:35:26Z</time>
      </trkpt>
      <trkpt lat="44.04697" lon="1.66497">
        <ele>297</ele>
        <time>2011-03-05T16:35:33Z</time>
      </trkpt>
      <trkpt lat="44.04692" lon="1.66486">
        <ele>297</ele>
        <time>2011-03-05T16:35:35Z</time>
      </trkpt>
      <trkpt lat="44.04687" lon="1.66476">
        <ele>297</ele>
        <time>2011-03-05T16:35:37Z</time>
      </trkpt>
      <trkpt lat="44.04675" lon="1.66457">
        <ele>297</ele>
        <time>2011-03-05T16:35:41Z</time>
      </trkpt>
      <trkpt lat="44.04666" lon="1.66441">
        <ele>297</ele>
        <time>2011-03-05T16:35:44Z</time>
      </trkpt>
      <trkpt lat="44.04661" lon="1.6643">
        <ele>297</ele>
        <time>2011-03-05T16:35:46Z</time>
      </trkpt>
      <trkpt lat="44.04649" lon="1.66411">
        <ele>297</ele>
        <time>2011-03-05T16:35:50Z</time>
      </trkpt>
      <trkpt lat="44.04626" lon="1.66377">
        <ele>297</ele>
        <time>2011-03-05T16:35:57Z</time>
      </trkpt>
      <trkpt lat="44.0462" lon="1.66367">
        <ele>297</ele>
        <time>2011-03-05T16:35:59Z</time>
      </trkpt>
      <trkpt lat="44.0461" lon="1.66352">
        <ele>297</ele>
        <time>2011-03-05T16:36:02Z</time>
      </trkpt>
      <trkpt lat="44.04601" lon="1.66337">
        <ele>297</ele>
        <time>2011-03-05T16:36:05Z</time>
      </trkpt>
      <trkpt lat="44.0459" lon="1.66322">
        <ele>296</ele>
        <time>2011-03-05T16:36:08Z</time>
      </trkpt>
      <trkpt lat="44.04586" lon="1.66318">
        <ele>295</ele>
        <time>2011-03-05T16:36:09Z</time>
      </trkpt>
      <trkpt lat="44.04582" lon="1.66315">
        <ele>295</ele>
        <time>2011-03-05T16:36:10Z</time>
      </trkpt>
      <trkpt lat="44.04571" lon="1.6631">
        <ele>294</ele>
        <time>2011-03-05T16:36:12Z</time>
      </trkpt>
      <trkpt lat="44.04547" lon="1.66297">
        <ele>292</ele>
        <time>2011-03-05T16:36:16Z</time>
      </trkpt>
      <trkpt lat="44.04537" lon="1.66289">
        <ele>292</ele>
        <time>2011-03-05T16:36:18Z</time>
      </trkpt>
      <trkpt lat="44.04533" lon="1.66288">
        <ele>291</ele>
        <time>2011-03-05T16:36:19Z</time>
      </trkpt>
      <trkpt lat="44.04529" lon="1.6629">
        <ele>291</ele>
        <time>2011-03-05T16:36:20Z</time>
      </trkpt>
      <trkpt lat="44.04526" lon="1.66293">
        <ele>291</ele>
        <time>2011-03-05T16:36:21Z</time>
      </trkpt>
      <trkpt lat="44.04515" lon="1.66305">
        <ele>291</ele>
        <time>2011-03-05T16:36:24Z</time>
      </trkpt>
      <trkpt lat="44.04498" lon="1.6632">
        <ele>291</ele>
        <time>2011-03-05T16:36:29Z</time>
      </trkpt>
      <trkpt lat="44.04489" lon="1.66332">
        <ele>291</ele>
        <time>2011-03-05T16:36:32Z</time>
      </trkpt>
      <trkpt lat="44.04473" lon="1.66349">
        <ele>291</ele>
        <time>2011-03-05T16:36:37Z</time>
      </trkpt>
      <trkpt lat="44.04464" lon="1.66358">
        <ele>291</ele>
        <time>2011-03-05T16:36:40Z</time>
      </trkpt>
      <trkpt lat="44.04445" lon="1.6638">
        <ele>291</ele>
        <time>2011-03-05T16:36:47Z</time>
      </trkpt>
      <trkpt lat="44.04438" lon="1.66385">
        <ele>291</ele>
        <time>2011-03-05T16:36:49Z</time>
      </trkpt>
      <trkpt lat="44.04415" lon="1.66398">
        <ele>291</ele>
        <time>2011-03-05T16:36:56Z</time>
      </trkpt>
      <trkpt lat="44.04409" lon="1.664">
        <ele>291</ele>
        <time>2011-03-05T16:36:58Z</time>
      </trkpt>
      <trkpt lat="44.04393" lon="1.66403">
        <ele>292</ele>
        <time>2011-03-05T16:37:03Z</time>
      </trkpt>
      <trkpt lat="44.04385" lon="1.66402">
        <ele>293</ele>
        <time>2011-03-05T16:37:06Z</time>
      </trkpt>
      <trkpt lat="44.04381" lon="1.66401">
        <ele>293</ele>
        <time>2011-03-05T16:37:07Z</time>
      </trkpt>
      <trkpt lat="44.04373" lon="1.66393">
        <ele>294</ele>
        <time>2011-03-05T16:37:10Z</time>
      </trkpt>
      <trkpt lat="44.0437" lon="1.66389">
        <ele>294</ele>
        <time>2011-03-05T16:37:11Z</time>
      </trkpt>
      <trkpt lat="44.04367" lon="1.66381">
        <ele>295</ele>
        <time>2011-03-05T16:37:13Z</time>
      </trkpt>
      <trkpt lat="44.04364" lon="1.66373">
        <ele>295</ele>
        <time>2011-03-05T16:37:15Z</time>
      </trkpt>
      <trkpt lat="44.04362" lon="1.66368">
        <ele>296</ele>
        <time>2011-03-05T16:37:16Z</time>
      </trkpt>
      <trkpt lat="44.04361" lon="1.66356">
        <ele>296</ele>
        <time>2011-03-05T16:37:19Z</time>
      </trkpt>
      <trkpt lat="44.04356" lon="1.66334">
        <ele>297</ele>
        <time>2011-03-05T16:37:25Z</time>
      </trkpt>
      <trkpt lat="44.04353" lon="1.66323">
        <ele>298</ele>
        <time>2011-03-05T16:37:28Z</time>
      </trkpt>
      <trkpt lat="44.04353" lon="1.66308">
        <ele>298</ele>
        <time>2011-03-05T16:37:32Z</time>
      </trkpt>
      <trkpt lat="44.04346" lon="1.66242">
        <ele>301</ele>
        <time>2011-03-05T16:37:50Z</time>
      </trkpt>
      <trkpt lat="44.04343" lon="1.66228">
        <ele>301</ele>
        <time>2011-03-05T16:37:54Z</time>
      </trkpt>
      <trkpt lat="44.04338" lon="1.66215">
        <ele>302</ele>
        <time>2011-03-05T16:37:58Z</time>
      </trkpt>
      <trkpt lat="44.04332" lon="1.66204">
        <ele>302</ele>
        <time>2011-03-05T16:38:02Z</time>
      </trkpt>
      <trkpt lat="44.04327" lon="1.662">
        <ele>302</ele>
        <time>2011-03-05T16:38:04Z</time>
      </trkpt>
      <trkpt lat="44.04297" lon="1.66177">
        <ele>304</ele>
        <time>2011-03-05T16:38:17Z</time>
      </trkpt>
      <trkpt lat="44.04288" lon="1.66165">
        <ele>305</ele>
        <time>2011-03-05T16:38:22Z</time>
      </trkpt>
      <trkpt lat="44.04282" lon="1.66159">
        <ele>305</ele>
        <time>2011-03-05T16:38:25Z</time>
      </trkpt>
      <trkpt lat="44.04273" lon="1.66153">
        <ele>306</ele>
        <time>2011-03-05T16:38:29Z</time>
      </trkpt>
      <trkpt lat="44.04261" lon="1.66135">
        <ele>307</ele>
        <time>2011-03-05T16:38:36Z</time>
      </trkpt>
      <trkpt lat="44.04254" lon="1.66123">
        <ele>308</ele>
        <time>2011-03-05T16:38:41Z</time>
      </trkpt>
      <trkpt lat="44.04248" lon="1.66109">
        <ele>308</ele>
        <time>2011-03-05T16:38:46Z</time>
      </trkpt>
      <trkpt lat="44.04245" lon="1.66103">
        <ele>308</ele>
        <time>2011-03-05T16:38:48Z</time>
      </trkpt>
      <trkpt lat="44.04237" lon="1.66086">
        <ele>308</ele>
        <time>2011-03-05T16:38:53Z</time>
      </trkpt>
      <trkpt lat="44.04235" lon="1.66082">
        <ele>308</ele>
        <time>2011-03-05T16:38:54Z</time>
      </trkpt>
      <trkpt lat="44.04228" lon="1.66063">
        <ele>308</ele>
        <time>2011-03-05T16:38:58Z</time>
      </trkpt>
      <trkpt lat="44.04222" lon="1.66046">
        <ele>308</ele>
        <time>2011-03-05T16:39:01Z</time>
      </trkpt>
      <trkpt lat="44.04219" lon="1.6604">
        <ele>308</ele>
        <time>2011-03-05T16:39:02Z</time>
      </trkpt>
      <trkpt lat="44.04212" lon="1.6603">
        <ele>308</ele>
        <time>2011-03-05T16:39:04Z</time>
      </trkpt>
      <trkpt lat="44.04208" lon="1.66026">
        <ele>308</ele>
        <time>2011-03-05T16:39:05Z</time>
      </trkpt>
      <trkpt lat="44.04203" lon="1.66024">
        <ele>308</ele>
        <time>2011-03-05T16:39:06Z</time>
      </trkpt>
      <trkpt lat="44.04197" lon="1.66024">
        <ele>308</ele>
        <time>2011-03-05T16:39:07Z</time>
      </trkpt>
      <trkpt lat="44.04192" lon="1.66026">
        <ele>308</ele>
        <time>2011-03-05T16:39:08Z</time>
      </trkpt>
      <trkpt lat="44.04181" lon="1.66036">
        <ele>308</ele>
        <time>2011-03-05T16:39:11Z</time>
      </trkpt>
      <trkpt lat="44.04158" lon="1.66054">
        <ele>308</ele>
        <time>2011-03-05T16:39:17Z</time>
      </trkpt>
      <trkpt lat="44.04154" lon="1.66057">
        <ele>308</ele>
        <time>2011-03-05T16:39:18Z</time>
      </trkpt>
      <trkpt lat="44.04151" lon="1.66062">
        <ele>308</ele>
        <time>2011-03-05T16:39:19Z</time>
      </trkpt>
      <trkpt lat="44.04145" lon="1.66076">
        <ele>308</ele>
        <time>2011-03-05T16:39:22Z</time>
      </trkpt>
      <trkpt lat="44.04138" lon="1.66086">
        <ele>308</ele>
        <time>2011-03-05T16:39:25Z</time>
      </trkpt>
      <trkpt lat="44.04135" lon="1.66088">
        <ele>308</ele>
        <time>2011-03-05T16:39:26Z</time>
      </trkpt>
      <trkpt lat="44.04132" lon="1.66089">
        <ele>308</ele>
        <time>2011-03-05T16:39:27Z</time>
      </trkpt>
      <trkpt lat="44.04128" lon="1.66089">
        <ele>308</ele>
        <time>2011-03-05T16:39:28Z</time>
      </trkpt>
      <trkpt lat="44.04121" lon="1.66086">
        <ele>308</ele>
        <time>2011-03-05T16:39:30Z</time>
      </trkpt>
      <trkpt lat="44.04113" lon="1.66077">
        <ele>307</ele>
        <time>2011-03-05T16:39:32Z</time>
      </trkpt>
      <trkpt lat="44.041" lon="1.66047">
        <ele>305</ele>
        <time>2011-03-05T16:39:36Z</time>
      </trkpt>
      <trkpt lat="44.04088" lon="1.66025">
        <ele>303</ele>
        <time>2011-03-05T16:39:39Z</time>
      </trkpt>
      <trkpt lat="44.04063" lon="1.65991">
        <ele>300</ele>
        <time>2011-03-05T16:39:44Z</time>
      </trkpt>
      <trkpt lat="44.04037" lon="1.6596">
        <ele>295</ele>
        <time>2011-03-05T16:39:49Z</time>
      </trkpt>
      <trkpt lat="44.04034" lon="1.65954">
        <ele>294</ele>
        <time>2011-03-05T16:39:50Z</time>
      </trkpt>
      <trkpt lat="44.04031" lon="1.65946">
        <ele>293</ele>
        <time>2011-03-05T16:39:51Z</time>
      </trkpt>
      <trkpt lat="44.04031" lon="1.65938">
        <ele>292</ele>
        <time>2011-03-05T16:39:52Z</time>
      </trkpt>
      <trkpt lat="44.04033" lon="1.6593">
        <ele>291</ele>
        <time>2011-03-05T16:39:53Z</time>
      </trkpt>
      <trkpt lat="44.04035" lon="1.65923">
        <ele>290</ele>
        <time>2011-03-05T16:39:54Z</time>
      </trkpt>
      <trkpt lat="44.04045" lon="1.65902">
        <ele>288</ele>
        <time>2011-03-05T16:39:57Z</time>
      </trkpt>
      <trkpt lat="44.0405" lon="1.65889">
        <ele>288</ele>
        <time>2011-03-05T16:39:59Z</time>
      </trkpt>
      <trkpt lat="44.04054" lon="1.65874">
        <ele>286</ele>
        <time>2011-03-05T16:40:01Z</time>
      </trkpt>
      <trkpt lat="44.04059" lon="1.65856">
        <ele>285</ele>
        <time>2011-03-05T16:40:03Z</time>
      </trkpt>
      <trkpt lat="44.04062" lon="1.65839">
        <ele>283</ele>
        <time>2011-03-05T16:40:05Z</time>
      </trkpt>
      <trkpt lat="44.04062" lon="1.6583">
        <ele>282</ele>
        <time>2011-03-05T16:40:06Z</time>
      </trkpt>
      <trkpt lat="44.04059" lon="1.65823">
        <ele>281</ele>
        <time>2011-03-05T16:40:07Z</time>
      </trkpt>
      <trkpt lat="44.04054" lon="1.65817">
        <ele>280</ele>
        <time>2011-03-05T16:40:08Z</time>
      </trkpt>
      <trkpt lat="44.04048" lon="1.65813">
        <ele>279</ele>
        <time>2011-03-05T16:40:09Z</time>
      </trkpt>
      <trkpt lat="44.04027" lon="1.65802">
        <ele>277</ele>
        <time>2011-03-05T16:40:12Z</time>
      </trkpt>
      <trkpt lat="44.04011" lon="1.65794">
        <ele>275</ele>
        <time>2011-03-05T16:40:14Z</time>
      </trkpt>
      <trkpt lat="44.04003" lon="1.65791">
        <ele>274</ele>
        <time>2011-03-05T16:40:15Z</time>
      </trkpt>
      <trkpt lat="44.03968" lon="1.65783">
        <ele>270</ele>
        <time>2011-03-05T16:40:19Z</time>
      </trkpt>
      <trkpt lat="44.03959" lon="1.65779">
        <ele>269</ele>
        <time>2011-03-05T16:40:20Z</time>
      </trkpt>
      <trkpt lat="44.03951" lon="1.65772">
        <ele>268</ele>
        <time>2011-03-05T16:40:21Z</time>
      </trkpt>
      <trkpt lat="44.03935" lon="1.65755">
        <ele>266</ele>
        <time>2011-03-05T16:40:23Z</time>
      </trkpt>
      <trkpt lat="44.03918" lon="1.6574">
        <ele>264</ele>
        <time>2011-03-05T16:40:25Z</time>
      </trkpt>
      <trkpt lat="44.03903" lon="1.65729">
        <ele>262</ele>
        <time>2011-03-05T16:40:27Z</time>
      </trkpt>
      <trkpt lat="44.03896" lon="1.65726">
        <ele>262</ele>
        <time>2011-03-05T16:40:28Z</time>
      </trkpt>
      <trkpt lat="44.03889" lon="1.65724">
        <ele>262</ele>
        <time>2011-03-05T16:40:29Z</time>
      </trkpt>
      <trkpt lat="44.03882" lon="1.65723">
        <ele>262</ele>
        <time>2011-03-05T16:40:30Z</time>
      </trkpt>
      <trkpt lat="44.03865" lon="1.65727">
        <ele>262</ele>
        <time>2011-03-05T16:40:33Z</time>
      </trkpt>
      <trkpt lat="44.03832" lon="1.6573">
        <ele>262</ele>
        <time>2011-03-05T16:40:40Z</time>
      </trkpt>
      <trkpt lat="44.03815" lon="1.6573">
        <ele>262</ele>
        <time>2011-03-05T16:40:44Z</time>
      </trkpt>
      <trkpt lat="44.03802" lon="1.65726">
        <ele>262</ele>
        <time>2011-03-05T16:40:47Z</time>
      </trkpt>
      <trkpt lat="44.03794" lon="1.65721">
        <ele>262</ele>
        <time>2011-03-05T16:40:49Z</time>
      </trkpt>
      <trkpt lat="44.03786" lon="1.65713">
        <ele>262</ele>
        <time>2011-03-05T16:40:51Z</time>
      </trkpt>
      <trkpt lat="44.03783" lon="1.65708">
        <ele>262</ele>
        <time>2011-03-05T16:40:52Z</time>
      </trkpt>
      <trkpt lat="44.03743" lon="1.65633">
        <ele>263</ele>
        <time>2011-03-05T16:41:07Z</time>
      </trkpt>
      <trkpt lat="44.03731" lon="1.65617">
        <ele>265</ele>
        <time>2011-03-05T16:41:11Z</time>
      </trkpt>
      <trkpt lat="44.0372" lon="1.65606">
        <ele>266</ele>
        <time>2011-03-05T16:41:14Z</time>
      </trkpt>
      <trkpt lat="44.03712" lon="1.65601">
        <ele>266</ele>
        <time>2011-03-05T16:41:16Z</time>
      </trkpt>
      <trkpt lat="44.03705" lon="1.65596">
        <ele>267</ele>
        <time>2011-03-05T16:41:18Z</time>
      </trkpt>
      <trkpt lat="44.03701" lon="1.65595">
        <ele>267</ele>
        <time>2011-03-05T16:41:19Z</time>
      </trkpt>
      <trkpt lat="44.03666" lon="1.65589">
        <ele>269</ele>
        <time>2011-03-05T16:41:27Z</time>
      </trkpt>
      <trkpt lat="44.03616" lon="1.65587">
        <ele>272</ele>
        <time>2011-03-05T16:41:39Z</time>
      </trkpt>
      <trkpt lat="44.03592" lon="1.65589">
        <ele>273</ele>
        <time>2011-03-05T16:41:45Z</time>
      </trkpt>
      <trkpt lat="44.0356" lon="1.65589">
        <ele>273</ele>
        <time>2011-03-05T16:41:52Z</time>
      </trkpt>
      <trkpt lat="44.03523" lon="1.65584">
        <ele>273</ele>
        <time>2011-03-05T16:41:59Z</time>
      </trkpt>
      <trkpt lat="44.03493" lon="1.65582">
        <ele>273</ele>
        <time>2011-03-05T16:42:04Z</time>
      </trkpt>
      <trkpt lat="44.03426" lon="1.65579">
        <ele>273</ele>
        <time>2011-03-05T16:42:16Z</time>
      </trkpt>
      <trkpt lat="44.0341" lon="1.6558">
        <ele>273</ele>
        <time>2011-03-05T16:42:19Z</time>
      </trkpt>
      <trkpt lat="44.034" lon="1.65583">
        <ele>273</ele>
        <time>2011-03-05T16:42:21Z</time>
      </trkpt>
      <trkpt lat="44.03376" lon="1.65591">
        <ele>273</ele>
        <time>2011-03-05T16:42:26Z</time>
      </trkpt>
      <trkpt lat="44.03342" lon="1.6561">
        <ele>274</ele>
        <time>2011-03-05T16:42:34Z</time>
      </trkpt>
      <trkpt lat="44.03285" lon="1.65642">
        <ele>276</ele>
        <time>2011-03-05T16:42:47Z</time>
      </trkpt>
      <trkpt lat="44.03276" lon="1.65646">
        <ele>276</ele>
        <time>2011-03-05T16:42:49Z</time>
      </trkpt>
      <trkpt lat="44.03201" lon="1.65689">
        <ele>279</ele>
        <time>2011-03-05T16:43:06Z</time>
      </trkpt>
      <trkpt lat="44.0314" lon="1.65721">
        <ele>282</ele>
        <time>2011-03-05T16:43:20Z</time>
      </trkpt>
      <trkpt lat="44.03119" lon="1.65732">
        <ele>283</ele>
        <time>2011-03-05T16:43:25Z</time>
      </trkpt>
      <trkpt lat="44.03093" lon="1.65743">
        <ele>283</ele>
        <time>2011-03-05T16:43:31Z</time>
      </trkpt>
      <trkpt lat="44.03066" lon="1.6575">
        <ele>283</ele>
        <time>2011-03-05T16:43:37Z</time>
      </trkpt>
      <trkpt lat="44.03048" lon="1.65754">
        <ele>283</ele>
        <time>2011-03-05T16:43:41Z</time>
      </trkpt>
      <trkpt lat="44.03002" lon="1.65767">
        <ele>284</ele>
        <time>2011-03-05T16:43:51Z</time>
      </trkpt>
      <trkpt lat="44.02959" lon="1.65784">
        <ele>284</ele>
        <time>2011-03-05T16:44:00Z</time>
      </trkpt>
      <trkpt lat="44.02945" lon="1.65792">
        <ele>284</ele>
        <time>2011-03-05T16:44:03Z</time>
      </trkpt>
      <trkpt lat="44.02935" lon="1.65798">
        <ele>284</ele>
        <time>2011-03-05T16:44:05Z</time>
      </trkpt>
      <trkpt lat="44.02922" lon="1.6581">
        <ele>284</ele>
        <time>2011-03-05T16:44:08Z</time>
      </trkpt>
      <trkpt lat="44.02911" lon="1.65825">
        <ele>284</ele>
        <time>2011-03-05T16:44:11Z</time>
      </trkpt>
      <trkpt lat="44.029" lon="1.65842">
        <ele>284</ele>
        <time>2011-03-05T16:44:14Z</time>
      </trkpt>
      <trkpt lat="44.02856" lon="1.65913">
        <ele>284</ele>
        <time>2011-03-05T16:44:25Z</time>
      </trkpt>
      <trkpt lat="44.0285" lon="1.6592">
        <ele>284</ele>
        <time>2011-03-05T16:44:26Z</time>
      </trkpt>
      <trkpt lat="44.02844" lon="1.65927">
        <ele>284</ele>
        <time>2011-03-05T16:44:27Z</time>
      </trkpt>
      <trkpt lat="44.02837" lon="1.65932">
        <ele>284</ele>
        <time>2011-03-05T16:44:28Z</time>
      </trkpt>
      <trkpt lat="44.02829" lon="1.65934">
        <ele>284</ele>
        <time>2011-03-05T16:44:29Z</time>
      </trkpt>
      <trkpt lat="44.0282" lon="1.65933">
        <ele>283</ele>
        <time>2011-03-05T16:44:30Z</time>
      </trkpt>
      <trkpt lat="44.02812" lon="1.65929">
        <ele>282</ele>
        <time>2011-03-05T16:44:31Z</time>
      </trkpt>
      <trkpt lat="44.02798" lon="1.65916">
        <ele>281</ele>
        <time>2011-03-05T16:44:33Z</time>
      </trkpt>
      <trkpt lat="44.02777" lon="1.65894">
        <ele>278</ele>
        <time>2011-03-05T16:44:36Z</time>
      </trkpt>
      <trkpt lat="44.0277" lon="1.65889">
        <ele>277</ele>
        <time>2011-03-05T16:44:37Z</time>
      </trkpt>
      <trkpt lat="44.02762" lon="1.65884">
        <ele>276</ele>
        <time>2011-03-05T16:44:38Z</time>
      </trkpt>
      <trkpt lat="44.02754" lon="1.6588">
        <ele>276</ele>
        <time>2011-03-05T16:44:39Z</time>
      </trkpt>
      <trkpt lat="44.02745" lon="1.65878">
        <ele>275</ele>
        <time>2011-03-05T16:44:40Z</time>
      </trkpt>
      <trkpt lat="44.02718" lon="1.65876">
        <ele>273</ele>
        <time>2011-03-05T16:44:43Z</time>
      </trkpt>
      <trkpt lat="44.0269" lon="1.65878">
        <ele>271</ele>
        <time>2011-03-05T16:44:46Z</time>
      </trkpt>
      <trkpt lat="44.0268" lon="1.6588">
        <ele>270</ele>
        <time>2011-03-05T16:44:47Z</time>
      </trkpt>
      <trkpt lat="44.02671" lon="1.65884">
        <ele>269</ele>
        <time>2011-03-05T16:44:48Z</time>
      </trkpt>
      <trkpt lat="44.02662" lon="1.6589">
        <ele>269</ele>
        <time>2011-03-05T16:44:49Z</time>
      </trkpt>
      <trkpt lat="44.02653" lon="1.65896">
        <ele>268</ele>
        <time>2011-03-05T16:44:50Z</time>
      </trkpt>
      <trkpt lat="44.02637" lon="1.65913">
        <ele>267</ele>
        <time>2011-03-05T16:44:52Z</time>
      </trkpt>
      <trkpt lat="44.0261" lon="1.65949">
        <ele>266</ele>
        <time>2011-03-05T16:44:56Z</time>
      </trkpt>
      <trkpt lat="44.02567" lon="1.6601">
        <ele>264</ele>
        <time>2011-03-05T16:45:03Z</time>
      </trkpt>
      <trkpt lat="44.02538" lon="1.66054">
        <ele>262</ele>
        <time>2011-03-05T16:45:08Z</time>
      </trkpt>
      <trkpt lat="44.02515" lon="1.66091">
        <ele>261</ele>
        <time>2011-03-05T16:45:12Z</time>
      </trkpt>
      <trkpt lat="44.02505" lon="1.6611">
        <ele>259</ele>
        <time>2011-03-05T16:45:14Z</time>
      </trkpt>
      <trkpt lat="44.02502" lon="1.6612">
        <ele>259</ele>
        <time>2011-03-05T16:45:15Z</time>
      </trkpt>
      <trkpt lat="44.025" lon="1.66131">
        <ele>258</ele>
        <time>2011-03-05T16:45:16Z</time>
      </trkpt>
      <trkpt lat="44.025" lon="1.66143">
        <ele>258</ele>
        <time>2011-03-05T16:45:17Z</time>
      </trkpt>
      <trkpt lat="44.02501" lon="1.66155">
        <ele>257</ele>
        <time>2011-03-05T16:45:18Z</time>
      </trkpt>
      <trkpt lat="44.02505" lon="1.66179">
        <ele>256</ele>
        <time>2011-03-05T16:45:20Z</time>
      </trkpt>
      <trkpt lat="44.02508" lon="1.6619">
        <ele>256</ele>
        <time>2011-03-05T16:45:21Z</time>
      </trkpt>
      <trkpt lat="44.02514" lon="1.66223">
        <ele>254</ele>
        <time>2011-03-05T16:45:24Z</time>
      </trkpt>
      <trkpt lat="44.02515" lon="1.66244">
        <ele>252</ele>
        <time>2011-03-05T16:45:26Z</time>
      </trkpt>
      <trkpt lat="44.02517" lon="1.66288">
        <ele>250</ele>
        <time>2011-03-05T16:45:31Z</time>
      </trkpt>
      <trkpt lat="44.02516" lon="1.66294">
        <ele>250</ele>
        <time>2011-03-05T16:45:32Z</time>
      </trkpt>
      <trkpt lat="44.02513" lon="1.66296">
        <ele>249</ele>
        <time>2011-03-05T16:45:33Z</time>
      </trkpt>
      <trkpt lat="44.0251" lon="1.66295">
        <ele>249</ele>
        <time>2011-03-05T16:45:34Z</time>
      </trkpt>
      <trkpt lat="44.02507" lon="1.66293">
        <ele>249</ele>
        <time>2011-03-05T16:45:35Z</time>
      </trkpt>
      <trkpt lat="44.02496" lon="1.66285">
        <ele>248</ele>
        <time>2011-03-05T16:45:38Z</time>
      </trkpt>
      <trkpt lat="44.02448" lon="1.66254">
        <ele>246</ele>
        <time>2011-03-05T16:45:47Z</time>
      </trkpt>
      <trkpt lat="44.02422" lon="1.66234">
        <ele>245</ele>
        <time>2011-03-05T16:45:51Z</time>
      </trkpt>
      <trkpt lat="44.02409" lon="1.66225">
        <ele>244</ele>
        <time>2011-03-05T16:45:53Z</time>
      </trkpt>
      <trkpt lat="44.02397" lon="1.66218">
        <ele>242</ele>
        <time>2011-03-05T16:45:55Z</time>
      </trkpt>
      <trkpt lat="44.02384" lon="1.66215">
        <ele>241</ele>
        <time>2011-03-05T16:45:57Z</time>
      </trkpt>
      <trkpt lat="44.02377" lon="1.66216">
        <ele>240</ele>
        <time>2011-03-05T16:45:58Z</time>
      </trkpt>
      <trkpt lat="44.02349" lon="1.66225">
        <ele>237</ele>
        <time>2011-03-05T16:46:02Z</time>
      </trkpt>
      <trkpt lat="44.02335" lon="1.66227">
        <ele>235</ele>
        <time>2011-03-05T16:46:04Z</time>
      </trkpt>
      <trkpt lat="44.02307" lon="1.66228">
        <ele>233</ele>
        <time>2011-03-05T16:46:09Z</time>
      </trkpt>
      <trkpt lat="44.02262" lon="1.66243">
        <ele>233</ele>
        <time>2011-03-05T16:46:18Z</time>
      </trkpt>
      <trkpt lat="44.02245" lon="1.66246">
        <ele>233</ele>
        <time>2011-03-05T16:46:22Z</time>
      </trkpt>
      <trkpt lat="44.0222" lon="1.66248">
        <ele>233</ele>
        <time>2011-03-05T16:46:29Z</time>
      </trkpt>
      <trkpt lat="44.02176" lon="1.66244">
        <ele>233</ele>
        <time>2011-03-05T16:46:39Z</time>
      </trkpt>
      <trkpt lat="44.02162" lon="1.66244">
        <ele>233</ele>
        <time>2011-03-05T16:46:41Z</time>
      </trkpt>
      <trkpt lat="44.02148" lon="1.66249">
        <ele>231</ele>
        <time>2011-03-05T16:46:43Z</time>
      </trkpt>
      <trkpt lat="44.02134" lon="1.66256">
        <ele>231</ele>
        <time>2011-03-05T16:46:45Z</time>
      </trkpt>
      <trkpt lat="44.02107" lon="1.66273">
        <ele>229</ele>
        <time>2011-03-05T16:46:49Z</time>
      </trkpt>
      <trkpt lat="44.02088" lon="1.66287">
        <ele>228</ele>
        <time>2011-03-05T16:46:52Z</time>
      </trkpt>
      <trkpt lat="44.02076" lon="1.66295">
        <ele>228</ele>
        <time>2011-03-05T16:46:54Z</time>
      </trkpt>
      <trkpt lat="44.02036" lon="1.66325">
        <ele>225</ele>
        <time>2011-03-05T16:47:04Z</time>
      </trkpt>
      <trkpt lat="44.02029" lon="1.66328">
        <ele>225</ele>
        <time>2011-03-05T16:47:06Z</time>
      </trkpt>
      <trkpt lat="44.01984" lon="1.66343">
        <ele>224</ele>
        <time>2011-03-05T16:47:17Z</time>
      </trkpt>
      <trkpt lat="44.01972" lon="1.66349">
        <ele>223</ele>
        <time>2011-03-05T16:47:20Z</time>
      </trkpt>
      <trkpt lat="44.01952" lon="1.66358">
        <ele>223</ele>
        <time>2011-03-05T16:47:25Z</time>
      </trkpt>
      <trkpt lat="44.01923" lon="1.66366">
        <ele>221</ele>
        <time>2011-03-05T16:47:33Z</time>
      </trkpt>
      <trkpt lat="44.01915" lon="1.66367">
        <ele>221</ele>
        <time>2011-03-05T16:47:35Z</time>
      </trkpt>
      <trkpt lat="44.0189" lon="1.66372">
        <ele>220</ele>
        <time>2011-03-05T16:47:40Z</time>
      </trkpt>
      <trkpt lat="44.01846" lon="1.66381">
        <ele>217</ele>
        <time>2011-03-05T16:47:48Z</time>
      </trkpt>
      <trkpt lat="44.01772" lon="1.66386">
        <ele>216</ele>
        <time>2011-03-05T16:48:01Z</time>
      </trkpt>
      <trkpt lat="44.01737" lon="1.66382">
        <ele>216</ele>
        <time>2011-03-05T16:48:08Z</time>
      </trkpt>
      <trkpt lat="44.01718" lon="1.66382">
        <ele>216</ele>
        <time>2011-03-05T16:48:12Z</time>
      </trkpt>
      <trkpt lat="44.017" lon="1.66381">
        <ele>216</ele>
        <time>2011-03-05T16:48:16Z</time>
      </trkpt>
      <trkpt lat="44.01648" lon="1.66379">
        <ele>216</ele>
        <time>2011-03-05T16:48:28Z</time>
      </trkpt>
      <trkpt lat="44.01644" lon="1.6638">
        <ele>216</ele>
        <time>2011-03-05T16:48:29Z</time>
      </trkpt>
      <trkpt lat="44.01636" lon="1.66384">
        <ele>216</ele>
        <time>2011-03-05T16:48:31Z</time>
      </trkpt>
      <trkpt lat="44.01632" lon="1.66386">
        <ele>216</ele>
        <time>2011-03-05T16:48:32Z</time>
      </trkpt>
      <trkpt lat="44.0161" lon="1.66409">
        <ele>216</ele>
        <time>2011-03-05T16:48:38Z</time>
      </trkpt>
      <trkpt lat="44.01598" lon="1.66419">
        <ele>216</ele>
        <time>2011-03-05T16:48:41Z</time>
      </trkpt>
      <trkpt lat="44.01589" lon="1.66426">
        <ele>216</ele>
        <time>2011-03-05T16:48:43Z</time>
      </trkpt>
      <trkpt lat="44.01571" lon="1.66434">
        <ele>216</ele>
        <time>2011-03-05T16:48:47Z</time>
      </trkpt>
      <trkpt lat="44.01557" lon="1.66439">
        <ele>216</ele>
        <time>2011-03-05T16:48:50Z</time>
      </trkpt>
      <trkpt lat="44.01448" lon="1.66466">
        <ele>218</ele>
        <time>2011-03-05T16:49:13Z</time>
      </trkpt>
      <trkpt lat="44.01413" lon="1.66471">
        <ele>218</ele>
        <time>2011-03-05T16:49:18Z</time>
      </trkpt>
      <trkpt lat="44.01398" lon="1.66474">
        <ele>218</ele>
        <time>2011-03-05T16:49:20Z</time>
      </trkpt>
      <trkpt lat="44.01378" lon="1.6648">
        <ele>218</ele>
        <time>2011-03-05T16:49:23Z</time>
      </trkpt>
      <trkpt lat="44.01373" lon="1.66482">
        <ele>218</ele>
        <time>2011-03-05T16:49:24Z</time>
      </trkpt>
      <trkpt lat="44.01369" lon="1.66486">
        <ele>218</ele>
        <time>2011-03-05T16:49:25Z</time>
      </trkpt>
      <trkpt lat="44.01365" lon="1.66492">
        <ele>218</ele>
        <time>2011-03-05T16:49:26Z</time>
      </trkpt>
      <trkpt lat="44.01346" lon="1.66528">
        <ele>216</ele>
        <time>2011-03-05T16:49:31Z</time>
      </trkpt>
      <trkpt lat="44.01337" lon="1.66543">
        <ele>215</ele>
        <time>2011-03-05T16:49:33Z</time>
      </trkpt>
      <trkpt lat="44.01312" lon="1.66582">
        <ele>213</ele>
        <time>2011-03-05T16:49:38Z</time>
      </trkpt>
      <trkpt lat="44.01301" lon="1.66597">
        <ele>212</ele>
        <time>2011-03-05T16:49:40Z</time>
      </trkpt>
      <trkpt lat="44.01288" lon="1.66618">
        <ele>209</ele>
        <time>2011-03-05T16:49:43Z</time>
      </trkpt>
      <trkpt lat="44.01278" lon="1.66643">
        <ele>207</ele>
        <time>2011-03-05T16:49:46Z</time>
      </trkpt>
      <trkpt lat="44.01275" lon="1.66653">
        <ele>206</ele>
        <time>2011-03-05T16:49:47Z</time>
      </trkpt>
      <trkpt lat="44.01269" lon="1.66684">
        <ele>203</ele>
        <time>2011-03-05T16:49:50Z</time>
      </trkpt>
      <trkpt lat="44.01258" lon="1.66727">
        <ele>199</ele>
        <time>2011-03-05T16:49:54Z</time>
      </trkpt>
      <trkpt lat="44.01245" lon="1.66757">
        <ele>196</ele>
        <time>2011-03-05T16:49:57Z</time>
      </trkpt>
      <trkpt lat="44.01236" lon="1.66776">
        <ele>194</ele>
        <time>2011-03-05T16:49:59Z</time>
      </trkpt>
      <trkpt lat="44.01231" lon="1.66797">
        <ele>192</ele>
        <time>2011-03-05T16:50:01Z</time>
      </trkpt>
      <trkpt lat="44.01231" lon="1.66807">
        <ele>192</ele>
        <time>2011-03-05T16:50:02Z</time>
      </trkpt>
      <trkpt lat="44.01232" lon="1.66816">
        <ele>191</ele>
        <time>2011-03-05T16:50:03Z</time>
      </trkpt>
      <trkpt lat="44.01235" lon="1.66824">
        <ele>190</ele>
        <time>2011-03-05T16:50:04Z</time>
      </trkpt>
      <trkpt lat="44.0124" lon="1.66831">
        <ele>190</ele>
        <time>2011-03-05T16:50:05Z</time>
      </trkpt>
      <trkpt lat="44.01247" lon="1.66834">
        <ele>189</ele>
        <time>2011-03-05T16:50:06Z</time>
      </trkpt>
      <trkpt lat="44.01253" lon="1.66836">
        <ele>188</ele>
        <time>2011-03-05T16:50:07Z</time>
      </trkpt>
      <trkpt lat="44.01271" lon="1.66838">
        <ele>186</ele>
        <time>2011-03-05T16:50:10Z</time>
      </trkpt>
      <trkpt lat="44.01276" lon="1.66842">
        <ele>186</ele>
        <time>2011-03-05T16:50:11Z</time>
      </trkpt>
      <trkpt lat="44.01284" lon="1.66855">
        <ele>185</ele>
        <time>2011-03-05T16:50:13Z</time>
      </trkpt>
      <trkpt lat="44.01286" lon="1.66864">
        <ele>184</ele>
        <time>2011-03-05T16:50:14Z</time>
      </trkpt>
      <trkpt lat="44.01287" lon="1.66882">
        <ele>182</ele>
        <time>2011-03-05T16:50:16Z</time>
      </trkpt>
      <trkpt lat="44.01287" lon="1.669">
        <ele>181</ele>
        <time>2011-03-05T16:50:18Z</time>
      </trkpt>
      <trkpt lat="44.01286" lon="1.66908">
        <ele>180</ele>
        <time>2011-03-05T16:50:19Z</time>
      </trkpt>
      <trkpt lat="44.01281" lon="1.66934">
        <ele>178</ele>
        <time>2011-03-05T16:50:22Z</time>
      </trkpt>
      <trkpt lat="44.01276" lon="1.66949">
        <ele>176</ele>
        <time>2011-03-05T16:50:24Z</time>
      </trkpt>
      <trkpt lat="44.01262" lon="1.66992">
        <ele>172</ele>
        <time>2011-03-05T16:50:29Z</time>
      </trkpt>
      <trkpt lat="44.01258" lon="1.6701">
        <ele>170</ele>
        <time>2011-03-05T16:50:31Z</time>
      </trkpt>
      <trkpt lat="44.01253" lon="1.67027">
        <ele>168</ele>
        <time>2011-03-05T16:50:33Z</time>
      </trkpt>
      <trkpt lat="44.01248" lon="1.67052">
        <ele>165</ele>
        <time>2011-03-05T16:50:36Z</time>
      </trkpt>
      <trkpt lat="44.01244" lon="1.67069">
        <ele>163</ele>
        <time>2011-03-05T16:50:38Z</time>
      </trkpt>
      <trkpt lat="44.01243" lon="1.67077">
        <ele>162</ele>
        <time>2011-03-05T16:50:39Z</time>
      </trkpt>
      <trkpt lat="44.01244" lon="1.67115">
        <ele>160</ele>
        <time>2011-03-05T16:50:43Z</time>
      </trkpt>
      <trkpt lat="44.01244" lon="1.67166">
        <ele>156</ele>
        <time>2011-03-05T16:50:47Z</time>
      </trkpt>
      <trkpt lat="44.01246" lon="1.67187">
        <ele>154</ele>
        <time>2011-03-05T16:50:49Z</time>
      </trkpt>
      <trkpt lat="44.01254" lon="1.67248">
        <ele>149</ele>
        <time>2011-03-05T16:50:55Z</time>
      </trkpt>
      <trkpt lat="44.01255" lon="1.67271">
        <ele>148</ele>
        <time>2011-03-05T16:50:59Z</time>
      </trkpt>
      <trkpt lat="44.01254" lon="1.67284">
        <ele>147</ele>
        <time>2011-03-05T16:51:01Z</time>
      </trkpt>
      <trkpt lat="44.01254" lon="1.67305">
        <ele>146</ele>
        <time>2011-03-05T16:51:04Z</time>
      </trkpt>
      <trkpt lat="44.01251" lon="1.67342">
        <ele>145</ele>
        <time>2011-03-05T16:51:09Z</time>
      </trkpt>
      <trkpt lat="44.01244" lon="1.67388">
        <ele>145</ele>
        <time>2011-03-05T16:51:15Z</time>
      </trkpt>
      <trkpt lat="44.01241" lon="1.67403">
        <ele>144</ele>
        <time>2011-03-05T16:51:17Z</time>
      </trkpt>
      <trkpt lat="44.0124" lon="1.67417">
        <ele>144</ele>
        <time>2011-03-05T16:51:19Z</time>
      </trkpt>
      <trkpt lat="44.0124" lon="1.6743">
        <ele>144</ele>
        <time>2011-03-05T16:51:21Z</time>
      </trkpt>
      <trkpt lat="44.01242" lon="1.67454">
        <ele>144</ele>
        <time>2011-03-05T16:51:25Z</time>
      </trkpt>
      <trkpt lat="44.01242" lon="1.67473">
        <ele>144</ele>
        <time>2011-03-05T16:51:28Z</time>
      </trkpt>
      <trkpt lat="44.0124" lon="1.67488">
        <ele>144</ele>
        <time>2011-03-05T16:51:30Z</time>
      </trkpt>
      <trkpt lat="44.01237" lon="1.6751">
        <ele>144</ele>
        <time>2011-03-05T16:51:33Z</time>
      </trkpt>
      <trkpt lat="44.01228" lon="1.67549">
        <ele>141</ele>
        <time>2011-03-05T16:51:38Z</time>
      </trkpt>
      <trkpt lat="44.01213" lon="1.67601">
        <ele>136</ele>
        <time>2011-03-05T16:51:45Z</time>
      </trkpt>
      <trkpt lat="44.01202" lon="1.67644">
        <ele>131</ele>
        <time>2011-03-05T16:51:51Z</time>
      </trkpt>
      <trkpt lat="44.01199" lon="1.6766">
        <ele>129</ele>
        <time>2011-03-05T16:51:53Z</time>
      </trkpt>
      <trkpt lat="44.01198" lon="1.67684">
        <ele>126</ele>
        <time>2011-03-05T16:51:56Z</time>
      </trkpt>
      <trkpt lat="44.01206" lon="1.67719">
        <ele>123</ele>
        <time>2011-03-05T16:52:04Z</time>
      </trkpt>
      <trkpt lat="44.01208" lon="1.67725">
        <ele>123</ele>
        <time>2011-03-05T16:52:06Z</time>
      </trkpt>
      <trkpt lat="44.01208" lon="1.67728">
        <ele>123</ele>
        <time>2011-03-05T16:52:07Z</time>
      </trkpt>
      <trkpt lat="44.01209" lon="1.6773">
        <ele>123</ele>
        <time>2011-03-05T16:52:08Z</time>
      </trkpt>
      <trkpt lat="44.01208" lon="1.67738">
        <ele>123</ele>
        <time>2011-03-05T16:52:13Z</time>
      </trkpt>
      <trkpt lat="44.01209" lon="1.67737">
        <ele>123</ele>
        <time>2011-03-05T16:52:21Z</time>
      </trkpt>
      <trkpt lat="44.01209" lon="1.67744">
        <ele>122</ele>
        <time>2011-03-05T16:52:34Z</time>
      </trkpt>
      <trkpt lat="44.01208" lon="1.67746">
        <ele>122</ele>
        <time>2011-03-05T16:52:38Z</time>
      </trkpt>
      <trkpt lat="44.01208" lon="1.67752">
        <ele>122</ele>
        <time>2011-03-05T16:52:48Z</time>
      </trkpt>
      <trkpt lat="44.01206" lon="1.67756">
        <ele>122</ele>
        <time>2011-03-05T16:52:58Z</time>
      </trkpt>
      <trkpt lat="44.01206" lon="1.67761">
        <ele>122</ele>
        <time>2011-03-05T16:53:04Z</time>
      </trkpt>
      <trkpt lat="44.01208" lon="1.67764">
        <ele>122</ele>
        <time>2011-03-05T16:53:08Z</time>
      </trkpt>
      <trkpt lat="44.01207" lon="1.67768">
        <ele>122</ele>
        <time>2011-03-05T16:53:12Z</time>
      </trkpt>
      <trkpt lat="44.01209" lon="1.67772">
        <ele>122</ele>
        <time>2011-03-05T16:53:15Z</time>
      </trkpt>
      <trkpt lat="44.0121" lon="1.67778">
        <ele>122</ele>
        <time>2011-03-05T16:53:19Z</time>
      </trkpt>
      <trkpt lat="44.01213" lon="1.67789">
        <ele>122</ele>
        <time>2011-03-05T16:53:27Z</time>
      </trkpt>
      <trkpt lat="44.01215" lon="1.67789">
        <ele>122</ele>
        <time>2011-03-05T16:53:31Z</time>
      </trkpt>
      <trkpt lat="44.0121" lon="1.67788">
        <ele>121</ele>
        <time>2011-03-05T16:54:21Z</time>
      </trkpt>
      <trkpt lat="44.0121" lon="1.67787">
        <ele>121</ele>
        <time>2011-03-05T16:54:36Z</time>
      </trkpt>
      <trkpt lat="44.01212" lon="1.67789">
        <ele>121</ele>
        <time>2011-03-05T16:54:58Z</time>
      </trkpt>
      <trkpt lat="44.01213" lon="1.67791">
        <ele>121</ele>
        <time>2011-03-05T16:55:09Z</time>
      </trkpt>
      <trkpt lat="44.01215" lon="1.6779">
        <ele>120</ele>
        <time>2011-03-05T16:56:04Z</time>
      </trkpt>
      <trkpt lat="44.01215" lon="1.67788">
        <ele>118</ele>
        <time>2011-03-05T16:56:14Z</time>
      </trkpt>
      <trkpt lat="44.01216" lon="1.6779">
        <ele>117</ele>
        <time>2011-03-05T16:56:24Z</time>
      </trkpt>
      <trkpt lat="44.01214" lon="1.67793">
        <ele>118</ele>
        <time>2011-03-05T16:58:31Z</time>
      </trkpt>
      <trkpt lat="44.01214" lon="1.67797">
        <ele>118</ele>
        <time>2011-03-05T16:58:35Z</time>
      </trkpt>
      <trkpt lat="44.01218" lon="1.67812">
        <ele>118</ele>
        <time>2011-03-05T16:58:40Z</time>
      </trkpt>
      <trkpt lat="44.01221" lon="1.67819">
        <ele>118</ele>
        <time>2011-03-05T16:58:42Z</time>
      </trkpt>
      <trkpt lat="44.01228" lon="1.67831">
        <ele>118</ele>
        <time>2011-03-05T16:58:45Z</time>
      </trkpt>
      <trkpt lat="44.01235" lon="1.67842">
        <ele>118</ele>
        <time>2011-03-05T16:58:48Z</time>
      </trkpt>
      <trkpt lat="44.01268" lon="1.6788">
        <ele>118</ele>
        <time>2011-03-05T16:58:59Z</time>
      </trkpt>
      <trkpt lat="44.01276" lon="1.6789">
        <ele>118</ele>
        <time>2011-03-05T16:59:02Z</time>
      </trkpt>
      <trkpt lat="44.01284" lon="1.67905">
        <ele>119</ele>
        <time>2011-03-05T16:59:06Z</time>
      </trkpt>
      <trkpt lat="44.01289" lon="1.6792">
        <ele>120</ele>
        <time>2011-03-05T16:59:10Z</time>
      </trkpt>
      <trkpt lat="44.01294" lon="1.67938">
        <ele>122</ele>
        <time>2011-03-05T16:59:15Z</time>
      </trkpt>
      <trkpt lat="44.01297" lon="1.67955">
        <ele>123</ele>
        <time>2011-03-05T16:59:20Z</time>
      </trkpt>
      <trkpt lat="44.01298" lon="1.67965">
        <ele>123</ele>
        <time>2011-03-05T16:59:23Z</time>
      </trkpt>
      <trkpt lat="44.01298" lon="1.67983">
        <ele>124</ele>
        <time>2011-03-05T16:59:28Z</time>
      </trkpt>
      <trkpt lat="44.01297" lon="1.6799">
        <ele>125</ele>
        <time>2011-03-05T16:59:30Z</time>
      </trkpt>
      <trkpt lat="44.01297" lon="1.68013">
        <ele>127</ele>
        <time>2011-03-05T16:59:37Z</time>
      </trkpt>
      <trkpt lat="44.01298" lon="1.68026">
        <ele>128</ele>
        <time>2011-03-05T16:59:41Z</time>
      </trkpt>
      <trkpt lat="44.01301" lon="1.68038">
        <ele>129</ele>
        <time>2011-03-05T16:59:45Z</time>
      </trkpt>
      <trkpt lat="44.01309" lon="1.68056">
        <ele>131</ele>
        <time>2011-03-05T16:59:52Z</time>
      </trkpt>
      <trkpt lat="44.01312" lon="1.68061">
        <ele>131</ele>
        <time>2011-03-05T16:59:54Z</time>
      </trkpt>
      <trkpt lat="44.01314" lon="1.68067">
        <ele>132</ele>
        <time>2011-03-05T16:59:56Z</time>
      </trkpt>
      <trkpt lat="44.01316" lon="1.68076">
        <ele>132</ele>
        <time>2011-03-05T16:59:59Z</time>
      </trkpt>
      <trkpt lat="44.01317" lon="1.68085">
        <ele>133</ele>
        <time>2011-03-05T17:00:02Z</time>
      </trkpt>
      <trkpt lat="44.01315" lon="1.68093">
        <ele>134</ele>
        <time>2011-03-05T17:00:05Z</time>
      </trkpt>
      <trkpt lat="44.01311" lon="1.681">
        <ele>135</ele>
        <time>2011-03-05T17:00:08Z</time>
      </trkpt>
      <trkpt lat="44.01307" lon="1.68105">
        <ele>136</ele>
        <time>2011-03-05T17:00:11Z</time>
      </trkpt>
      <trkpt lat="44.0126" lon="1.68133">
        <ele>136</ele>
        <time>2011-03-05T17:00:24Z</time>
      </trkpt>
      <trkpt lat="44.01246" lon="1.68139">
        <ele>136</ele>
        <time>2011-03-05T17:00:27Z</time>
      </trkpt>
      <trkpt lat="44.01225" lon="1.68151">
        <ele>136</ele>
        <time>2011-03-05T17:00:31Z</time>
      </trkpt>
      <trkpt lat="44.01192" lon="1.68164">
        <ele>136</ele>
        <time>2011-03-05T17:00:36Z</time>
      </trkpt>
      <trkpt lat="44.01179" lon="1.68167">
        <ele>136</ele>
        <time>2011-03-05T17:00:38Z</time>
      </trkpt>
      <trkpt lat="44.01146" lon="1.68171">
        <ele>136</ele>
        <time>2011-03-05T17:00:43Z</time>
      </trkpt>
      <trkpt lat="44.01133" lon="1.68175">
        <ele>136</ele>
        <time>2011-03-05T17:00:45Z</time>
      </trkpt>
      <trkpt lat="44.01126" lon="1.68178">
        <ele>136</ele>
        <time>2011-03-05T17:00:46Z</time>
      </trkpt>
      <trkpt lat="44.01114" lon="1.68186">
        <ele>136</ele>
        <time>2011-03-05T17:00:48Z</time>
      </trkpt>
      <trkpt lat="44.01102" lon="1.68197">
        <ele>135</ele>
        <time>2011-03-05T17:00:50Z</time>
      </trkpt>
      <trkpt lat="44.0109" lon="1.68208">
        <ele>135</ele>
        <time>2011-03-05T17:00:52Z</time>
      </trkpt>
      <trkpt lat="44.01074" lon="1.68226">
        <ele>134</ele>
        <time>2011-03-05T17:00:55Z</time>
      </trkpt>
      <trkpt lat="44.01064" lon="1.6824">
        <ele>133</ele>
        <time>2011-03-05T17:00:57Z</time>
      </trkpt>
      <trkpt lat="44.01049" lon="1.68263">
        <ele>133</ele>
        <time>2011-03-05T17:01:00Z</time>
      </trkpt>
      <trkpt lat="44.01044" lon="1.6827">
        <ele>133</ele>
        <time>2011-03-05T17:01:01Z</time>
      </trkpt>
      <trkpt lat="44.01033" lon="1.68282">
        <ele>133</ele>
        <time>2011-03-05T17:01:03Z</time>
      </trkpt>
      <trkpt lat="44.01021" lon="1.68292">
        <ele>133</ele>
        <time>2011-03-05T17:01:05Z</time>
      </trkpt>
      <trkpt lat="44.01009" lon="1.68299">
        <ele>132</ele>
        <time>2011-03-05T17:01:07Z</time>
      </trkpt>
      <trkpt lat="44.01004" lon="1.68303">
        <ele>132</ele>
        <time>2011-03-05T17:01:08Z</time>
      </trkpt>
      <trkpt lat="44.00999" lon="1.68308">
        <ele>132</ele>
        <time>2011-03-05T17:01:09Z</time>
      </trkpt>
      <trkpt lat="44.00996" lon="1.68315">
        <ele>132</ele>
        <time>2011-03-05T17:01:10Z</time>
      </trkpt>
      <trkpt lat="44.00995" lon="1.68323">
        <ele>132</ele>
        <time>2011-03-05T17:01:11Z</time>
      </trkpt>
      <trkpt lat="44.00995" lon="1.68331">
        <ele>132</ele>
        <time>2011-03-05T17:01:12Z</time>
      </trkpt>
      <trkpt lat="44.01" lon="1.68384">
        <ele>132</ele>
        <time>2011-03-05T17:01:18Z</time>
      </trkpt>
      <trkpt lat="44.01001" lon="1.68402">
        <ele>132</ele>
        <time>2011-03-05T17:01:20Z</time>
      </trkpt>
      <trkpt lat="44.01001" lon="1.6846">
        <ele>132</ele>
        <time>2011-03-05T17:01:27Z</time>
      </trkpt>
      <trkpt lat="44.01004" lon="1.68509">
        <ele>132</ele>
        <time>2011-03-05T17:01:34Z</time>
      </trkpt>
      <trkpt lat="44.01003" lon="1.68533">
        <ele>132</ele>
        <time>2011-03-05T17:01:38Z</time>
      </trkpt>
      <trkpt lat="44.01004" lon="1.68569">
        <ele>133</ele>
        <time>2011-03-05T17:01:45Z</time>
      </trkpt>
      <trkpt lat="44.01006" lon="1.68587">
        <ele>135</ele>
        <time>2011-03-05T17:01:50Z</time>
      </trkpt>
      <trkpt lat="44.01006" lon="1.68597">
        <ele>136</ele>
        <time>2011-03-05T17:01:53Z</time>
      </trkpt>
      <trkpt lat="44.01009" lon="1.68628">
        <ele>139</ele>
        <time>2011-03-05T17:02:02Z</time>
      </trkpt>
      <trkpt lat="44.01011" lon="1.68655">
        <ele>141</ele>
        <time>2011-03-05T17:02:10Z</time>
      </trkpt>
      <trkpt lat="44.01016" lon="1.68701">
        <ele>144</ele>
        <time>2011-03-05T17:02:24Z</time>
      </trkpt>
      <trkpt lat="44.01028" lon="1.68789">
        <ele>151</ele>
        <time>2011-03-05T17:02:51Z</time>
      </trkpt>
      <trkpt lat="44.01028" lon="1.68798">
        <ele>152</ele>
        <time>2011-03-05T17:02:54Z</time>
      </trkpt>
      <trkpt lat="44.01029" lon="1.68801">
        <ele>153</ele>
        <time>2011-03-05T17:02:55Z</time>
      </trkpt>
      <trkpt lat="44.0103" lon="1.6882">
        <ele>154</ele>
        <time>2011-03-05T17:03:01Z</time>
      </trkpt>
      <trkpt lat="44.0103" lon="1.68836">
        <ele>155</ele>
        <time>2011-03-05T17:03:06Z</time>
      </trkpt>
      <trkpt lat="44.01028" lon="1.68853">
        <ele>156</ele>
        <time>2011-03-05T17:03:12Z</time>
      </trkpt>
      <trkpt lat="44.01028" lon="1.68864">
        <ele>157</ele>
        <time>2011-03-05T17:03:16Z</time>
      </trkpt>
      <trkpt lat="44.0103" lon="1.68872">
        <ele>158</ele>
        <time>2011-03-05T17:03:19Z</time>
      </trkpt>
      <trkpt lat="44.01032" lon="1.68877">
        <ele>158</ele>
        <time>2011-03-05T17:03:21Z</time>
      </trkpt>
      <trkpt lat="44.01047" lon="1.689">
        <ele>161</ele>
        <time>2011-03-05T17:03:31Z</time>
      </trkpt>
      <trkpt lat="44.01055" lon="1.68915">
        <ele>161</ele>
        <time>2011-03-05T17:03:37Z</time>
      </trkpt>
      <trkpt lat="44.01061" lon="1.68928">
        <ele>162</ele>
        <time>2011-03-05T17:03:42Z</time>
      </trkpt>
      <trkpt lat="44.01064" lon="1.68937">
        <ele>162</ele>
        <time>2011-03-05T17:03:45Z</time>
      </trkpt>
      <trkpt lat="44.01072" lon="1.68967">
        <ele>163</ele>
        <time>2011-03-05T17:03:55Z</time>
      </trkpt>
      <trkpt lat="44.01081" lon="1.68994">
        <ele>165</ele>
        <time>2011-03-05T17:04:04Z</time>
      </trkpt>
      <trkpt lat="44.01087" lon="1.69009">
        <ele>166</ele>
        <time>2011-03-05T17:04:09Z</time>
      </trkpt>
      <trkpt lat="44.01091" lon="1.69021">
        <ele>167</ele>
        <time>2011-03-05T17:04:13Z</time>
      </trkpt>
      <trkpt lat="44.01096" lon="1.69044">
        <ele>168</ele>
        <time>2011-03-05T17:04:20Z</time>
      </trkpt>
      <trkpt lat="44.01096" lon="1.69052">
        <ele>168</ele>
        <time>2011-03-05T17:04:22Z</time>
      </trkpt>
      <trkpt lat="44.01109" lon="1.69132">
        <ele>170</ele>
        <time>2011-03-05T17:04:40Z</time>
      </trkpt>
      <trkpt lat="44.01109" lon="1.6915">
        <ele>170</ele>
        <time>2011-03-05T17:04:44Z</time>
      </trkpt>
      <trkpt lat="44.01108" lon="1.69164">
        <ele>171</ele>
        <time>2011-03-05T17:04:47Z</time>
      </trkpt>
      <trkpt lat="44.01109" lon="1.69184">
        <ele>171</ele>
        <time>2011-03-05T17:04:51Z</time>
      </trkpt>
      <trkpt lat="44.01113" lon="1.69203">
        <ele>172</ele>
        <time>2011-03-05T17:04:54Z</time>
      </trkpt>
      <trkpt lat="44.01115" lon="1.69209">
        <ele>172</ele>
        <time>2011-03-05T17:04:55Z</time>
      </trkpt>
      <trkpt lat="44.01122" lon="1.69225">
        <ele>172</ele>
        <time>2011-03-05T17:04:58Z</time>
      </trkpt>
      <trkpt lat="44.01128" lon="1.69247">
        <ele>172</ele>
        <time>2011-03-05T17:05:02Z</time>
      </trkpt>
      <trkpt lat="44.01132" lon="1.69265">
        <ele>173</ele>
        <time>2011-03-05T17:05:05Z</time>
      </trkpt>
      <trkpt lat="44.01134" lon="1.69283">
        <ele>174</ele>
        <time>2011-03-05T17:05:08Z</time>
      </trkpt>
      <trkpt lat="44.01135" lon="1.69299">
        <ele>175</ele>
        <time>2011-03-05T17:05:11Z</time>
      </trkpt>
      <trkpt lat="44.01135" lon="1.69309">
        <ele>175</ele>
        <time>2011-03-05T17:05:13Z</time>
      </trkpt>
      <trkpt lat="44.01136" lon="1.69324">
        <ele>176</ele>
        <time>2011-03-05T17:05:16Z</time>
      </trkpt>
      <trkpt lat="44.01137" lon="1.69351">
        <ele>176</ele>
        <time>2011-03-05T17:05:21Z</time>
      </trkpt>
      <trkpt lat="44.01142" lon="1.69368">
        <ele>176</ele>
        <time>2011-03-05T17:05:24Z</time>
      </trkpt>
      <trkpt lat="44.01162" lon="1.69409">
        <ele>176</ele>
        <time>2011-03-05T17:05:33Z</time>
      </trkpt>
      <trkpt lat="44.01168" lon="1.6942">
        <ele>176</ele>
        <time>2011-03-05T17:05:36Z</time>
      </trkpt>
      <trkpt lat="44.01183" lon="1.69441">
        <ele>176</ele>
        <time>2011-03-05T17:05:44Z</time>
      </trkpt>
      <trkpt lat="44.01189" lon="1.69451">
        <ele>177</ele>
        <time>2011-03-05T17:05:48Z</time>
      </trkpt>
      <trkpt lat="44.01194" lon="1.69459">
        <ele>178</ele>
        <time>2011-03-05T17:05:52Z</time>
      </trkpt>
      <trkpt lat="44.01198" lon="1.69469">
        <ele>179</ele>
        <time>2011-03-05T17:05:56Z</time>
      </trkpt>
      <trkpt lat="44.01202" lon="1.69476">
        <ele>179</ele>
        <time>2011-03-05T17:05:59Z</time>
      </trkpt>
      <trkpt lat="44.01212" lon="1.69507">
        <ele>187</ele>
        <time>2011-03-05T17:06:11Z</time>
      </trkpt>
      <trkpt lat="44.01218" lon="1.69546">
        <ele>195</ele>
        <time>2011-03-05T17:06:27Z</time>
      </trkpt>
      <trkpt lat="44.01219" lon="1.69551">
        <ele>195</ele>
        <time>2011-03-05T17:06:29Z</time>
      </trkpt>
      <trkpt lat="44.0122" lon="1.69557">
        <ele>196</ele>
        <time>2011-03-05T17:06:32Z</time>
      </trkpt>
      <trkpt lat="44.01224" lon="1.69567">
        <ele>197</ele>
        <time>2011-03-05T17:06:36Z</time>
      </trkpt>
      <trkpt lat="44.01229" lon="1.69586">
        <ele>199</ele>
        <time>2011-03-05T17:06:45Z</time>
      </trkpt>
      <trkpt lat="44.01234" lon="1.69608">
        <ele>203</ele>
        <time>2011-03-05T17:06:55Z</time>
      </trkpt>
      <trkpt lat="44.01235" lon="1.69617">
        <ele>204</ele>
        <time>2011-03-05T17:06:59Z</time>
      </trkpt>
      <trkpt lat="44.01235" lon="1.69622">
        <ele>205</ele>
        <time>2011-03-05T17:07:01Z</time>
      </trkpt>
      <trkpt lat="44.01236" lon="1.69626">
        <ele>206</ele>
        <time>2011-03-05T17:07:03Z</time>
      </trkpt>
      <trkpt lat="44.01236" lon="1.69646">
        <ele>209</ele>
        <time>2011-03-05T17:07:12Z</time>
      </trkpt>
      <trkpt lat="44.01236" lon="1.69652">
        <ele>210</ele>
        <time>2011-03-05T17:07:15Z</time>
      </trkpt>
      <trkpt lat="44.01237" lon="1.6967">
        <ele>212</ele>
        <time>2011-03-05T17:07:23Z</time>
      </trkpt>
      <trkpt lat="44.01235" lon="1.69692">
        <ele>214</ele>
        <time>2011-03-05T17:07:33Z</time>
      </trkpt>
      <trkpt lat="44.01235" lon="1.69698">
        <ele>215</ele>
        <time>2011-03-05T17:07:36Z</time>
      </trkpt>
      <trkpt lat="44.01234" lon="1.69705">
        <ele>216</ele>
        <time>2011-03-05T17:07:39Z</time>
      </trkpt>
      <trkpt lat="44.01234" lon="1.69709">
        <ele>216</ele>
        <time>2011-03-05T17:07:41Z</time>
      </trkpt>
      <trkpt lat="44.01231" lon="1.69724">
        <ele>217</ele>
        <time>2011-03-05T17:07:48Z</time>
      </trkpt>
      <trkpt lat="44.01231" lon="1.69733">
        <ele>218</ele>
        <time>2011-03-05T17:07:52Z</time>
      </trkpt>
      <trkpt lat="44.0123" lon="1.69742">
        <ele>219</ele>
        <time>2011-03-05T17:07:56Z</time>
      </trkpt>
      <trkpt lat="44.01229" lon="1.69749">
        <ele>219</ele>
        <time>2011-03-05T17:07:59Z</time>
      </trkpt>
      <trkpt lat="44.01221" lon="1.69791">
        <ele>225</ele>
        <time>2011-03-05T17:08:30Z</time>
      </trkpt>
      <trkpt lat="44.01223" lon="1.69789">
        <ele>225</ele>
        <time>2011-03-05T17:09:05Z</time>
      </trkpt>
      <trkpt lat="44.01223" lon="1.6979">
        <ele>225</ele>
        <time>2011-03-05T17:09:13Z</time>
      </trkpt>
      <trkpt lat="44.01223" lon="1.69793">
        <ele>225</ele>
        <time>2011-03-05T17:09:20Z</time>
      </trkpt>
      <trkpt lat="44.01223" lon="1.698">
        <ele>225</ele>
        <time>2011-03-05T17:09:23Z</time>
      </trkpt>
      <trkpt lat="44.01223" lon="1.69805">
        <ele>225</ele>
        <time>2011-03-05T17:09:25Z</time>
      </trkpt>
      <trkpt lat="44.01223" lon="1.69813">
        <ele>225</ele>
        <time>2011-03-05T17:09:28Z</time>
      </trkpt>
      <trkpt lat="44.01224" lon="1.6982">
        <ele>225</ele>
        <time>2011-03-05T17:09:31Z</time>
      </trkpt>
      <trkpt lat="44.01224" lon="1.69827">
        <ele>225</ele>
        <time>2011-03-05T17:09:34Z</time>
      </trkpt>
      <trkpt lat="44.01222" lon="1.69837">
        <ele>226</ele>
        <time>2011-03-05T17:09:38Z</time>
      </trkpt>
      <trkpt lat="44.01218" lon="1.69845">
        <ele>227</ele>
        <time>2011-03-05T17:09:42Z</time>
      </trkpt>
      <trkpt lat="44.01196" lon="1.69904">
        <ele>233</ele>
        <time>2011-03-05T17:10:10Z</time>
      </trkpt>
      <trkpt lat="44.01195" lon="1.69907">
        <ele>233</ele>
        <time>2011-03-05T17:10:11Z</time>
      </trkpt>
      <trkpt lat="44.01193" lon="1.69911">
        <ele>233</ele>
        <time>2011-03-05T17:10:13Z</time>
      </trkpt>
      <trkpt lat="44.01188" lon="1.6993">
        <ele>234</ele>
        <time>2011-03-05T17:10:21Z</time>
      </trkpt>
      <trkpt lat="44.01186" lon="1.69937">
        <ele>235</ele>
        <time>2011-03-05T17:10:24Z</time>
      </trkpt>
      <trkpt lat="44.01185" lon="1.69941">
        <ele>236</ele>
        <time>2011-03-05T17:10:26Z</time>
      </trkpt>
      <trkpt lat="44.01181" lon="1.6996">
        <ele>237</ele>
        <time>2011-03-05T17:10:34Z</time>
      </trkpt>
      <trkpt lat="44.01179" lon="1.6998">
        <ele>239</ele>
        <time>2011-03-05T17:10:43Z</time>
      </trkpt>
      <trkpt lat="44.01179" lon="1.69983">
        <ele>239</ele>
        <time>2011-03-05T17:10:44Z</time>
      </trkpt>
      <trkpt lat="44.01178" lon="1.69994">
        <ele>240</ele>
        <time>2011-03-05T17:10:49Z</time>
      </trkpt>
      <trkpt lat="44.01179" lon="1.70012">
        <ele>242</ele>
        <time>2011-03-05T17:10:57Z</time>
      </trkpt>
      <trkpt lat="44.01183" lon="1.70032">
        <ele>245</ele>
        <time>2011-03-05T17:11:07Z</time>
      </trkpt>
      <trkpt lat="44.01187" lon="1.70041">
        <ele>246</ele>
        <time>2011-03-05T17:11:12Z</time>
      </trkpt>
      <trkpt lat="44.01191" lon="1.70047">
        <ele>248</ele>
        <time>2011-03-05T17:11:16Z</time>
      </trkpt>
      <trkpt lat="44.01194" lon="1.70049">
        <ele>248</ele>
        <time>2011-03-05T17:11:18Z</time>
      </trkpt>
      <trkpt lat="44.01199" lon="1.7006">
        <ele>250</ele>
        <time>2011-03-05T17:11:25Z</time>
      </trkpt>
      <trkpt lat="44.01204" lon="1.70082">
        <ele>252</ele>
        <time>2011-03-05T17:11:37Z</time>
      </trkpt>
      <trkpt lat="44.01205" lon="1.70092">
        <ele>253</ele>
        <time>2011-03-05T17:11:42Z</time>
      </trkpt>
      <trkpt lat="44.01203" lon="1.701">
        <ele>255</ele>
        <time>2011-03-05T17:11:46Z</time>
      </trkpt>
      <trkpt lat="44.01201" lon="1.70106">
        <ele>256</ele>
        <time>2011-03-05T17:11:49Z</time>
      </trkpt>
      <trkpt lat="44.01195" lon="1.70116">
        <ele>258</ele>
        <time>2011-03-05T17:11:56Z</time>
      </trkpt>
      <trkpt lat="44.01189" lon="1.70123">
        <ele>259</ele>
        <time>2011-03-05T17:12:01Z</time>
      </trkpt>
      <trkpt lat="44.01182" lon="1.70136">
        <ele>260</ele>
        <time>2011-03-05T17:12:09Z</time>
      </trkpt>
      <trkpt lat="44.0118" lon="1.70141">
        <ele>260</ele>
        <time>2011-03-05T17:12:12Z</time>
      </trkpt>
      <trkpt lat="44.01176" lon="1.70149">
        <ele>261</ele>
        <time>2011-03-05T17:12:17Z</time>
      </trkpt>
      <trkpt lat="44.01174" lon="1.70151">
        <ele>262</ele>
        <time>2011-03-05T17:12:18Z</time>
      </trkpt>
      <trkpt lat="44.01172" lon="1.70156">
        <ele>262</ele>
        <time>2011-03-05T17:12:21Z</time>
      </trkpt>
      <trkpt lat="44.01169" lon="1.70158">
        <ele>263</ele>
        <time>2011-03-05T17:12:23Z</time>
      </trkpt>
      <trkpt lat="44.01165" lon="1.70167">
        <ele>264</ele>
        <time>2011-03-05T17:12:28Z</time>
      </trkpt>
      <trkpt lat="44.01162" lon="1.70171">
        <ele>265</ele>
        <time>2011-03-05T17:12:31Z</time>
      </trkpt>
      <trkpt lat="44.01159" lon="1.70178">
        <ele>266</ele>
        <time>2011-03-05T17:12:35Z</time>
      </trkpt>
      <trkpt lat="44.01152" lon="1.70189">
        <ele>266</ele>
        <time>2011-03-05T17:12:43Z</time>
      </trkpt>
      <trkpt lat="44.01149" lon="1.70192">
        <ele>267</ele>
        <time>2011-03-05T17:12:46Z</time>
      </trkpt>
      <trkpt lat="44.01144" lon="1.70195">
        <ele>267</ele>
        <time>2011-03-05T17:12:50Z</time>
      </trkpt>
      <trkpt lat="44.01132" lon="1.70199">
        <ele>267</ele>
        <time>2011-03-05T17:12:58Z</time>
      </trkpt>
      <trkpt lat="44.01127" lon="1.702">
        <ele>268</ele>
        <time>2011-03-05T17:13:01Z</time>
      </trkpt>
      <trkpt lat="44.01098" lon="1.70197">
        <ele>270</ele>
        <time>2011-03-05T17:13:15Z</time>
      </trkpt>
      <trkpt lat="44.01092" lon="1.70199">
        <ele>270</ele>
        <time>2011-03-05T17:13:18Z</time>
      </trkpt>
      <trkpt lat="44.01088" lon="1.70202">
        <ele>270</ele>
        <time>2011-03-05T17:13:20Z</time>
      </trkpt>
      <trkpt lat="44.01084" lon="1.70205">
        <ele>270</ele>
        <time>2011-03-05T17:13:22Z</time>
      </trkpt>
      <trkpt lat="44.01073" lon="1.70219">
        <ele>271</ele>
        <time>2011-03-05T17:13:29Z</time>
      </trkpt>
      <trkpt lat="44.01067" lon="1.70235">
        <ele>273</ele>
        <time>2011-03-05T17:13:35Z</time>
      </trkpt>
      <trkpt lat="44.01063" lon="1.70247">
        <ele>274</ele>
        <time>2011-03-05T17:13:39Z</time>
      </trkpt>
      <trkpt lat="44.0106" lon="1.70265">
        <ele>276</ele>
        <time>2011-03-05T17:13:45Z</time>
      </trkpt>
      <trkpt lat="44.01054" lon="1.70312">
        <ele>279</ele>
        <time>2011-03-05T17:14:00Z</time>
      </trkpt>
      <trkpt lat="44.01053" lon="1.70318">
        <ele>279</ele>
        <time>2011-03-05T17:14:02Z</time>
      </trkpt>
      <trkpt lat="44.0105" lon="1.70327">
        <ele>279</ele>
        <time>2011-03-05T17:14:05Z</time>
      </trkpt>
      <trkpt lat="44.01045" lon="1.70333">
        <ele>280</ele>
        <time>2011-03-05T17:14:08Z</time>
      </trkpt>
      <trkpt lat="44.01039" lon="1.70337">
        <ele>280</ele>
        <time>2011-03-05T17:14:11Z</time>
      </trkpt>
      <trkpt lat="44.01026" lon="1.70343">
        <ele>282</ele>
        <time>2011-03-05T17:14:17Z</time>
      </trkpt>
      <trkpt lat="44.01017" lon="1.70345">
        <ele>282</ele>
        <time>2011-03-05T17:14:21Z</time>
      </trkpt>
      <trkpt lat="44.00982" lon="1.70362">
        <ele>286</ele>
        <time>2011-03-05T17:14:38Z</time>
      </trkpt>
      <trkpt lat="44.00976" lon="1.70363">
        <ele>286</ele>
        <time>2011-03-05T17:14:41Z</time>
      </trkpt>
      <trkpt lat="44.00971" lon="1.70363">
        <ele>287</ele>
        <time>2011-03-05T17:14:44Z</time>
      </trkpt>
      <trkpt lat="44.00964" lon="1.70364">
        <ele>288</ele>
        <time>2011-03-05T17:14:47Z</time>
      </trkpt>
      <trkpt lat="44.00953" lon="1.70364">
        <ele>290</ele>
        <time>2011-03-05T17:14:52Z</time>
      </trkpt>
      <trkpt lat="44.00941" lon="1.70362">
        <ele>290</ele>
        <time>2011-03-05T17:14:57Z</time>
      </trkpt>
      <trkpt lat="44.00931" lon="1.70358">
        <ele>290</ele>
        <time>2011-03-05T17:15:01Z</time>
      </trkpt>
      <trkpt lat="44.00924" lon="1.70357">
        <ele>290</ele>
        <time>2011-03-05T17:15:04Z</time>
      </trkpt>
      <trkpt lat="44.00917" lon="1.7036">
        <ele>290</ele>
        <time>2011-03-05T17:15:07Z</time>
      </trkpt>
      <trkpt lat="44.00891" lon="1.7038">
        <ele>294</ele>
        <time>2011-03-05T17:15:18Z</time>
      </trkpt>
      <trkpt lat="44.00889" lon="1.70383">
        <ele>294</ele>
        <time>2011-03-05T17:15:19Z</time>
      </trkpt>
      <trkpt lat="44.00886" lon="1.70392">
        <ele>295</ele>
        <time>2011-03-05T17:15:22Z</time>
      </trkpt>
      <trkpt lat="44.0088" lon="1.70402">
        <ele>296</ele>
        <time>2011-03-05T17:15:26Z</time>
      </trkpt>
      <trkpt lat="44.00877" lon="1.70407">
        <ele>297</ele>
        <time>2011-03-05T17:15:28Z</time>
      </trkpt>
      <trkpt lat="44.00873" lon="1.70413">
        <ele>299</ele>
        <time>2011-03-05T17:15:32Z</time>
      </trkpt>
      <trkpt lat="44.00873" lon="1.70416">
        <ele>300</ele>
        <time>2011-03-05T17:15:34Z</time>
      </trkpt>
      <trkpt lat="44.00874" lon="1.7042">
        <ele>300</ele>
        <time>2011-03-05T17:15:36Z</time>
      </trkpt>
      <trkpt lat="44.00874" lon="1.70422">
        <ele>300</ele>
        <time>2011-03-05T17:15:37Z</time>
      </trkpt>
      <trkpt lat="44.00871" lon="1.70425">
        <ele>301</ele>
        <time>2011-03-05T17:15:39Z</time>
      </trkpt>
      <trkpt lat="44.00859" lon="1.70436">
        <ele>302</ele>
        <time>2011-03-05T17:15:48Z</time>
      </trkpt>
      <trkpt lat="44.00853" lon="1.70446">
        <ele>303</ele>
        <time>2011-03-05T17:15:54Z</time>
      </trkpt>
      <trkpt lat="44.00833" lon="1.70469">
        <ele>304</ele>
        <time>2011-03-05T17:16:11Z</time>
      </trkpt>
      <trkpt lat="44.00829" lon="1.70472">
        <ele>305</ele>
        <time>2011-03-05T17:16:14Z</time>
      </trkpt>
      <trkpt lat="44.00811" lon="1.70489">
        <ele>308</ele>
        <time>2011-03-05T17:16:32Z</time>
      </trkpt>
      <trkpt lat="44.00811" lon="1.7049">
        <ele>308</ele>
        <time>2011-03-05T17:16:34Z</time>
      </trkpt>
      <trkpt lat="44.0079" lon="1.70504">
        <ele>308</ele>
        <time>2011-03-05T17:17:21Z</time>
      </trkpt>
      <trkpt lat="44.00786" lon="1.70512">
        <ele>309</ele>
        <time>2011-03-05T17:17:26Z</time>
      </trkpt>
      <trkpt lat="44.00785" lon="1.70514">
        <ele>310</ele>
        <time>2011-03-05T17:17:28Z</time>
      </trkpt>
      <trkpt lat="44.00791" lon="1.70505">
        <ele>311</ele>
        <time>2011-03-05T17:17:33Z</time>
      </trkpt>
      <trkpt lat="44.00794" lon="1.70498">
        <ele>311</ele>
        <time>2011-03-05T17:17:36Z</time>
      </trkpt>
      <trkpt lat="44.00793" lon="1.705">
        <ele>311</ele>
        <time>2011-03-05T17:17:42Z</time>
      </trkpt>
      <trkpt lat="44.00792" lon="1.70501">
        <ele>311</ele>
        <time>2011-03-05T17:17:45Z</time>
      </trkpt>
      <trkpt lat="44.00793" lon="1.70501">
        <ele>310</ele>
        <time>2011-03-05T17:17:48Z</time>
      </trkpt>
      <trkpt lat="44.00793" lon="1.70502">
        <ele>310</ele>
        <time>2011-03-05T17:17:51Z</time>
      </trkpt>
      <trkpt lat="44.00792" lon="1.70505">
        <ele>310</ele>
        <time>2011-03-05T17:18:10Z</time>
      </trkpt>
      <trkpt lat="44.0079" lon="1.70506">
        <ele>307</ele>
        <time>2011-03-05T17:18:20Z</time>
      </trkpt>
      <trkpt lat="44.0079" lon="1.70503">
        <ele>303</ele>
        <time>2011-03-05T17:18:47Z</time>
      </trkpt>
      <trkpt lat="44.00783" lon="1.70509">
        <ele>303</ele>
        <time>2011-03-05T17:18:59Z</time>
      </trkpt>
      <trkpt lat="44.00782" lon="1.70508">
        <ele>304</ele>
        <time>2011-03-05T17:19:08Z</time>
      </trkpt>
      <trkpt lat="44.00775" lon="1.70511">
        <ele>306</ele>
        <time>2011-03-05T17:19:14Z</time>
      </trkpt>
      <trkpt lat="44.00771" lon="1.70514">
        <ele>308</ele>
        <time>2011-03-05T17:19:18Z</time>
      </trkpt>
      <trkpt lat="44.00769" lon="1.70517">
        <ele>308</ele>
        <time>2011-03-05T17:19:20Z</time>
      </trkpt>
      <trkpt lat="44.00766" lon="1.70518">
        <ele>309</ele>
        <time>2011-03-05T17:19:22Z</time>
      </trkpt>
      <trkpt lat="44.00758" lon="1.70525">
        <ele>310</ele>
        <time>2011-03-05T17:19:30Z</time>
      </trkpt>
      <trkpt lat="44.00748" lon="1.70531">
        <ele>312</ele>
        <time>2011-03-05T17:19:38Z</time>
      </trkpt>
      <trkpt lat="44.00743" lon="1.70531">
        <ele>314</ele>
        <time>2011-03-05T17:19:41Z</time>
      </trkpt>
      <trkpt lat="44.00739" lon="1.70533">
        <ele>315</ele>
        <time>2011-03-05T17:19:44Z</time>
      </trkpt>
      <trkpt lat="44.00727" lon="1.70533">
        <ele>317</ele>
        <time>2011-03-05T17:19:51Z</time>
      </trkpt>
      <trkpt lat="44.0072" lon="1.70531">
        <ele>319</ele>
        <time>2011-03-05T17:19:55Z</time>
      </trkpt>
      <trkpt lat="44.00704" lon="1.70529">
        <ele>320</ele>
        <time>2011-03-05T17:20:04Z</time>
      </trkpt>
      <trkpt lat="44.00692" lon="1.7053">
        <ele>321</ele>
        <time>2011-03-05T17:20:10Z</time>
      </trkpt>
      <trkpt lat="44.00675" lon="1.70537">
        <ele>321</ele>
        <time>2011-03-05T17:20:19Z</time>
      </trkpt>
      <trkpt lat="44.00665" lon="1.70545">
        <ele>321</ele>
        <time>2011-03-05T17:20:25Z</time>
      </trkpt>
      <trkpt lat="44.00657" lon="1.70547">
        <ele>321</ele>
        <time>2011-03-05T17:20:29Z</time>
      </trkpt>
      <trkpt lat="44.0065" lon="1.70553">
        <ele>322</ele>
        <time>2011-03-05T17:20:33Z</time>
      </trkpt>
      <trkpt lat="44.00642" lon="1.70562">
        <ele>323</ele>
        <time>2011-03-05T17:20:39Z</time>
      </trkpt>
      <trkpt lat="44.00638" lon="1.70568">
        <ele>324</ele>
        <time>2011-03-05T17:20:42Z</time>
      </trkpt>
      <trkpt lat="44.0063" lon="1.70575">
        <ele>324</ele>
        <time>2011-03-05T17:20:47Z</time>
      </trkpt>
      <trkpt lat="44.00622" lon="1.70586">
        <ele>325</ele>
        <time>2011-03-05T17:20:53Z</time>
      </trkpt>
      <trkpt lat="44.00613" lon="1.70601">
        <ele>326</ele>
        <time>2011-03-05T17:21:00Z</time>
      </trkpt>
      <trkpt lat="44.00604" lon="1.70616">
        <ele>327</ele>
        <time>2011-03-05T17:21:07Z</time>
      </trkpt>
      <trkpt lat="44.00599" lon="1.70622">
        <ele>327</ele>
        <time>2011-03-05T17:21:10Z</time>
      </trkpt>
      <trkpt lat="44.00586" lon="1.70642">
        <ele>327</ele>
        <time>2011-03-05T17:21:15Z</time>
      </trkpt>
      <trkpt lat="44.00578" lon="1.7065">
        <ele>327</ele>
        <time>2011-03-05T17:21:17Z</time>
      </trkpt>
      <trkpt lat="44.00572" lon="1.7066">
        <ele>327</ele>
        <time>2011-03-05T17:21:19Z</time>
      </trkpt>
      <trkpt lat="44.00564" lon="1.70675">
        <ele>327</ele>
        <time>2011-03-05T17:21:22Z</time>
      </trkpt>
      <trkpt lat="44.0054" lon="1.70717">
        <ele>327</ele>
        <time>2011-03-05T17:21:30Z</time>
      </trkpt>
      <trkpt lat="44.00531" lon="1.70736">
        <ele>327</ele>
        <time>2011-03-05T17:21:33Z</time>
      </trkpt>
      <trkpt lat="44.00521" lon="1.70755">
        <ele>327</ele>
        <time>2011-03-05T17:21:36Z</time>
      </trkpt>
      <trkpt lat="44.00509" lon="1.70783">
        <ele>327</ele>
        <time>2011-03-05T17:21:40Z</time>
      </trkpt>
      <trkpt lat="44.00507" lon="1.7079">
        <ele>327</ele>
        <time>2011-03-05T17:21:41Z</time>
      </trkpt>
      <trkpt lat="44.00499" lon="1.70815">
        <ele>324</ele>
        <time>2011-03-05T17:21:45Z</time>
      </trkpt>
      <trkpt lat="44.00498" lon="1.7082">
        <ele>324</ele>
        <time>2011-03-05T17:21:46Z</time>
      </trkpt>
      <trkpt lat="44.00497" lon="1.70831">
        <ele>322</ele>
        <time>2011-03-05T17:21:48Z</time>
      </trkpt>
      <trkpt lat="44.00496" lon="1.70837">
        <ele>322</ele>
        <time>2011-03-05T17:21:49Z</time>
      </trkpt>
      <trkpt lat="44.00495" lon="1.70847">
        <ele>321</ele>
        <time>2011-03-05T17:21:51Z</time>
      </trkpt>
      <trkpt lat="44.00494" lon="1.70851">
        <ele>320</ele>
        <time>2011-03-05T17:21:52Z</time>
      </trkpt>
      <trkpt lat="44.00489" lon="1.70863">
        <ele>319</ele>
        <time>2011-03-05T17:21:55Z</time>
      </trkpt>
      <trkpt lat="44.00481" lon="1.70879">
        <ele>316</ele>
        <time>2011-03-05T17:22:00Z</time>
      </trkpt>
      <trkpt lat="44.0048" lon="1.70884">
        <ele>315</ele>
        <time>2011-03-05T17:22:02Z</time>
      </trkpt>
      <trkpt lat="44.00482" lon="1.70887">
        <ele>314</ele>
        <time>2011-03-05T17:22:04Z</time>
      </trkpt>
      <trkpt lat="44.00483" lon="1.7089">
        <ele>313</ele>
        <time>2011-03-05T17:22:05Z</time>
      </trkpt>
      <trkpt lat="44.00482" lon="1.70893">
        <ele>312</ele>
        <time>2011-03-05T17:22:06Z</time>
      </trkpt>
      <trkpt lat="44.00475" lon="1.70907">
        <ele>309</ele>
        <time>2011-03-05T17:22:13Z</time>
      </trkpt>
      <trkpt lat="44.00476" lon="1.70912">
        <ele>309</ele>
        <time>2011-03-05T17:22:15Z</time>
      </trkpt>
      <trkpt lat="44.00478" lon="1.70916">
        <ele>308</ele>
        <time>2011-03-05T17:22:17Z</time>
      </trkpt>
      <trkpt lat="44.00488" lon="1.70925">
        <ele>305</ele>
        <time>2011-03-05T17:22:22Z</time>
      </trkpt>
      <trkpt lat="44.00501" lon="1.70931">
        <ele>302</ele>
        <time>2011-03-05T17:22:26Z</time>
      </trkpt>
      <trkpt lat="44.00503" lon="1.70933">
        <ele>302</ele>
        <time>2011-03-05T17:22:27Z</time>
      </trkpt>
      <trkpt lat="44.00504" lon="1.70936">
        <ele>301</ele>
        <time>2011-03-05T17:22:28Z</time>
      </trkpt>
      <trkpt lat="44.00503" lon="1.70939">
        <ele>300</ele>
        <time>2011-03-05T17:22:29Z</time>
      </trkpt>
      <trkpt lat="44.00503" lon="1.70946">
        <ele>299</ele>
        <time>2011-03-05T17:22:31Z</time>
      </trkpt>
      <trkpt lat="44.005" lon="1.70955">
        <ele>298</ele>
        <time>2011-03-05T17:22:34Z</time>
      </trkpt>
      <trkpt lat="44.00497" lon="1.70969">
        <ele>297</ele>
        <time>2011-03-05T17:22:38Z</time>
      </trkpt>
      <trkpt lat="44.00497" lon="1.70975">
        <ele>296</ele>
        <time>2011-03-05T17:22:40Z</time>
      </trkpt>
      <trkpt lat="44.00495" lon="1.70984">
        <ele>294</ele>
        <time>2011-03-05T17:22:44Z</time>
      </trkpt>
      <trkpt lat="44.00496" lon="1.70997">
        <ele>289</ele>
        <time>2011-03-05T17:22:57Z</time>
      </trkpt>
      <trkpt lat="44.00494" lon="1.70999">
        <ele>289</ele>
        <time>2011-03-05T17:22:59Z</time>
      </trkpt>
      <trkpt lat="44.00493" lon="1.70999">
        <ele>288</ele>
        <time>2011-03-05T17:23:02Z</time>
      </trkpt>
      <trkpt lat="44.00488" lon="1.70993">
        <ele>286</ele>
        <time>2011-03-05T17:23:20Z</time>
      </trkpt>
      <trkpt lat="44.00485" lon="1.70983">
        <ele>285</ele>
        <time>2011-03-05T17:23:23Z</time>
      </trkpt>
      <trkpt lat="44.00483" lon="1.70979">
        <ele>284</ele>
        <time>2011-03-05T17:23:24Z</time>
      </trkpt>
      <trkpt lat="44.00478" lon="1.70973">
        <ele>284</ele>
        <time>2011-03-05T17:23:26Z</time>
      </trkpt>
      <trkpt lat="44.00475" lon="1.70972">
        <ele>284</ele>
        <time>2011-03-05T17:23:27Z</time>
      </trkpt>
      <trkpt lat="44.00469" lon="1.70976">
        <ele>284</ele>
        <time>2011-03-05T17:23:30Z</time>
      </trkpt>
      <trkpt lat="44.00462" lon="1.70977">
        <ele>283</ele>
        <time>2011-03-05T17:23:32Z</time>
      </trkpt>
      <trkpt lat="44.00458" lon="1.7098">
        <ele>283</ele>
        <time>2011-03-05T17:23:34Z</time>
      </trkpt>
      <trkpt lat="44.00444" lon="1.70976">
        <ele>282</ele>
        <time>2011-03-05T17:23:39Z</time>
      </trkpt>
      <trkpt lat="44.00436" lon="1.70972">
        <ele>281</ele>
        <time>2011-03-05T17:23:41Z</time>
      </trkpt>
      <trkpt lat="44.00427" lon="1.70968">
        <ele>281</ele>
        <time>2011-03-05T17:23:43Z</time>
      </trkpt>
      <trkpt lat="44.00412" lon="1.70955">
        <ele>280</ele>
        <time>2011-03-05T17:23:47Z</time>
      </trkpt>
      <trkpt lat="44.00399" lon="1.70947">
        <ele>279</ele>
        <time>2011-03-05T17:23:50Z</time>
      </trkpt>
      <trkpt lat="44.00385" lon="1.70935">
        <ele>276</ele>
        <time>2011-03-05T17:23:54Z</time>
      </trkpt>
      <trkpt lat="44.00382" lon="1.70932">
        <ele>275</ele>
        <time>2011-03-05T17:23:55Z</time>
      </trkpt>
      <trkpt lat="44.0038" lon="1.7093">
        <ele>274</ele>
        <time>2011-03-05T17:23:56Z</time>
      </trkpt>
      <trkpt lat="44.0037" lon="1.70919">
        <ele>271</ele>
        <time>2011-03-05T17:24:00Z</time>
      </trkpt>
      <trkpt lat="44.00366" lon="1.70911">
        <ele>269</ele>
        <time>2011-03-05T17:24:02Z</time>
      </trkpt>
      <trkpt lat="44.00362" lon="1.70902">
        <ele>267</ele>
        <time>2011-03-05T17:24:04Z</time>
      </trkpt>
      <trkpt lat="44.00353" lon="1.70883">
        <ele>263</ele>
        <time>2011-03-05T17:24:08Z</time>
      </trkpt>
      <trkpt lat="44.0034" lon="1.70863">
        <ele>259</ele>
        <time>2011-03-05T17:24:12Z</time>
      </trkpt>
      <trkpt lat="44.00329" lon="1.7085">
        <ele>258</ele>
        <time>2011-03-05T17:24:15Z</time>
      </trkpt>
      <trkpt lat="44.00308" lon="1.70836">
        <ele>257</ele>
        <time>2011-03-05T17:24:19Z</time>
      </trkpt>
      <trkpt lat="44.00298" lon="1.70827">
        <ele>256</ele>
        <time>2011-03-05T17:24:21Z</time>
      </trkpt>
      <trkpt lat="44.00294" lon="1.70823">
        <ele>255</ele>
        <time>2011-03-05T17:24:22Z</time>
      </trkpt>
      <trkpt lat="44.0029" lon="1.70821">
        <ele>255</ele>
        <time>2011-03-05T17:24:23Z</time>
      </trkpt>
      <trkpt lat="44.00283" lon="1.7082">
        <ele>254</ele>
        <time>2011-03-05T17:24:25Z</time>
      </trkpt>
      <trkpt lat="44.00279" lon="1.70823">
        <ele>254</ele>
        <time>2011-03-05T17:24:27Z</time>
      </trkpt>
      <trkpt lat="44.00271" lon="1.70834">
        <ele>251</ele>
        <time>2011-03-05T17:24:31Z</time>
      </trkpt>
      <trkpt lat="44.00267" lon="1.70843">
        <ele>250</ele>
        <time>2011-03-05T17:24:33Z</time>
      </trkpt>
      <trkpt lat="44.00254" lon="1.70864">
        <ele>248</ele>
        <time>2011-03-05T17:24:37Z</time>
      </trkpt>
      <trkpt lat="44.00245" lon="1.70877">
        <ele>246</ele>
        <time>2011-03-05T17:24:40Z</time>
      </trkpt>
      <trkpt lat="44.00238" lon="1.70882">
        <ele>244</ele>
        <time>2011-03-05T17:24:42Z</time>
      </trkpt>
      <trkpt lat="44.00228" lon="1.70893">
        <ele>241</ele>
        <time>2011-03-05T17:24:45Z</time>
      </trkpt>
      <trkpt lat="44.00221" lon="1.70898">
        <ele>239</ele>
        <time>2011-03-05T17:24:47Z</time>
      </trkpt>
      <trkpt lat="44.00217" lon="1.709">
        <ele>238</ele>
        <time>2011-03-05T17:24:48Z</time>
      </trkpt>
      <trkpt lat="44.00205" lon="1.70903">
        <ele>235</ele>
        <time>2011-03-05T17:24:51Z</time>
      </trkpt>
      <trkpt lat="44.00198" lon="1.70906">
        <ele>232</ele>
        <time>2011-03-05T17:24:54Z</time>
      </trkpt>
      <trkpt lat="44.00191" lon="1.70908">
        <ele>230</ele>
        <time>2011-03-05T17:24:57Z</time>
      </trkpt>
      <trkpt lat="44.0018" lon="1.70906">
        <ele>227</ele>
        <time>2011-03-05T17:25:02Z</time>
      </trkpt>
      <trkpt lat="44.00173" lon="1.70907">
        <ele>226</ele>
        <time>2011-03-05T17:25:04Z</time>
      </trkpt>
      <trkpt lat="44.00161" lon="1.70913">
        <ele>225</ele>
        <time>2011-03-05T17:25:09Z</time>
      </trkpt>
      <trkpt lat="44.00156" lon="1.70912">
        <ele>225</ele>
        <time>2011-03-05T17:25:13Z</time>
      </trkpt>
      <trkpt lat="44.00154" lon="1.70914">
        <ele>225</ele>
        <time>2011-03-05T17:25:16Z</time>
      </trkpt>
      <trkpt lat="44.00154" lon="1.70917">
        <ele>225</ele>
        <time>2011-03-05T17:25:18Z</time>
      </trkpt>
      <trkpt lat="44.00155" lon="1.7092">
        <ele>225</ele>
        <time>2011-03-05T17:25:21Z</time>
      </trkpt>
      <trkpt lat="44.00154" lon="1.70921">
        <ele>223</ele>
        <time>2011-03-05T17:25:24Z</time>
      </trkpt>
      <trkpt lat="44.00153" lon="1.70921">
        <ele>221</ele>
        <time>2011-03-05T17:25:28Z</time>
      </trkpt>
      <trkpt lat="44.0015" lon="1.7092">
        <ele>218</ele>
        <time>2011-03-05T17:25:33Z</time>
      </trkpt>
      <trkpt lat="44.00144" lon="1.7092">
        <ele>217</ele>
        <time>2011-03-05T17:25:39Z</time>
      </trkpt>
      <trkpt lat="44.00138" lon="1.70922">
        <ele>217</ele>
        <time>2011-03-05T17:25:41Z</time>
      </trkpt>
      <trkpt lat="44.00135" lon="1.70922">
        <ele>217</ele>
        <time>2011-03-05T17:25:42Z</time>
      </trkpt>
      <trkpt lat="44.0013" lon="1.70924">
        <ele>217</ele>
        <time>2011-03-05T17:25:43Z</time>
      </trkpt>
      <trkpt lat="44.00121" lon="1.70928">
        <ele>217</ele>
        <time>2011-03-05T17:25:45Z</time>
      </trkpt>
      <trkpt lat="44.00119" lon="1.70929">
        <ele>217</ele>
        <time>2011-03-05T17:25:46Z</time>
      </trkpt>
      <trkpt lat="44.00113" lon="1.70928">
        <ele>217</ele>
        <time>2011-03-05T17:25:48Z</time>
      </trkpt>
      <trkpt lat="44.00111" lon="1.70928">
        <ele>217</ele>
        <time>2011-03-05T17:25:49Z</time>
      </trkpt>
      <trkpt lat="44.00107" lon="1.70932">
        <ele>216</ele>
        <time>2011-03-05T17:25:52Z</time>
      </trkpt>
      <trkpt lat="44.00104" lon="1.70933">
        <ele>216</ele>
        <time>2011-03-05T17:25:53Z</time>
      </trkpt>
      <trkpt lat="44.00094" lon="1.70931">
        <ele>213</ele>
        <time>2011-03-05T17:25:56Z</time>
      </trkpt>
      <trkpt lat="44.00073" lon="1.70939">
        <ele>209</ele>
        <time>2011-03-05T17:26:02Z</time>
      </trkpt>
      <trkpt lat="44.00064" lon="1.7094">
        <ele>207</ele>
        <time>2011-03-05T17:26:05Z</time>
      </trkpt>
      <trkpt lat="44.00047" lon="1.70946">
        <ele>203</ele>
        <time>2011-03-05T17:26:11Z</time>
      </trkpt>
      <trkpt lat="44.00044" lon="1.70947">
        <ele>202</ele>
        <time>2011-03-05T17:26:12Z</time>
      </trkpt>
      <trkpt lat="44.00032" lon="1.70956">
        <ele>198</ele>
        <time>2011-03-05T17:26:17Z</time>
      </trkpt>
      <trkpt lat="44.00027" lon="1.70957">
        <ele>197</ele>
        <time>2011-03-05T17:26:19Z</time>
      </trkpt>
      <trkpt lat="44.00012" lon="1.70947">
        <ele>193</ele>
        <time>2011-03-05T17:26:33Z</time>
      </trkpt>
      <trkpt lat="44.00011" lon="1.70948">
        <ele>193</ele>
        <time>2011-03-05T17:26:35Z</time>
      </trkpt>
      <trkpt lat="43.99997" lon="1.70939">
        <ele>193</ele>
        <time>2011-03-05T17:26:51Z</time>
      </trkpt>
      <trkpt lat="43.99997" lon="1.70941">
        <ele>193</ele>
        <time>2011-03-05T17:26:55Z</time>
      </trkpt>
      <trkpt lat="43.99997" lon="1.70942">
        <ele>193</ele>
        <time>2011-03-05T17:27:00Z</time>
      </trkpt>
      <trkpt lat="43.99991" lon="1.70939">
        <ele>193</ele>
        <time>2011-03-05T17:27:07Z</time>
      </trkpt>
      <trkpt lat="43.99984" lon="1.70938">
        <ele>193</ele>
        <time>2011-03-05T17:27:10Z</time>
      </trkpt>
      <trkpt lat="43.99976" lon="1.7094">
        <ele>193</ele>
        <time>2011-03-05T17:27:14Z</time>
      </trkpt>
      <trkpt lat="43.99971" lon="1.70939">
        <ele>193</ele>
        <time>2011-03-05T17:27:16Z</time>
      </trkpt>
      <trkpt lat="43.99966" lon="1.7094">
        <ele>191</ele>
        <time>2011-03-05T17:27:18Z</time>
      </trkpt>
      <trkpt lat="43.9996" lon="1.70943">
        <ele>189</ele>
        <time>2011-03-05T17:27:21Z</time>
      </trkpt>
      <trkpt lat="43.99953" lon="1.70952">
        <ele>186</ele>
        <time>2011-03-05T17:27:25Z</time>
      </trkpt>
      <trkpt lat="43.99949" lon="1.7096">
        <ele>184</ele>
        <time>2011-03-05T17:27:27Z</time>
      </trkpt>
      <trkpt lat="43.9994" lon="1.70972">
        <ele>180</ele>
        <time>2011-03-05T17:27:31Z</time>
      </trkpt>
      <trkpt lat="43.99937" lon="1.70977">
        <ele>178</ele>
        <time>2011-03-05T17:27:33Z</time>
      </trkpt>
      <trkpt lat="43.99932" lon="1.70978">
        <ele>177</ele>
        <time>2011-03-05T17:27:37Z</time>
      </trkpt>
      <trkpt lat="43.99931" lon="1.70976">
        <ele>177</ele>
        <time>2011-03-05T17:27:39Z</time>
      </trkpt>
      <trkpt lat="43.99932" lon="1.70975">
        <ele>177</ele>
        <time>2011-03-05T17:27:41Z</time>
      </trkpt>
      <trkpt lat="43.99931" lon="1.70973">
        <ele>177</ele>
        <time>2011-03-05T17:27:44Z</time>
      </trkpt>
      <trkpt lat="43.99924" lon="1.70975">
        <ele>177</ele>
        <time>2011-03-05T17:27:51Z</time>
      </trkpt>
      <trkpt lat="43.99921" lon="1.70978">
        <ele>177</ele>
        <time>2011-03-05T17:27:59Z</time>
      </trkpt>
      <trkpt lat="43.99919" lon="1.70978">
        <ele>177</ele>
        <time>2011-03-05T17:28:01Z</time>
      </trkpt>
      <trkpt lat="43.99915" lon="1.70984">
        <ele>177</ele>
        <time>2011-03-05T17:28:07Z</time>
      </trkpt>
      <trkpt lat="43.99915" lon="1.70987">
        <ele>177</ele>
        <time>2011-03-05T17:28:09Z</time>
      </trkpt>
      <trkpt lat="43.99912" lon="1.70991">
        <ele>177</ele>
        <time>2011-03-05T17:28:14Z</time>
      </trkpt>
      <trkpt lat="43.99907" lon="1.70993">
        <ele>177</ele>
        <time>2011-03-05T17:28:20Z</time>
      </trkpt>
      <trkpt lat="43.99902" lon="1.70992">
        <ele>178</ele>
        <time>2011-03-05T17:28:24Z</time>
      </trkpt>
      <trkpt lat="43.99899" lon="1.70993">
        <ele>180</ele>
        <time>2011-03-05T17:28:28Z</time>
      </trkpt>
      <trkpt lat="43.99897" lon="1.70996">
        <ele>181</ele>
        <time>2011-03-05T17:28:31Z</time>
      </trkpt>
      <trkpt lat="43.99895" lon="1.70997">
        <ele>181</ele>
        <time>2011-03-05T17:28:34Z</time>
      </trkpt>
      <trkpt lat="43.9989" lon="1.70996">
        <ele>181</ele>
        <time>2011-03-05T17:28:44Z</time>
      </trkpt>
      <trkpt lat="43.99887" lon="1.70998">
        <ele>181</ele>
        <time>2011-03-05T17:28:48Z</time>
      </trkpt>
      <trkpt lat="43.99884" lon="1.71001">
        <ele>181</ele>
        <time>2011-03-05T17:28:52Z</time>
      </trkpt>
      <trkpt lat="43.99882" lon="1.71001">
        <ele>181</ele>
        <time>2011-03-05T17:28:54Z</time>
      </trkpt>
      <trkpt lat="43.99877" lon="1.71003">
        <ele>181</ele>
        <time>2011-03-05T17:28:59Z</time>
      </trkpt>
      <trkpt lat="43.99871" lon="1.71004">
        <ele>181</ele>
        <time>2011-03-05T17:29:05Z</time>
      </trkpt>
      <trkpt lat="43.99868" lon="1.71005">
        <ele>181</ele>
        <time>2011-03-05T17:29:09Z</time>
      </trkpt>
      <trkpt lat="43.99867" lon="1.71007">
        <ele>182</ele>
        <time>2011-03-05T17:29:11Z</time>
      </trkpt>
      <trkpt lat="43.9986" lon="1.71009">
        <ele>184</ele>
        <time>2011-03-05T17:29:22Z</time>
      </trkpt>
      <trkpt lat="43.99855" lon="1.71006">
        <ele>184</ele>
        <time>2011-03-05T17:29:29Z</time>
      </trkpt>
      <trkpt lat="43.99851" lon="1.71007">
        <ele>184</ele>
        <time>2011-03-05T17:29:35Z</time>
      </trkpt>
      <trkpt lat="43.99849" lon="1.71006">
        <ele>184</ele>
        <time>2011-03-05T17:29:37Z</time>
      </trkpt>
      <trkpt lat="43.99846" lon="1.71007">
        <ele>184</ele>
        <time>2011-03-05T17:29:41Z</time>
      </trkpt>
      <trkpt lat="43.99841" lon="1.71005">
        <ele>184</ele>
        <time>2011-03-05T17:29:46Z</time>
      </trkpt>
      <trkpt lat="43.9984" lon="1.71007">
        <ele>184</ele>
        <time>2011-03-05T17:29:48Z</time>
      </trkpt>
      <trkpt lat="43.99834" lon="1.71004">
        <ele>187</ele>
        <time>2011-03-05T17:29:53Z</time>
      </trkpt>
      <trkpt lat="43.99831" lon="1.71005">
        <ele>187</ele>
        <time>2011-03-05T17:29:57Z</time>
      </trkpt>
      <trkpt lat="43.99829" lon="1.71005">
        <ele>187</ele>
        <time>2011-03-05T17:29:59Z</time>
      </trkpt>
      <trkpt lat="43.99826" lon="1.71007">
        <ele>187</ele>
        <time>2011-03-05T17:30:03Z</time>
      </trkpt>
      <trkpt lat="43.99823" lon="1.71008">
        <ele>187</ele>
        <time>2011-03-05T17:30:06Z</time>
      </trkpt>
      <trkpt lat="43.99814" lon="1.71014">
        <ele>188</ele>
        <time>2011-03-05T17:30:16Z</time>
      </trkpt>
      <trkpt lat="43.99809" lon="1.71024">
        <ele>191</ele>
        <time>2011-03-05T17:30:27Z</time>
      </trkpt>
      <trkpt lat="43.99802" lon="1.71034">
        <ele>191</ele>
        <time>2011-03-05T17:30:37Z</time>
      </trkpt>
      <trkpt lat="43.99798" lon="1.71041">
        <ele>191</ele>
        <time>2011-03-05T17:30:48Z</time>
      </trkpt>
      <trkpt lat="43.99798" lon="1.71042">
        <ele>191</ele>
        <time>2011-03-05T17:30:54Z</time>
      </trkpt>
      <trkpt lat="43.99795" lon="1.7105">
        <ele>191</ele>
        <time>2011-03-05T17:31:21Z</time>
      </trkpt>
      <trkpt lat="43.99792" lon="1.71051">
        <ele>191</ele>
        <time>2011-03-05T17:31:22Z</time>
      </trkpt>
      <trkpt lat="43.99789" lon="1.71054">
        <ele>191</ele>
        <time>2011-03-05T17:31:24Z</time>
      </trkpt>
      <trkpt lat="43.99783" lon="1.71063">
        <ele>191</ele>
        <time>2011-03-05T17:31:27Z</time>
      </trkpt>
      <trkpt lat="43.99776" lon="1.71073">
        <ele>191</ele>
        <time>2011-03-05T17:31:30Z</time>
      </trkpt>
      <trkpt lat="43.99767" lon="1.71081">
        <ele>191</ele>
        <time>2011-03-05T17:31:33Z</time>
      </trkpt>
      <trkpt lat="43.9975" lon="1.71091">
        <ele>191</ele>
        <time>2011-03-05T17:31:37Z</time>
      </trkpt>
      <trkpt lat="43.99748" lon="1.71093">
        <ele>191</ele>
        <time>2011-03-05T17:31:38Z</time>
      </trkpt>
      <trkpt lat="43.99747" lon="1.71093">
        <ele>191</ele>
        <time>2011-03-05T17:31:43Z</time>
      </trkpt>
      <trkpt lat="43.99744" lon="1.71099">
        <ele>192</ele>
        <time>2011-03-05T17:31:49Z</time>
      </trkpt>
      <trkpt lat="43.99741" lon="1.71101">
        <ele>192</ele>
        <time>2011-03-05T17:31:53Z</time>
      </trkpt>
      <trkpt lat="43.99737" lon="1.71103">
        <ele>193</ele>
        <time>2011-03-05T17:31:59Z</time>
      </trkpt>
      <trkpt lat="43.99734" lon="1.71105">
        <ele>194</ele>
        <time>2011-03-05T17:32:03Z</time>
      </trkpt>
      <trkpt lat="43.99731" lon="1.71105">
        <ele>194</ele>
        <time>2011-03-05T17:32:07Z</time>
      </trkpt>
      <trkpt lat="43.99719" lon="1.71094">
        <ele>195</ele>
        <time>2011-03-05T17:32:20Z</time>
      </trkpt>
      <trkpt lat="43.99713" lon="1.71091">
        <ele>195</ele>
        <time>2011-03-05T17:32:22Z</time>
      </trkpt>
      <trkpt lat="43.99697" lon="1.71086">
        <ele>195</ele>
        <time>2011-03-05T17:32:27Z</time>
      </trkpt>
      <trkpt lat="43.99681" lon="1.71077">
        <ele>195</ele>
        <time>2011-03-05T17:32:31Z</time>
      </trkpt>
      <trkpt lat="43.99678" lon="1.71076">
        <ele>195</ele>
        <time>2011-03-05T17:32:32Z</time>
      </trkpt>
      <trkpt lat="43.99675" lon="1.71077">
        <ele>195</ele>
        <time>2011-03-05T17:32:33Z</time>
      </trkpt>
      <trkpt lat="43.99672" lon="1.71079">
        <ele>195</ele>
        <time>2011-03-05T17:32:34Z</time>
      </trkpt>
      <trkpt lat="43.99667" lon="1.71088">
        <ele>195</ele>
        <time>2011-03-05T17:32:37Z</time>
      </trkpt>
      <trkpt lat="43.99663" lon="1.71098">
        <ele>195</ele>
        <time>2011-03-05T17:32:40Z</time>
      </trkpt>
      <trkpt lat="43.99646" lon="1.71138">
        <ele>196</ele>
        <time>2011-03-05T17:32:52Z</time>
      </trkpt>
      <trkpt lat="43.99642" lon="1.71148">
        <ele>197</ele>
        <time>2011-03-05T17:32:55Z</time>
      </trkpt>
      <trkpt lat="43.99639" lon="1.71154">
        <ele>197</ele>
        <time>2011-03-05T17:32:57Z</time>
      </trkpt>
      <trkpt lat="43.99632" lon="1.71174">
        <ele>198</ele>
        <time>2011-03-05T17:33:03Z</time>
      </trkpt>
      <trkpt lat="43.99623" lon="1.71197">
        <ele>200</ele>
        <time>2011-03-05T17:33:10Z</time>
      </trkpt>
      <trkpt lat="43.99601" lon="1.71264">
        <ele>205</ele>
        <time>2011-03-05T17:33:30Z</time>
      </trkpt>
      <trkpt lat="43.99597" lon="1.71281">
        <ele>205</ele>
        <time>2011-03-05T17:33:35Z</time>
      </trkpt>
      <trkpt lat="43.99596" lon="1.71288">
        <ele>205</ele>
        <time>2011-03-05T17:33:37Z</time>
      </trkpt>
      <trkpt lat="43.99597" lon="1.71295">
        <ele>206</ele>
        <time>2011-03-05T17:33:39Z</time>
      </trkpt>
      <trkpt lat="43.99599" lon="1.71301">
        <ele>206</ele>
        <time>2011-03-05T17:33:41Z</time>
      </trkpt>
      <trkpt lat="43.99602" lon="1.71309">
        <ele>207</ele>
        <time>2011-03-05T17:33:44Z</time>
      </trkpt>
      <trkpt lat="43.99629" lon="1.71353">
        <ele>210</ele>
        <time>2011-03-05T17:34:02Z</time>
      </trkpt>
      <trkpt lat="43.99642" lon="1.71382">
        <ele>213</ele>
        <time>2011-03-05T17:34:13Z</time>
      </trkpt>
      <trkpt lat="43.99645" lon="1.7139">
        <ele>214</ele>
        <time>2011-03-05T17:34:16Z</time>
      </trkpt>
      <trkpt lat="43.99646" lon="1.71393">
        <ele>214</ele>
        <time>2011-03-05T17:34:17Z</time>
      </trkpt>
      <trkpt lat="43.9965" lon="1.71407">
        <ele>216</ele>
        <time>2011-03-05T17:34:22Z</time>
      </trkpt>
      <trkpt lat="43.99651" lon="1.71414">
        <ele>217</ele>
        <time>2011-03-05T17:34:24Z</time>
      </trkpt>
      <trkpt lat="43.99651" lon="1.71427">
        <ele>218</ele>
        <time>2011-03-05T17:34:28Z</time>
      </trkpt>
      <trkpt lat="43.99649" lon="1.71456">
        <ele>220</ele>
        <time>2011-03-05T17:34:37Z</time>
      </trkpt>
      <trkpt lat="43.99646" lon="1.71478">
        <ele>222</ele>
        <time>2011-03-05T17:34:44Z</time>
      </trkpt>
      <trkpt lat="43.99641" lon="1.71507">
        <ele>224</ele>
        <time>2011-03-05T17:34:53Z</time>
      </trkpt>
      <trkpt lat="43.99636" lon="1.7153">
        <ele>225</ele>
        <time>2011-03-05T17:35:00Z</time>
      </trkpt>
      <trkpt lat="43.9963" lon="1.71567">
        <ele>228</ele>
        <time>2011-03-05T17:35:12Z</time>
      </trkpt>
      <trkpt lat="43.99629" lon="1.71597">
        <ele>231</ele>
        <time>2011-03-05T17:35:23Z</time>
      </trkpt>
      <trkpt lat="43.99628" lon="1.71604">
        <ele>232</ele>
        <time>2011-03-05T17:35:26Z</time>
      </trkpt>
      <trkpt lat="43.99622" lon="1.71618">
        <ele>236</ele>
        <time>2011-03-05T17:35:33Z</time>
      </trkpt>
      <trkpt lat="43.99618" lon="1.71625">
        <ele>238</ele>
        <time>2011-03-05T17:35:37Z</time>
      </trkpt>
      <trkpt lat="43.99615" lon="1.71631">
        <ele>238</ele>
        <time>2011-03-05T17:35:40Z</time>
      </trkpt>
      <trkpt lat="43.99607" lon="1.71639">
        <ele>239</ele>
        <time>2011-03-05T17:35:45Z</time>
      </trkpt>
      <trkpt lat="43.99602" lon="1.71642">
        <ele>239</ele>
        <time>2011-03-05T17:35:48Z</time>
      </trkpt>
      <trkpt lat="43.99597" lon="1.71644">
        <ele>240</ele>
        <time>2011-03-05T17:35:51Z</time>
      </trkpt>
      <trkpt lat="43.99588" lon="1.71643">
        <ele>241</ele>
        <time>2011-03-05T17:35:56Z</time>
      </trkpt>
      <trkpt lat="43.99583" lon="1.7164">
        <ele>242</ele>
        <time>2011-03-05T17:35:59Z</time>
      </trkpt>
      <trkpt lat="43.99577" lon="1.71633">
        <ele>243</ele>
        <time>2011-03-05T17:36:03Z</time>
      </trkpt>
      <trkpt lat="43.99564" lon="1.71611">
        <ele>245</ele>
        <time>2011-03-05T17:36:11Z</time>
      </trkpt>
      <trkpt lat="43.99552" lon="1.71594">
        <ele>245</ele>
        <time>2011-03-05T17:36:15Z</time>
      </trkpt>
      <trkpt lat="43.99519" lon="1.71554">
        <ele>247</ele>
        <time>2011-03-05T17:36:25Z</time>
      </trkpt>
      <trkpt lat="43.99509" lon="1.71541">
        <ele>247</ele>
        <time>2011-03-05T17:36:28Z</time>
      </trkpt>
      <trkpt lat="43.99504" lon="1.71532">
        <ele>247</ele>
        <time>2011-03-05T17:36:30Z</time>
      </trkpt>
      <trkpt lat="43.995" lon="1.71521">
        <ele>247</ele>
        <time>2011-03-05T17:36:32Z</time>
      </trkpt>
      <trkpt lat="43.99492" lon="1.7149">
        <ele>247</ele>
        <time>2011-03-05T17:36:37Z</time>
      </trkpt>
      <trkpt lat="43.99486" lon="1.71472">
        <ele>247</ele>
        <time>2011-03-05T17:36:40Z</time>
      </trkpt>
      <trkpt lat="43.99481" lon="1.7146">
        <ele>247</ele>
        <time>2011-03-05T17:36:42Z</time>
      </trkpt>
      <trkpt lat="43.99472" lon="1.71446">
        <ele>247</ele>
        <time>2011-03-05T17:36:45Z</time>
      </trkpt>
      <trkpt lat="43.99462" lon="1.71432">
        <ele>246</ele>
        <time>2011-03-05T17:36:48Z</time>
      </trkpt>
      <trkpt lat="43.99455" lon="1.7142">
        <ele>246</ele>
        <time>2011-03-05T17:36:51Z</time>
      </trkpt>
      <trkpt lat="43.99455" lon="1.71416">
        <ele>245</ele>
        <time>2011-03-05T17:36:56Z</time>
      </trkpt>
      <trkpt lat="43.99456" lon="1.71416">
        <ele>245</ele>
        <time>2011-03-05T17:36:59Z</time>
      </trkpt>
      <trkpt lat="43.99457" lon="1.71414">
        <ele>245</ele>
        <time>2011-03-05T17:37:18Z</time>
      </trkpt>
      <trkpt lat="43.99459" lon="1.71416">
        <ele>242</ele>
        <time>2011-03-05T17:37:28Z</time>
      </trkpt>
      <trkpt lat="43.99461" lon="1.71415">
        <ele>242</ele>
        <time>2011-03-05T17:37:33Z</time>
      </trkpt>
      <trkpt lat="43.99462" lon="1.71416">
        <ele>242</ele>
        <time>2011-03-05T17:37:57Z</time>
      </trkpt>
      <trkpt lat="43.99462" lon="1.71417">
        <ele>242</ele>
        <time>2011-03-05T17:38:00Z</time>
      </trkpt>
      <trkpt lat="43.9946" lon="1.71418">
        <ele>242</ele>
        <time>2011-03-05T17:38:03Z</time>
      </trkpt>
      <trkpt lat="43.99459" lon="1.71417">
        <ele>242</ele>
        <time>2011-03-05T17:38:06Z</time>
      </trkpt>
      <trkpt lat="43.9946" lon="1.71417">
        <ele>242</ele>
        <time>2011-03-05T17:38:12Z</time>
      </trkpt>
      <trkpt lat="43.99459" lon="1.71416">
        <ele>242</ele>
        <time>2011-03-05T17:38:23Z</time>
      </trkpt>
      <trkpt lat="43.99456" lon="1.71416">
        <ele>242</ele>
        <time>2011-03-05T17:39:14Z</time>
      </trkpt>
      <trkpt lat="43.99452" lon="1.7141">
        <ele>242</ele>
        <time>2011-03-05T17:39:20Z</time>
      </trkpt>
      <trkpt lat="43.99451" lon="1.71407">
        <ele>242</ele>
        <time>2011-03-05T17:39:21Z</time>
      </trkpt>
      <trkpt lat="43.99444" lon="1.71392">
        <ele>242</ele>
        <time>2011-03-05T17:39:25Z</time>
      </trkpt>
      <trkpt lat="43.99439" lon="1.7138">
        <ele>242</ele>
        <time>2011-03-05T17:39:28Z</time>
      </trkpt>
      <trkpt lat="43.99432" lon="1.71365">
        <ele>242</ele>
        <time>2011-03-05T17:39:32Z</time>
      </trkpt>
      <trkpt lat="43.99428" lon="1.71361">
        <ele>242</ele>
        <time>2011-03-05T17:39:34Z</time>
      </trkpt>
      <trkpt lat="43.99419" lon="1.71355">
        <ele>242</ele>
        <time>2011-03-05T17:39:38Z</time>
      </trkpt>
      <trkpt lat="43.99415" lon="1.71355">
        <ele>242</ele>
        <time>2011-03-05T17:39:40Z</time>
      </trkpt>
      <trkpt lat="43.99411" lon="1.71359">
        <ele>242</ele>
        <time>2011-03-05T17:39:42Z</time>
      </trkpt>
      <trkpt lat="43.99407" lon="1.71364">
        <ele>242</ele>
        <time>2011-03-05T17:39:44Z</time>
      </trkpt>
      <trkpt lat="43.99403" lon="1.71376">
        <ele>242</ele>
        <time>2011-03-05T17:39:47Z</time>
      </trkpt>
      <trkpt lat="43.99401" lon="1.71385">
        <ele>242</ele>
        <time>2011-03-05T17:39:49Z</time>
      </trkpt>
      <trkpt lat="43.99406" lon="1.71416">
        <ele>242</ele>
        <time>2011-03-05T17:39:59Z</time>
      </trkpt>
      <trkpt lat="43.99406" lon="1.71428">
        <ele>242</ele>
        <time>2011-03-05T17:40:03Z</time>
      </trkpt>
      <trkpt lat="43.99407" lon="1.71438">
        <ele>242</ele>
        <time>2011-03-05T17:40:06Z</time>
      </trkpt>
      <trkpt lat="43.99408" lon="1.71447">
        <ele>243</ele>
        <time>2011-03-05T17:40:09Z</time>
      </trkpt>
      <trkpt lat="43.99413" lon="1.71465">
        <ele>244</ele>
        <time>2011-03-05T17:40:15Z</time>
      </trkpt>
      <trkpt lat="43.99417" lon="1.71476">
        <ele>245</ele>
        <time>2011-03-05T17:40:19Z</time>
      </trkpt>
      <trkpt lat="43.9942" lon="1.71482">
        <ele>245</ele>
        <time>2011-03-05T17:40:21Z</time>
      </trkpt>
      <trkpt lat="43.99424" lon="1.71494">
        <ele>246</ele>
        <time>2011-03-05T17:40:25Z</time>
      </trkpt>
      <trkpt lat="43.9943" lon="1.71505">
        <ele>247</ele>
        <time>2011-03-05T17:40:29Z</time>
      </trkpt>
      <trkpt lat="43.99443" lon="1.71537">
        <ele>249</ele>
        <time>2011-03-05T17:40:40Z</time>
      </trkpt>
      <trkpt lat="43.99448" lon="1.71551">
        <ele>250</ele>
        <time>2011-03-05T17:40:45Z</time>
      </trkpt>
      <trkpt lat="43.99452" lon="1.7156">
        <ele>251</ele>
        <time>2011-03-05T17:40:48Z</time>
      </trkpt>
      <trkpt lat="43.99456" lon="1.71571">
        <ele>252</ele>
        <time>2011-03-05T17:40:52Z</time>
      </trkpt>
      <trkpt lat="43.99472" lon="1.71608">
        <ele>254</ele>
        <time>2011-03-05T17:41:05Z</time>
      </trkpt>
      <trkpt lat="43.99478" lon="1.71625">
        <ele>255</ele>
        <time>2011-03-05T17:41:11Z</time>
      </trkpt>
      <trkpt lat="43.99506" lon="1.71686">
        <ele>259</ele>
        <time>2011-03-05T17:41:34Z</time>
      </trkpt>
      <trkpt lat="43.99509" lon="1.71691">
        <ele>259</ele>
        <time>2011-03-05T17:41:36Z</time>
      </trkpt>
      <trkpt lat="43.99518" lon="1.71709">
        <ele>261</ele>
        <time>2011-03-05T17:41:44Z</time>
      </trkpt>
      <trkpt lat="43.9952" lon="1.71713">
        <ele>262</ele>
        <time>2011-03-05T17:41:46Z</time>
      </trkpt>
      <trkpt lat="43.99522" lon="1.71726">
        <ele>264</ele>
        <time>2011-03-05T17:41:53Z</time>
      </trkpt>
      <trkpt lat="43.99523" lon="1.71728">
        <ele>265</ele>
        <time>2011-03-05T17:41:56Z</time>
      </trkpt>
      <trkpt lat="43.99523" lon="1.71732">
        <ele>267</ele>
        <time>2011-03-05T17:42:00Z</time>
      </trkpt>
      <trkpt lat="43.99528" lon="1.71745">
        <ele>270</ele>
        <time>2011-03-05T17:42:14Z</time>
      </trkpt>
      <trkpt lat="43.99536" lon="1.71762">
        <ele>270</ele>
        <time>2011-03-05T17:42:31Z</time>
      </trkpt>
      <trkpt lat="43.99537" lon="1.71764">
        <ele>270</ele>
        <time>2011-03-05T17:42:33Z</time>
      </trkpt>
      <trkpt lat="43.99539" lon="1.71768">
        <ele>270</ele>
        <time>2011-03-05T17:42:37Z</time>
      </trkpt>
      <trkpt lat="43.99539" lon="1.71769">
        <ele>270</ele>
        <time>2011-03-05T17:42:38Z</time>
      </trkpt>
      <trkpt lat="43.99541" lon="1.71775">
        <ele>270</ele>
        <time>2011-03-05T17:42:44Z</time>
      </trkpt>
      <trkpt lat="43.99542" lon="1.71779">
        <ele>270</ele>
        <time>2011-03-05T17:42:47Z</time>
      </trkpt>
      <trkpt lat="43.99545" lon="1.71783">
        <ele>270</ele>
        <time>2011-03-05T17:42:52Z</time>
      </trkpt>
      <trkpt lat="43.99547" lon="1.71789">
        <ele>270</ele>
        <time>2011-03-05T17:42:58Z</time>
      </trkpt>
      <trkpt lat="43.9955" lon="1.71795">
        <ele>270</ele>
        <time>2011-03-05T17:43:04Z</time>
      </trkpt>
      <trkpt lat="43.99551" lon="1.718">
        <ele>271</ele>
        <time>2011-03-05T17:43:17Z</time>
      </trkpt>
      <trkpt lat="43.99552" lon="1.71802">
        <ele>271</ele>
        <time>2011-03-05T17:43:19Z</time>
      </trkpt>
      <trkpt lat="43.99554" lon="1.71809">
        <ele>272</ele>
        <time>2011-03-05T17:43:25Z</time>
      </trkpt>
      <trkpt lat="43.99558" lon="1.71814">
        <ele>273</ele>
        <time>2011-03-05T17:43:31Z</time>
      </trkpt>
      <trkpt lat="43.99559" lon="1.71818">
        <ele>273</ele>
        <time>2011-03-05T17:43:35Z</time>
      </trkpt>
      <trkpt lat="43.99561" lon="1.71822">
        <ele>274</ele>
        <time>2011-03-05T17:43:39Z</time>
      </trkpt>
      <trkpt lat="43.99565" lon="1.7183">
        <ele>275</ele>
        <time>2011-03-05T17:43:49Z</time>
      </trkpt>
      <trkpt lat="43.99567" lon="1.71832">
        <ele>275</ele>
        <time>2011-03-05T17:43:52Z</time>
      </trkpt>
      <trkpt lat="43.99572" lon="1.71842">
        <ele>276</ele>
        <time>2011-03-05T17:44:04Z</time>
      </trkpt>
      <trkpt lat="43.99575" lon="1.71845">
        <ele>277</ele>
        <time>2011-03-05T17:44:09Z</time>
      </trkpt>
      <trkpt lat="43.99577" lon="1.7185">
        <ele>277</ele>
        <time>2011-03-05T17:44:15Z</time>
      </trkpt>
      <trkpt lat="43.99584" lon="1.71859">
        <ele>280</ele>
        <time>2011-03-05T17:44:26Z</time>
      </trkpt>
      <trkpt lat="43.9959" lon="1.71862">
        <ele>282</ele>
        <time>2011-03-05T17:44:34Z</time>
      </trkpt>
      <trkpt lat="43.99595" lon="1.71865">
        <ele>285</ele>
        <time>2011-03-05T17:44:40Z</time>
      </trkpt>
      <trkpt lat="43.99598" lon="1.71868">
        <ele>288</ele>
        <time>2011-03-05T17:44:46Z</time>
      </trkpt>
      <trkpt lat="43.996" lon="1.71868">
        <ele>288</ele>
        <time>2011-03-05T17:44:48Z</time>
      </trkpt>
      <trkpt lat="43.99608" lon="1.71875">
        <ele>291</ele>
        <time>2011-03-05T17:44:58Z</time>
      </trkpt>
      <trkpt lat="43.99611" lon="1.71881">
        <ele>292</ele>
        <time>2011-03-05T17:45:06Z</time>
      </trkpt>
      <trkpt lat="43.99613" lon="1.71883">
        <ele>292</ele>
        <time>2011-03-05T17:45:08Z</time>
      </trkpt>
      <trkpt lat="43.99619" lon="1.71885">
        <ele>293</ele>
        <time>2011-03-05T17:45:16Z</time>
      </trkpt>
      <trkpt lat="43.99624" lon="1.71891">
        <ele>296</ele>
        <time>2011-03-05T17:45:25Z</time>
      </trkpt>
      <trkpt lat="43.99632" lon="1.71908">
        <ele>296</ele>
        <time>2011-03-05T17:45:43Z</time>
      </trkpt>
      <trkpt lat="43.99633" lon="1.71922">
        <ele>296</ele>
        <time>2011-03-05T17:46:01Z</time>
      </trkpt>
      <trkpt lat="43.99643" lon="1.71945">
        <ele>300</ele>
        <time>2011-03-05T17:46:21Z</time>
      </trkpt>
      <trkpt lat="43.99645" lon="1.71952">
        <ele>302</ele>
        <time>2011-03-05T17:46:49Z</time>
      </trkpt>
      <trkpt lat="43.99646" lon="1.71955">
        <ele>302</ele>
        <time>2011-03-05T17:46:51Z</time>
      </trkpt>
      <trkpt lat="43.99649" lon="1.71967">
        <ele>303</ele>
        <time>2011-03-05T17:46:59Z</time>
      </trkpt>
      <trkpt lat="43.99649" lon="1.71972">
        <ele>303</ele>
        <time>2011-03-05T17:47:02Z</time>
      </trkpt>
      <trkpt lat="43.9965" lon="1.71981">
        <ele>304</ele>
        <time>2011-03-05T17:47:07Z</time>
      </trkpt>
      <trkpt lat="43.99655" lon="1.71992">
        <ele>305</ele>
        <time>2011-03-05T17:47:14Z</time>
      </trkpt>
      <trkpt lat="43.99662" lon="1.72005">
        <ele>307</ele>
        <time>2011-03-05T17:47:23Z</time>
      </trkpt>
      <trkpt lat="43.99665" lon="1.72015">
        <ele>307</ele>
        <time>2011-03-05T17:47:29Z</time>
      </trkpt>
      <trkpt lat="43.99666" lon="1.72023">
        <ele>308</ele>
        <time>2011-03-05T17:47:34Z</time>
      </trkpt>
      <trkpt lat="43.99667" lon="1.72026">
        <ele>308</ele>
        <time>2011-03-05T17:47:36Z</time>
      </trkpt>
      <trkpt lat="43.99674" lon="1.72029">
        <ele>309</ele>
        <time>2011-03-05T17:47:42Z</time>
      </trkpt>
      <trkpt lat="43.99684" lon="1.72039">
        <ele>309</ele>
        <time>2011-03-05T17:47:51Z</time>
      </trkpt>
      <trkpt lat="43.99693" lon="1.72053">
        <ele>310</ele>
        <time>2011-03-05T17:48:01Z</time>
      </trkpt>
      <trkpt lat="43.99694" lon="1.72056">
        <ele>310</ele>
        <time>2011-03-05T17:48:03Z</time>
      </trkpt>
      <trkpt lat="43.997" lon="1.72077">
        <ele>312</ele>
        <time>2011-03-05T17:48:14Z</time>
      </trkpt>
      <trkpt lat="43.99704" lon="1.72089">
        <ele>313</ele>
        <time>2011-03-05T17:48:20Z</time>
      </trkpt>
      <trkpt lat="43.99707" lon="1.721">
        <ele>314</ele>
        <time>2011-03-05T17:48:25Z</time>
      </trkpt>
      <trkpt lat="43.99708" lon="1.72104">
        <ele>315</ele>
        <time>2011-03-05T17:48:27Z</time>
      </trkpt>
      <trkpt lat="43.99713" lon="1.72113">
        <ele>316</ele>
        <time>2011-03-05T17:48:32Z</time>
      </trkpt>
      <trkpt lat="43.9972" lon="1.72123">
        <ele>317</ele>
        <time>2011-03-05T17:48:38Z</time>
      </trkpt>
      <trkpt lat="43.99724" lon="1.72133">
        <ele>317</ele>
        <time>2011-03-05T17:48:43Z</time>
      </trkpt>
      <trkpt lat="43.99729" lon="1.72139">
        <ele>318</ele>
        <time>2011-03-05T17:48:47Z</time>
      </trkpt>
      <trkpt lat="43.9974" lon="1.72149">
        <ele>319</ele>
        <time>2011-03-05T17:48:55Z</time>
      </trkpt>
      <trkpt lat="43.99747" lon="1.72164">
        <ele>321</ele>
        <time>2011-03-05T17:49:03Z</time>
      </trkpt>
      <trkpt lat="43.99754" lon="1.72174">
        <ele>322</ele>
        <time>2011-03-05T17:49:09Z</time>
      </trkpt>
      <trkpt lat="43.99755" lon="1.72178">
        <ele>323</ele>
        <time>2011-03-05T17:49:11Z</time>
      </trkpt>
      <trkpt lat="43.99757" lon="1.72189">
        <ele>323</ele>
        <time>2011-03-05T17:49:16Z</time>
      </trkpt>
      <trkpt lat="43.99759" lon="1.72196">
        <ele>324</ele>
        <time>2011-03-05T17:49:19Z</time>
      </trkpt>
      <trkpt lat="43.99762" lon="1.72203">
        <ele>325</ele>
        <time>2011-03-05T17:49:23Z</time>
      </trkpt>
      <trkpt lat="43.99764" lon="1.72205">
        <ele>326</ele>
        <time>2011-03-05T17:49:24Z</time>
      </trkpt>
      <trkpt lat="43.99767" lon="1.72213">
        <ele>326</ele>
        <time>2011-03-05T17:49:28Z</time>
      </trkpt>
      <trkpt lat="43.99767" lon="1.7222">
        <ele>326</ele>
        <time>2011-03-05T17:49:31Z</time>
      </trkpt>
      <trkpt lat="43.99766" lon="1.72224">
        <ele>327</ele>
        <time>2011-03-05T17:49:33Z</time>
      </trkpt>
      <trkpt lat="43.99766" lon="1.72236">
        <ele>327</ele>
        <time>2011-03-05T17:49:38Z</time>
      </trkpt>
      <trkpt lat="43.99768" lon="1.72241">
        <ele>327</ele>
        <time>2011-03-05T17:49:41Z</time>
      </trkpt>
      <trkpt lat="43.99781" lon="1.72257">
        <ele>328</ele>
        <time>2011-03-05T17:49:50Z</time>
      </trkpt>
      <trkpt lat="43.99782" lon="1.72262">
        <ele>328</ele>
        <time>2011-03-05T17:49:52Z</time>
      </trkpt>
      <trkpt lat="43.99784" lon="1.7228">
        <ele>329</ele>
        <time>2011-03-05T17:49:59Z</time>
      </trkpt>
      <trkpt lat="43.99783" lon="1.72285">
        <ele>329</ele>
        <time>2011-03-05T17:50:01Z</time>
      </trkpt>
      <trkpt lat="43.9978" lon="1.72293">
        <ele>330</ele>
        <time>2011-03-05T17:50:05Z</time>
      </trkpt>
      <trkpt lat="43.99781" lon="1.72299">
        <ele>330</ele>
        <time>2011-03-05T17:50:07Z</time>
      </trkpt>
      <trkpt lat="43.99782" lon="1.72304">
        <ele>330</ele>
        <time>2011-03-05T17:50:09Z</time>
      </trkpt>
      <trkpt lat="43.99788" lon="1.72317">
        <ele>330</ele>
        <time>2011-03-05T17:50:14Z</time>
      </trkpt>
      <trkpt lat="43.99792" lon="1.72333">
        <ele>330</ele>
        <time>2011-03-05T17:50:20Z</time>
      </trkpt>
      <trkpt lat="43.99797" lon="1.72344">
        <ele>330</ele>
        <time>2011-03-05T17:50:24Z</time>
      </trkpt>
      <trkpt lat="43.99799" lon="1.72352">
        <ele>331</ele>
        <time>2011-03-05T17:50:27Z</time>
      </trkpt>
      <trkpt lat="43.99809" lon="1.72373">
        <ele>331</ele>
        <time>2011-03-05T17:50:35Z</time>
      </trkpt>
      <trkpt lat="43.99819" lon="1.72387">
        <ele>331</ele>
        <time>2011-03-05T17:50:40Z</time>
      </trkpt>
      <trkpt lat="43.99826" lon="1.72402">
        <ele>331</ele>
        <time>2011-03-05T17:50:44Z</time>
      </trkpt>
      <trkpt lat="43.99833" lon="1.72419">
        <ele>331</ele>
        <time>2011-03-05T17:50:48Z</time>
      </trkpt>
      <trkpt lat="43.99836" lon="1.72423">
        <ele>331</ele>
        <time>2011-03-05T17:50:49Z</time>
      </trkpt>
      <trkpt lat="43.99844" lon="1.72434">
        <ele>331</ele>
        <time>2011-03-05T17:50:52Z</time>
      </trkpt>
      <trkpt lat="43.99853" lon="1.72448">
        <ele>331</ele>
        <time>2011-03-05T17:50:56Z</time>
      </trkpt>
      <trkpt lat="43.99856" lon="1.7245">
        <ele>331</ele>
        <time>2011-03-05T17:50:57Z</time>
      </trkpt>
      <trkpt lat="43.99862" lon="1.72453">
        <ele>331</ele>
        <time>2011-03-05T17:50:59Z</time>
      </trkpt>
      <trkpt lat="43.99868" lon="1.72455">
        <ele>331</ele>
        <time>2011-03-05T17:51:01Z</time>
      </trkpt>
      <trkpt lat="43.99888" lon="1.72455">
        <ele>331</ele>
        <time>2011-03-05T17:51:07Z</time>
      </trkpt>
      <trkpt lat="43.9991" lon="1.72451">
        <ele>331</ele>
        <time>2011-03-05T17:51:13Z</time>
      </trkpt>
      <trkpt lat="43.99925" lon="1.72446">
        <ele>331</ele>
        <time>2011-03-05T17:51:17Z</time>
      </trkpt>
      <trkpt lat="43.99973" lon="1.72433">
        <ele>331</ele>
        <time>2011-03-05T17:51:30Z</time>
      </trkpt>
      <trkpt lat="44.00018" lon="1.72426">
        <ele>333</ele>
        <time>2011-03-05T17:51:42Z</time>
      </trkpt>
      <trkpt lat="44.00024" lon="1.72423">
        <ele>333</ele>
        <time>2011-03-05T17:51:44Z</time>
      </trkpt>
      <trkpt lat="44.00035" lon="1.72421">
        <ele>334</ele>
        <time>2011-03-05T17:51:47Z</time>
      </trkpt>
      <trkpt lat="44.00064" lon="1.72413">
        <ele>336</ele>
        <time>2011-03-05T17:51:55Z</time>
      </trkpt>
      <trkpt lat="44.00074" lon="1.72412">
        <ele>337</ele>
        <time>2011-03-05T17:51:58Z</time>
      </trkpt>
      <trkpt lat="44.00122" lon="1.72413">
        <ele>339</ele>
        <time>2011-03-05T17:52:12Z</time>
      </trkpt>
      <trkpt lat="44.00132" lon="1.72412">
        <ele>339</ele>
        <time>2011-03-05T17:52:15Z</time>
      </trkpt>
      <trkpt lat="44.00146" lon="1.72412">
        <ele>339</ele>
        <time>2011-03-05T17:52:19Z</time>
      </trkpt>
      <trkpt lat="44.00172" lon="1.72411">
        <ele>339</ele>
        <time>2011-03-05T17:52:26Z</time>
      </trkpt>
      <trkpt lat="44.00171" lon="1.72409">
        <ele>339</ele>
        <time>2011-03-05T17:52:28Z</time>
      </trkpt>
      <trkpt lat="44.00169" lon="1.72409">
        <ele>339</ele>
        <time>2011-03-05T17:52:30Z</time>
      </trkpt>
      <trkpt lat="44.00164" lon="1.72414">
        <ele>339</ele>
        <time>2011-03-05T17:52:33Z</time>
      </trkpt>
      <trkpt lat="44.00162" lon="1.7242">
        <ele>339</ele>
        <time>2011-03-05T17:52:35Z</time>
      </trkpt>
      <trkpt lat="44.0016" lon="1.72423">
        <ele>339</ele>
        <time>2011-03-05T17:52:36Z</time>
      </trkpt>
      <trkpt lat="44.00152" lon="1.72429">
        <ele>339</ele>
        <time>2011-03-05T17:52:39Z</time>
      </trkpt>
      <trkpt lat="44.00151" lon="1.72432">
        <ele>339</ele>
        <time>2011-03-05T17:52:40Z</time>
      </trkpt>
      <trkpt lat="44.0015" lon="1.72437">
        <ele>339</ele>
        <time>2011-03-05T17:52:41Z</time>
      </trkpt>
      <trkpt lat="44.00151" lon="1.72442">
        <ele>339</ele>
        <time>2011-03-05T17:52:42Z</time>
      </trkpt>
      <trkpt lat="44.00153" lon="1.72448">
        <ele>339</ele>
        <time>2011-03-05T17:52:43Z</time>
      </trkpt>
      <trkpt lat="44.00156" lon="1.72453">
        <ele>339</ele>
        <time>2011-03-05T17:52:44Z</time>
      </trkpt>
      <trkpt lat="44.00161" lon="1.72457">
        <ele>339</ele>
        <time>2011-03-05T17:52:45Z</time>
      </trkpt>
      <trkpt lat="44.0017" lon="1.72462">
        <ele>338</ele>
        <time>2011-03-05T17:52:47Z</time>
      </trkpt>
      <trkpt lat="44.00189" lon="1.72477">
        <ele>337</ele>
        <time>2011-03-05T17:52:51Z</time>
      </trkpt>
      <trkpt lat="44.00214" lon="1.72499">
        <ele>335</ele>
        <time>2011-03-05T17:52:56Z</time>
      </trkpt>
      <trkpt lat="44.00223" lon="1.7251">
        <ele>334</ele>
        <time>2011-03-05T17:52:58Z</time>
      </trkpt>
      <trkpt lat="44.00234" lon="1.72527">
        <ele>333</ele>
        <time>2011-03-05T17:53:01Z</time>
      </trkpt>
      <trkpt lat="44.00237" lon="1.72534">
        <ele>332</ele>
        <time>2011-03-05T17:53:02Z</time>
      </trkpt>
      <trkpt lat="44.00251" lon="1.72583">
        <ele>329</ele>
        <time>2011-03-05T17:53:08Z</time>
      </trkpt>
      <trkpt lat="44.00258" lon="1.72598">
        <ele>328</ele>
        <time>2011-03-05T17:53:10Z</time>
      </trkpt>
      <trkpt lat="44.00277" lon="1.72624">
        <ele>325</ele>
        <time>2011-03-05T17:53:14Z</time>
      </trkpt>
      <trkpt lat="44.00293" lon="1.72643">
        <ele>322</ele>
        <time>2011-03-05T17:53:17Z</time>
      </trkpt>
      <trkpt lat="44.00304" lon="1.72658">
        <ele>321</ele>
        <time>2011-03-05T17:53:19Z</time>
      </trkpt>
      <trkpt lat="44.00313" lon="1.72674">
        <ele>320</ele>
        <time>2011-03-05T17:53:21Z</time>
      </trkpt>
      <trkpt lat="44.00327" lon="1.72695">
        <ele>318</ele>
        <time>2011-03-05T17:53:24Z</time>
      </trkpt>
      <trkpt lat="44.00341" lon="1.72714">
        <ele>315</ele>
        <time>2011-03-05T17:53:29Z</time>
      </trkpt>
      <trkpt lat="44.0035" lon="1.72726">
        <ele>313</ele>
        <time>2011-03-05T17:53:33Z</time>
      </trkpt>
      <trkpt lat="44.00352" lon="1.7273">
        <ele>313</ele>
        <time>2011-03-05T17:53:34Z</time>
      </trkpt>
      <trkpt lat="44.00356" lon="1.72741">
        <ele>312</ele>
        <time>2011-03-05T17:53:36Z</time>
      </trkpt>
      <trkpt lat="44.00358" lon="1.72746">
        <ele>311</ele>
        <time>2011-03-05T17:53:37Z</time>
      </trkpt>
      <trkpt lat="44.00365" lon="1.72754">
        <ele>310</ele>
        <time>2011-03-05T17:53:39Z</time>
      </trkpt>
      <trkpt lat="44.00371" lon="1.72767">
        <ele>308</ele>
        <time>2011-03-05T17:53:42Z</time>
      </trkpt>
      <trkpt lat="44.00375" lon="1.72771">
        <ele>308</ele>
        <time>2011-03-05T17:53:43Z</time>
      </trkpt>
      <trkpt lat="44.00382" lon="1.72781">
        <ele>307</ele>
        <time>2011-03-05T17:53:45Z</time>
      </trkpt>
      <trkpt lat="44.00385" lon="1.72787">
        <ele>307</ele>
        <time>2011-03-05T17:53:46Z</time>
      </trkpt>
      <trkpt lat="44.00388" lon="1.72792">
        <ele>306</ele>
        <time>2011-03-05T17:53:47Z</time>
      </trkpt>
      <trkpt lat="44.00397" lon="1.72801">
        <ele>306</ele>
        <time>2011-03-05T17:53:49Z</time>
      </trkpt>
      <trkpt lat="44.00404" lon="1.7281">
        <ele>305</ele>
        <time>2011-03-05T17:53:51Z</time>
      </trkpt>
      <trkpt lat="44.0041" lon="1.72816">
        <ele>304</ele>
        <time>2011-03-05T17:53:53Z</time>
      </trkpt>
      <trkpt lat="44.00412" lon="1.72819">
        <ele>304</ele>
        <time>2011-03-05T17:53:54Z</time>
      </trkpt>
      <trkpt lat="44.00414" lon="1.72829">
        <ele>303</ele>
        <time>2011-03-05T17:53:56Z</time>
      </trkpt>
      <trkpt lat="44.00418" lon="1.72839">
        <ele>303</ele>
        <time>2011-03-05T17:53:58Z</time>
      </trkpt>
      <trkpt lat="44.00422" lon="1.72844">
        <ele>302</ele>
        <time>2011-03-05T17:53:59Z</time>
      </trkpt>
      <trkpt lat="44.00425" lon="1.72848">
        <ele>302</ele>
        <time>2011-03-05T17:54:00Z</time>
      </trkpt>
      <trkpt lat="44.00429" lon="1.72851">
        <ele>301</ele>
        <time>2011-03-05T17:54:01Z</time>
      </trkpt>
      <trkpt lat="44.00439" lon="1.72855">
        <ele>300</ele>
        <time>2011-03-05T17:54:04Z</time>
      </trkpt>
      <trkpt lat="44.00441" lon="1.7286">
        <ele>299</ele>
        <time>2011-03-05T17:54:06Z</time>
      </trkpt>
      <trkpt lat="44.00441" lon="1.72869">
        <ele>298</ele>
        <time>2011-03-05T17:54:09Z</time>
      </trkpt>
      <trkpt lat="44.0044" lon="1.72882">
        <ele>296</ele>
        <time>2011-03-05T17:54:13Z</time>
      </trkpt>
      <trkpt lat="44.0044" lon="1.72903">
        <ele>296</ele>
        <time>2011-03-05T17:54:20Z</time>
      </trkpt>
      <trkpt lat="44.00438" lon="1.72916">
        <ele>296</ele>
        <time>2011-03-05T17:54:25Z</time>
      </trkpt>
      <trkpt lat="44.00437" lon="1.72921">
        <ele>296</ele>
        <time>2011-03-05T17:54:27Z</time>
      </trkpt>
      <trkpt lat="44.00431" lon="1.72939">
        <ele>296</ele>
        <time>2011-03-05T17:54:34Z</time>
      </trkpt>
      <trkpt lat="44.00428" lon="1.72951">
        <ele>296</ele>
        <time>2011-03-05T17:54:39Z</time>
      </trkpt>
      <trkpt lat="44.00427" lon="1.72959">
        <ele>297</ele>
        <time>2011-03-05T17:54:42Z</time>
      </trkpt>
      <trkpt lat="44.00427" lon="1.72969">
        <ele>298</ele>
        <time>2011-03-05T17:54:46Z</time>
      </trkpt>
      <trkpt lat="44.00428" lon="1.72974">
        <ele>298</ele>
        <time>2011-03-05T17:54:48Z</time>
      </trkpt>
      <trkpt lat="44.00428" lon="1.72977">
        <ele>298</ele>
        <time>2011-03-05T17:54:49Z</time>
      </trkpt>
      <trkpt lat="44.00429" lon="1.72979">
        <ele>299</ele>
        <time>2011-03-05T17:54:50Z</time>
      </trkpt>
      <trkpt lat="44.00431" lon="1.72993">
        <ele>300</ele>
        <time>2011-03-05T17:54:56Z</time>
      </trkpt>
      <trkpt lat="44.00431" lon="1.73001">
        <ele>300</ele>
        <time>2011-03-05T17:54:59Z</time>
      </trkpt>
      <trkpt lat="44.00428" lon="1.73015">
        <ele>300</ele>
        <time>2011-03-05T17:55:05Z</time>
      </trkpt>
      <trkpt lat="44.00425" lon="1.73028">
        <ele>301</ele>
        <time>2011-03-05T17:55:10Z</time>
      </trkpt>
      <trkpt lat="44.00424" lon="1.7303">
        <ele>301</ele>
        <time>2011-03-05T17:55:11Z</time>
      </trkpt>
      <trkpt lat="44.00423" lon="1.73032">
        <ele>301</ele>
        <time>2011-03-05T17:55:12Z</time>
      </trkpt>
      <trkpt lat="44.00419" lon="1.73045">
        <ele>303</ele>
        <time>2011-03-05T17:55:17Z</time>
      </trkpt>
      <trkpt lat="44.00416" lon="1.73057">
        <ele>303</ele>
        <time>2011-03-05T17:55:22Z</time>
      </trkpt>
      <trkpt lat="44.00409" lon="1.73078">
        <ele>305</ele>
        <time>2011-03-05T17:55:31Z</time>
      </trkpt>
      <trkpt lat="44.00403" lon="1.73096">
        <ele>307</ele>
        <time>2011-03-05T17:55:39Z</time>
      </trkpt>
      <trkpt lat="44.00395" lon="1.73125">
        <ele>310</ele>
        <time>2011-03-05T17:55:53Z</time>
      </trkpt>
      <trkpt lat="44.0039" lon="1.73154">
        <ele>313</ele>
        <time>2011-03-05T17:56:06Z</time>
      </trkpt>
      <trkpt lat="44.00387" lon="1.73177">
        <ele>315</ele>
        <time>2011-03-05T17:56:16Z</time>
      </trkpt>
      <trkpt lat="44.00386" lon="1.7319">
        <ele>317</ele>
        <time>2011-03-05T17:56:22Z</time>
      </trkpt>
      <trkpt lat="44.00384" lon="1.73198">
        <ele>317</ele>
        <time>2011-03-05T17:56:26Z</time>
      </trkpt>
      <trkpt lat="44.00382" lon="1.73221">
        <ele>319</ele>
        <time>2011-03-05T17:56:36Z</time>
      </trkpt>
      <trkpt lat="44.00381" lon="1.73243">
        <ele>320</ele>
        <time>2011-03-05T17:56:47Z</time>
      </trkpt>
      <trkpt lat="44.00382" lon="1.73245">
        <ele>320</ele>
        <time>2011-03-05T17:56:48Z</time>
      </trkpt>
      <trkpt lat="44.00385" lon="1.73249">
        <ele>321</ele>
        <time>2011-03-05T17:56:52Z</time>
      </trkpt>
      <trkpt lat="44.00386" lon="1.73248">
        <ele>324</ele>
        <time>2011-03-05T17:57:39Z</time>
      </trkpt>
      <trkpt lat="44.00391" lon="1.7325">
        <ele>324</ele>
        <time>2011-03-05T17:58:13Z</time>
      </trkpt>
      <trkpt lat="44.00395" lon="1.7325">
        <ele>324</ele>
        <time>2011-03-05T17:58:15Z</time>
      </trkpt>
      <trkpt lat="44.00405" lon="1.73247">
        <ele>324</ele>
        <time>2011-03-05T17:58:20Z</time>
      </trkpt>
      <trkpt lat="44.00418" lon="1.73242">
        <ele>324</ele>
        <time>2011-03-05T17:58:25Z</time>
      </trkpt>
      <trkpt lat="44.00436" lon="1.73238">
        <ele>324</ele>
        <time>2011-03-05T17:58:31Z</time>
      </trkpt>
      <trkpt lat="44.00451" lon="1.73235">
        <ele>324</ele>
        <time>2011-03-05T17:58:37Z</time>
      </trkpt>
      <trkpt lat="44.00457" lon="1.73232">
        <ele>324</ele>
        <time>2011-03-05T17:58:39Z</time>
      </trkpt>
      <trkpt lat="44.00468" lon="1.73229">
        <ele>324</ele>
        <time>2011-03-05T17:58:43Z</time>
      </trkpt>
      <trkpt lat="44.0048" lon="1.73221">
        <ele>324</ele>
        <time>2011-03-05T17:58:48Z</time>
      </trkpt>
      <trkpt lat="44.00487" lon="1.73217">
        <ele>324</ele>
        <time>2011-03-05T17:58:51Z</time>
      </trkpt>
      <trkpt lat="44.00501" lon="1.73214">
        <ele>324</ele>
        <time>2011-03-05T17:58:56Z</time>
      </trkpt>
      <trkpt lat="44.00527" lon="1.73212">
        <ele>325</ele>
        <time>2011-03-05T17:59:05Z</time>
      </trkpt>
      <trkpt lat="44.00535" lon="1.73209">
        <ele>326</ele>
        <time>2011-03-05T17:59:08Z</time>
      </trkpt>
      <trkpt lat="44.00546" lon="1.73204">
        <ele>327</ele>
        <time>2011-03-05T17:59:12Z</time>
      </trkpt>
      <trkpt lat="44.0056" lon="1.73196">
        <ele>327</ele>
        <time>2011-03-05T17:59:17Z</time>
      </trkpt>
      <trkpt lat="44.00568" lon="1.7319">
        <ele>327</ele>
        <time>2011-03-05T17:59:20Z</time>
      </trkpt>
      <trkpt lat="44.00576" lon="1.7318">
        <ele>328</ele>
        <time>2011-03-05T17:59:24Z</time>
      </trkpt>
      <trkpt lat="44.00584" lon="1.73168">
        <ele>328</ele>
        <time>2011-03-05T17:59:28Z</time>
      </trkpt>
      <trkpt lat="44.0059" lon="1.73159">
        <ele>328</ele>
        <time>2011-03-05T17:59:31Z</time>
      </trkpt>
      <trkpt lat="44.00597" lon="1.73146">
        <ele>329</ele>
        <time>2011-03-05T17:59:35Z</time>
      </trkpt>
      <trkpt lat="44.00604" lon="1.73138">
        <ele>329</ele>
        <time>2011-03-05T17:59:38Z</time>
      </trkpt>
      <trkpt lat="44.00616" lon="1.73126">
        <ele>330</ele>
        <time>2011-03-05T17:59:43Z</time>
      </trkpt>
      <trkpt lat="44.00639" lon="1.7311">
        <ele>333</ele>
        <time>2011-03-05T17:59:52Z</time>
      </trkpt>
      <trkpt lat="44.00653" lon="1.73098">
        <ele>335</ele>
        <time>2011-03-05T17:59:58Z</time>
      </trkpt>
      <trkpt lat="44.00674" lon="1.73078">
        <ele>337</ele>
        <time>2011-03-05T18:00:07Z</time>
      </trkpt>
      <trkpt lat="44.00686" lon="1.73068">
        <ele>337</ele>
        <time>2011-03-05T18:00:12Z</time>
      </trkpt>
      <trkpt lat="44.00709" lon="1.73044">
        <ele>340</ele>
        <time>2011-03-05T18:00:22Z</time>
      </trkpt>
      <trkpt lat="44.00727" lon="1.73024">
        <ele>342</ele>
        <time>2011-03-05T18:00:30Z</time>
      </trkpt>
      <trkpt lat="44.00745" lon="1.73006">
        <ele>344</ele>
        <time>2011-03-05T18:00:38Z</time>
      </trkpt>
      <trkpt lat="44.00757" lon="1.72991">
        <ele>344</ele>
        <time>2011-03-05T18:00:44Z</time>
      </trkpt>
      <trkpt lat="44.00762" lon="1.72988">
        <ele>344</ele>
        <time>2011-03-05T18:00:46Z</time>
      </trkpt>
      <trkpt lat="44.00776" lon="1.72974">
        <ele>345</ele>
        <time>2011-03-05T18:00:52Z</time>
      </trkpt>
      <trkpt lat="44.00784" lon="1.72968">
        <ele>345</ele>
        <time>2011-03-05T18:00:55Z</time>
      </trkpt>
      <trkpt lat="44.008" lon="1.72953">
        <ele>345</ele>
        <time>2011-03-05T18:01:01Z</time>
      </trkpt>
      <trkpt lat="44.00809" lon="1.72947">
        <ele>345</ele>
        <time>2011-03-05T18:01:04Z</time>
      </trkpt>
      <trkpt lat="44.00816" lon="1.72944">
        <ele>345</ele>
        <time>2011-03-05T18:01:06Z</time>
      </trkpt>
      <trkpt lat="44.00834" lon="1.72933">
        <ele>346</ele>
        <time>2011-03-05T18:01:12Z</time>
      </trkpt>
      <trkpt lat="44.00843" lon="1.72928">
        <ele>346</ele>
        <time>2011-03-05T18:01:15Z</time>
      </trkpt>
      <trkpt lat="44.00864" lon="1.72914">
        <ele>347</ele>
        <time>2011-03-05T18:01:22Z</time>
      </trkpt>
      <trkpt lat="44.0089" lon="1.72905">
        <ele>349</ele>
        <time>2011-03-05T18:01:30Z</time>
      </trkpt>
      <trkpt lat="44.00901" lon="1.72905">
        <ele>350</ele>
        <time>2011-03-05T18:01:34Z</time>
      </trkpt>
      <trkpt lat="44.00909" lon="1.72909">
        <ele>350</ele>
        <time>2011-03-05T18:01:37Z</time>
      </trkpt>
      <trkpt lat="44.00916" lon="1.7291">
        <ele>350</ele>
        <time>2011-03-05T18:01:39Z</time>
      </trkpt>
      <trkpt lat="44.00926" lon="1.72909">
        <ele>350</ele>
        <time>2011-03-05T18:01:41Z</time>
      </trkpt>
      <trkpt lat="44.00938" lon="1.72906">
        <ele>350</ele>
        <time>2011-03-05T18:01:43Z</time>
      </trkpt>
      <trkpt lat="44.00968" lon="1.72895">
        <ele>350</ele>
        <time>2011-03-05T18:01:47Z</time>
      </trkpt>
      <trkpt lat="44.00986" lon="1.72891">
        <ele>350</ele>
        <time>2011-03-05T18:01:49Z</time>
      </trkpt>
      <trkpt lat="44.01005" lon="1.72891">
        <ele>348</ele>
        <time>2011-03-05T18:01:51Z</time>
      </trkpt>
      <trkpt lat="44.01014" lon="1.72894">
        <ele>347</ele>
        <time>2011-03-05T18:01:52Z</time>
      </trkpt>
      <trkpt lat="44.01023" lon="1.72899">
        <ele>346</ele>
        <time>2011-03-05T18:01:53Z</time>
      </trkpt>
      <trkpt lat="44.01041" lon="1.72909">
        <ele>344</ele>
        <time>2011-03-05T18:01:55Z</time>
      </trkpt>
      <trkpt lat="44.01057" lon="1.72921">
        <ele>342</ele>
        <time>2011-03-05T18:01:57Z</time>
      </trkpt>
      <trkpt lat="44.01064" lon="1.72927">
        <ele>341</ele>
        <time>2011-03-05T18:01:58Z</time>
      </trkpt>
      <trkpt lat="44.0107" lon="1.72936">
        <ele>341</ele>
        <time>2011-03-05T18:01:59Z</time>
      </trkpt>
      <trkpt lat="44.01074" lon="1.72946">
        <ele>340</ele>
        <time>2011-03-05T18:02:00Z</time>
      </trkpt>
      <trkpt lat="44.01082" lon="1.72979">
        <ele>338</ele>
        <time>2011-03-05T18:02:03Z</time>
      </trkpt>
      <trkpt lat="44.01086" lon="1.72988">
        <ele>337</ele>
        <time>2011-03-05T18:02:04Z</time>
      </trkpt>
      <trkpt lat="44.01091" lon="1.72996">
        <ele>337</ele>
        <time>2011-03-05T18:02:05Z</time>
      </trkpt>
      <trkpt lat="44.01099" lon="1.73003">
        <ele>336</ele>
        <time>2011-03-05T18:02:06Z</time>
      </trkpt>
      <trkpt lat="44.01107" lon="1.73008">
        <ele>335</ele>
        <time>2011-03-05T18:02:07Z</time>
      </trkpt>
      <trkpt lat="44.01132" lon="1.73022">
        <ele>333</ele>
        <time>2011-03-05T18:02:10Z</time>
      </trkpt>
      <trkpt lat="44.01141" lon="1.73026">
        <ele>332</ele>
        <time>2011-03-05T18:02:11Z</time>
      </trkpt>
      <trkpt lat="44.01151" lon="1.73029">
        <ele>331</ele>
        <time>2011-03-05T18:02:12Z</time>
      </trkpt>
      <trkpt lat="44.01161" lon="1.7303">
        <ele>330</ele>
        <time>2011-03-05T18:02:13Z</time>
      </trkpt>
      <trkpt lat="44.01171" lon="1.7303">
        <ele>329</ele>
        <time>2011-03-05T18:02:14Z</time>
      </trkpt>
      <trkpt lat="44.0118" lon="1.73028">
        <ele>328</ele>
        <time>2011-03-05T18:02:15Z</time>
      </trkpt>
      <trkpt lat="44.01199" lon="1.73021">
        <ele>326</ele>
        <time>2011-03-05T18:02:17Z</time>
      </trkpt>
      <trkpt lat="44.01223" lon="1.73008">
        <ele>324</ele>
        <time>2011-03-05T18:02:20Z</time>
      </trkpt>
      <trkpt lat="44.0123" lon="1.73005">
        <ele>324</ele>
        <time>2011-03-05T18:02:21Z</time>
      </trkpt>
      <trkpt lat="44.01236" lon="1.73004">
        <ele>323</ele>
        <time>2011-03-05T18:02:22Z</time>
      </trkpt>
      <trkpt lat="44.01243" lon="1.73004">
        <ele>323</ele>
        <time>2011-03-05T18:02:23Z</time>
      </trkpt>
      <trkpt lat="44.01252" lon="1.73009">
        <ele>323</ele>
        <time>2011-03-05T18:02:25Z</time>
      </trkpt>
      <trkpt lat="44.01257" lon="1.73014">
        <ele>323</ele>
        <time>2011-03-05T18:02:27Z</time>
      </trkpt>
      <trkpt lat="44.01259" lon="1.73012">
        <ele>323</ele>
        <time>2011-03-05T18:03:03Z</time>
      </trkpt>
      <trkpt lat="44.01265" lon="1.73012">
        <ele>323</ele>
        <time>2011-03-05T18:03:19Z</time>
      </trkpt>
      <trkpt lat="44.0127" lon="1.73013">
        <ele>323</ele>
        <time>2011-03-05T18:03:21Z</time>
      </trkpt>
      <trkpt lat="44.01276" lon="1.73017">
        <ele>323</ele>
        <time>2011-03-05T18:03:23Z</time>
      </trkpt>
      <trkpt lat="44.01284" lon="1.73022">
        <ele>323</ele>
        <time>2011-03-05T18:03:25Z</time>
      </trkpt>
      <trkpt lat="44.01297" lon="1.73036">
        <ele>323</ele>
        <time>2011-03-05T18:03:28Z</time>
      </trkpt>
      <trkpt lat="44.01306" lon="1.73048">
        <ele>323</ele>
        <time>2011-03-05T18:03:30Z</time>
      </trkpt>
      <trkpt lat="44.01324" lon="1.7308">
        <ele>321</ele>
        <time>2011-03-05T18:03:34Z</time>
      </trkpt>
      <trkpt lat="44.01329" lon="1.73086">
        <ele>321</ele>
        <time>2011-03-05T18:03:35Z</time>
      </trkpt>
      <trkpt lat="44.01335" lon="1.73092">
        <ele>320</ele>
        <time>2011-03-05T18:03:36Z</time>
      </trkpt>
      <trkpt lat="44.01342" lon="1.73095">
        <ele>320</ele>
        <time>2011-03-05T18:03:37Z</time>
      </trkpt>
      <trkpt lat="44.01348" lon="1.73095">
        <ele>319</ele>
        <time>2011-03-05T18:03:38Z</time>
      </trkpt>
      <trkpt lat="44.01355" lon="1.73092">
        <ele>319</ele>
        <time>2011-03-05T18:03:39Z</time>
      </trkpt>
      <trkpt lat="44.01361" lon="1.73087">
        <ele>318</ele>
        <time>2011-03-05T18:03:40Z</time>
      </trkpt>
      <trkpt lat="44.01368" lon="1.73081">
        <ele>318</ele>
        <time>2011-03-05T18:03:41Z</time>
      </trkpt>
      <trkpt lat="44.01379" lon="1.73066">
        <ele>316</ele>
        <time>2011-03-05T18:03:43Z</time>
      </trkpt>
      <trkpt lat="44.01386" lon="1.7306">
        <ele>316</ele>
        <time>2011-03-05T18:03:44Z</time>
      </trkpt>
      <trkpt lat="44.01394" lon="1.73056">
        <ele>316</ele>
        <time>2011-03-05T18:03:45Z</time>
      </trkpt>
      <trkpt lat="44.01401" lon="1.73055">
        <ele>315</ele>
        <time>2011-03-05T18:03:46Z</time>
      </trkpt>
      <trkpt lat="44.01408" lon="1.73057">
        <ele>315</ele>
        <time>2011-03-05T18:03:47Z</time>
      </trkpt>
      <trkpt lat="44.01414" lon="1.73062">
        <ele>314</ele>
        <time>2011-03-05T18:03:48Z</time>
      </trkpt>
      <trkpt lat="44.01418" lon="1.73067">
        <ele>314</ele>
        <time>2011-03-05T18:03:49Z</time>
      </trkpt>
      <trkpt lat="44.0142" lon="1.73074">
        <ele>313</ele>
        <time>2011-03-05T18:03:50Z</time>
      </trkpt>
      <trkpt lat="44.01424" lon="1.73106">
        <ele>310</ele>
        <time>2011-03-05T18:03:53Z</time>
      </trkpt>
      <trkpt lat="44.01426" lon="1.73117">
        <ele>309</ele>
        <time>2011-03-05T18:03:54Z</time>
      </trkpt>
      <trkpt lat="44.01429" lon="1.73127">
        <ele>309</ele>
        <time>2011-03-05T18:03:55Z</time>
      </trkpt>
      <trkpt lat="44.01437" lon="1.73146">
        <ele>307</ele>
        <time>2011-03-05T18:03:57Z</time>
      </trkpt>
      <trkpt lat="44.01443" lon="1.73155">
        <ele>307</ele>
        <time>2011-03-05T18:03:58Z</time>
      </trkpt>
      <trkpt lat="44.01449" lon="1.73161">
        <ele>306</ele>
        <time>2011-03-05T18:03:59Z</time>
      </trkpt>
      <trkpt lat="44.01456" lon="1.73166">
        <ele>306</ele>
        <time>2011-03-05T18:04:00Z</time>
      </trkpt>
      <trkpt lat="44.01463" lon="1.73167">
        <ele>306</ele>
        <time>2011-03-05T18:04:01Z</time>
      </trkpt>
      <trkpt lat="44.01469" lon="1.73164">
        <ele>305</ele>
        <time>2011-03-05T18:04:02Z</time>
      </trkpt>
      <trkpt lat="44.01476" lon="1.7316">
        <ele>305</ele>
        <time>2011-03-05T18:04:03Z</time>
      </trkpt>
      <trkpt lat="44.01481" lon="1.73153">
        <ele>304</ele>
        <time>2011-03-05T18:04:04Z</time>
      </trkpt>
      <trkpt lat="44.01492" lon="1.73138">
        <ele>303</ele>
        <time>2011-03-05T18:04:06Z</time>
      </trkpt>
      <trkpt lat="44.01504" lon="1.73126">
        <ele>302</ele>
        <time>2011-03-05T18:04:08Z</time>
      </trkpt>
      <trkpt lat="44.0151" lon="1.73123">
        <ele>302</ele>
        <time>2011-03-05T18:04:09Z</time>
      </trkpt>
      <trkpt lat="44.01518" lon="1.73124">
        <ele>301</ele>
        <time>2011-03-05T18:04:10Z</time>
      </trkpt>
      <trkpt lat="44.01526" lon="1.73127">
        <ele>301</ele>
        <time>2011-03-05T18:04:11Z</time>
      </trkpt>
      <trkpt lat="44.01533" lon="1.73129">
        <ele>300</ele>
        <time>2011-03-05T18:04:12Z</time>
      </trkpt>
      <trkpt lat="44.01541" lon="1.73129">
        <ele>299</ele>
        <time>2011-03-05T18:04:13Z</time>
      </trkpt>
      <trkpt lat="44.01548" lon="1.73126">
        <ele>299</ele>
        <time>2011-03-05T18:04:14Z</time>
      </trkpt>
      <trkpt lat="44.01555" lon="1.7312">
        <ele>299</ele>
        <time>2011-03-05T18:04:15Z</time>
      </trkpt>
      <trkpt lat="44.01561" lon="1.73113">
        <ele>298</ele>
        <time>2011-03-05T18:04:16Z</time>
      </trkpt>
      <trkpt lat="44.01566" lon="1.73105">
        <ele>298</ele>
        <time>2011-03-05T18:04:17Z</time>
      </trkpt>
      <trkpt lat="44.01577" lon="1.73089">
        <ele>297</ele>
        <time>2011-03-05T18:04:19Z</time>
      </trkpt>
      <trkpt lat="44.01589" lon="1.73075">
        <ele>297</ele>
        <time>2011-03-05T18:04:21Z</time>
      </trkpt>
      <trkpt lat="44.01596" lon="1.73069">
        <ele>297</ele>
        <time>2011-03-05T18:04:22Z</time>
      </trkpt>
      <trkpt lat="44.01604" lon="1.73066">
        <ele>297</ele>
        <time>2011-03-05T18:04:23Z</time>
      </trkpt>
      <trkpt lat="44.01621" lon="1.73064">
        <ele>296</ele>
        <time>2011-03-05T18:04:25Z</time>
      </trkpt>
      <trkpt lat="44.01629" lon="1.73064">
        <ele>296</ele>
        <time>2011-03-05T18:04:26Z</time>
      </trkpt>
      <trkpt lat="44.01644" lon="1.73068">
        <ele>295</ele>
        <time>2011-03-05T18:04:28Z</time>
      </trkpt>
      <trkpt lat="44.01649" lon="1.73073">
        <ele>295</ele>
        <time>2011-03-05T18:04:29Z</time>
      </trkpt>
      <trkpt lat="44.01653" lon="1.73079">
        <ele>294</ele>
        <time>2011-03-05T18:04:30Z</time>
      </trkpt>
      <trkpt lat="44.01653" lon="1.73089">
        <ele>293</ele>
        <time>2011-03-05T18:04:31Z</time>
      </trkpt>
      <trkpt lat="44.01651" lon="1.73101">
        <ele>292</ele>
        <time>2011-03-05T18:04:32Z</time>
      </trkpt>
      <trkpt lat="44.01644" lon="1.73126">
        <ele>290</ele>
        <time>2011-03-05T18:04:34Z</time>
      </trkpt>
      <trkpt lat="44.01637" lon="1.73162">
        <ele>287</ele>
        <time>2011-03-05T18:04:37Z</time>
      </trkpt>
      <trkpt lat="44.01633" lon="1.73174">
        <ele>287</ele>
        <time>2011-03-05T18:04:38Z</time>
      </trkpt>
      <trkpt lat="44.01629" lon="1.73186">
        <ele>287</ele>
        <time>2011-03-05T18:04:39Z</time>
      </trkpt>
      <trkpt lat="44.01613" lon="1.73217">
        <ele>287</ele>
        <time>2011-03-05T18:04:42Z</time>
      </trkpt>
      <trkpt lat="44.016" lon="1.7325">
        <ele>287</ele>
        <time>2011-03-05T18:04:45Z</time>
      </trkpt>
      <trkpt lat="44.01595" lon="1.73272">
        <ele>285</ele>
        <time>2011-03-05T18:04:47Z</time>
      </trkpt>
      <trkpt lat="44.01595" lon="1.73282">
        <ele>285</ele>
        <time>2011-03-05T18:04:48Z</time>
      </trkpt>
      <trkpt lat="44.01596" lon="1.73292">
        <ele>284</ele>
        <time>2011-03-05T18:04:49Z</time>
      </trkpt>
      <trkpt lat="44.01599" lon="1.73299">
        <ele>284</ele>
        <time>2011-03-05T18:04:50Z</time>
      </trkpt>
      <trkpt lat="44.01606" lon="1.73303">
        <ele>283</ele>
        <time>2011-03-05T18:04:51Z</time>
      </trkpt>
      <trkpt lat="44.01622" lon="1.73306">
        <ele>282</ele>
        <time>2011-03-05T18:04:53Z</time>
      </trkpt>
      <trkpt lat="44.01661" lon="1.73309">
        <ele>279</ele>
        <time>2011-03-05T18:04:58Z</time>
      </trkpt>
      <trkpt lat="44.01667" lon="1.7331">
        <ele>279</ele>
        <time>2011-03-05T18:04:59Z</time>
      </trkpt>
      <trkpt lat="44.0167" lon="1.73313">
        <ele>279</ele>
        <time>2011-03-05T18:05:00Z</time>
      </trkpt>
      <trkpt lat="44.01671" lon="1.73316">
        <ele>279</ele>
        <time>2011-03-05T18:05:01Z</time>
      </trkpt>
      <trkpt lat="44.0167" lon="1.73319">
        <ele>278</ele>
        <time>2011-03-05T18:05:02Z</time>
      </trkpt>
      <trkpt lat="44.01653" lon="1.73333">
        <ele>276</ele>
        <time>2011-03-05T18:05:04Z</time>
      </trkpt>
      <trkpt lat="44.01646" lon="1.73337">
        <ele>275</ele>
        <time>2011-03-05T18:05:05Z</time>
      </trkpt>
      <trkpt lat="44.01623" lon="1.73348">
        <ele>272</ele>
        <time>2011-03-05T18:05:08Z</time>
      </trkpt>
      <trkpt lat="44.01616" lon="1.73353">
        <ele>271</ele>
        <time>2011-03-05T18:05:09Z</time>
      </trkpt>
      <trkpt lat="44.01601" lon="1.7336">
        <ele>269</ele>
        <time>2011-03-05T18:05:11Z</time>
      </trkpt>
      <trkpt lat="44.01593" lon="1.73363">
        <ele>269</ele>
        <time>2011-03-05T18:05:12Z</time>
      </trkpt>
      <trkpt lat="44.01566" lon="1.73365">
        <ele>268</ele>
        <time>2011-03-05T18:05:15Z</time>
      </trkpt>
      <trkpt lat="44.01558" lon="1.73368">
        <ele>268</ele>
        <time>2011-03-05T18:05:16Z</time>
      </trkpt>
      <trkpt lat="44.0155" lon="1.73372">
        <ele>267</ele>
        <time>2011-03-05T18:05:17Z</time>
      </trkpt>
      <trkpt lat="44.01543" lon="1.73378">
        <ele>267</ele>
        <time>2011-03-05T18:05:18Z</time>
      </trkpt>
      <trkpt lat="44.01535" lon="1.73387">
        <ele>267</ele>
        <time>2011-03-05T18:05:19Z</time>
      </trkpt>
      <trkpt lat="44.01529" lon="1.73397">
        <ele>267</ele>
        <time>2011-03-05T18:05:20Z</time>
      </trkpt>
      <trkpt lat="44.01524" lon="1.73407">
        <ele>267</ele>
        <time>2011-03-05T18:05:21Z</time>
      </trkpt>
      <trkpt lat="44.01515" lon="1.73428">
        <ele>267</ele>
        <time>2011-03-05T18:05:23Z</time>
      </trkpt>
      <trkpt lat="44.0151" lon="1.73437">
        <ele>266</ele>
        <time>2011-03-05T18:05:24Z</time>
      </trkpt>
      <trkpt lat="44.01504" lon="1.73445">
        <ele>266</ele>
        <time>2011-03-05T18:05:25Z</time>
      </trkpt>
      <trkpt lat="44.01498" lon="1.7345">
        <ele>265</ele>
        <time>2011-03-05T18:05:26Z</time>
      </trkpt>
      <trkpt lat="44.0149" lon="1.7345">
        <ele>265</ele>
        <time>2011-03-05T18:05:27Z</time>
      </trkpt>
      <trkpt lat="44.01481" lon="1.73449">
        <ele>264</ele>
        <time>2011-03-05T18:05:28Z</time>
      </trkpt>
      <trkpt lat="44.01472" lon="1.7345">
        <ele>263</ele>
        <time>2011-03-05T18:05:29Z</time>
      </trkpt>
      <trkpt lat="44.01453" lon="1.73456">
        <ele>262</ele>
        <time>2011-03-05T18:05:31Z</time>
      </trkpt>
      <trkpt lat="44.01434" lon="1.73465">
        <ele>261</ele>
        <time>2011-03-05T18:05:33Z</time>
      </trkpt>
      <trkpt lat="44.01415" lon="1.73478">
        <ele>259</ele>
        <time>2011-03-05T18:05:35Z</time>
      </trkpt>
      <trkpt lat="44.01397" lon="1.73493">
        <ele>258</ele>
        <time>2011-03-05T18:05:37Z</time>
      </trkpt>
      <trkpt lat="44.01388" lon="1.73501">
        <ele>257</ele>
        <time>2011-03-05T18:05:38Z</time>
      </trkpt>
      <trkpt lat="44.0138" lon="1.7351">
        <ele>256</ele>
        <time>2011-03-05T18:05:39Z</time>
      </trkpt>
      <trkpt lat="44.01365" lon="1.7353">
        <ele>254</ele>
        <time>2011-03-05T18:05:41Z</time>
      </trkpt>
      <trkpt lat="44.01352" lon="1.73552">
        <ele>252</ele>
        <time>2011-03-05T18:05:43Z</time>
      </trkpt>
      <trkpt lat="44.01331" lon="1.73575">
        <ele>250</ele>
        <time>2011-03-05T18:05:46Z</time>
      </trkpt>
      <trkpt lat="44.01319" lon="1.73592">
        <ele>249</ele>
        <time>2011-03-05T18:05:48Z</time>
      </trkpt>
      <trkpt lat="44.01314" lon="1.73602">
        <ele>248</ele>
        <time>2011-03-05T18:05:49Z</time>
      </trkpt>
      <trkpt lat="44.0131" lon="1.73612">
        <ele>247</ele>
        <time>2011-03-05T18:05:50Z</time>
      </trkpt>
      <trkpt lat="44.01308" lon="1.73624">
        <ele>246</ele>
        <time>2011-03-05T18:05:51Z</time>
      </trkpt>
      <trkpt lat="44.01308" lon="1.73635">
        <ele>245</ele>
        <time>2011-03-05T18:05:52Z</time>
      </trkpt>
      <trkpt lat="44.01308" lon="1.73647">
        <ele>244</ele>
        <time>2011-03-05T18:05:53Z</time>
      </trkpt>
      <trkpt lat="44.01313" lon="1.7367">
        <ele>242</ele>
        <time>2011-03-05T18:05:55Z</time>
      </trkpt>
      <trkpt lat="44.01315" lon="1.73681">
        <ele>241</ele>
        <time>2011-03-05T18:05:56Z</time>
      </trkpt>
      <trkpt lat="44.01315" lon="1.73693">
        <ele>240</ele>
        <time>2011-03-05T18:05:57Z</time>
      </trkpt>
      <trkpt lat="44.01311" lon="1.73703">
        <ele>239</ele>
        <time>2011-03-05T18:05:58Z</time>
      </trkpt>
      <trkpt lat="44.01294" lon="1.73732">
        <ele>236</ele>
        <time>2011-03-05T18:06:01Z</time>
      </trkpt>
      <trkpt lat="44.0129" lon="1.73743">
        <ele>235</ele>
        <time>2011-03-05T18:06:02Z</time>
      </trkpt>
      <trkpt lat="44.01284" lon="1.73767">
        <ele>234</ele>
        <time>2011-03-05T18:06:04Z</time>
      </trkpt>
      <trkpt lat="44.01283" lon="1.73779">
        <ele>233</ele>
        <time>2011-03-05T18:06:05Z</time>
      </trkpt>
      <trkpt lat="44.01282" lon="1.73791">
        <ele>232</ele>
        <time>2011-03-05T18:06:06Z</time>
      </trkpt>
      <trkpt lat="44.01284" lon="1.73813">
        <ele>230</ele>
        <time>2011-03-05T18:06:08Z</time>
      </trkpt>
      <trkpt lat="44.01286" lon="1.73824">
        <ele>229</ele>
        <time>2011-03-05T18:06:09Z</time>
      </trkpt>
      <trkpt lat="44.01289" lon="1.73835">
        <ele>228</ele>
        <time>2011-03-05T18:06:10Z</time>
      </trkpt>
      <trkpt lat="44.01294" lon="1.73843">
        <ele>227</ele>
        <time>2011-03-05T18:06:11Z</time>
      </trkpt>
      <trkpt lat="44.013" lon="1.73849">
        <ele>226</ele>
        <time>2011-03-05T18:06:12Z</time>
      </trkpt>
      <trkpt lat="44.01307" lon="1.73852">
        <ele>226</ele>
        <time>2011-03-05T18:06:13Z</time>
      </trkpt>
      <trkpt lat="44.01315" lon="1.73853">
        <ele>225</ele>
        <time>2011-03-05T18:06:14Z</time>
      </trkpt>
      <trkpt lat="44.01323" lon="1.73853">
        <ele>224</ele>
        <time>2011-03-05T18:06:15Z</time>
      </trkpt>
      <trkpt lat="44.01332" lon="1.7385">
        <ele>224</ele>
        <time>2011-03-05T18:06:16Z</time>
      </trkpt>
      <trkpt lat="44.01369" lon="1.73836">
        <ele>220</ele>
        <time>2011-03-05T18:06:20Z</time>
      </trkpt>
      <trkpt lat="44.01391" lon="1.73823">
        <ele>220</ele>
        <time>2011-03-05T18:06:23Z</time>
      </trkpt>
      <trkpt lat="44.01396" lon="1.73822">
        <ele>220</ele>
        <time>2011-03-05T18:06:24Z</time>
      </trkpt>
      <trkpt lat="44.01402" lon="1.73822">
        <ele>220</ele>
        <time>2011-03-05T18:06:25Z</time>
      </trkpt>
      <trkpt lat="44.01406" lon="1.73826">
        <ele>220</ele>
        <time>2011-03-05T18:06:26Z</time>
      </trkpt>
      <trkpt lat="44.01409" lon="1.7383">
        <ele>220</ele>
        <time>2011-03-05T18:06:27Z</time>
      </trkpt>
      <trkpt lat="44.01408" lon="1.73836">
        <ele>219</ele>
        <time>2011-03-05T18:06:28Z</time>
      </trkpt>
      <trkpt lat="44.01403" lon="1.73841">
        <ele>218</ele>
        <time>2011-03-05T18:06:29Z</time>
      </trkpt>
      <trkpt lat="44.01394" lon="1.73845">
        <ele>217</ele>
        <time>2011-03-05T18:06:30Z</time>
      </trkpt>
      <trkpt lat="44.01379" lon="1.73856">
        <ele>215</ele>
        <time>2011-03-05T18:06:32Z</time>
      </trkpt>
      <trkpt lat="44.01358" lon="1.73876">
        <ele>212</ele>
        <time>2011-03-05T18:06:35Z</time>
      </trkpt>
      <trkpt lat="44.01342" lon="1.73887">
        <ele>210</ele>
        <time>2011-03-05T18:06:37Z</time>
      </trkpt>
      <trkpt lat="44.01325" lon="1.73896">
        <ele>208</ele>
        <time>2011-03-05T18:06:39Z</time>
      </trkpt>
      <trkpt lat="44.01311" lon="1.73905">
        <ele>206</ele>
        <time>2011-03-05T18:06:41Z</time>
      </trkpt>
      <trkpt lat="44.01305" lon="1.73912">
        <ele>206</ele>
        <time>2011-03-05T18:06:42Z</time>
      </trkpt>
      <trkpt lat="44.013" lon="1.73923">
        <ele>206</ele>
        <time>2011-03-05T18:06:43Z</time>
      </trkpt>
      <trkpt lat="44.01296" lon="1.73935">
        <ele>205</ele>
        <time>2011-03-05T18:06:44Z</time>
      </trkpt>
      <trkpt lat="44.01293" lon="1.73949">
        <ele>205</ele>
        <time>2011-03-05T18:06:45Z</time>
      </trkpt>
      <trkpt lat="44.01288" lon="1.73977">
        <ele>205</ele>
        <time>2011-03-05T18:06:47Z</time>
      </trkpt>
      <trkpt lat="44.01282" lon="1.74021">
        <ele>205</ele>
        <time>2011-03-05T18:06:50Z</time>
      </trkpt>
      <trkpt lat="44.01281" lon="1.74035">
        <ele>205</ele>
        <time>2011-03-05T18:06:51Z</time>
      </trkpt>
      <trkpt lat="44.0128" lon="1.74062">
        <ele>204</ele>
        <time>2011-03-05T18:06:53Z</time>
      </trkpt>
      <trkpt lat="44.01279" lon="1.74074">
        <ele>204</ele>
        <time>2011-03-05T18:06:54Z</time>
      </trkpt>
      <trkpt lat="44.01276" lon="1.74085">
        <ele>204</ele>
        <time>2011-03-05T18:06:55Z</time>
      </trkpt>
      <trkpt lat="44.01272" lon="1.74094">
        <ele>204</ele>
        <time>2011-03-05T18:06:56Z</time>
      </trkpt>
      <trkpt lat="44.01265" lon="1.741">
        <ele>204</ele>
        <time>2011-03-05T18:06:57Z</time>
      </trkpt>
      <trkpt lat="44.01258" lon="1.74104">
        <ele>204</ele>
        <time>2011-03-05T18:06:58Z</time>
      </trkpt>
      <trkpt lat="44.01251" lon="1.74107">
        <ele>204</ele>
        <time>2011-03-05T18:06:59Z</time>
      </trkpt>
      <trkpt lat="44.01236" lon="1.74107">
        <ele>204</ele>
        <time>2011-03-05T18:07:01Z</time>
      </trkpt>
      <trkpt lat="44.01229" lon="1.74109">
        <ele>204</ele>
        <time>2011-03-05T18:07:02Z</time>
      </trkpt>
      <trkpt lat="44.01222" lon="1.74111">
        <ele>204</ele>
        <time>2011-03-05T18:07:03Z</time>
      </trkpt>
      <trkpt lat="44.01216" lon="1.74115">
        <ele>204</ele>
        <time>2011-03-05T18:07:04Z</time>
      </trkpt>
      <trkpt lat="44.0121" lon="1.74119">
        <ele>204</ele>
        <time>2011-03-05T18:07:05Z</time>
      </trkpt>
      <trkpt lat="44.01183" lon="1.74148">
        <ele>204</ele>
        <time>2011-03-05T18:07:10Z</time>
      </trkpt>
      <trkpt lat="44.01178" lon="1.74154">
        <ele>204</ele>
        <time>2011-03-05T18:07:11Z</time>
      </trkpt>
      <trkpt lat="44.01149" lon="1.74178">
        <ele>204</ele>
        <time>2011-03-05T18:07:16Z</time>
      </trkpt>
      <trkpt lat="44.01132" lon="1.74189">
        <ele>204</ele>
        <time>2011-03-05T18:07:19Z</time>
      </trkpt>
      <trkpt lat="44.01126" lon="1.74192">
        <ele>204</ele>
        <time>2011-03-05T18:07:20Z</time>
      </trkpt>
      <trkpt lat="44.0112" lon="1.74193">
        <ele>204</ele>
        <time>2011-03-05T18:07:21Z</time>
      </trkpt>
      <trkpt lat="44.01094" lon="1.74196">
        <ele>204</ele>
        <time>2011-03-05T18:07:25Z</time>
      </trkpt>
      <trkpt lat="44.01074" lon="1.74202">
        <ele>204</ele>
        <time>2011-03-05T18:07:28Z</time>
      </trkpt>
      <trkpt lat="44.01062" lon="1.74207">
        <ele>204</ele>
        <time>2011-03-05T18:07:30Z</time>
      </trkpt>
      <trkpt lat="44.01044" lon="1.74219">
        <ele>204</ele>
        <time>2011-03-05T18:07:33Z</time>
      </trkpt>
      <trkpt lat="44.01031" lon="1.74229">
        <ele>204</ele>
        <time>2011-03-05T18:07:35Z</time>
      </trkpt>
      <trkpt lat="44.0101" lon="1.7425">
        <ele>203</ele>
        <time>2011-03-05T18:07:39Z</time>
      </trkpt>
      <trkpt lat="44.01" lon="1.74262">
        <ele>203</ele>
        <time>2011-03-05T18:07:41Z</time>
      </trkpt>
      <trkpt lat="44.00987" lon="1.74282">
        <ele>203</ele>
        <time>2011-03-05T18:07:44Z</time>
      </trkpt>
      <trkpt lat="44.00982" lon="1.74289">
        <ele>203</ele>
        <time>2011-03-05T18:07:45Z</time>
      </trkpt>
      <trkpt lat="44.00968" lon="1.7431">
        <ele>203</ele>
        <time>2011-03-05T18:07:48Z</time>
      </trkpt>
      <trkpt lat="44.00957" lon="1.74321">
        <ele>203</ele>
        <time>2011-03-05T18:07:50Z</time>
      </trkpt>
      <trkpt lat="44.00935" lon="1.74342">
        <ele>203</ele>
        <time>2011-03-05T18:07:54Z</time>
      </trkpt>
      <trkpt lat="44.00919" lon="1.74354">
        <ele>202</ele>
        <time>2011-03-05T18:07:57Z</time>
      </trkpt>
      <trkpt lat="44.00908" lon="1.74364">
        <ele>201</ele>
        <time>2011-03-05T18:07:59Z</time>
      </trkpt>
      <trkpt lat="44.009" lon="1.74377">
        <ele>200</ele>
        <time>2011-03-05T18:08:01Z</time>
      </trkpt>
      <trkpt lat="44.00896" lon="1.74384">
        <ele>199</ele>
        <time>2011-03-05T18:08:02Z</time>
      </trkpt>
      <trkpt lat="44.00894" lon="1.74392">
        <ele>199</ele>
        <time>2011-03-05T18:08:03Z</time>
      </trkpt>
      <trkpt lat="44.00894" lon="1.74401">
        <ele>198</ele>
        <time>2011-03-05T18:08:04Z</time>
      </trkpt>
      <trkpt lat="44.00895" lon="1.74409">
        <ele>198</ele>
        <time>2011-03-05T18:08:05Z</time>
      </trkpt>
      <trkpt lat="44.00897" lon="1.74417">
        <ele>198</ele>
        <time>2011-03-05T18:08:06Z</time>
      </trkpt>
      <trkpt lat="44.009" lon="1.74424">
        <ele>198</ele>
        <time>2011-03-05T18:08:07Z</time>
      </trkpt>
      <trkpt lat="44.00909" lon="1.74434">
        <ele>198</ele>
        <time>2011-03-05T18:08:09Z</time>
      </trkpt>
      <trkpt lat="44.00919" lon="1.74443">
        <ele>198</ele>
        <time>2011-03-05T18:08:11Z</time>
      </trkpt>
      <trkpt lat="44.00938" lon="1.74454">
        <ele>198</ele>
        <time>2011-03-05T18:08:15Z</time>
      </trkpt>
      <trkpt lat="44.00948" lon="1.74459">
        <ele>198</ele>
        <time>2011-03-05T18:08:17Z</time>
      </trkpt>
      <trkpt lat="44.00966" lon="1.74469">
        <ele>198</ele>
        <time>2011-03-05T18:08:21Z</time>
      </trkpt>
      <trkpt lat="44.00982" lon="1.74482">
        <ele>198</ele>
        <time>2011-03-05T18:08:25Z</time>
      </trkpt>
      <trkpt lat="44.00997" lon="1.74496">
        <ele>198</ele>
        <time>2011-03-05T18:08:29Z</time>
      </trkpt>
      <trkpt lat="44.01051" lon="1.74558">
        <ele>203</ele>
        <time>2011-03-05T18:08:42Z</time>
      </trkpt>
      <trkpt lat="44.01061" lon="1.74568">
        <ele>204</ele>
        <time>2011-03-05T18:08:44Z</time>
      </trkpt>
      <trkpt lat="44.0107" lon="1.74576">
        <ele>206</ele>
        <time>2011-03-05T18:08:46Z</time>
      </trkpt>
      <trkpt lat="44.01096" lon="1.74591">
        <ele>206</ele>
        <time>2011-03-05T18:08:52Z</time>
      </trkpt>
      <trkpt lat="44.0111" lon="1.74603">
        <ele>206</ele>
        <time>2011-03-05T18:08:56Z</time>
      </trkpt>
      <trkpt lat="44.0112" lon="1.74611">
        <ele>206</ele>
        <time>2011-03-05T18:08:59Z</time>
      </trkpt>
      <trkpt lat="44.01145" lon="1.74634">
        <ele>204</ele>
        <time>2011-03-05T18:09:06Z</time>
      </trkpt>
      <trkpt lat="44.01153" lon="1.7464">
        <ele>203</ele>
        <time>2011-03-05T18:09:08Z</time>
      </trkpt>
      <trkpt lat="44.01175" lon="1.74659">
        <ele>201</ele>
        <time>2011-03-05T18:09:14Z</time>
      </trkpt>
      <trkpt lat="44.01187" lon="1.74669">
        <ele>201</ele>
        <time>2011-03-05T18:09:17Z</time>
      </trkpt>
      <trkpt lat="44.01211" lon="1.74691">
        <ele>201</ele>
        <time>2011-03-05T18:09:24Z</time>
      </trkpt>
      <trkpt lat="44.01227" lon="1.747">
        <ele>202</ele>
        <time>2011-03-05T18:09:28Z</time>
      </trkpt>
      <trkpt lat="44.01231" lon="1.74703">
        <ele>203</ele>
        <time>2011-03-05T18:09:29Z</time>
      </trkpt>
      <trkpt lat="44.0125" lon="1.74711">
        <ele>204</ele>
        <time>2011-03-05T18:09:34Z</time>
      </trkpt>
      <trkpt lat="44.01259" lon="1.74713">
        <ele>204</ele>
        <time>2011-03-05T18:09:37Z</time>
      </trkpt>
      <trkpt lat="44.01264" lon="1.74716">
        <ele>204</ele>
        <time>2011-03-05T18:09:39Z</time>
      </trkpt>
      <trkpt lat="44.01287" lon="1.74725">
        <ele>204</ele>
        <time>2011-03-05T18:09:44Z</time>
      </trkpt>
      <trkpt lat="44.01305" lon="1.74732">
        <ele>204</ele>
        <time>2011-03-05T18:09:48Z</time>
      </trkpt>
      <trkpt lat="44.01308" lon="1.74736">
        <ele>204</ele>
        <time>2011-03-05T18:09:49Z</time>
      </trkpt>
      <trkpt lat="44.01312" lon="1.74738">
        <ele>204</ele>
        <time>2011-03-05T18:09:50Z</time>
      </trkpt>
      <trkpt lat="44.01331" lon="1.74745">
        <ele>207</ele>
        <time>2011-03-05T18:09:54Z</time>
      </trkpt>
      <trkpt lat="44.01381" lon="1.74753">
        <ele>217</ele>
        <time>2011-03-05T18:10:04Z</time>
      </trkpt>
      <trkpt lat="44.01393" lon="1.74758">
        <ele>219</ele>
        <time>2011-03-05T18:10:07Z</time>
      </trkpt>
      <trkpt lat="44.01408" lon="1.74762">
        <ele>221</ele>
        <time>2011-03-05T18:10:10Z</time>
      </trkpt>
      <trkpt lat="44.01432" lon="1.74766">
        <ele>222</ele>
        <time>2011-03-05T18:10:15Z</time>
      </trkpt>
      <trkpt lat="44.01435" lon="1.74767">
        <ele>222</ele>
        <time>2011-03-05T18:10:16Z</time>
      </trkpt>
      <trkpt lat="44.01445" lon="1.74769">
        <ele>221</ele>
        <time>2011-03-05T18:10:18Z</time>
      </trkpt>
      <trkpt lat="44.0145" lon="1.74772">
        <ele>221</ele>
        <time>2011-03-05T18:10:19Z</time>
      </trkpt>
      <trkpt lat="44.01478" lon="1.74778">
        <ele>220</ele>
        <time>2011-03-05T18:10:25Z</time>
      </trkpt>
      <trkpt lat="44.015" lon="1.74792">
        <ele>217</ele>
        <time>2011-03-05T18:10:30Z</time>
      </trkpt>
      <trkpt lat="44.01536" lon="1.74823">
        <ele>209</ele>
        <time>2011-03-05T18:10:39Z</time>
      </trkpt>
      <trkpt lat="44.01562" lon="1.74849">
        <ele>206</ele>
        <time>2011-03-05T18:10:46Z</time>
      </trkpt>
      <trkpt lat="44.01572" lon="1.74864">
        <ele>206</ele>
        <time>2011-03-05T18:10:49Z</time>
      </trkpt>
      <trkpt lat="44.01576" lon="1.74867">
        <ele>206</ele>
        <time>2011-03-05T18:10:50Z</time>
      </trkpt>
      <trkpt lat="44.01581" lon="1.74874">
        <ele>206</ele>
        <time>2011-03-05T18:10:52Z</time>
      </trkpt>
      <trkpt lat="44.01587" lon="1.7488">
        <ele>205</ele>
        <time>2011-03-05T18:10:54Z</time>
      </trkpt>
      <trkpt lat="44.01596" lon="1.74887">
        <ele>205</ele>
        <time>2011-03-05T18:10:56Z</time>
      </trkpt>
      <trkpt lat="44.01651" lon="1.74935">
        <ele>208</ele>
        <time>2011-03-05T18:11:09Z</time>
      </trkpt>
      <trkpt lat="44.01681" lon="1.74965">
        <ele>210</ele>
        <time>2011-03-05T18:11:17Z</time>
      </trkpt>
      <trkpt lat="44.01696" lon="1.74978">
        <ele>211</ele>
        <time>2011-03-05T18:11:21Z</time>
      </trkpt>
      <trkpt lat="44.01717" lon="1.74998">
        <ele>211</ele>
        <time>2011-03-05T18:11:26Z</time>
      </trkpt>
      <trkpt lat="44.01747" lon="1.75033">
        <ele>213</ele>
        <time>2011-03-05T18:11:34Z</time>
      </trkpt>
      <trkpt lat="44.01761" lon="1.75051">
        <ele>213</ele>
        <time>2011-03-05T18:11:38Z</time>
      </trkpt>
      <trkpt lat="44.01764" lon="1.75057">
        <ele>213</ele>
        <time>2011-03-05T18:11:39Z</time>
      </trkpt>
      <trkpt lat="44.01777" lon="1.75078">
        <ele>213</ele>
        <time>2011-03-05T18:11:43Z</time>
      </trkpt>
      <trkpt lat="44.01793" lon="1.75105">
        <ele>213</ele>
        <time>2011-03-05T18:11:48Z</time>
      </trkpt>
      <trkpt lat="44.01822" lon="1.75164">
        <ele>213</ele>
        <time>2011-03-05T18:11:58Z</time>
      </trkpt>
      <trkpt lat="44.01826" lon="1.75177">
        <ele>213</ele>
        <time>2011-03-05T18:12:00Z</time>
      </trkpt>
      <trkpt lat="44.01829" lon="1.7519">
        <ele>213</ele>
        <time>2011-03-05T18:12:02Z</time>
      </trkpt>
      <trkpt lat="44.01839" lon="1.75222">
        <ele>214</ele>
        <time>2011-03-05T18:12:07Z</time>
      </trkpt>
      <trkpt lat="44.01846" lon="1.75241">
        <ele>214</ele>
        <time>2011-03-05T18:12:10Z</time>
      </trkpt>
      <trkpt lat="44.0187" lon="1.75292">
        <ele>217</ele>
        <time>2011-03-05T18:12:19Z</time>
      </trkpt>
      <trkpt lat="44.01885" lon="1.75326">
        <ele>217</ele>
        <time>2011-03-05T18:12:25Z</time>
      </trkpt>
      <trkpt lat="44.01888" lon="1.75331">
        <ele>217</ele>
        <time>2011-03-05T18:12:26Z</time>
      </trkpt>
      <trkpt lat="44.01909" lon="1.75382">
        <ele>219</ele>
        <time>2011-03-05T18:12:35Z</time>
      </trkpt>
      <trkpt lat="44.01911" lon="1.75388">
        <ele>219</ele>
        <time>2011-03-05T18:12:36Z</time>
      </trkpt>
      <trkpt lat="44.01946" lon="1.7547">
        <ele>222</ele>
        <time>2011-03-05T18:12:51Z</time>
      </trkpt>
      <trkpt lat="44.0195" lon="1.75481">
        <ele>222</ele>
        <time>2011-03-05T18:12:53Z</time>
      </trkpt>
      <trkpt lat="44.01964" lon="1.75514">
        <ele>223</ele>
        <time>2011-03-05T18:12:59Z</time>
      </trkpt>
      <trkpt lat="44.0198" lon="1.75554">
        <ele>225</ele>
        <time>2011-03-05T18:13:06Z</time>
      </trkpt>
      <trkpt lat="44.0199" lon="1.75582">
        <ele>228</ele>
        <time>2011-03-05T18:13:11Z</time>
      </trkpt>
      <trkpt lat="44.01995" lon="1.75593">
        <ele>228</ele>
        <time>2011-03-05T18:13:13Z</time>
      </trkpt>
      <trkpt lat="44.02008" lon="1.75633">
        <ele>230</ele>
        <time>2011-03-05T18:13:20Z</time>
      </trkpt>
      <trkpt lat="44.02012" lon="1.75652">
        <ele>230</ele>
        <time>2011-03-05T18:13:23Z</time>
      </trkpt>
      <trkpt lat="44.02015" lon="1.75685">
        <ele>231</ele>
        <time>2011-03-05T18:13:28Z</time>
      </trkpt>
      <trkpt lat="44.02016" lon="1.75737">
        <ele>231</ele>
        <time>2011-03-05T18:13:37Z</time>
      </trkpt>
      <trkpt lat="44.02016" lon="1.75748">
        <ele>231</ele>
        <time>2011-03-05T18:13:39Z</time>
      </trkpt>
      <trkpt lat="44.02018" lon="1.75815">
        <ele>234</ele>
        <time>2011-03-05T18:13:52Z</time>
      </trkpt>
      <trkpt lat="44.02018" lon="1.75845">
        <ele>235</ele>
        <time>2011-03-05T18:13:58Z</time>
      </trkpt>
      <trkpt lat="44.0202" lon="1.75871">
        <ele>236</ele>
        <time>2011-03-05T18:14:03Z</time>
      </trkpt>
      <trkpt lat="44.02021" lon="1.75927">
        <ele>237</ele>
        <time>2011-03-05T18:14:14Z</time>
      </trkpt>
      <trkpt lat="44.02023" lon="1.75974">
        <ele>241</ele>
        <time>2011-03-05T18:14:23Z</time>
      </trkpt>
      <trkpt lat="44.02023" lon="1.7601">
        <ele>243</ele>
        <time>2011-03-05T18:14:30Z</time>
      </trkpt>
      <trkpt lat="44.02024" lon="1.7602">
        <ele>243</ele>
        <time>2011-03-05T18:14:32Z</time>
      </trkpt>
      <trkpt lat="44.02025" lon="1.76061">
        <ele>243</ele>
        <time>2011-03-05T18:14:40Z</time>
      </trkpt>
      <trkpt lat="44.02027" lon="1.76098">
        <ele>243</ele>
        <time>2011-03-05T18:14:47Z</time>
      </trkpt>
      <trkpt lat="44.02027" lon="1.76145">
        <ele>243</ele>
        <time>2011-03-05T18:14:56Z</time>
      </trkpt>
      <trkpt lat="44.02029" lon="1.76165">
        <ele>243</ele>
        <time>2011-03-05T18:15:00Z</time>
      </trkpt>
      <trkpt lat="44.02029" lon="1.76192">
        <ele>243</ele>
        <time>2011-03-05T18:15:05Z</time>
      </trkpt>
      <trkpt lat="44.02031" lon="1.76225">
        <ele>243</ele>
        <time>2011-03-05T18:15:11Z</time>
      </trkpt>
      <trkpt lat="44.02031" lon="1.76241">
        <ele>243</ele>
        <time>2011-03-05T18:15:14Z</time>
      </trkpt>
      <trkpt lat="44.02032" lon="1.76262">
        <ele>244</ele>
        <time>2011-03-05T18:15:18Z</time>
      </trkpt>
      <trkpt lat="44.02032" lon="1.76273">
        <ele>245</ele>
        <time>2011-03-05T18:15:20Z</time>
      </trkpt>
      <trkpt lat="44.02032" lon="1.76278">
        <ele>245</ele>
        <time>2011-03-05T18:15:21Z</time>
      </trkpt>
      <trkpt lat="44.02034" lon="1.76309">
        <ele>246</ele>
        <time>2011-03-05T18:15:27Z</time>
      </trkpt>
      <trkpt lat="44.02034" lon="1.76314">
        <ele>247</ele>
        <time>2011-03-05T18:15:28Z</time>
      </trkpt>
      <trkpt lat="44.02035" lon="1.7634">
        <ele>248</ele>
        <time>2011-03-05T18:15:33Z</time>
      </trkpt>
      <trkpt lat="44.02036" lon="1.76374">
        <ele>249</ele>
        <time>2011-03-05T18:15:40Z</time>
      </trkpt>
      <trkpt lat="44.02036" lon="1.76388">
        <ele>249</ele>
        <time>2011-03-05T18:15:43Z</time>
      </trkpt>
      <trkpt lat="44.02039" lon="1.76457">
        <ele>253</ele>
        <time>2011-03-05T18:15:57Z</time>
      </trkpt>
      <trkpt lat="44.02039" lon="1.76464">
        <ele>254</ele>
        <time>2011-03-05T18:15:59Z</time>
      </trkpt>
      <trkpt lat="44.02037" lon="1.76472">
        <ele>254</ele>
        <time>2011-03-05T18:16:01Z</time>
      </trkpt>
      <trkpt lat="44.02035" lon="1.76478">
        <ele>255</ele>
        <time>2011-03-05T18:16:03Z</time>
      </trkpt>
      <trkpt lat="44.02028" lon="1.76489">
        <ele>256</ele>
        <time>2011-03-05T18:16:07Z</time>
      </trkpt>
      <trkpt lat="44.0202" lon="1.76509">
        <ele>256</ele>
        <time>2011-03-05T18:16:12Z</time>
      </trkpt>
      <trkpt lat="44.02012" lon="1.76527">
        <ele>256</ele>
        <time>2011-03-05T18:16:16Z</time>
      </trkpt>
      <trkpt lat="44.0201" lon="1.76532">
        <ele>256</ele>
        <time>2011-03-05T18:16:17Z</time>
      </trkpt>
      <trkpt lat="44.01987" lon="1.76575">
        <ele>257</ele>
        <time>2011-03-05T18:16:25Z</time>
      </trkpt>
      <trkpt lat="44.01967" lon="1.76617">
        <ele>257</ele>
        <time>2011-03-05T18:16:31Z</time>
      </trkpt>
      <trkpt lat="44.01933" lon="1.76681">
        <ele>256</ele>
        <time>2011-03-05T18:16:39Z</time>
      </trkpt>
      <trkpt lat="44.01915" lon="1.76719">
        <ele>254</ele>
        <time>2011-03-05T18:16:43Z</time>
      </trkpt>
      <trkpt lat="44.01906" lon="1.76741">
        <ele>253</ele>
        <time>2011-03-05T18:16:45Z</time>
      </trkpt>
      <trkpt lat="44.01894" lon="1.76776">
        <ele>252</ele>
        <time>2011-03-05T18:16:48Z</time>
      </trkpt>
      <trkpt lat="44.01883" lon="1.76827">
        <ele>249</ele>
        <time>2011-03-05T18:16:52Z</time>
      </trkpt>
      <trkpt lat="44.01878" lon="1.76854">
        <ele>247</ele>
        <time>2011-03-05T18:16:54Z</time>
      </trkpt>
      <trkpt lat="44.01875" lon="1.76909">
        <ele>244</ele>
        <time>2011-03-05T18:16:58Z</time>
      </trkpt>
      <trkpt lat="44.01874" lon="1.77006">
        <ele>240</ele>
        <time>2011-03-05T18:17:05Z</time>
      </trkpt>
      <trkpt lat="44.01873" lon="1.7707">
        <ele>238</ele>
        <time>2011-03-05T18:17:10Z</time>
      </trkpt>
      <trkpt lat="44.01873" lon="1.77189">
        <ele>235</ele>
        <time>2011-03-05T18:17:20Z</time>
      </trkpt>
      <trkpt lat="44.01871" lon="1.77222">
        <ele>234</ele>
        <time>2011-03-05T18:17:23Z</time>
      </trkpt>
      <trkpt lat="44.0187" lon="1.77244">
        <ele>233</ele>
        <time>2011-03-05T18:17:25Z</time>
      </trkpt>
      <trkpt lat="44.01866" lon="1.77287">
        <ele>231</ele>
        <time>2011-03-05T18:17:29Z</time>
      </trkpt>
      <trkpt lat="44.01857" lon="1.77366">
        <ele>229</ele>
        <time>2011-03-05T18:17:36Z</time>
      </trkpt>
      <trkpt lat="44.01855" lon="1.77389">
        <ele>228</ele>
        <time>2011-03-05T18:17:38Z</time>
      </trkpt>
      <trkpt lat="44.01854" lon="1.77413">
        <ele>227</ele>
        <time>2011-03-05T18:17:40Z</time>
      </trkpt>
      <trkpt lat="44.01855" lon="1.77425">
        <ele>227</ele>
        <time>2011-03-05T18:17:41Z</time>
      </trkpt>
      <trkpt lat="44.01854" lon="1.77448">
        <ele>226</ele>
        <time>2011-03-05T18:17:43Z</time>
      </trkpt>
      <trkpt lat="44.01853" lon="1.7746">
        <ele>225</ele>
        <time>2011-03-05T18:17:44Z</time>
      </trkpt>
      <trkpt lat="44.01841" lon="1.7752">
        <ele>224</ele>
        <time>2011-03-05T18:17:49Z</time>
      </trkpt>
      <trkpt lat="44.01828" lon="1.77582">
        <ele>223</ele>
        <time>2011-03-05T18:17:55Z</time>
      </trkpt>
      <trkpt lat="44.01827" lon="1.77588">
        <ele>222</ele>
        <time>2011-03-05T18:17:56Z</time>
      </trkpt>
      <trkpt lat="44.01829" lon="1.77593">
        <ele>222</ele>
        <time>2011-03-05T18:17:57Z</time>
      </trkpt>
      <trkpt lat="44.01831" lon="1.77596">
        <ele>222</ele>
        <time>2011-03-05T18:17:58Z</time>
      </trkpt>
      <trkpt lat="44.01834" lon="1.77599">
        <ele>222</ele>
        <time>2011-03-05T18:17:59Z</time>
      </trkpt>
      <trkpt lat="44.01838" lon="1.77599">
        <ele>221</ele>
        <time>2011-03-05T18:18:00Z</time>
      </trkpt>
      <trkpt lat="44.01841" lon="1.77598">
        <ele>221</ele>
        <time>2011-03-05T18:18:01Z</time>
      </trkpt>
      <trkpt lat="44.01846" lon="1.77593">
        <ele>220</ele>
        <time>2011-03-05T18:18:03Z</time>
      </trkpt>
      <trkpt lat="44.01849" lon="1.77584">
        <ele>220</ele>
        <time>2011-03-05T18:18:06Z</time>
      </trkpt>
      <trkpt lat="44.01865" lon="1.7756">
        <ele>220</ele>
        <time>2011-03-05T18:18:13Z</time>
      </trkpt>
      <trkpt lat="44.01898" lon="1.77514">
        <ele>220</ele>
        <time>2011-03-05T18:18:26Z</time>
      </trkpt>
      <trkpt lat="44.01902" lon="1.77507">
        <ele>221</ele>
        <time>2011-03-05T18:18:28Z</time>
      </trkpt>
      <trkpt lat="44.01905" lon="1.77504">
        <ele>222</ele>
        <time>2011-03-05T18:18:29Z</time>
      </trkpt>
      <trkpt lat="44.01915" lon="1.77489">
        <ele>224</ele>
        <time>2011-03-05T18:18:33Z</time>
      </trkpt>
      <trkpt lat="44.01942" lon="1.77452">
        <ele>228</ele>
        <time>2011-03-05T18:18:44Z</time>
      </trkpt>
      <trkpt lat="44.0196" lon="1.77428">
        <ele>229</ele>
        <time>2011-03-05T18:18:51Z</time>
      </trkpt>
      <trkpt lat="44.01982" lon="1.77398">
        <ele>231</ele>
        <time>2011-03-05T18:18:58Z</time>
      </trkpt>
      <trkpt lat="44.01989" lon="1.7739">
        <ele>232</ele>
        <time>2011-03-05T18:19:00Z</time>
      </trkpt>
      <trkpt lat="44.02001" lon="1.77371">
        <ele>234</ele>
        <time>2011-03-05T18:19:04Z</time>
      </trkpt>
      <trkpt lat="44.02008" lon="1.77362">
        <ele>234</ele>
        <time>2011-03-05T18:19:06Z</time>
      </trkpt>
      <trkpt lat="44.02019" lon="1.77345">
        <ele>235</ele>
        <time>2011-03-05T18:19:10Z</time>
      </trkpt>
      <trkpt lat="44.02039" lon="1.7732">
        <ele>235</ele>
        <time>2011-03-05T18:19:16Z</time>
      </trkpt>
      <trkpt lat="44.02049" lon="1.77305">
        <ele>235</ele>
        <time>2011-03-05T18:19:19Z</time>
      </trkpt>
      <trkpt lat="44.02056" lon="1.77296">
        <ele>235</ele>
        <time>2011-03-05T18:19:21Z</time>
      </trkpt>
      <trkpt lat="44.02068" lon="1.77277">
        <ele>234</ele>
        <time>2011-03-05T18:19:25Z</time>
      </trkpt>
      <trkpt lat="44.02079" lon="1.77256">
        <ele>233</ele>
        <time>2011-03-05T18:19:29Z</time>
      </trkpt>
      <trkpt lat="44.02107" lon="1.77219">
        <ele>232</ele>
        <time>2011-03-05T18:19:37Z</time>
      </trkpt>
      <trkpt lat="44.02129" lon="1.77186">
        <ele>231</ele>
        <time>2011-03-05T18:19:44Z</time>
      </trkpt>
      <trkpt lat="44.0214" lon="1.77167">
        <ele>231</ele>
        <time>2011-03-05T18:19:48Z</time>
      </trkpt>
      <trkpt lat="44.02149" lon="1.77147">
        <ele>231</ele>
        <time>2011-03-05T18:19:52Z</time>
      </trkpt>
      <trkpt lat="44.02154" lon="1.77138">
        <ele>231</ele>
        <time>2011-03-05T18:19:54Z</time>
      </trkpt>
      <trkpt lat="44.02161" lon="1.77123">
        <ele>231</ele>
        <time>2011-03-05T18:19:57Z</time>
      </trkpt>
      <trkpt lat="44.02162" lon="1.77119">
        <ele>231</ele>
        <time>2011-03-05T18:19:58Z</time>
      </trkpt>
      <trkpt lat="44.02167" lon="1.77109">
        <ele>231</ele>
        <time>2011-03-05T18:20:00Z</time>
      </trkpt>
      <trkpt lat="44.02177" lon="1.77094">
        <ele>232</ele>
        <time>2011-03-05T18:20:03Z</time>
      </trkpt>
      <trkpt lat="44.02183" lon="1.77088">
        <ele>232</ele>
        <time>2011-03-05T18:20:05Z</time>
      </trkpt>
      <trkpt lat="44.02195" lon="1.77078">
        <ele>233</ele>
        <time>2011-03-05T18:20:08Z</time>
      </trkpt>
      <trkpt lat="44.02219" lon="1.77062">
        <ele>235</ele>
        <time>2011-03-05T18:20:14Z</time>
      </trkpt>
      <trkpt lat="44.02248" lon="1.7704">
        <ele>235</ele>
        <time>2011-03-05T18:20:21Z</time>
      </trkpt>
      <trkpt lat="44.02264" lon="1.77029">
        <ele>235</ele>
        <time>2011-03-05T18:20:25Z</time>
      </trkpt>
      <trkpt lat="44.02304" lon="1.76997">
        <ele>235</ele>
        <time>2011-03-05T18:20:35Z</time>
      </trkpt>
      <trkpt lat="44.02319" lon="1.76982">
        <ele>235</ele>
        <time>2011-03-05T18:20:39Z</time>
      </trkpt>
      <trkpt lat="44.02337" lon="1.76955">
        <ele>235</ele>
        <time>2011-03-05T18:20:45Z</time>
      </trkpt>
      <trkpt lat="44.02343" lon="1.76948">
        <ele>235</ele>
        <time>2011-03-05T18:20:47Z</time>
      </trkpt>
      <trkpt lat="44.02353" lon="1.76938">
        <ele>235</ele>
        <time>2011-03-05T18:20:50Z</time>
      </trkpt>
      <trkpt lat="44.02381" lon="1.76922">
        <ele>235</ele>
        <time>2011-03-05T18:20:57Z</time>
      </trkpt>
      <trkpt lat="44.02406" lon="1.7691">
        <ele>235</ele>
        <time>2011-03-05T18:21:03Z</time>
      </trkpt>
      <trkpt lat="44.02414" lon="1.76907">
        <ele>235</ele>
        <time>2011-03-05T18:21:05Z</time>
      </trkpt>
      <trkpt lat="44.02479" lon="1.76877">
        <ele>236</ele>
        <time>2011-03-05T18:21:21Z</time>
      </trkpt>
      <trkpt lat="44.0249" lon="1.76868">
        <ele>236</ele>
        <time>2011-03-05T18:21:24Z</time>
      </trkpt>
      <trkpt lat="44.02504" lon="1.76854">
        <ele>237</ele>
        <time>2011-03-05T18:21:28Z</time>
      </trkpt>
      <trkpt lat="44.02513" lon="1.76841">
        <ele>237</ele>
        <time>2011-03-05T18:21:31Z</time>
      </trkpt>
      <trkpt lat="44.0252" lon="1.76826">
        <ele>237</ele>
        <time>2011-03-05T18:21:34Z</time>
      </trkpt>
      <trkpt lat="44.0253" lon="1.76801">
        <ele>237</ele>
        <time>2011-03-05T18:21:39Z</time>
      </trkpt>
      <trkpt lat="44.02533" lon="1.76796">
        <ele>237</ele>
        <time>2011-03-05T18:21:40Z</time>
      </trkpt>
      <trkpt lat="44.0254" lon="1.76781">
        <ele>237</ele>
        <time>2011-03-05T18:21:43Z</time>
      </trkpt>
      <trkpt lat="44.02546" lon="1.76771">
        <ele>237</ele>
        <time>2011-03-05T18:21:45Z</time>
      </trkpt>
      <trkpt lat="44.02552" lon="1.76764">
        <ele>237</ele>
        <time>2011-03-05T18:21:47Z</time>
      </trkpt>
      <trkpt lat="44.02563" lon="1.76754">
        <ele>237</ele>
        <time>2011-03-05T18:21:50Z</time>
      </trkpt>
      <trkpt lat="44.02571" lon="1.76749">
        <ele>237</ele>
        <time>2011-03-05T18:21:52Z</time>
      </trkpt>
      <trkpt lat="44.02584" lon="1.76743">
        <ele>237</ele>
        <time>2011-03-05T18:21:55Z</time>
      </trkpt>
      <trkpt lat="44.02671" lon="1.76711">
        <ele>240</ele>
        <time>2011-03-05T18:22:15Z</time>
      </trkpt>
      <trkpt lat="44.02684" lon="1.76706">
        <ele>240</ele>
        <time>2011-03-05T18:22:18Z</time>
      </trkpt>
      <trkpt lat="44.02697" lon="1.76701">
        <ele>240</ele>
        <time>2011-03-05T18:22:21Z</time>
      </trkpt>
      <trkpt lat="44.0271" lon="1.767">
        <ele>240</ele>
        <time>2011-03-05T18:22:24Z</time>
      </trkpt>
      <trkpt lat="44.02724" lon="1.76702">
        <ele>240</ele>
        <time>2011-03-05T18:22:27Z</time>
      </trkpt>
      <trkpt lat="44.02774" lon="1.76714">
        <ele>241</ele>
        <time>2011-03-05T18:22:38Z</time>
      </trkpt>
      <trkpt lat="44.02805" lon="1.76722">
        <ele>242</ele>
        <time>2011-03-05T18:22:45Z</time>
      </trkpt>
      <trkpt lat="44.02825" lon="1.76726">
        <ele>243</ele>
        <time>2011-03-05T18:22:50Z</time>
      </trkpt>
      <trkpt lat="44.02851" lon="1.76733">
        <ele>243</ele>
        <time>2011-03-05T18:22:56Z</time>
      </trkpt>
      <trkpt lat="44.02868" lon="1.76737">
        <ele>243</ele>
        <time>2011-03-05T18:23:00Z</time>
      </trkpt>
      <trkpt lat="44.02897" lon="1.76744">
        <ele>243</ele>
        <time>2011-03-05T18:23:06Z</time>
      </trkpt>
      <trkpt lat="44.02906" lon="1.76745">
        <ele>243</ele>
        <time>2011-03-05T18:23:08Z</time>
      </trkpt>
      <trkpt lat="44.0292" lon="1.76749">
        <ele>243</ele>
        <time>2011-03-05T18:23:11Z</time>
      </trkpt>
      <trkpt lat="44.02939" lon="1.76751">
        <ele>242</ele>
        <time>2011-03-05T18:23:15Z</time>
      </trkpt>
      <trkpt lat="44.02965" lon="1.76759">
        <ele>241</ele>
        <time>2011-03-05T18:23:21Z</time>
      </trkpt>
      <trkpt lat="44.02969" lon="1.7676">
        <ele>241</ele>
        <time>2011-03-05T18:23:22Z</time>
      </trkpt>
      <trkpt lat="44.02982" lon="1.76764">
        <ele>241</ele>
        <time>2011-03-05T18:23:25Z</time>
      </trkpt>
      <trkpt lat="44.02999" lon="1.76767">
        <ele>241</ele>
        <time>2011-03-05T18:23:29Z</time>
      </trkpt>
      <trkpt lat="44.03007" lon="1.76766">
        <ele>241</ele>
        <time>2011-03-05T18:23:31Z</time>
      </trkpt>
      <trkpt lat="44.03015" lon="1.76762">
        <ele>241</ele>
        <time>2011-03-05T18:23:33Z</time>
      </trkpt>
      <trkpt lat="44.03022" lon="1.76756">
        <ele>241</ele>
        <time>2011-03-05T18:23:35Z</time>
      </trkpt>
      <trkpt lat="44.03029" lon="1.76747">
        <ele>241</ele>
        <time>2011-03-05T18:23:38Z</time>
      </trkpt>
      <trkpt lat="44.03039" lon="1.76733">
        <ele>242</ele>
        <time>2011-03-05T18:23:42Z</time>
      </trkpt>
      <trkpt lat="44.03048" lon="1.76721">
        <ele>242</ele>
        <time>2011-03-05T18:23:45Z</time>
      </trkpt>
      <trkpt lat="44.03071" lon="1.7669">
        <ele>243</ele>
        <time>2011-03-05T18:23:53Z</time>
      </trkpt>
      <trkpt lat="44.03082" lon="1.76674">
        <ele>243</ele>
        <time>2011-03-05T18:23:57Z</time>
      </trkpt>
      <trkpt lat="44.03091" lon="1.76662">
        <ele>243</ele>
        <time>2011-03-05T18:24:00Z</time>
      </trkpt>
      <trkpt lat="44.03108" lon="1.76643">
        <ele>243</ele>
        <time>2011-03-05T18:24:05Z</time>
      </trkpt>
      <trkpt lat="44.03115" lon="1.76637">
        <ele>243</ele>
        <time>2011-03-05T18:24:07Z</time>
      </trkpt>
      <trkpt lat="44.03119" lon="1.76634">
        <ele>243</ele>
        <time>2011-03-05T18:24:08Z</time>
      </trkpt>
      <trkpt lat="44.03126" lon="1.76631">
        <ele>243</ele>
        <time>2011-03-05T18:24:10Z</time>
      </trkpt>
      <trkpt lat="44.03134" lon="1.7663">
        <ele>243</ele>
        <time>2011-03-05T18:24:12Z</time>
      </trkpt>
      <trkpt lat="44.03151" lon="1.76632">
        <ele>244</ele>
        <time>2011-03-05T18:24:16Z</time>
      </trkpt>
      <trkpt lat="44.03159" lon="1.76633">
        <ele>245</ele>
        <time>2011-03-05T18:24:18Z</time>
      </trkpt>
      <trkpt lat="44.03167" lon="1.76632">
        <ele>246</ele>
        <time>2011-03-05T18:24:20Z</time>
      </trkpt>
      <trkpt lat="44.03174" lon="1.76629">
        <ele>247</ele>
        <time>2011-03-05T18:24:22Z</time>
      </trkpt>
      <trkpt lat="44.03178" lon="1.76627">
        <ele>247</ele>
        <time>2011-03-05T18:24:23Z</time>
      </trkpt>
      <trkpt lat="44.03185" lon="1.76614">
        <ele>248</ele>
        <time>2011-03-05T18:24:26Z</time>
      </trkpt>
      <trkpt lat="44.03189" lon="1.76605">
        <ele>248</ele>
        <time>2011-03-05T18:24:28Z</time>
      </trkpt>
      <trkpt lat="44.03196" lon="1.76579">
        <ele>248</ele>
        <time>2011-03-05T18:24:33Z</time>
      </trkpt>
      <trkpt lat="44.03203" lon="1.76558">
        <ele>248</ele>
        <time>2011-03-05T18:24:37Z</time>
      </trkpt>
      <trkpt lat="44.0321" lon="1.76544">
        <ele>248</ele>
        <time>2011-03-05T18:24:40Z</time>
      </trkpt>
      <trkpt lat="44.03218" lon="1.76524">
        <ele>246</ele>
        <time>2011-03-05T18:24:44Z</time>
      </trkpt>
      <trkpt lat="44.03222" lon="1.76515">
        <ele>245</ele>
        <time>2011-03-05T18:24:46Z</time>
      </trkpt>
      <trkpt lat="44.03227" lon="1.76507">
        <ele>245</ele>
        <time>2011-03-05T18:24:48Z</time>
      </trkpt>
      <trkpt lat="44.03239" lon="1.76494">
        <ele>245</ele>
        <time>2011-03-05T18:24:52Z</time>
      </trkpt>
      <trkpt lat="44.0325" lon="1.76486">
        <ele>245</ele>
        <time>2011-03-05T18:24:55Z</time>
      </trkpt>
      <trkpt lat="44.03272" lon="1.76476">
        <ele>245</ele>
        <time>2011-03-05T18:25:01Z</time>
      </trkpt>
      <trkpt lat="44.03291" lon="1.76466">
        <ele>245</ele>
        <time>2011-03-05T18:25:06Z</time>
      </trkpt>
      <trkpt lat="44.03298" lon="1.76462">
        <ele>245</ele>
        <time>2011-03-05T18:25:08Z</time>
      </trkpt>
      <trkpt lat="44.03305" lon="1.76456">
        <ele>246</ele>
        <time>2011-03-05T18:25:10Z</time>
      </trkpt>
      <trkpt lat="44.03315" lon="1.76441">
        <ele>247</ele>
        <time>2011-03-05T18:25:14Z</time>
      </trkpt>
      <trkpt lat="44.03319" lon="1.76432">
        <ele>248</ele>
        <time>2011-03-05T18:25:16Z</time>
      </trkpt>
      <trkpt lat="44.03328" lon="1.76399">
        <ele>248</ele>
        <time>2011-03-05T18:25:23Z</time>
      </trkpt>
      <trkpt lat="44.03328" lon="1.76392">
        <ele>248</ele>
        <time>2011-03-05T18:25:24Z</time>
      </trkpt>
      <trkpt lat="44.03331" lon="1.7638">
        <ele>248</ele>
        <time>2011-03-05T18:25:26Z</time>
      </trkpt>
      <trkpt lat="44.03336" lon="1.76364">
        <ele>248</ele>
        <time>2011-03-05T18:25:29Z</time>
      </trkpt>
      <trkpt lat="44.03337" lon="1.7636">
        <ele>248</ele>
        <time>2011-03-05T18:25:30Z</time>
      </trkpt>
      <trkpt lat="44.03342" lon="1.76344">
        <ele>248</ele>
        <time>2011-03-05T18:25:33Z</time>
      </trkpt>
      <trkpt lat="44.03344" lon="1.76332">
        <ele>248</ele>
        <time>2011-03-05T18:25:35Z</time>
      </trkpt>
      <trkpt lat="44.0335" lon="1.7631">
        <ele>248</ele>
        <time>2011-03-05T18:25:39Z</time>
      </trkpt>
      <trkpt lat="44.0336" lon="1.76261">
        <ele>248</ele>
        <time>2011-03-05T18:25:48Z</time>
      </trkpt>
      <trkpt lat="44.03364" lon="1.76246">
        <ele>249</ele>
        <time>2011-03-05T18:25:51Z</time>
      </trkpt>
      <trkpt lat="44.03366" lon="1.76236">
        <ele>249</ele>
        <time>2011-03-05T18:25:53Z</time>
      </trkpt>
      <trkpt lat="44.03368" lon="1.76232">
        <ele>249</ele>
        <time>2011-03-05T18:25:54Z</time>
      </trkpt>
      <trkpt lat="44.03369" lon="1.76222">
        <ele>249</ele>
        <time>2011-03-05T18:25:56Z</time>
      </trkpt>
      <trkpt lat="44.03372" lon="1.76212">
        <ele>249</ele>
        <time>2011-03-05T18:25:58Z</time>
      </trkpt>
      <trkpt lat="44.03374" lon="1.76207">
        <ele>249</ele>
        <time>2011-03-05T18:25:59Z</time>
      </trkpt>
      <trkpt lat="44.03377" lon="1.76196">
        <ele>249</ele>
        <time>2011-03-05T18:26:01Z</time>
      </trkpt>
      <trkpt lat="44.03385" lon="1.76183">
        <ele>250</ele>
        <time>2011-03-05T18:26:04Z</time>
      </trkpt>
      <trkpt lat="44.03397" lon="1.76171">
        <ele>251</ele>
        <time>2011-03-05T18:26:08Z</time>
      </trkpt>
      <trkpt lat="44.0341" lon="1.7616">
        <ele>252</ele>
        <time>2011-03-05T18:26:12Z</time>
      </trkpt>
      <trkpt lat="44.03434" lon="1.76147">
        <ele>255</ele>
        <time>2011-03-05T18:26:18Z</time>
      </trkpt>
      <trkpt lat="44.03461" lon="1.76138">
        <ele>258</ele>
        <time>2011-03-05T18:26:25Z</time>
      </trkpt>
      <trkpt lat="44.03501" lon="1.76137">
        <ele>260</ele>
        <time>2011-03-05T18:26:35Z</time>
      </trkpt>
      <trkpt lat="44.03513" lon="1.76138">
        <ele>260</ele>
        <time>2011-03-05T18:26:38Z</time>
      </trkpt>
      <trkpt lat="44.0352" lon="1.76136">
        <ele>260</ele>
        <time>2011-03-05T18:26:40Z</time>
      </trkpt>
      <trkpt lat="44.03531" lon="1.76137">
        <ele>260</ele>
        <time>2011-03-05T18:26:43Z</time>
      </trkpt>
      <trkpt lat="44.03571" lon="1.76136">
        <ele>264</ele>
        <time>2011-03-05T18:26:54Z</time>
      </trkpt>
      <trkpt lat="44.03585" lon="1.76137">
        <ele>265</ele>
        <time>2011-03-05T18:26:58Z</time>
      </trkpt>
      <trkpt lat="44.03606" lon="1.76137">
        <ele>265</ele>
        <time>2011-03-05T18:27:04Z</time>
      </trkpt>
      <trkpt lat="44.03613" lon="1.76136">
        <ele>266</ele>
        <time>2011-03-05T18:27:06Z</time>
      </trkpt>
      <trkpt lat="44.03627" lon="1.76137">
        <ele>266</ele>
        <time>2011-03-05T18:27:10Z</time>
      </trkpt>
      <trkpt lat="44.03648" lon="1.76136">
        <ele>268</ele>
        <time>2011-03-05T18:27:16Z</time>
      </trkpt>
      <trkpt lat="44.03657" lon="1.76138">
        <ele>270</ele>
        <time>2011-03-05T18:27:19Z</time>
      </trkpt>
      <trkpt lat="44.03667" lon="1.76138">
        <ele>273</ele>
        <time>2011-03-05T18:27:22Z</time>
      </trkpt>
      <trkpt lat="44.03677" lon="1.7614">
        <ele>274</ele>
        <time>2011-03-05T18:27:25Z</time>
      </trkpt>
      <trkpt lat="44.03683" lon="1.76139">
        <ele>275</ele>
        <time>2011-03-05T18:27:27Z</time>
      </trkpt>
      <trkpt lat="44.03719" lon="1.7614">
        <ele>281</ele>
        <time>2011-03-05T18:27:39Z</time>
      </trkpt>
      <trkpt lat="44.03754" lon="1.76137">
        <ele>281</ele>
        <time>2011-03-05T18:27:50Z</time>
      </trkpt>
      <trkpt lat="44.03776" lon="1.76138">
        <ele>283</ele>
        <time>2011-03-05T18:27:57Z</time>
      </trkpt>
      <trkpt lat="44.03781" lon="1.7614">
        <ele>283</ele>
        <time>2011-03-05T18:27:59Z</time>
      </trkpt>
      <trkpt lat="44.03788" lon="1.76147">
        <ele>284</ele>
        <time>2011-03-05T18:28:02Z</time>
      </trkpt>
      <trkpt lat="44.03793" lon="1.76151">
        <ele>286</ele>
        <time>2011-03-05T18:28:04Z</time>
      </trkpt>
      <trkpt lat="44.03799" lon="1.76152">
        <ele>288</ele>
        <time>2011-03-05T18:28:06Z</time>
      </trkpt>
      <trkpt lat="44.03816" lon="1.7616">
        <ele>293</ele>
        <time>2011-03-05T18:28:12Z</time>
      </trkpt>
      <trkpt lat="44.03822" lon="1.76161">
        <ele>294</ele>
        <time>2011-03-05T18:28:14Z</time>
      </trkpt>
      <trkpt lat="44.0383" lon="1.76165">
        <ele>294</ele>
        <time>2011-03-05T18:28:17Z</time>
      </trkpt>
      <trkpt lat="44.03833" lon="1.76165">
        <ele>294</ele>
        <time>2011-03-05T18:28:18Z</time>
      </trkpt>
      <trkpt lat="44.03845" lon="1.7617">
        <ele>294</ele>
        <time>2011-03-05T18:28:23Z</time>
      </trkpt>
      <trkpt lat="44.03862" lon="1.76181">
        <ele>295</ele>
        <time>2011-03-05T18:28:30Z</time>
      </trkpt>
      <trkpt lat="44.03875" lon="1.76186">
        <ele>297</ele>
        <time>2011-03-05T18:28:35Z</time>
      </trkpt>
      <trkpt lat="44.03884" lon="1.76188">
        <ele>297</ele>
        <time>2011-03-05T18:28:38Z</time>
      </trkpt>
      <trkpt lat="44.03892" lon="1.76193">
        <ele>298</ele>
        <time>2011-03-05T18:28:41Z</time>
      </trkpt>
      <trkpt lat="44.03901" lon="1.76195">
        <ele>299</ele>
        <time>2011-03-05T18:28:44Z</time>
      </trkpt>
      <trkpt lat="44.03907" lon="1.76197">
        <ele>299</ele>
        <time>2011-03-05T18:28:46Z</time>
      </trkpt>
      <trkpt lat="44.03918" lon="1.76203">
        <ele>299</ele>
        <time>2011-03-05T18:28:50Z</time>
      </trkpt>
      <trkpt lat="44.03937" lon="1.76207">
        <ele>299</ele>
        <time>2011-03-05T18:28:56Z</time>
      </trkpt>
      <trkpt lat="44.03943" lon="1.76207">
        <ele>299</ele>
        <time>2011-03-05T18:28:58Z</time>
      </trkpt>
      <trkpt lat="44.03954" lon="1.76203">
        <ele>299</ele>
        <time>2011-03-05T18:29:01Z</time>
      </trkpt>
      <trkpt lat="44.03966" lon="1.76197">
        <ele>297</ele>
        <time>2011-03-05T18:29:05Z</time>
      </trkpt>
      <trkpt lat="44.03971" lon="1.76192">
        <ele>296</ele>
        <time>2011-03-05T18:29:07Z</time>
      </trkpt>
      <trkpt lat="44.03991" lon="1.76175">
        <ele>290</ele>
        <time>2011-03-05T18:29:14Z</time>
      </trkpt>
      <trkpt lat="44.04002" lon="1.76166">
        <ele>288</ele>
        <time>2011-03-05T18:29:18Z</time>
      </trkpt>
      <trkpt lat="44.04007" lon="1.76164">
        <ele>288</ele>
        <time>2011-03-05T18:29:20Z</time>
      </trkpt>
      <trkpt lat="44.04026" lon="1.7615">
        <ele>288</ele>
        <time>2011-03-05T18:29:27Z</time>
      </trkpt>
      <trkpt lat="44.04035" lon="1.76144">
        <ele>288</ele>
        <time>2011-03-05T18:29:30Z</time>
      </trkpt>
      <trkpt lat="44.04049" lon="1.76138">
        <ele>288</ele>
        <time>2011-03-05T18:29:35Z</time>
      </trkpt>
      <trkpt lat="44.04065" lon="1.76137">
        <ele>288</ele>
        <time>2011-03-05T18:29:40Z</time>
      </trkpt>
      <trkpt lat="44.04074" lon="1.76139">
        <ele>290</ele>
        <time>2011-03-05T18:29:43Z</time>
      </trkpt>
      <trkpt lat="44.04084" lon="1.76139">
        <ele>291</ele>
        <time>2011-03-05T18:29:46Z</time>
      </trkpt>
      <trkpt lat="44.0409" lon="1.76142">
        <ele>293</ele>
        <time>2011-03-05T18:29:48Z</time>
      </trkpt>
      <trkpt lat="44.04095" lon="1.76142">
        <ele>295</ele>
        <time>2011-03-05T18:29:50Z</time>
      </trkpt>
      <trkpt lat="44.04103" lon="1.76144">
        <ele>298</ele>
        <time>2011-03-05T18:29:53Z</time>
      </trkpt>
      <trkpt lat="44.04113" lon="1.76143">
        <ele>299</ele>
        <time>2011-03-05T18:29:56Z</time>
      </trkpt>
      <trkpt lat="44.04119" lon="1.76145">
        <ele>299</ele>
        <time>2011-03-05T18:29:58Z</time>
      </trkpt>
      <trkpt lat="44.04126" lon="1.76145">
        <ele>299</ele>
        <time>2011-03-05T18:30:00Z</time>
      </trkpt>
      <trkpt lat="44.04128" lon="1.76146">
        <ele>299</ele>
        <time>2011-03-05T18:30:01Z</time>
      </trkpt>
      <trkpt lat="44.04145" lon="1.76159">
        <ele>304</ele>
        <time>2011-03-05T18:30:07Z</time>
      </trkpt>
      <trkpt lat="44.04153" lon="1.76166">
        <ele>306</ele>
        <time>2011-03-05T18:30:10Z</time>
      </trkpt>
      <trkpt lat="44.04166" lon="1.76175">
        <ele>306</ele>
        <time>2011-03-05T18:30:15Z</time>
      </trkpt>
      <trkpt lat="44.04176" lon="1.76187">
        <ele>306</ele>
        <time>2011-03-05T18:30:19Z</time>
      </trkpt>
      <trkpt lat="44.04183" lon="1.76192">
        <ele>306</ele>
        <time>2011-03-05T18:30:22Z</time>
      </trkpt>
      <trkpt lat="44.04188" lon="1.76195">
        <ele>306</ele>
        <time>2011-03-05T18:30:24Z</time>
      </trkpt>
      <trkpt lat="44.04194" lon="1.76201">
        <ele>306</ele>
        <time>2011-03-05T18:30:27Z</time>
      </trkpt>
      <trkpt lat="44.04205" lon="1.76209">
        <ele>302</ele>
        <time>2011-03-05T18:30:32Z</time>
      </trkpt>
      <trkpt lat="44.04208" lon="1.76212">
        <ele>300</ele>
        <time>2011-03-05T18:30:34Z</time>
      </trkpt>
      <trkpt lat="44.04222" lon="1.76228">
        <ele>297</ele>
        <time>2011-03-05T18:30:40Z</time>
      </trkpt>
      <trkpt lat="44.04231" lon="1.76242">
        <ele>296</ele>
        <time>2011-03-05T18:30:45Z</time>
      </trkpt>
      <trkpt lat="44.04234" lon="1.76248">
        <ele>295</ele>
        <time>2011-03-05T18:30:47Z</time>
      </trkpt>
      <trkpt lat="44.0424" lon="1.76259">
        <ele>294</ele>
        <time>2011-03-05T18:30:51Z</time>
      </trkpt>
      <trkpt lat="44.0424" lon="1.76262">
        <ele>293</ele>
        <time>2011-03-05T18:30:52Z</time>
      </trkpt>
      <trkpt lat="44.04244" lon="1.76271">
        <ele>291</ele>
        <time>2011-03-05T18:30:55Z</time>
      </trkpt>
      <trkpt lat="44.04248" lon="1.76283">
        <ele>291</ele>
        <time>2011-03-05T18:30:59Z</time>
      </trkpt>
      <trkpt lat="44.04251" lon="1.76289">
        <ele>291</ele>
        <time>2011-03-05T18:31:01Z</time>
      </trkpt>
      <trkpt lat="44.04253" lon="1.76296">
        <ele>291</ele>
        <time>2011-03-05T18:31:03Z</time>
      </trkpt>
      <trkpt lat="44.04258" lon="1.76303">
        <ele>291</ele>
        <time>2011-03-05T18:31:06Z</time>
      </trkpt>
      <trkpt lat="44.04258" lon="1.76306">
        <ele>291</ele>
        <time>2011-03-05T18:31:07Z</time>
      </trkpt>
      <trkpt lat="44.04265" lon="1.76321">
        <ele>291</ele>
        <time>2011-03-05T18:31:12Z</time>
      </trkpt>
      <trkpt lat="44.04265" lon="1.76324">
        <ele>291</ele>
        <time>2011-03-05T18:31:13Z</time>
      </trkpt>
      <trkpt lat="44.04271" lon="1.76338">
        <ele>292</ele>
        <time>2011-03-05T18:31:18Z</time>
      </trkpt>
      <trkpt lat="44.04294" lon="1.76364">
        <ele>294</ele>
        <time>2011-03-05T18:31:30Z</time>
      </trkpt>
      <trkpt lat="44.04296" lon="1.76367">
        <ele>296</ele>
        <time>2011-03-05T18:31:32Z</time>
      </trkpt>
      <trkpt lat="44.04302" lon="1.76373">
        <ele>298</ele>
        <time>2011-03-05T18:31:35Z</time>
      </trkpt>
      <trkpt lat="44.0433" lon="1.76393">
        <ele>300</ele>
        <time>2011-03-05T18:31:47Z</time>
      </trkpt>
      <trkpt lat="44.04333" lon="1.76396">
        <ele>300</ele>
        <time>2011-03-05T18:31:49Z</time>
      </trkpt>
      <trkpt lat="44.04341" lon="1.76401">
        <ele>300</ele>
        <time>2011-03-05T18:31:52Z</time>
      </trkpt>
      <trkpt lat="44.04345" lon="1.76402">
        <ele>298</ele>
        <time>2011-03-05T18:31:54Z</time>
      </trkpt>
      <trkpt lat="44.04367" lon="1.76412">
        <ele>295</ele>
        <time>2011-03-05T18:32:04Z</time>
      </trkpt>
      <trkpt lat="44.04371" lon="1.76415">
        <ele>295</ele>
        <time>2011-03-05T18:32:06Z</time>
      </trkpt>
      <trkpt lat="44.04385" lon="1.76421">
        <ele>296</ele>
        <time>2011-03-05T18:32:11Z</time>
      </trkpt>
      <trkpt lat="44.04386" lon="1.76423">
        <ele>297</ele>
        <time>2011-03-05T18:32:12Z</time>
      </trkpt>
      <trkpt lat="44.04398" lon="1.7643">
        <ele>298</ele>
        <time>2011-03-05T18:32:17Z</time>
      </trkpt>
      <trkpt lat="44.04416" lon="1.76438">
        <ele>302</ele>
        <time>2011-03-05T18:32:24Z</time>
      </trkpt>
      <trkpt lat="44.04419" lon="1.76441">
        <ele>303</ele>
        <time>2011-03-05T18:32:29Z</time>
      </trkpt>
      <trkpt lat="44.0442" lon="1.76441">
        <ele>305</ele>
        <time>2011-03-05T18:32:34Z</time>
      </trkpt>
      <trkpt lat="44.0442" lon="1.76439">
        <ele>305</ele>
        <time>2011-03-05T18:32:39Z</time>
      </trkpt>
      <trkpt lat="44.04422" lon="1.76437">
        <ele>305</ele>
        <time>2011-03-05T18:32:56Z</time>
      </trkpt>
      <trkpt lat="44.04422" lon="1.76434">
        <ele>306</ele>
        <time>2011-03-05T18:33:04Z</time>
      </trkpt>
      <trkpt lat="44.04424" lon="1.76434">
        <ele>314</ele>
        <time>2011-03-05T18:33:41Z</time>
      </trkpt>
      <trkpt lat="44.04424" lon="1.76433">
        <ele>312</ele>
        <time>2011-03-05T18:33:51Z</time>
      </trkpt>
      <trkpt lat="44.04425" lon="1.76432">
        <ele>312</ele>
        <time>2011-03-05T18:33:56Z</time>
      </trkpt>
      <trkpt lat="44.04427" lon="1.76435">
        <ele>312</ele>
        <time>2011-03-05T18:33:59Z</time>
      </trkpt>
      <trkpt lat="44.04433" lon="1.76439">
        <ele>312</ele>
        <time>2011-03-05T18:34:02Z</time>
      </trkpt>
      <trkpt lat="44.04444" lon="1.76444">
        <ele>312</ele>
        <time>2011-03-05T18:34:07Z</time>
      </trkpt>
      <trkpt lat="44.04449" lon="1.76444">
        <ele>312</ele>
        <time>2011-03-05T18:34:09Z</time>
      </trkpt>
      <trkpt lat="44.04454" lon="1.76446">
        <ele>312</ele>
        <time>2011-03-05T18:34:11Z</time>
      </trkpt>
      <trkpt lat="44.04481" lon="1.76443">
        <ele>312</ele>
        <time>2011-03-05T18:34:22Z</time>
      </trkpt>
      <trkpt lat="44.04493" lon="1.76444">
        <ele>312</ele>
        <time>2011-03-05T18:34:27Z</time>
      </trkpt>
      <trkpt lat="44.04502" lon="1.76441">
        <ele>312</ele>
        <time>2011-03-05T18:34:31Z</time>
      </trkpt>
      <trkpt lat="44.04512" lon="1.76435">
        <ele>312</ele>
        <time>2011-03-05T18:34:35Z</time>
      </trkpt>
      <trkpt lat="44.04534" lon="1.7642">
        <ele>311</ele>
        <time>2011-03-05T18:34:45Z</time>
      </trkpt>
      <trkpt lat="44.0454" lon="1.76417">
        <ele>311</ele>
        <time>2011-03-05T18:34:48Z</time>
      </trkpt>
      <trkpt lat="44.04554" lon="1.76403">
        <ele>311</ele>
        <time>2011-03-05T18:34:54Z</time>
      </trkpt>
      <trkpt lat="44.04559" lon="1.76401">
        <ele>311</ele>
        <time>2011-03-05T18:34:56Z</time>
      </trkpt>
      <trkpt lat="44.04583" lon="1.76383">
        <ele>311</ele>
        <time>2011-03-05T18:35:06Z</time>
      </trkpt>
      <trkpt lat="44.04594" lon="1.76372">
        <ele>311</ele>
        <time>2011-03-05T18:35:11Z</time>
      </trkpt>
      <trkpt lat="44.04604" lon="1.76365">
        <ele>311</ele>
        <time>2011-03-05T18:35:16Z</time>
      </trkpt>
      <trkpt lat="44.04625" lon="1.76352">
        <ele>316</ele>
        <time>2011-03-05T18:35:27Z</time>
      </trkpt>
      <trkpt lat="44.04636" lon="1.76343">
        <ele>318</ele>
        <time>2011-03-05T18:35:32Z</time>
      </trkpt>
      <trkpt lat="44.04643" lon="1.76333">
        <ele>318</ele>
        <time>2011-03-05T18:35:37Z</time>
      </trkpt>
      <trkpt lat="44.04663" lon="1.76321">
        <ele>317</ele>
        <time>2011-03-05T18:35:47Z</time>
      </trkpt>
      <trkpt lat="44.04671" lon="1.76318">
        <ele>316</ele>
        <time>2011-03-05T18:35:51Z</time>
      </trkpt>
      <trkpt lat="44.0469" lon="1.76308">
        <ele>316</ele>
        <time>2011-03-05T18:36:01Z</time>
      </trkpt>
      <trkpt lat="44.04692" lon="1.76308">
        <ele>316</ele>
        <time>2011-03-05T18:36:02Z</time>
      </trkpt>
      <trkpt lat="44.04698" lon="1.76305">
        <ele>316</ele>
        <time>2011-03-05T18:36:05Z</time>
      </trkpt>
      <trkpt lat="44.04712" lon="1.76302">
        <ele>316</ele>
        <time>2011-03-05T18:36:12Z</time>
      </trkpt>
      <trkpt lat="44.04721" lon="1.76297">
        <ele>316</ele>
        <time>2011-03-05T18:36:17Z</time>
      </trkpt>
      <trkpt lat="44.04735" lon="1.76292">
        <ele>320</ele>
        <time>2011-03-05T18:36:25Z</time>
      </trkpt>
      <trkpt lat="44.0474" lon="1.76292">
        <ele>322</ele>
        <time>2011-03-05T18:36:28Z</time>
      </trkpt>
      <trkpt lat="44.04748" lon="1.76293">
        <ele>325</ele>
        <time>2011-03-05T18:36:32Z</time>
      </trkpt>
      <trkpt lat="44.04753" lon="1.76292">
        <ele>326</ele>
        <time>2011-03-05T18:36:34Z</time>
      </trkpt>
      <trkpt lat="44.04762" lon="1.76295">
        <ele>326</ele>
        <time>2011-03-05T18:36:39Z</time>
      </trkpt>
      <trkpt lat="44.04773" lon="1.76304">
        <ele>329</ele>
        <time>2011-03-05T18:36:45Z</time>
      </trkpt>
      <trkpt lat="44.04779" lon="1.76306">
        <ele>329</ele>
        <time>2011-03-05T18:36:48Z</time>
      </trkpt>
      <trkpt lat="44.04789" lon="1.76308">
        <ele>329</ele>
        <time>2011-03-05T18:36:53Z</time>
      </trkpt>
      <trkpt lat="44.04794" lon="1.7631">
        <ele>329</ele>
        <time>2011-03-05T18:36:55Z</time>
      </trkpt>
      <trkpt lat="44.04803" lon="1.76312">
        <ele>329</ele>
        <time>2011-03-05T18:37:00Z</time>
      </trkpt>
      <trkpt lat="44.04816" lon="1.7631">
        <ele>329</ele>
        <time>2011-03-05T18:37:06Z</time>
      </trkpt>
      <trkpt lat="44.04829" lon="1.76304">
        <ele>329</ele>
        <time>2011-03-05T18:37:12Z</time>
      </trkpt>
      <trkpt lat="44.04838" lon="1.763">
        <ele>329</ele>
        <time>2011-03-05T18:37:16Z</time>
      </trkpt>
      <trkpt lat="44.04843" lon="1.76297">
        <ele>329</ele>
        <time>2011-03-05T18:37:19Z</time>
      </trkpt>
      <trkpt lat="44.04851" lon="1.76295">
        <ele>329</ele>
        <time>2011-03-05T18:37:23Z</time>
      </trkpt>
      <trkpt lat="44.04869" lon="1.76286">
        <ele>329</ele>
        <time>2011-03-05T18:37:32Z</time>
      </trkpt>
      <trkpt lat="44.04871" lon="1.76286">
        <ele>329</ele>
        <time>2011-03-05T18:37:33Z</time>
      </trkpt>
      <trkpt lat="44.04874" lon="1.76284">
        <ele>329</ele>
        <time>2011-03-05T18:37:34Z</time>
      </trkpt>
      <trkpt lat="44.04885" lon="1.76283">
        <ele>329</ele>
        <time>2011-03-05T18:37:39Z</time>
      </trkpt>
      <trkpt lat="44.04889" lon="1.76284">
        <ele>329</ele>
        <time>2011-03-05T18:37:41Z</time>
      </trkpt>
      <trkpt lat="44.04895" lon="1.76286">
        <ele>329</ele>
        <time>2011-03-05T18:37:44Z</time>
      </trkpt>
      <trkpt lat="44.04908" lon="1.76299">
        <ele>329</ele>
        <time>2011-03-05T18:37:52Z</time>
      </trkpt>
      <trkpt lat="44.04913" lon="1.76306">
        <ele>329</ele>
        <time>2011-03-05T18:37:56Z</time>
      </trkpt>
      <trkpt lat="44.04916" lon="1.76309">
        <ele>329</ele>
        <time>2011-03-05T18:37:58Z</time>
      </trkpt>
      <trkpt lat="44.04926" lon="1.76307">
        <ele>329</ele>
        <time>2011-03-05T18:38:02Z</time>
      </trkpt>
      <trkpt lat="44.04933" lon="1.76301">
        <ele>328</ele>
        <time>2011-03-05T18:38:06Z</time>
      </trkpt>
      <trkpt lat="44.04935" lon="1.76298">
        <ele>328</ele>
        <time>2011-03-05T18:38:08Z</time>
      </trkpt>
      <trkpt lat="44.04937" lon="1.76294">
        <ele>326</ele>
        <time>2011-03-05T18:38:10Z</time>
      </trkpt>
      <trkpt lat="44.04938" lon="1.76286">
        <ele>324</ele>
        <time>2011-03-05T18:38:13Z</time>
      </trkpt>
      <trkpt lat="44.04938" lon="1.76281">
        <ele>322</ele>
        <time>2011-03-05T18:38:15Z</time>
      </trkpt>
      <trkpt lat="44.04937" lon="1.76277">
        <ele>322</ele>
        <time>2011-03-05T18:38:16Z</time>
      </trkpt>
      <trkpt lat="44.04937" lon="1.76271">
        <ele>322</ele>
        <time>2011-03-05T18:38:18Z</time>
      </trkpt>
      <trkpt lat="44.04939" lon="1.76266">
        <ele>322</ele>
        <time>2011-03-05T18:38:20Z</time>
      </trkpt>
      <trkpt lat="44.04943" lon="1.76257">
        <ele>322</ele>
        <time>2011-03-05T18:38:24Z</time>
      </trkpt>
      <trkpt lat="44.04948" lon="1.76251">
        <ele>322</ele>
        <time>2011-03-05T18:38:27Z</time>
      </trkpt>
      <trkpt lat="44.04956" lon="1.76245">
        <ele>322</ele>
        <time>2011-03-05T18:38:32Z</time>
      </trkpt>
      <trkpt lat="44.04964" lon="1.76243">
        <ele>326</ele>
        <time>2011-03-05T18:38:37Z</time>
      </trkpt>
      <trkpt lat="44.04968" lon="1.76243">
        <ele>327</ele>
        <time>2011-03-05T18:38:39Z</time>
      </trkpt>
      <trkpt lat="44.04973" lon="1.76245">
        <ele>330</ele>
        <time>2011-03-05T18:38:42Z</time>
      </trkpt>
      <trkpt lat="44.04998" lon="1.76247">
        <ele>339</ele>
        <time>2011-03-05T18:38:55Z</time>
      </trkpt>
      <trkpt lat="44.05002" lon="1.76248">
        <ele>340</ele>
        <time>2011-03-05T18:38:57Z</time>
      </trkpt>
      <trkpt lat="44.05008" lon="1.76252">
        <ele>342</ele>
        <time>2011-03-05T18:39:01Z</time>
      </trkpt>
      <trkpt lat="44.0501" lon="1.76252">
        <ele>343</ele>
        <time>2011-03-05T18:39:02Z</time>
      </trkpt>
      <trkpt lat="44.05022" lon="1.76254">
        <ele>348</ele>
        <time>2011-03-05T18:39:08Z</time>
      </trkpt>
      <trkpt lat="44.0503" lon="1.76253">
        <ele>349</ele>
        <time>2011-03-05T18:39:12Z</time>
      </trkpt>
      <trkpt lat="44.05043" lon="1.76245">
        <ele>349</ele>
        <time>2011-03-05T18:39:18Z</time>
      </trkpt>
      <trkpt lat="44.05046" lon="1.76241">
        <ele>349</ele>
        <time>2011-03-05T18:39:20Z</time>
      </trkpt>
      <trkpt lat="44.05048" lon="1.76235">
        <ele>349</ele>
        <time>2011-03-05T18:39:22Z</time>
      </trkpt>
      <trkpt lat="44.05048" lon="1.76231">
        <ele>349</ele>
        <time>2011-03-05T18:39:24Z</time>
      </trkpt>
      <trkpt lat="44.05045" lon="1.76223">
        <ele>349</ele>
        <time>2011-03-05T18:39:27Z</time>
      </trkpt>
      <trkpt lat="44.05038" lon="1.76212">
        <ele>349</ele>
        <time>2011-03-05T18:39:32Z</time>
      </trkpt>
      <trkpt lat="44.05037" lon="1.76209">
        <ele>349</ele>
        <time>2011-03-05T18:39:33Z</time>
      </trkpt>
      <trkpt lat="44.05032" lon="1.76201">
        <ele>349</ele>
        <time>2011-03-05T18:39:36Z</time>
      </trkpt>
      <trkpt lat="44.0503" lon="1.76197">
        <ele>349</ele>
        <time>2011-03-05T18:39:38Z</time>
      </trkpt>
      <trkpt lat="44.0503" lon="1.7619">
        <ele>349</ele>
        <time>2011-03-05T18:39:40Z</time>
      </trkpt>
      <trkpt lat="44.05031" lon="1.76185">
        <ele>349</ele>
        <time>2011-03-05T18:39:42Z</time>
      </trkpt>
      <trkpt lat="44.05031" lon="1.76182">
        <ele>349</ele>
        <time>2011-03-05T18:39:43Z</time>
      </trkpt>
      <trkpt lat="44.05033" lon="1.76176">
        <ele>349</ele>
        <time>2011-03-05T18:39:45Z</time>
      </trkpt>
      <trkpt lat="44.05037" lon="1.76169">
        <ele>349</ele>
        <time>2011-03-05T18:39:48Z</time>
      </trkpt>
      <trkpt lat="44.05045" lon="1.76162">
        <ele>349</ele>
        <time>2011-03-05T18:39:53Z</time>
      </trkpt>
      <trkpt lat="44.05051" lon="1.76158">
        <ele>349</ele>
        <time>2011-03-05T18:39:56Z</time>
      </trkpt>
      <trkpt lat="44.05058" lon="1.7615">
        <ele>349</ele>
        <time>2011-03-05T18:40:01Z</time>
      </trkpt>
      <trkpt lat="44.05059" lon="1.76148">
        <ele>349</ele>
        <time>2011-03-05T18:40:04Z</time>
      </trkpt>
      <trkpt lat="44.05061" lon="1.76149">
        <ele>349</ele>
        <time>2011-03-05T18:40:10Z</time>
      </trkpt>
      <trkpt lat="44.05061" lon="1.76147">
        <ele>349</ele>
        <time>2011-03-05T18:40:14Z</time>
      </trkpt>
      <trkpt lat="44.05061" lon="1.76144">
        <ele>352</ele>
        <time>2011-03-05T18:40:29Z</time>
      </trkpt>
      <trkpt lat="44.0506" lon="1.7614">
        <ele>352</ele>
        <time>2011-03-05T18:40:44Z</time>
      </trkpt>
      <trkpt lat="44.05062" lon="1.76144">
        <ele>352</ele>
        <time>2011-03-05T18:40:53Z</time>
      </trkpt>
      <trkpt lat="44.05069" lon="1.76136">
        <ele>352</ele>
        <time>2011-03-05T18:41:08Z</time>
      </trkpt>
      <trkpt lat="44.05069" lon="1.76134">
        <ele>352</ele>
        <time>2011-03-05T18:41:09Z</time>
      </trkpt>
      <trkpt lat="44.05072" lon="1.7613">
        <ele>352</ele>
        <time>2011-03-05T18:41:11Z</time>
      </trkpt>
      <trkpt lat="44.0508" lon="1.7612">
        <ele>352</ele>
        <time>2011-03-05T18:41:17Z</time>
      </trkpt>
      <trkpt lat="44.05083" lon="1.76118">
        <ele>352</ele>
        <time>2011-03-05T18:41:19Z</time>
      </trkpt>
      <trkpt lat="44.05114" lon="1.76092">
        <ele>352</ele>
        <time>2011-03-05T18:41:37Z</time>
      </trkpt>
      <trkpt lat="44.0512" lon="1.76085">
        <ele>352</ele>
        <time>2011-03-05T18:41:41Z</time>
      </trkpt>
      <trkpt lat="44.05125" lon="1.76077">
        <ele>352</ele>
        <time>2011-03-05T18:41:45Z</time>
      </trkpt>
      <trkpt lat="44.05137" lon="1.76052">
        <ele>352</ele>
        <time>2011-03-05T18:41:57Z</time>
      </trkpt>
      <trkpt lat="44.05139" lon="1.76045">
        <ele>352</ele>
        <time>2011-03-05T18:42:00Z</time>
      </trkpt>
      <trkpt lat="44.05139" lon="1.76039">
        <ele>352</ele>
        <time>2011-03-05T18:42:02Z</time>
      </trkpt>
      <trkpt lat="44.05138" lon="1.76033">
        <ele>352</ele>
        <time>2011-03-05T18:42:04Z</time>
      </trkpt>
      <trkpt lat="44.05137" lon="1.76028">
        <ele>352</ele>
        <time>2011-03-05T18:42:06Z</time>
      </trkpt>
      <trkpt lat="44.05135" lon="1.76024">
        <ele>352</ele>
        <time>2011-03-05T18:42:08Z</time>
      </trkpt>
      <trkpt lat="44.05133" lon="1.76022">
        <ele>352</ele>
        <time>2011-03-05T18:42:09Z</time>
      </trkpt>
      <trkpt lat="44.05126" lon="1.76019">
        <ele>352</ele>
        <time>2011-03-05T18:42:13Z</time>
      </trkpt>
      <trkpt lat="44.0512" lon="1.76018">
        <ele>353</ele>
        <time>2011-03-05T18:42:16Z</time>
      </trkpt>
      <trkpt lat="44.05113" lon="1.76022">
        <ele>357</ele>
        <time>2011-03-05T18:42:20Z</time>
      </trkpt>
      <trkpt lat="44.05107" lon="1.76024">
        <ele>360</ele>
        <time>2011-03-05T18:42:23Z</time>
      </trkpt>
      <trkpt lat="44.051" lon="1.76029">
        <ele>364</ele>
        <time>2011-03-05T18:42:27Z</time>
      </trkpt>
      <trkpt lat="44.05095" lon="1.7603">
        <ele>367</ele>
        <time>2011-03-05T18:42:30Z</time>
      </trkpt>
      <trkpt lat="44.05091" lon="1.76033">
        <ele>369</ele>
        <time>2011-03-05T18:42:33Z</time>
      </trkpt>
      <trkpt lat="44.05085" lon="1.76032">
        <ele>369</ele>
        <time>2011-03-05T18:42:36Z</time>
      </trkpt>
      <trkpt lat="44.05077" lon="1.76037">
        <ele>369</ele>
        <time>2011-03-05T18:42:41Z</time>
      </trkpt>
      <trkpt lat="44.05071" lon="1.76038">
        <ele>369</ele>
        <time>2011-03-05T18:42:44Z</time>
      </trkpt>
      <trkpt lat="44.05066" lon="1.76041">
        <ele>369</ele>
        <time>2011-03-05T18:42:47Z</time>
      </trkpt>
      <trkpt lat="44.05064" lon="1.76041">
        <ele>369</ele>
        <time>2011-03-05T18:42:48Z</time>
      </trkpt>
      <trkpt lat="44.0504" lon="1.76053">
        <ele>367</ele>
        <time>2011-03-05T18:43:02Z</time>
      </trkpt>
      <trkpt lat="44.05032" lon="1.76055">
        <ele>367</ele>
        <time>2011-03-05T18:43:06Z</time>
      </trkpt>
      <trkpt lat="44.05025" lon="1.76054">
        <ele>367</ele>
        <time>2011-03-05T18:43:09Z</time>
      </trkpt>
      <trkpt lat="44.05023" lon="1.76052">
        <ele>367</ele>
        <time>2011-03-05T18:43:10Z</time>
      </trkpt>
      <trkpt lat="44.05019" lon="1.76047">
        <ele>367</ele>
        <time>2011-03-05T18:43:13Z</time>
      </trkpt>
      <trkpt lat="44.05017" lon="1.76039">
        <ele>367</ele>
        <time>2011-03-05T18:43:16Z</time>
      </trkpt>
      <trkpt lat="44.05017" lon="1.76037">
        <ele>367</ele>
        <time>2011-03-05T18:43:17Z</time>
      </trkpt>
      <trkpt lat="44.05017" lon="1.76029">
        <ele>367</ele>
        <time>2011-03-05T18:43:20Z</time>
      </trkpt>
      <trkpt lat="44.0502" lon="1.7602">
        <ele>367</ele>
        <time>2011-03-05T18:43:24Z</time>
      </trkpt>
      <trkpt lat="44.05022" lon="1.76018">
        <ele>367</ele>
        <time>2011-03-05T18:43:25Z</time>
      </trkpt>
      <trkpt lat="44.05022" lon="1.76015">
        <ele>367</ele>
        <time>2011-03-05T18:43:26Z</time>
      </trkpt>
      <trkpt lat="44.05028" lon="1.75996">
        <ele>367</ele>
        <time>2011-03-05T18:43:34Z</time>
      </trkpt>
      <trkpt lat="44.05035" lon="1.75984">
        <ele>365</ele>
        <time>2011-03-05T18:43:40Z</time>
      </trkpt>
      <trkpt lat="44.05035" lon="1.7598">
        <ele>365</ele>
        <time>2011-03-05T18:43:41Z</time>
      </trkpt>
      <trkpt lat="44.05038" lon="1.75972">
        <ele>365</ele>
        <time>2011-03-05T18:43:45Z</time>
      </trkpt>
      <trkpt lat="44.0504" lon="1.7597">
        <ele>364</ele>
        <time>2011-03-05T18:43:46Z</time>
      </trkpt>
      <trkpt lat="44.05041" lon="1.75965">
        <ele>363</ele>
        <time>2011-03-05T18:43:48Z</time>
      </trkpt>
      <trkpt lat="44.05044" lon="1.75961">
        <ele>362</ele>
        <time>2011-03-05T18:43:50Z</time>
      </trkpt>
      <trkpt lat="44.05046" lon="1.75953">
        <ele>361</ele>
        <time>2011-03-05T18:43:53Z</time>
      </trkpt>
      <trkpt lat="44.05047" lon="1.75951">
        <ele>360</ele>
        <time>2011-03-05T18:43:54Z</time>
      </trkpt>
      <trkpt lat="44.05053" lon="1.75937">
        <ele>357</ele>
        <time>2011-03-05T18:44:00Z</time>
      </trkpt>
      <trkpt lat="44.05056" lon="1.75925">
        <ele>357</ele>
        <time>2011-03-05T18:44:05Z</time>
      </trkpt>
      <trkpt lat="44.05057" lon="1.7591">
        <ele>357</ele>
        <time>2011-03-05T18:44:10Z</time>
      </trkpt>
      <trkpt lat="44.05056" lon="1.75904">
        <ele>357</ele>
        <time>2011-03-05T18:44:12Z</time>
      </trkpt>
      <trkpt lat="44.05055" lon="1.75898">
        <ele>357</ele>
        <time>2011-03-05T18:44:14Z</time>
      </trkpt>
      <trkpt lat="44.05043" lon="1.75876">
        <ele>362</ele>
        <time>2011-03-05T18:44:21Z</time>
      </trkpt>
      <trkpt lat="44.0504" lon="1.75868">
        <ele>365</ele>
        <time>2011-03-05T18:44:24Z</time>
      </trkpt>
      <trkpt lat="44.05038" lon="1.75855">
        <ele>370</ele>
        <time>2011-03-05T18:44:29Z</time>
      </trkpt>
      <trkpt lat="44.0504" lon="1.75845">
        <ele>372</ele>
        <time>2011-03-05T18:44:33Z</time>
      </trkpt>
      <trkpt lat="44.0504" lon="1.75841">
        <ele>372</ele>
        <time>2011-03-05T18:44:34Z</time>
      </trkpt>
      <trkpt lat="44.05042" lon="1.75834">
        <ele>373</ele>
        <time>2011-03-05T18:44:37Z</time>
      </trkpt>
      <trkpt lat="44.05048" lon="1.75827">
        <ele>374</ele>
        <time>2011-03-05T18:44:41Z</time>
      </trkpt>
      <trkpt lat="44.05051" lon="1.75824">
        <ele>375</ele>
        <time>2011-03-05T18:44:43Z</time>
      </trkpt>
      <trkpt lat="44.05055" lon="1.75826">
        <ele>376</ele>
        <time>2011-03-05T18:44:45Z</time>
      </trkpt>
      <trkpt lat="44.0506" lon="1.75835">
        <ele>379</ele>
        <time>2011-03-05T18:44:49Z</time>
      </trkpt>
      <trkpt lat="44.0506" lon="1.75841">
        <ele>380</ele>
        <time>2011-03-05T18:44:51Z</time>
      </trkpt>
      <trkpt lat="44.05059" lon="1.75847">
        <ele>381</ele>
        <time>2011-03-05T18:44:53Z</time>
      </trkpt>
      <trkpt lat="44.0506" lon="1.75856">
        <ele>384</ele>
        <time>2011-03-05T18:44:57Z</time>
      </trkpt>
      <trkpt lat="44.05062" lon="1.75866">
        <ele>384</ele>
        <time>2011-03-05T18:45:01Z</time>
      </trkpt>
      <trkpt lat="44.05065" lon="1.75873">
        <ele>385</ele>
        <time>2011-03-05T18:45:04Z</time>
      </trkpt>
      <trkpt lat="44.0507" lon="1.75877">
        <ele>385</ele>
        <time>2011-03-05T18:45:07Z</time>
      </trkpt>
      <trkpt lat="44.05072" lon="1.75877">
        <ele>385</ele>
        <time>2011-03-05T18:45:08Z</time>
      </trkpt>
      <trkpt lat="44.05077" lon="1.75877">
        <ele>385</ele>
        <time>2011-03-05T18:45:10Z</time>
      </trkpt>
      <trkpt lat="44.0508" lon="1.75874">
        <ele>385</ele>
        <time>2011-03-05T18:45:12Z</time>
      </trkpt>
      <trkpt lat="44.05082" lon="1.7587">
        <ele>385</ele>
        <time>2011-03-05T18:45:14Z</time>
      </trkpt>
      <trkpt lat="44.05083" lon="1.75866">
        <ele>385</ele>
        <time>2011-03-05T18:45:16Z</time>
      </trkpt>
      <trkpt lat="44.05081" lon="1.75846">
        <ele>385</ele>
        <time>2011-03-05T18:45:23Z</time>
      </trkpt>
      <trkpt lat="44.0508" lon="1.75841">
        <ele>385</ele>
        <time>2011-03-05T18:45:25Z</time>
      </trkpt>
      <trkpt lat="44.05079" lon="1.75833">
        <ele>385</ele>
        <time>2011-03-05T18:45:28Z</time>
      </trkpt>
      <trkpt lat="44.05075" lon="1.75821">
        <ele>385</ele>
        <time>2011-03-05T18:45:33Z</time>
      </trkpt>
      <trkpt lat="44.05066" lon="1.75805">
        <ele>386</ele>
        <time>2011-03-05T18:45:40Z</time>
      </trkpt>
      <trkpt lat="44.0506" lon="1.75798">
        <ele>386</ele>
        <time>2011-03-05T18:45:44Z</time>
      </trkpt>
      <trkpt lat="44.05049" lon="1.75789">
        <ele>388</ele>
        <time>2011-03-05T18:45:50Z</time>
      </trkpt>
      <trkpt lat="44.0504" lon="1.75779">
        <ele>391</ele>
        <time>2011-03-05T18:45:55Z</time>
      </trkpt>
      <trkpt lat="44.05032" lon="1.75766">
        <ele>394</ele>
        <time>2011-03-05T18:46:01Z</time>
      </trkpt>
      <trkpt lat="44.05025" lon="1.75756">
        <ele>395</ele>
        <time>2011-03-05T18:46:06Z</time>
      </trkpt>
      <trkpt lat="44.0502" lon="1.75752">
        <ele>395</ele>
        <time>2011-03-05T18:46:09Z</time>
      </trkpt>
      <trkpt lat="44.05013" lon="1.7575">
        <ele>396</ele>
        <time>2011-03-05T18:46:13Z</time>
      </trkpt>
      <trkpt lat="44.05008" lon="1.75747">
        <ele>396</ele>
        <time>2011-03-05T18:46:16Z</time>
      </trkpt>
      <trkpt lat="44.05003" lon="1.75742">
        <ele>396</ele>
        <time>2011-03-05T18:46:19Z</time>
      </trkpt>
      <trkpt lat="44.05" lon="1.75736">
        <ele>397</ele>
        <time>2011-03-05T18:46:22Z</time>
      </trkpt>
      <trkpt lat="44.04998" lon="1.75732">
        <ele>397</ele>
        <time>2011-03-05T18:46:24Z</time>
      </trkpt>
      <trkpt lat="44.04998" lon="1.75727">
        <ele>397</ele>
        <time>2011-03-05T18:46:26Z</time>
      </trkpt>
      <trkpt lat="44.04996" lon="1.75724">
        <ele>397</ele>
        <time>2011-03-05T18:46:28Z</time>
      </trkpt>
      <trkpt lat="44.04993" lon="1.75721">
        <ele>397</ele>
        <time>2011-03-05T18:46:32Z</time>
      </trkpt>
      <trkpt lat="44.04992" lon="1.75719">
        <ele>399</ele>
        <time>2011-03-05T18:46:39Z</time>
      </trkpt>
      <trkpt lat="44.04993" lon="1.75719">
        <ele>400</ele>
        <time>2011-03-05T18:47:23Z</time>
      </trkpt>
      <trkpt lat="44.04993" lon="1.75716">
        <ele>400</ele>
        <time>2011-03-05T18:47:54Z</time>
      </trkpt>
      <trkpt lat="44.04995" lon="1.75715">
        <ele>400</ele>
        <time>2011-03-05T18:48:17Z</time>
      </trkpt>
      <trkpt lat="44.04995" lon="1.75713">
        <ele>400</ele>
        <time>2011-03-05T18:48:20Z</time>
      </trkpt>
      <trkpt lat="44.04993" lon="1.75708">
        <ele>405</ele>
        <time>2011-03-05T18:49:06Z</time>
      </trkpt>
      <trkpt lat="44.04991" lon="1.757">
        <ele>405</ele>
        <time>2011-03-05T18:49:12Z</time>
      </trkpt>
      <trkpt lat="44.04991" lon="1.75696">
        <ele>405</ele>
        <time>2011-03-05T18:49:14Z</time>
      </trkpt>
      <trkpt lat="44.0499" lon="1.75689">
        <ele>405</ele>
        <time>2011-03-05T18:49:17Z</time>
      </trkpt>
      <trkpt lat="44.04984" lon="1.75667">
        <ele>405</ele>
        <time>2011-03-05T18:49:23Z</time>
      </trkpt>
      <trkpt lat="44.04983" lon="1.75662">
        <ele>405</ele>
        <time>2011-03-05T18:49:24Z</time>
      </trkpt>
      <trkpt lat="44.04982" lon="1.75636">
        <ele>405</ele>
        <time>2011-03-05T18:49:29Z</time>
      </trkpt>
      <trkpt lat="44.04985" lon="1.75611">
        <ele>404</ele>
        <time>2011-03-05T18:49:34Z</time>
      </trkpt>
      <trkpt lat="44.04987" lon="1.75602">
        <ele>404</ele>
        <time>2011-03-05T18:49:36Z</time>
      </trkpt>
      <trkpt lat="44.04992" lon="1.75592">
        <ele>403</ele>
        <time>2011-03-05T18:49:38Z</time>
      </trkpt>
      <trkpt lat="44.0501" lon="1.75564">
        <ele>401</ele>
        <time>2011-03-05T18:49:45Z</time>
      </trkpt>
      <trkpt lat="44.05017" lon="1.7555">
        <ele>401</ele>
        <time>2011-03-05T18:49:48Z</time>
      </trkpt>
      <trkpt lat="44.05021" lon="1.7554">
        <ele>401</ele>
        <time>2011-03-05T18:49:50Z</time>
      </trkpt>
      <trkpt lat="44.0503" lon="1.75504">
        <ele>401</ele>
        <time>2011-03-05T18:49:57Z</time>
      </trkpt>
      <trkpt lat="44.05037" lon="1.75486">
        <ele>401</ele>
        <time>2011-03-05T18:50:01Z</time>
      </trkpt>
      <trkpt lat="44.05041" lon="1.75478">
        <ele>401</ele>
        <time>2011-03-05T18:50:03Z</time>
      </trkpt>
      <trkpt lat="44.05049" lon="1.75468">
        <ele>401</ele>
        <time>2011-03-05T18:50:06Z</time>
      </trkpt>
      <trkpt lat="44.05063" lon="1.75444">
        <ele>401</ele>
        <time>2011-03-05T18:50:12Z</time>
      </trkpt>
      <trkpt lat="44.05071" lon="1.75427">
        <ele>401</ele>
        <time>2011-03-05T18:50:16Z</time>
      </trkpt>
      <trkpt lat="44.05078" lon="1.75407">
        <ele>401</ele>
        <time>2011-03-05T18:50:20Z</time>
      </trkpt>
      <trkpt lat="44.05091" lon="1.75378">
        <ele>401</ele>
        <time>2011-03-05T18:50:26Z</time>
      </trkpt>
      <trkpt lat="44.05093" lon="1.75374">
        <ele>401</ele>
        <time>2011-03-05T18:50:27Z</time>
      </trkpt>
      <trkpt lat="44.05095" lon="1.75369">
        <ele>401</ele>
        <time>2011-03-05T18:50:28Z</time>
      </trkpt>
      <trkpt lat="44.05102" lon="1.75351">
        <ele>401</ele>
        <time>2011-03-05T18:50:32Z</time>
      </trkpt>
      <trkpt lat="44.05108" lon="1.75332">
        <ele>401</ele>
        <time>2011-03-05T18:50:36Z</time>
      </trkpt>
      <trkpt lat="44.0511" lon="1.75324">
        <ele>401</ele>
        <time>2011-03-05T18:50:38Z</time>
      </trkpt>
      <trkpt lat="44.05112" lon="1.75303">
        <ele>401</ele>
        <time>2011-03-05T18:50:42Z</time>
      </trkpt>
      <trkpt lat="44.05113" lon="1.75298">
        <ele>401</ele>
        <time>2011-03-05T18:50:43Z</time>
      </trkpt>
      <trkpt lat="44.05116" lon="1.75266">
        <ele>401</ele>
        <time>2011-03-05T18:50:49Z</time>
      </trkpt>
      <trkpt lat="44.05117" lon="1.75255">
        <ele>401</ele>
        <time>2011-03-05T18:50:51Z</time>
      </trkpt>
      <trkpt lat="44.05118" lon="1.75245">
        <ele>401</ele>
        <time>2011-03-05T18:50:53Z</time>
      </trkpt>
      <trkpt lat="44.05118" lon="1.75239">
        <ele>401</ele>
        <time>2011-03-05T18:50:54Z</time>
      </trkpt>
      <trkpt lat="44.05119" lon="1.75233">
        <ele>401</ele>
        <time>2011-03-05T18:50:55Z</time>
      </trkpt>
      <trkpt lat="44.05118" lon="1.75226">
        <ele>401</ele>
        <time>2011-03-05T18:50:56Z</time>
      </trkpt>
      <trkpt lat="44.05121" lon="1.75213">
        <ele>401</ele>
        <time>2011-03-05T18:50:59Z</time>
      </trkpt>
      <trkpt lat="44.05125" lon="1.75204">
        <ele>401</ele>
        <time>2011-03-05T18:51:01Z</time>
      </trkpt>
      <trkpt lat="44.05127" lon="1.75194">
        <ele>401</ele>
        <time>2011-03-05T18:51:03Z</time>
      </trkpt>
      <trkpt lat="44.05129" lon="1.75179">
        <ele>401</ele>
        <time>2011-03-05T18:51:06Z</time>
      </trkpt>
      <trkpt lat="44.0513" lon="1.75168">
        <ele>401</ele>
        <time>2011-03-05T18:51:08Z</time>
      </trkpt>
      <trkpt lat="44.05128" lon="1.75152">
        <ele>401</ele>
        <time>2011-03-05T18:51:11Z</time>
      </trkpt>
      <trkpt lat="44.0512" lon="1.75126">
        <ele>402</ele>
        <time>2011-03-05T18:51:16Z</time>
      </trkpt>
      <trkpt lat="44.05117" lon="1.75104">
        <ele>403</ele>
        <time>2011-03-05T18:51:20Z</time>
      </trkpt>
      <trkpt lat="44.05117" lon="1.75088">
        <ele>403</ele>
        <time>2011-03-05T18:51:23Z</time>
      </trkpt>
      <trkpt lat="44.05116" lon="1.75072">
        <ele>403</ele>
        <time>2011-03-05T18:51:26Z</time>
      </trkpt>
      <trkpt lat="44.05114" lon="1.75062">
        <ele>403</ele>
        <time>2011-03-05T18:51:28Z</time>
      </trkpt>
      <trkpt lat="44.05107" lon="1.75041">
        <ele>404</ele>
        <time>2011-03-05T18:51:32Z</time>
      </trkpt>
      <trkpt lat="44.05104" lon="1.75031">
        <ele>404</ele>
        <time>2011-03-05T18:51:34Z</time>
      </trkpt>
      <trkpt lat="44.051" lon="1.7501">
        <ele>404</ele>
        <time>2011-03-05T18:51:38Z</time>
      </trkpt>
      <trkpt lat="44.05098" lon="1.74983">
        <ele>404</ele>
        <time>2011-03-05T18:51:43Z</time>
      </trkpt>
      <trkpt lat="44.05099" lon="1.74972">
        <ele>404</ele>
        <time>2011-03-05T18:51:45Z</time>
      </trkpt>
      <trkpt lat="44.05101" lon="1.74962">
        <ele>404</ele>
        <time>2011-03-05T18:51:47Z</time>
      </trkpt>
      <trkpt lat="44.05103" lon="1.74946">
        <ele>404</ele>
        <time>2011-03-05T18:51:50Z</time>
      </trkpt>
      <trkpt lat="44.05103" lon="1.74936">
        <ele>404</ele>
        <time>2011-03-05T18:51:52Z</time>
      </trkpt>
      <trkpt lat="44.05105" lon="1.74916">
        <ele>404</ele>
        <time>2011-03-05T18:51:56Z</time>
      </trkpt>
      <trkpt lat="44.05105" lon="1.7491">
        <ele>404</ele>
        <time>2011-03-05T18:51:57Z</time>
      </trkpt>
      <trkpt lat="44.05106" lon="1.749">
        <ele>403</ele>
        <time>2011-03-05T18:51:59Z</time>
      </trkpt>
      <trkpt lat="44.05105" lon="1.74894">
        <ele>403</ele>
        <time>2011-03-05T18:52:00Z</time>
      </trkpt>
      <trkpt lat="44.05105" lon="1.74889">
        <ele>402</ele>
        <time>2011-03-05T18:52:01Z</time>
      </trkpt>
      <trkpt lat="44.05104" lon="1.74873">
        <ele>401</ele>
        <time>2011-03-05T18:52:04Z</time>
      </trkpt>
      <trkpt lat="44.05104" lon="1.74828">
        <ele>400</ele>
        <time>2011-03-05T18:52:12Z</time>
      </trkpt>
      <trkpt lat="44.05106" lon="1.74817">
        <ele>400</ele>
        <time>2011-03-05T18:52:14Z</time>
      </trkpt>
      <trkpt lat="44.05111" lon="1.74801">
        <ele>400</ele>
        <time>2011-03-05T18:52:17Z</time>
      </trkpt>
      <trkpt lat="44.05112" lon="1.74796">
        <ele>400</ele>
        <time>2011-03-05T18:52:18Z</time>
      </trkpt>
      <trkpt lat="44.05114" lon="1.7479">
        <ele>400</ele>
        <time>2011-03-05T18:52:19Z</time>
      </trkpt>
      <trkpt lat="44.05118" lon="1.74782">
        <ele>400</ele>
        <time>2011-03-05T18:52:21Z</time>
      </trkpt>
      <trkpt lat="44.05126" lon="1.7477">
        <ele>400</ele>
        <time>2011-03-05T18:52:24Z</time>
      </trkpt>
      <trkpt lat="44.05135" lon="1.74753">
        <ele>400</ele>
        <time>2011-03-05T18:52:28Z</time>
      </trkpt>
      <trkpt lat="44.05138" lon="1.74744">
        <ele>400</ele>
        <time>2011-03-05T18:52:30Z</time>
      </trkpt>
      <trkpt lat="44.0515" lon="1.74721">
        <ele>400</ele>
        <time>2011-03-05T18:52:35Z</time>
      </trkpt>
      <trkpt lat="44.05154" lon="1.74705">
        <ele>400</ele>
        <time>2011-03-05T18:52:38Z</time>
      </trkpt>
      <trkpt lat="44.05155" lon="1.747">
        <ele>400</ele>
        <time>2011-03-05T18:52:39Z</time>
      </trkpt>
      <trkpt lat="44.0516" lon="1.74684">
        <ele>400</ele>
        <time>2011-03-05T18:52:42Z</time>
      </trkpt>
      <trkpt lat="44.05164" lon="1.74674">
        <ele>400</ele>
        <time>2011-03-05T18:52:44Z</time>
      </trkpt>
      <trkpt lat="44.05169" lon="1.7466">
        <ele>400</ele>
        <time>2011-03-05T18:52:47Z</time>
      </trkpt>
      <trkpt lat="44.05175" lon="1.74645">
        <ele>400</ele>
        <time>2011-03-05T18:52:50Z</time>
      </trkpt>
      <trkpt lat="44.05188" lon="1.74625">
        <ele>401</ele>
        <time>2011-03-05T18:52:55Z</time>
      </trkpt>
      <trkpt lat="44.05206" lon="1.74604">
        <ele>402</ele>
        <time>2011-03-05T18:53:01Z</time>
      </trkpt>
      <trkpt lat="44.05222" lon="1.74589">
        <ele>404</ele>
        <time>2011-03-05T18:53:06Z</time>
      </trkpt>
      <trkpt lat="44.05231" lon="1.74583">
        <ele>404</ele>
        <time>2011-03-05T18:53:09Z</time>
      </trkpt>
      <trkpt lat="44.05237" lon="1.74577">
        <ele>405</ele>
        <time>2011-03-05T18:53:11Z</time>
      </trkpt>
      <trkpt lat="44.05244" lon="1.74573">
        <ele>405</ele>
        <time>2011-03-05T18:53:13Z</time>
      </trkpt>
      <trkpt lat="44.05272" lon="1.74557">
        <ele>406</ele>
        <time>2011-03-05T18:53:21Z</time>
      </trkpt>
      <trkpt lat="44.05287" lon="1.74546">
        <ele>407</ele>
        <time>2011-03-05T18:53:26Z</time>
      </trkpt>
      <trkpt lat="44.05302" lon="1.74534">
        <ele>407</ele>
        <time>2011-03-05T18:53:31Z</time>
      </trkpt>
      <trkpt lat="44.05307" lon="1.74528">
        <ele>408</ele>
        <time>2011-03-05T18:53:33Z</time>
      </trkpt>
      <trkpt lat="44.05318" lon="1.74513">
        <ele>409</ele>
        <time>2011-03-05T18:53:38Z</time>
      </trkpt>
      <trkpt lat="44.05324" lon="1.74507">
        <ele>410</ele>
        <time>2011-03-05T18:53:40Z</time>
      </trkpt>
      <trkpt lat="44.05336" lon="1.74492">
        <ele>411</ele>
        <time>2011-03-05T18:53:45Z</time>
      </trkpt>
      <trkpt lat="44.05342" lon="1.74486">
        <ele>412</ele>
        <time>2011-03-05T18:53:47Z</time>
      </trkpt>
      <trkpt lat="44.05351" lon="1.7448">
        <ele>413</ele>
        <time>2011-03-05T18:53:50Z</time>
      </trkpt>
      <trkpt lat="44.05379" lon="1.74457">
        <ele>414</ele>
        <time>2011-03-05T18:54:00Z</time>
      </trkpt>
      <trkpt lat="44.05411" lon="1.74422">
        <ele>420</ele>
        <time>2011-03-05T18:54:13Z</time>
      </trkpt>
      <trkpt lat="44.05419" lon="1.74415">
        <ele>422</ele>
        <time>2011-03-05T18:54:16Z</time>
      </trkpt>
      <trkpt lat="44.05431" lon="1.74402">
        <ele>423</ele>
        <time>2011-03-05T18:54:21Z</time>
      </trkpt>
      <trkpt lat="44.05439" lon="1.74396">
        <ele>423</ele>
        <time>2011-03-05T18:54:24Z</time>
      </trkpt>
      <trkpt lat="44.05449" lon="1.74386">
        <ele>423</ele>
        <time>2011-03-05T18:54:28Z</time>
      </trkpt>
      <trkpt lat="44.05462" lon="1.74375">
        <ele>424</ele>
        <time>2011-03-05T18:54:33Z</time>
      </trkpt>
      <trkpt lat="44.05464" lon="1.74374">
        <ele>424</ele>
        <time>2011-03-05T18:54:34Z</time>
      </trkpt>
      <trkpt lat="44.05467" lon="1.74374">
        <ele>424</ele>
        <time>2011-03-05T18:54:35Z</time>
      </trkpt>
      <trkpt lat="44.05469" lon="1.74375">
        <ele>424</ele>
        <time>2011-03-05T18:54:36Z</time>
      </trkpt>
      <trkpt lat="44.05471" lon="1.74377">
        <ele>424</ele>
        <time>2011-03-05T18:54:37Z</time>
      </trkpt>
      <trkpt lat="44.05473" lon="1.74382">
        <ele>424</ele>
        <time>2011-03-05T18:54:39Z</time>
      </trkpt>
      <trkpt lat="44.05475" lon="1.74392">
        <ele>425</ele>
        <time>2011-03-05T18:54:42Z</time>
      </trkpt>
      <trkpt lat="44.05475" lon="1.74412">
        <ele>427</ele>
        <time>2011-03-05T18:54:48Z</time>
      </trkpt>
      <trkpt lat="44.05473" lon="1.74425">
        <ele>427</ele>
        <time>2011-03-05T18:54:52Z</time>
      </trkpt>
      <trkpt lat="44.05473" lon="1.74429">
        <ele>427</ele>
        <time>2011-03-05T18:54:54Z</time>
      </trkpt>
      <trkpt lat="44.05469" lon="1.74442">
        <ele>427</ele>
        <time>2011-03-05T18:54:58Z</time>
      </trkpt>
      <trkpt lat="44.05466" lon="1.7447">
        <ele>427</ele>
        <time>2011-03-05T18:55:06Z</time>
      </trkpt>
      <trkpt lat="44.05464" lon="1.74476">
        <ele>427</ele>
        <time>2011-03-05T18:55:08Z</time>
      </trkpt>
      <trkpt lat="44.05458" lon="1.74497">
        <ele>429</ele>
        <time>2011-03-05T18:55:16Z</time>
      </trkpt>
      <trkpt lat="44.05455" lon="1.74505">
        <ele>429</ele>
        <time>2011-03-05T18:55:19Z</time>
      </trkpt>
      <trkpt lat="44.05452" lon="1.74513">
        <ele>430</ele>
        <time>2011-03-05T18:55:22Z</time>
      </trkpt>
      <trkpt lat="44.05447" lon="1.74523">
        <ele>430</ele>
        <time>2011-03-05T18:55:26Z</time>
      </trkpt>
      <trkpt lat="44.05444" lon="1.74536">
        <ele>432</ele>
        <time>2011-03-05T18:55:31Z</time>
      </trkpt>
      <trkpt lat="44.05436" lon="1.74546">
        <ele>434</ele>
        <time>2011-03-05T18:55:36Z</time>
      </trkpt>
      <trkpt lat="44.0543" lon="1.74547">
        <ele>434</ele>
        <time>2011-03-05T18:55:39Z</time>
      </trkpt>
      <trkpt lat="44.05427" lon="1.74545">
        <ele>434</ele>
        <time>2011-03-05T18:55:41Z</time>
      </trkpt>
      <trkpt lat="44.05425" lon="1.74541">
        <ele>435</ele>
        <time>2011-03-05T18:55:43Z</time>
      </trkpt>
      <trkpt lat="44.05423" lon="1.7454">
        <ele>435</ele>
        <time>2011-03-05T18:55:44Z</time>
      </trkpt>
      <trkpt lat="44.05421" lon="1.74539">
        <ele>436</ele>
        <time>2011-03-05T18:55:46Z</time>
      </trkpt>
      <trkpt lat="44.05421" lon="1.74541">
        <ele>436</ele>
        <time>2011-03-05T18:55:50Z</time>
      </trkpt>
      <trkpt lat="44.05419" lon="1.74541">
        <ele>436</ele>
        <time>2011-03-05T18:55:51Z</time>
      </trkpt>
      <trkpt lat="44.0542" lon="1.74543">
        <ele>436</ele>
        <time>2011-03-05T18:55:54Z</time>
      </trkpt>
      <trkpt lat="44.05417" lon="1.74545">
        <ele>436</ele>
        <time>2011-03-05T18:55:59Z</time>
      </trkpt>
      <trkpt lat="44.05414" lon="1.74546">
        <ele>436</ele>
        <time>2011-03-05T18:56:01Z</time>
      </trkpt>
      <trkpt lat="44.05402" lon="1.74551">
        <ele>436</ele>
        <time>2011-03-05T18:56:07Z</time>
      </trkpt>
      <trkpt lat="44.05392" lon="1.7456">
        <ele>438</ele>
        <time>2011-03-05T18:56:12Z</time>
      </trkpt>
      <trkpt lat="44.05373" lon="1.74586">
        <ele>440</ele>
        <time>2011-03-05T18:56:25Z</time>
      </trkpt>
      <trkpt lat="44.05368" lon="1.74589">
        <ele>440</ele>
        <time>2011-03-05T18:56:28Z</time>
      </trkpt>
      <trkpt lat="44.05364" lon="1.74588">
        <ele>440</ele>
        <time>2011-03-05T18:56:30Z</time>
      </trkpt>
      <trkpt lat="44.05353" lon="1.74582">
        <ele>440</ele>
        <time>2011-03-05T18:56:36Z</time>
      </trkpt>
      <trkpt lat="44.05345" lon="1.74581">
        <ele>440</ele>
        <time>2011-03-05T18:56:39Z</time>
      </trkpt>
      <trkpt lat="44.05342" lon="1.74583">
        <ele>441</ele>
        <time>2011-03-05T18:56:41Z</time>
      </trkpt>
      <trkpt lat="44.05338" lon="1.74589">
        <ele>442</ele>
        <time>2011-03-05T18:56:44Z</time>
      </trkpt>
      <trkpt lat="44.05333" lon="1.74601">
        <ele>442</ele>
        <time>2011-03-05T18:56:49Z</time>
      </trkpt>
      <trkpt lat="44.05333" lon="1.74607">
        <ele>442</ele>
        <time>2011-03-05T18:56:51Z</time>
      </trkpt>
      <trkpt lat="44.05331" lon="1.74612">
        <ele>442</ele>
        <time>2011-03-05T18:56:54Z</time>
      </trkpt>
      <trkpt lat="44.05326" lon="1.7462">
        <ele>442</ele>
        <time>2011-03-05T18:56:58Z</time>
      </trkpt>
      <trkpt lat="44.05322" lon="1.74634">
        <ele>442</ele>
        <time>2011-03-05T18:57:05Z</time>
      </trkpt>
    </trkseg>
  </trk>
</gpx>